﻿<?xml version="1.0" encoding="utf-8"?><gpx creator="Garmin Desktop App" version="1.1" xsi:schemaLocation="http://www.topografix.com/GPX/1/1 http://www.topografix.com/GPX/1/1/gpx.xsd http://www.garmin.com/xmlschemas/WaypointExtension/v1 http://www8.garmin.com/xmlschemas/WaypointExtensionv1.xsd http://www.garmin.com/xmlschemas/TrackPointExtension/v1 http://www.garmin.com/xmlschemas/TrackPointExtensionv1.xsd http://www.garmin.com/xmlschemas/GpxExtensions/v3 http://www8.garmin.com/xmlschemas/GpxExtensionsv3.xsd http://www.garmin.com/xmlschemas/ActivityExtension/v1 http://www8.garmin.com/xmlschemas/ActivityExtensionv1.xsd http://www.garmin.com/xmlschemas/AdventuresExtensions/v1 http://www8.garmin.com/xmlschemas/AdventuresExtensionv1.xsd http://www.garmin.com/xmlschemas/PressureExtension/v1 http://www.garmin.com/xmlschemas/PressureExtensionv1.xsd http://www.garmin.com/xmlschemas/TripExtensions/v1 http://www.garmin.com/xmlschemas/TripExtensionsv1.xsd http://www.garmin.com/xmlschemas/TripMetaDataExtensions/v1 http://www.garmin.com/xmlschemas/TripMetaDataExtensionsv1.xsd http://www.garmin.com/xmlschemas/ViaPointTransportationModeExtensions/v1 http://www.garmin.com/xmlschemas/ViaPointTransportationModeExtensionsv1.xsd http://www.garmin.com/xmlschemas/CreationTimeExtension/v1 http://www.garmin.com/xmlschemas/CreationTimeExtensionsv1.xsd http://www.garmin.com/xmlschemas/AccelerationExtension/v1 http://www.garmin.com/xmlschemas/AccelerationExtensionv1.xsd http://www.garmin.com/xmlschemas/PowerExtension/v1 http://www.garmin.com/xmlschemas/PowerExtensionv1.xsd http://www.garmin.com/xmlschemas/VideoExtension/v1 http://www.garmin.com/xmlschemas/VideoExtensionv1.xsd" xmlns="http://www.topografix.com/GPX/1/1" xmlns:xsi="http://www.w3.org/2001/XMLSchema-instance" xmlns:wptx1="http://www.garmin.com/xmlschemas/WaypointExtension/v1" xmlns:gpxtrx="http://www.garmin.com/xmlschemas/GpxExtensions/v3" xmlns:gpxtpx="http://www.garmin.com/xmlschemas/TrackPointExtension/v1" xmlns:gpxx="http://www.garmin.com/xmlschemas/GpxExtensions/v3" xmlns:trp="http://www.garmin.com/xmlschemas/TripExtensions/v1" xmlns:adv="http://www.garmin.com/xmlschemas/AdventuresExtensions/v1" xmlns:prs="http://www.garmin.com/xmlschemas/PressureExtension/v1" xmlns:tmd="http://www.garmin.com/xmlschemas/TripMetaDataExtensions/v1" xmlns:vptm="http://www.garmin.com/xmlschemas/ViaPointTransportationModeExtensions/v1" xmlns:ctx="http://www.garmin.com/xmlschemas/CreationTimeExtension/v1" xmlns:gpxacc="http://www.garmin.com/xmlschemas/AccelerationExtension/v1" xmlns:gpxpx="http://www.garmin.com/xmlschemas/PowerExtension/v1" xmlns:vidx1="http://www.garmin.com/xmlschemas/VideoExtension/v1">

  <metadata>
    <link href="http://www.garmin.com">
      <text>Garmin International</text>
    </link>
    <time>2021-06-07T15:24:45Z</time>
    <bounds maxlat="45.684375269338489" maxlon="7.619989849627018" minlat="45.647234218195081" minlon="7.577566020190716" />
  </metadata>

  <trk>
    <name>Rifugio Barbustel da La Veulla escursione del 06-06-2021</name>
    <extensions>
      <gpxx:TrackExtension>
        <gpxx:DisplayColor>Cyan</gpxx:DisplayColor>
      </gpxx:TrackExtension>
      <gpxtrkx:TrackStatsExtension xmlns:gpxtrkx="http://www.garmin.com/xmlschemas/TrackStatsExtension/v1">
        <gpxtrkx:Distance>20188</gpxtrkx:Distance>
        <gpxtrkx:TimerTime>32461</gpxtrkx:TimerTime>
        <gpxtrkx:TotalElapsedTime>32471</gpxtrkx:TotalElapsedTime>
        <gpxtrkx:MovingSpeed>0.905</gpxtrkx:MovingSpeed>
        <gpxtrkx:MaxElevation>2188.2</gpxtrkx:MaxElevation>
        <gpxtrkx:MinElevation>1194.6</gpxtrkx:MinElevation>
        <gpxtrkx:Ascent>1174</gpxtrkx:Ascent>
        <gpxtrkx:Descent>1156</gpxtrkx:Descent>
        <gpxtrkx:Calories>962</gpxtrkx:Calories>
      </gpxtrkx:TrackStatsExtension>
    </extensions>
    <trkseg>
      <trkpt lat="45.684351045638323" lon="7.614858532324433">
        <ele>1247.45</ele>
        <time>2021-06-06T06:23:57Z</time>
      </trkpt>
      <trkpt lat="45.684351045638323" lon="7.614857358857989">
        <ele>1247.45</ele>
        <time>2021-06-06T06:23:58Z</time>
      </trkpt>
      <trkpt lat="45.684354230761528" lon="7.614853335544467">
        <ele>1248.8900000000001</ele>
        <time>2021-06-06T06:24:03Z</time>
      </trkpt>
      <trkpt lat="45.684359595179558" lon="7.614877643063664">
        <ele>1247.9300000000001</ele>
        <time>2021-06-06T06:24:35Z</time>
      </trkpt>
      <trkpt lat="45.68436554633081" lon="7.614847971126437">
        <ele>1248.4100000000001</ele>
        <time>2021-06-06T06:25:08Z</time>
      </trkpt>
      <trkpt lat="45.68435238674283" lon="7.61488426476717">
        <ele>1249.3699999999999</ele>
        <time>2021-06-06T06:25:23Z</time>
      </trkpt>
      <trkpt lat="45.684375269338489" lon="7.614876888692379">
        <ele>1248.4100000000001</ele>
        <time>2021-06-06T06:25:47Z</time>
      </trkpt>
      <trkpt lat="45.684353057295084" lon="7.614865740761161">
        <ele>1247.9300000000001</ele>
        <time>2021-06-06T06:26:05Z</time>
      </trkpt>
      <trkpt lat="45.68432891741395" lon="7.614800361916423">
        <ele>1247.9300000000001</ele>
        <time>2021-06-06T06:26:21Z</time>
      </trkpt>
      <trkpt lat="45.684331431984901" lon="7.614751495420933">
        <ele>1247.9300000000001</ele>
        <time>2021-06-06T06:26:37Z</time>
      </trkpt>
      <trkpt lat="45.684309722855687" lon="7.614704137668014">
        <ele>1247.9300000000001</ele>
        <time>2021-06-06T06:26:54Z</time>
      </trkpt>
      <trkpt lat="45.684283738955855" lon="7.61466876603663">
        <ele>1247.9300000000001</ele>
        <time>2021-06-06T06:27:08Z</time>
      </trkpt>
      <trkpt lat="45.68427418358624" lon="7.614636747166514">
        <ele>1247.9300000000001</ele>
        <time>2021-06-06T06:27:25Z</time>
      </trkpt>
      <trkpt lat="45.684304442256689" lon="7.614660216495395">
        <ele>1247.9300000000001</ele>
        <time>2021-06-06T06:27:40Z</time>
      </trkpt>
      <trkpt lat="45.684293797239661" lon="7.614659294486046">
        <ele>1247.9300000000001</ele>
        <time>2021-06-06T06:27:58Z</time>
      </trkpt>
      <trkpt lat="45.684288684278727" lon="7.614654349163175">
        <ele>1247.9300000000001</ele>
        <time>2021-06-06T06:28:18Z</time>
      </trkpt>
      <trkpt lat="45.684247277677059" lon="7.614602465182543">
        <ele>1247.9300000000001</ele>
        <time>2021-06-06T06:28:29Z</time>
      </trkpt>
      <trkpt lat="45.684267394244671" lon="7.614582516252995">
        <ele>1247.9300000000001</ele>
        <time>2021-06-06T06:28:40Z</time>
      </trkpt>
      <trkpt lat="45.684217689558864" lon="7.614516131579876">
        <ele>1247.9300000000001</ele>
        <time>2021-06-06T06:28:56Z</time>
      </trkpt>
      <trkpt lat="45.684177372604609" lon="7.61444496922195">
        <ele>1249.3699999999999</ele>
        <time>2021-06-06T06:29:04Z</time>
      </trkpt>
      <trkpt lat="45.684137474745512" lon="7.614372633397579">
        <ele>1249.8499999999999</ele>
        <time>2021-06-06T06:29:14Z</time>
      </trkpt>
      <trkpt lat="45.683993473649025" lon="7.614179933443666">
        <ele>1251.29</ele>
        <time>2021-06-06T06:29:36Z</time>
      </trkpt>
      <trkpt lat="45.683921137824655" lon="7.614255538210273">
        <ele>1250.3299999999999</ele>
        <time>2021-06-06T06:29:47Z</time>
      </trkpt>
      <trkpt lat="45.683915354311466" lon="7.61426517739892">
        <ele>1250.3299999999999</ele>
        <time>2021-06-06T06:29:48Z</time>
      </trkpt>
      <trkpt lat="45.68382709287107" lon="7.614429295063019">
        <ele>1246.97</ele>
        <time>2021-06-06T06:30:04Z</time>
      </trkpt>
      <trkpt lat="45.683774119243026" lon="7.61457497254014">
        <ele>1244.0799999999999</ele>
        <time>2021-06-06T06:30:21Z</time>
      </trkpt>
      <trkpt lat="45.683748722076416" lon="7.614652924239636">
        <ele>1242.1600000000001</ele>
        <time>2021-06-06T06:30:33Z</time>
      </trkpt>
      <trkpt lat="45.683743022382259" lon="7.614664994180203">
        <ele>1242.1600000000001</ele>
        <time>2021-06-06T06:30:34Z</time>
      </trkpt>
      <trkpt lat="45.68373765796423" lon="7.614678237587214">
        <ele>1242.1600000000001</ele>
        <time>2021-06-06T06:30:35Z</time>
      </trkpt>
      <trkpt lat="45.683732545003295" lon="7.614691564813256">
        <ele>1242.1600000000001</ele>
        <time>2021-06-06T06:30:36Z</time>
      </trkpt>
      <trkpt lat="45.683727767318487" lon="7.614706484600902">
        <ele>1242.1600000000001</ele>
        <time>2021-06-06T06:30:37Z</time>
      </trkpt>
      <trkpt lat="45.683722067624331" lon="7.614720230922103">
        <ele>1242.1600000000001</ele>
        <time>2021-06-06T06:30:38Z</time>
      </trkpt>
      <trkpt lat="45.683583766222" lon="7.614932376891375">
        <ele>1238.8</ele>
        <time>2021-06-06T06:30:56Z</time>
      </trkpt>
      <trkpt lat="45.683426773175597" lon="7.61512465775013">
        <ele>1235.9100000000001</ele>
        <time>2021-06-06T06:31:14Z</time>
      </trkpt>
      <trkpt lat="45.683368686586618" lon="7.615268658846617">
        <ele>1233.51</ele>
        <time>2021-06-06T06:31:26Z</time>
      </trkpt>
      <trkpt lat="45.683368938043714" lon="7.615283243358135">
        <ele>1233.51</ele>
        <time>2021-06-06T06:31:27Z</time>
      </trkpt>
      <trkpt lat="45.683355946093798" lon="7.615535790100694">
        <ele>1230.1400000000001</ele>
        <time>2021-06-06T06:31:44Z</time>
      </trkpt>
      <trkpt lat="45.683254525065422" lon="7.615760089829564">
        <ele>1226.78</ele>
        <time>2021-06-06T06:32:02Z</time>
      </trkpt>
      <trkpt lat="45.68314254283905" lon="7.615939797833562">
        <ele>1224.3800000000001</ele>
        <time>2021-06-06T06:32:17Z</time>
      </trkpt>
      <trkpt lat="45.683037936687469" lon="7.616105927154422">
        <ele>1221.01</ele>
        <time>2021-06-06T06:32:31Z</time>
      </trkpt>
      <trkpt lat="45.682912291958928" lon="7.616304997354746">
        <ele>1218.1300000000001</ele>
        <time>2021-06-06T06:32:46Z</time>
      </trkpt>
      <trkpt lat="45.682806679978967" lon="7.61651923879981">
        <ele>1214.76</ele>
        <time>2021-06-06T06:33:02Z</time>
      </trkpt>
      <trkpt lat="45.682728141546249" lon="7.616743287071586">
        <ele>1211.8800000000001</ele>
        <time>2021-06-06T06:33:17Z</time>
      </trkpt>
      <trkpt lat="45.682716742157936" lon="7.616749489679933">
        <ele>1211.4000000000001</ele>
        <time>2021-06-06T06:33:18Z</time>
      </trkpt>
      <trkpt lat="45.682704756036401" lon="7.616750076413155">
        <ele>1211.4000000000001</ele>
        <time>2021-06-06T06:33:19Z</time>
      </trkpt>
      <trkpt lat="45.682694278657436" lon="7.616744376718998">
        <ele>1211.4000000000001</ele>
        <time>2021-06-06T06:33:20Z</time>
      </trkpt>
      <trkpt lat="45.682685729116201" lon="7.61673423461616">
        <ele>1210.9200000000001</ele>
        <time>2021-06-06T06:33:21Z</time>
      </trkpt>
      <trkpt lat="45.68267977796495" lon="7.616721326485276">
        <ele>1210.9200000000001</ele>
        <time>2021-06-06T06:33:22Z</time>
      </trkpt>
      <trkpt lat="45.682621775195003" lon="7.616474060341716">
        <ele>1210.4400000000001</ele>
        <time>2021-06-06T06:33:37Z</time>
      </trkpt>
      <trkpt lat="45.682615991681814" lon="7.616461822763085">
        <ele>1210.4400000000001</ele>
        <time>2021-06-06T06:33:38Z</time>
      </trkpt>
      <trkpt lat="45.682608280330896" lon="7.616450842469931">
        <ele>1210.4400000000001</ele>
        <time>2021-06-06T06:33:39Z</time>
      </trkpt>
      <trkpt lat="45.682600066065788" lon="7.616439191624522">
        <ele>1210.4400000000001</ele>
        <time>2021-06-06T06:33:40Z</time>
      </trkpt>
      <trkpt lat="45.68259235471487" lon="7.616425696760416">
        <ele>1210.9200000000001</ele>
        <time>2021-06-06T06:33:41Z</time>
      </trkpt>
      <trkpt lat="45.682479785755277" lon="7.616313379257917">
        <ele>1211.4000000000001</ele>
        <time>2021-06-06T06:33:52Z</time>
      </trkpt>
      <trkpt lat="45.682468470185995" lon="7.616307344287634">
        <ele>1211.4000000000001</ele>
        <time>2021-06-06T06:33:53Z</time>
      </trkpt>
      <trkpt lat="45.682456819340587" lon="7.616302482783794">
        <ele>1211.4000000000001</ele>
        <time>2021-06-06T06:33:54Z</time>
      </trkpt>
      <trkpt lat="45.682445168495178" lon="7.616296028718352">
        <ele>1211.4000000000001</ele>
        <time>2021-06-06T06:33:55Z</time>
      </trkpt>
      <trkpt lat="45.682433350011706" lon="7.616287898272276">
        <ele>1211.4000000000001</ele>
        <time>2021-06-06T06:33:56Z</time>
      </trkpt>
      <trkpt lat="45.682421447709203" lon="7.616278845816851">
        <ele>1211.4000000000001</ele>
        <time>2021-06-06T06:33:57Z</time>
      </trkpt>
      <trkpt lat="45.68219949491322" lon="7.616037530824542">
        <ele>1211.4000000000001</ele>
        <time>2021-06-06T06:34:19Z</time>
      </trkpt>
      <trkpt lat="45.682085752487183" lon="7.615722119808197">
        <ele>1210.4400000000001</ele>
        <time>2021-06-06T06:34:40Z</time>
      </trkpt>
      <trkpt lat="45.681984666734934" lon="7.615472171455622">
        <ele>1209</ele>
        <time>2021-06-06T06:35:00Z</time>
      </trkpt>
      <trkpt lat="45.681923143565655" lon="7.615278549492359">
        <ele>1207.0699999999999</ele>
        <time>2021-06-06T06:35:24Z</time>
      </trkpt>
      <trkpt lat="45.681915348395705" lon="7.615174697712064">
        <ele>1206.5899999999999</ele>
        <time>2021-06-06T06:35:50Z</time>
      </trkpt>
      <trkpt lat="45.681944768875837" lon="7.614915193989873">
        <ele>1205.6300000000001</ele>
        <time>2021-06-06T06:36:12Z</time>
      </trkpt>
      <trkpt lat="45.681946193799376" lon="7.614650493487716">
        <ele>1202.75</ele>
        <time>2021-06-06T06:36:31Z</time>
      </trkpt>
      <trkpt lat="45.681938817724586" lon="7.614531638100743">
        <ele>1201.3</ele>
        <time>2021-06-06T06:36:40Z</time>
      </trkpt>
      <trkpt lat="45.681869499385357" lon="7.614481681957841">
        <ele>1199.8599999999999</ele>
        <time>2021-06-06T06:36:49Z</time>
      </trkpt>
      <trkpt lat="45.681811328977346" lon="7.614479251205921">
        <ele>1198.9000000000001</ele>
        <time>2021-06-06T06:36:55Z</time>
      </trkpt>
      <trkpt lat="45.681667998433113" lon="7.614441616460681">
        <ele>1196.98</ele>
        <time>2021-06-06T06:37:08Z</time>
      </trkpt>
      <trkpt lat="45.681658778339624" lon="7.614429546520114">
        <ele>1196.98</ele>
        <time>2021-06-06T06:37:09Z</time>
      </trkpt>
      <trkpt lat="45.681651150807738" lon="7.614414878189564">
        <ele>1196.98</ele>
        <time>2021-06-06T06:37:10Z</time>
      </trkpt>
      <trkpt lat="45.681641679257154" lon="7.614344386383891">
        <ele>1196.5</ele>
        <time>2021-06-06T06:37:15Z</time>
      </trkpt>
      <trkpt lat="45.681643690913916" lon="7.614328460767865">
        <ele>1196.5</ele>
        <time>2021-06-06T06:37:16Z</time>
      </trkpt>
      <trkpt lat="45.681638661772013" lon="7.614209018647671">
        <ele>1196.02</ele>
        <time>2021-06-06T06:37:22Z</time>
      </trkpt>
      <trkpt lat="45.681638745591044" lon="7.614191249012947">
        <ele>1195.54</ele>
        <time>2021-06-06T06:37:23Z</time>
      </trkpt>
      <trkpt lat="45.681637320667505" lon="7.61417624540627">
        <ele>1195.54</ele>
        <time>2021-06-06T06:37:24Z</time>
      </trkpt>
      <trkpt lat="45.681609157472849" lon="7.613966865465045">
        <ele>1195.0599999999999</ele>
        <time>2021-06-06T06:37:38Z</time>
      </trkpt>
      <trkpt lat="45.681549478322268" lon="7.61358498595655">
        <ele>1195.0599999999999</ele>
        <time>2021-06-06T06:38:00Z</time>
      </trkpt>
      <trkpt lat="45.681543527171016" lon="7.613459592685103">
        <ele>1195.54</ele>
        <time>2021-06-06T06:38:07Z</time>
      </trkpt>
      <trkpt lat="45.681586358696222" lon="7.61325323022902">
        <ele>1196.98</ele>
        <time>2021-06-06T06:38:20Z</time>
      </trkpt>
      <trkpt lat="45.681592980399728" lon="7.613067151978612">
        <ele>1198.4200000000001</ele>
        <time>2021-06-06T06:38:33Z</time>
      </trkpt>
      <trkpt lat="45.681587364524603" lon="7.612994145601988">
        <ele>1198.9000000000001</ele>
        <time>2021-06-06T06:38:38Z</time>
      </trkpt>
      <trkpt lat="45.681588873267174" lon="7.612744867801666">
        <ele>1200.3399999999999</ele>
        <time>2021-06-06T06:38:54Z</time>
      </trkpt>
      <trkpt lat="45.681600021198392" lon="7.61259893886745">
        <ele>1201.3</ele>
        <time>2021-06-06T06:39:05Z</time>
      </trkpt>
      <trkpt lat="45.681595578789711" lon="7.612577397376299">
        <ele>1201.3</ele>
        <time>2021-06-06T06:39:06Z</time>
      </trkpt>
      <trkpt lat="45.681589795276523" lon="7.612551916390657">
        <ele>1201.3</ele>
        <time>2021-06-06T06:39:07Z</time>
      </trkpt>
      <trkpt lat="45.681526428088546" lon="7.612319570034742">
        <ele>1201.79</ele>
        <time>2021-06-06T06:39:20Z</time>
      </trkpt>
      <trkpt lat="45.681391982361674" lon="7.612160816788673">
        <ele>1201.79</ele>
        <time>2021-06-06T06:39:36Z</time>
      </trkpt>
      <trkpt lat="45.681154942139983" lon="7.612064927816391">
        <ele>1201.79</ele>
        <time>2021-06-06T06:39:57Z</time>
      </trkpt>
      <trkpt lat="45.680994093418121" lon="7.611990999430418">
        <ele>1201.3</ele>
        <time>2021-06-06T06:40:13Z</time>
      </trkpt>
      <trkpt lat="45.680957799777389" lon="7.61196912266314">
        <ele>1201.3</ele>
        <time>2021-06-06T06:40:17Z</time>
      </trkpt>
      <trkpt lat="45.680811451748013" lon="7.611917573958635">
        <ele>1201.3</ele>
        <time>2021-06-06T06:40:29Z</time>
      </trkpt>
      <trkpt lat="45.680776499211788" lon="7.611897625029087">
        <ele>1201.3</ele>
        <time>2021-06-06T06:40:33Z</time>
      </trkpt>
      <trkpt lat="45.680740959942341" lon="7.611877592280507">
        <ele>1201.79</ele>
        <time>2021-06-06T06:40:37Z</time>
      </trkpt>
      <trkpt lat="45.680714976042509" lon="7.611868120729923">
        <ele>1201.79</ele>
        <time>2021-06-06T06:40:39Z</time>
      </trkpt>
      <trkpt lat="45.680546751245856" lon="7.611783128231764">
        <ele>1202.27</ele>
        <time>2021-06-06T06:40:55Z</time>
      </trkpt>
      <trkpt lat="45.680402079597116" lon="7.611782373860478">
        <ele>1203.71</ele>
        <time>2021-06-06T06:41:09Z</time>
      </trkpt>
      <trkpt lat="45.680394871160388" lon="7.61178195476532">
        <ele>1203.71</ele>
        <time>2021-06-06T06:41:10Z</time>
      </trkpt>
      <trkpt lat="45.680369976907969" lon="7.611774327233434">
        <ele>1204.1900000000001</ele>
        <time>2021-06-06T06:41:12Z</time>
      </trkpt>
      <trkpt lat="45.680355140939355" lon="7.611767956987023">
        <ele>1204.1900000000001</ele>
        <time>2021-06-06T06:41:13Z</time>
      </trkpt>
      <trkpt lat="45.68030409514904" lon="7.611750857904553">
        <ele>1204.6700000000001</ele>
        <time>2021-06-06T06:41:18Z</time>
      </trkpt>
      <trkpt lat="45.680281380191445" lon="7.611746247857809">
        <ele>1205.1500000000001</ele>
        <time>2021-06-06T06:41:20Z</time>
      </trkpt>
      <trkpt lat="45.680247349664569" lon="7.611714983358979">
        <ele>1205.6300000000001</ele>
        <time>2021-06-06T06:41:24Z</time>
      </trkpt>
      <trkpt lat="45.680239219218493" lon="7.611704086884856">
        <ele>1205.6300000000001</ele>
        <time>2021-06-06T06:41:25Z</time>
      </trkpt>
      <trkpt lat="45.680224550887942" lon="7.611685562878847">
        <ele>1206.1099999999999</ele>
        <time>2021-06-06T06:41:27Z</time>
      </trkpt>
      <trkpt lat="45.68013989366591" lon="7.611542819067836">
        <ele>1208.03</ele>
        <time>2021-06-06T06:41:41Z</time>
      </trkpt>
      <trkpt lat="45.680111646652222" lon="7.611461346969008">
        <ele>1209</ele>
        <time>2021-06-06T06:41:47Z</time>
      </trkpt>
      <trkpt lat="45.680096978321671" lon="7.611307622864842">
        <ele>1210.9200000000001</ele>
        <time>2021-06-06T06:41:59Z</time>
      </trkpt>
      <trkpt lat="45.680075772106647" lon="7.611140822991729">
        <ele>1212.3599999999999</ele>
        <time>2021-06-06T06:42:11Z</time>
      </trkpt>
      <trkpt lat="45.680075688287616" lon="7.611036216840148">
        <ele>1213.8</ele>
        <time>2021-06-06T06:42:19Z</time>
      </trkpt>
      <trkpt lat="45.680063618347049" lon="7.610891461372376">
        <ele>1215.24</ele>
        <time>2021-06-06T06:42:30Z</time>
      </trkpt>
      <trkpt lat="45.68008566275239" lon="7.610834464430809">
        <ele>1215.72</ele>
        <time>2021-06-06T06:42:34Z</time>
      </trkpt>
      <trkpt lat="45.680059678852558" lon="7.610668251290917">
        <ele>1217.1700000000001</ele>
        <time>2021-06-06T06:42:46Z</time>
      </trkpt>
      <trkpt lat="45.680059427395463" lon="7.610595244914293">
        <ele>1218.1300000000001</ele>
        <time>2021-06-06T06:42:52Z</time>
      </trkpt>
      <trkpt lat="45.680061941966414" lon="7.610581330955029">
        <ele>1218.1300000000001</ele>
        <time>2021-06-06T06:42:53Z</time>
      </trkpt>
      <trkpt lat="45.680064540356398" lon="7.610492147505283">
        <ele>1219.0899999999999</ele>
        <time>2021-06-06T06:43:00Z</time>
      </trkpt>
      <trkpt lat="45.68006319925189" lon="7.610477730631828">
        <ele>1219.0899999999999</ele>
        <time>2021-06-06T06:43:01Z</time>
      </trkpt>
      <trkpt lat="45.680070742964745" lon="7.610426349565387">
        <ele>1219.5699999999999</ele>
        <time>2021-06-06T06:43:05Z</time>
      </trkpt>
      <trkpt lat="45.680076526477933" lon="7.610416123643518">
        <ele>1220.05</ele>
        <time>2021-06-06T06:43:06Z</time>
      </trkpt>
      <trkpt lat="45.680087255313993" lon="7.610300118103623">
        <ele>1221.01</ele>
        <time>2021-06-06T06:43:15Z</time>
      </trkpt>
      <trkpt lat="45.680065881460905" lon="7.610177742317319">
        <ele>1221.97</ele>
        <time>2021-06-06T06:43:23Z</time>
      </trkpt>
      <trkpt lat="45.680036963894963" lon="7.610017145052552">
        <ele>1223.4200000000001</ele>
        <time>2021-06-06T06:43:34Z</time>
      </trkpt>
      <trkpt lat="45.680018691346049" lon="7.609842382371426">
        <ele>1224.8599999999999</ele>
        <time>2021-06-06T06:43:47Z</time>
      </trkpt>
      <trkpt lat="45.679974853992462" lon="7.609671223908663">
        <ele>1226.3</ele>
        <time>2021-06-06T06:44:00Z</time>
      </trkpt>
      <trkpt lat="45.679978458210826" lon="7.609501741826534">
        <ele>1228.22</ele>
        <time>2021-06-06T06:44:12Z</time>
      </trkpt>
      <trkpt lat="45.679986169561744" lon="7.60943166911602">
        <ele>1228.7</ele>
        <time>2021-06-06T06:44:17Z</time>
      </trkpt>
      <trkpt lat="45.679890783503652" lon="7.609369643032551">
        <ele>1230.1400000000001</ele>
        <time>2021-06-06T06:44:30Z</time>
      </trkpt>
      <trkpt lat="45.679841917008162" lon="7.609447343274951">
        <ele>1231.5899999999999</ele>
        <time>2021-06-06T06:44:39Z</time>
      </trkpt>
      <trkpt lat="45.679780980572104" lon="7.609623530879617">
        <ele>1233.99</ele>
        <time>2021-06-06T06:44:55Z</time>
      </trkpt>
      <trkpt lat="45.679729683324695" lon="7.609832659363747">
        <ele>1236.3900000000001</ele>
        <time>2021-06-06T06:45:15Z</time>
      </trkpt>
      <trkpt lat="45.679684672504663" lon="7.610027035698295">
        <ele>1238.3199999999999</ele>
        <time>2021-06-06T06:45:32Z</time>
      </trkpt>
      <trkpt lat="45.679610325023532" lon="7.610278492793441">
        <ele>1241.2</ele>
        <time>2021-06-06T06:45:54Z</time>
      </trkpt>
      <trkpt lat="45.679601691663265" lon="7.610320569947362">
        <ele>1241.6800000000001</ele>
        <time>2021-06-06T06:45:58Z</time>
      </trkpt>
      <trkpt lat="45.679585179314017" lon="7.610396342352033">
        <ele>1242.6400000000001</ele>
        <time>2021-06-06T06:46:05Z</time>
      </trkpt>
      <trkpt lat="45.679553579539061" lon="7.610543193295598">
        <ele>1244.5599999999999</ele>
        <time>2021-06-06T06:46:18Z</time>
      </trkpt>
      <trkpt lat="45.679516363888979" lon="7.610690798610449">
        <ele>1246.49</ele>
        <time>2021-06-06T06:46:31Z</time>
      </trkpt>
      <trkpt lat="45.6795100774616" lon="7.610745532438159">
        <ele>1247.45</ele>
        <time>2021-06-06T06:46:36Z</time>
      </trkpt>
      <trkpt lat="45.679441094398499" lon="7.610937561839819">
        <ele>1249.3699999999999</ele>
        <time>2021-06-06T06:46:52Z</time>
      </trkpt>
      <trkpt lat="45.679380660876632" lon="7.611118527129293">
        <ele>1251.77</ele>
        <time>2021-06-06T06:47:09Z</time>
      </trkpt>
      <trkpt lat="45.679361969232559" lon="7.611323799937964">
        <ele>1254.1800000000001</ele>
        <time>2021-06-06T06:47:27Z</time>
      </trkpt>
      <trkpt lat="45.679368255659938" lon="7.611379539594054">
        <ele>1254.6600000000001</ele>
        <time>2021-06-06T06:47:32Z</time>
      </trkpt>
      <trkpt lat="45.679369093850255" lon="7.611390436068177">
        <ele>1254.6600000000001</ele>
        <time>2021-06-06T06:47:33Z</time>
      </trkpt>
      <trkpt lat="45.679370351135731" lon="7.611622363328934">
        <ele>1257.54</ele>
        <time>2021-06-06T06:47:52Z</time>
      </trkpt>
      <trkpt lat="45.679345540702343" lon="7.611818835139275">
        <ele>1259.46</ele>
        <time>2021-06-06T06:48:09Z</time>
      </trkpt>
      <trkpt lat="45.679301451891661" lon="7.611987562850118">
        <ele>1262.3499999999999</ele>
        <time>2021-06-06T06:48:24Z</time>
      </trkpt>
      <trkpt lat="45.679287621751428" lon="7.612043973058462">
        <ele>1263.3099999999999</ele>
        <time>2021-06-06T06:48:29Z</time>
      </trkpt>
      <trkpt lat="45.679264487698674" lon="7.61212108656764">
        <ele>1264.27</ele>
        <time>2021-06-06T06:48:36Z</time>
      </trkpt>
      <trkpt lat="45.679212519899011" lon="7.612368017435074">
        <ele>1266.6700000000001</ele>
        <time>2021-06-06T06:48:56Z</time>
      </trkpt>
      <trkpt lat="45.679170023649931" lon="7.612585444003344">
        <ele>1267.6400000000001</ele>
        <time>2021-06-06T06:49:13Z</time>
      </trkpt>
      <trkpt lat="45.679154768586159" lon="7.612846540287137">
        <ele>1267.6400000000001</ele>
        <time>2021-06-06T06:49:30Z</time>
      </trkpt>
      <trkpt lat="45.679088216274977" lon="7.61310713365674">
        <ele>1268.5999999999999</ele>
        <time>2021-06-06T06:49:49Z</time>
      </trkpt>
      <trkpt lat="45.67901998758316" lon="7.613250631839037">
        <ele>1270.04</ele>
        <time>2021-06-06T06:50:01Z</time>
      </trkpt>
      <trkpt lat="45.678984699770808" lon="7.613472081720829">
        <ele>1271.96</ele>
        <time>2021-06-06T06:50:19Z</time>
      </trkpt>
      <trkpt lat="45.678948238492012" lon="7.613705517724156">
        <ele>1273.8800000000001</ele>
        <time>2021-06-06T06:50:37Z</time>
      </trkpt>
      <trkpt lat="45.678946562111378" lon="7.613956555724144">
        <ele>1276.29</ele>
        <time>2021-06-06T06:50:56Z</time>
      </trkpt>
      <trkpt lat="45.678943293169141" lon="7.614180771633983">
        <ele>1278.21</ele>
        <time>2021-06-06T06:51:13Z</time>
      </trkpt>
      <trkpt lat="45.678913034498692" lon="7.614380680024624">
        <ele>1280.1300000000001</ele>
        <time>2021-06-06T06:51:27Z</time>
      </trkpt>
      <trkpt lat="45.678876657038927" lon="7.614601878449321">
        <ele>1282.0599999999999</ele>
        <time>2021-06-06T06:51:45Z</time>
      </trkpt>
      <trkpt lat="45.678841033950448" lon="7.614816287532449">
        <ele>1283.98</ele>
        <time>2021-06-06T06:52:01Z</time>
      </trkpt>
      <trkpt lat="45.678813457489014" lon="7.615023152902722">
        <ele>1286.3800000000001</ele>
        <time>2021-06-06T06:52:18Z</time>
      </trkpt>
      <trkpt lat="45.678780265152454" lon="7.615184839814901">
        <ele>1288.78</ele>
        <time>2021-06-06T06:52:31Z</time>
      </trkpt>
      <trkpt lat="45.678772637620568" lon="7.615247117355466">
        <ele>1289.27</ele>
        <time>2021-06-06T06:52:36Z</time>
      </trkpt>
      <trkpt lat="45.678719580173492" lon="7.615444259718061">
        <ele>1291.6700000000001</ele>
        <time>2021-06-06T06:52:52Z</time>
      </trkpt>
      <trkpt lat="45.678648333996534" lon="7.615565629675984">
        <ele>1292.6300000000001</ele>
        <time>2021-06-06T06:53:02Z</time>
      </trkpt>
      <trkpt lat="45.678634587675333" lon="7.615584153681994">
        <ele>1293.1099999999999</ele>
        <time>2021-06-06T06:53:04Z</time>
      </trkpt>
      <trkpt lat="45.678615644574165" lon="7.615665877237916">
        <ele>1293.5899999999999</ele>
        <time>2021-06-06T06:53:11Z</time>
      </trkpt>
      <trkpt lat="45.678610699251294" lon="7.615688340738416">
        <ele>1294.0699999999999</ele>
        <time>2021-06-06T06:53:13Z</time>
      </trkpt>
      <trkpt lat="45.678541464731097" lon="7.615841394290328">
        <ele>1295.03</ele>
        <time>2021-06-06T06:53:24Z</time>
      </trkpt>
      <trkpt lat="45.678504835814238" lon="7.615915993228555">
        <ele>1295.99</ele>
        <time>2021-06-06T06:53:31Z</time>
      </trkpt>
      <trkpt lat="45.678436020389199" lon="7.616050941869617">
        <ele>1297.4400000000001</ele>
        <time>2021-06-06T06:53:43Z</time>
      </trkpt>
      <trkpt lat="45.678368378430605" lon="7.616176251322031">
        <ele>1299.3599999999999</ele>
        <time>2021-06-06T06:53:57Z</time>
      </trkpt>
      <trkpt lat="45.678320769220591" lon="7.616296196356416">
        <ele>1300.3199999999999</ele>
        <time>2021-06-06T06:54:06Z</time>
      </trkpt>
      <trkpt lat="45.678255138918757" lon="7.616445478051901">
        <ele>1302.24</ele>
        <time>2021-06-06T06:54:20Z</time>
      </trkpt>
      <trkpt lat="45.678228149190545" lon="7.616571038961411">
        <ele>1303.2</ele>
        <time>2021-06-06T06:54:29Z</time>
      </trkpt>
      <trkpt lat="45.67824499681592" lon="7.616778826341033">
        <ele>1305.1300000000001</ele>
        <time>2021-06-06T06:54:45Z</time>
      </trkpt>
      <trkpt lat="45.678262431174517" lon="7.616802379488945">
        <ele>1305.6099999999999</ele>
        <time>2021-06-06T06:54:47Z</time>
      </trkpt>
      <trkpt lat="45.678375670686364" lon="7.616879073902965">
        <ele>1306.5699999999999</ele>
        <time>2021-06-06T06:55:01Z</time>
      </trkpt>
      <trkpt lat="45.678490335121751" lon="7.617027852684259">
        <ele>1307.53</ele>
        <time>2021-06-06T06:55:14Z</time>
      </trkpt>
      <trkpt lat="45.678463261574507" lon="7.617150479927659">
        <ele>1308.01</ele>
        <time>2021-06-06T06:55:22Z</time>
      </trkpt>
      <trkpt lat="45.678370725363493" lon="7.61733764782548">
        <ele>1306.5699999999999</ele>
        <time>2021-06-06T06:55:38Z</time>
      </trkpt>
      <trkpt lat="45.678289420902729" lon="7.617593044415116">
        <ele>1304.6500000000001</ele>
        <time>2021-06-06T06:55:56Z</time>
      </trkpt>
      <trkpt lat="45.678279027342796" lon="7.617886243388057">
        <ele>1303.6900000000001</ele>
        <time>2021-06-06T06:56:15Z</time>
      </trkpt>
      <trkpt lat="45.678298724815249" lon="7.618096880614758">
        <ele>1303.2</ele>
        <time>2021-06-06T06:56:28Z</time>
      </trkpt>
      <trkpt lat="45.67834516055882" lon="7.618332076817751">
        <ele>1303.2</ele>
        <time>2021-06-06T06:56:44Z</time>
      </trkpt>
      <trkpt lat="45.678396625444293" lon="7.618694677948952">
        <ele>1302.24</ele>
        <time>2021-06-06T06:57:07Z</time>
      </trkpt>
      <trkpt lat="45.678413053974509" lon="7.618975471705198">
        <ele>1301.76</ele>
        <time>2021-06-06T06:57:24Z</time>
      </trkpt>
      <trkpt lat="45.678435433655977" lon="7.619250733405352">
        <ele>1301.76</ele>
        <time>2021-06-06T06:57:41Z</time>
      </trkpt>
      <trkpt lat="45.678439624607563" lon="7.619561199098826">
        <ele>1300.8</ele>
        <time>2021-06-06T06:58:00Z</time>
      </trkpt>
      <trkpt lat="45.678433421999216" lon="7.619573269039393">
        <ele>1300.8</ele>
        <time>2021-06-06T06:58:01Z</time>
      </trkpt>
      <trkpt lat="45.678370893001556" lon="7.61962347663939">
        <ele>1301.76</ele>
        <time>2021-06-06T06:58:15Z</time>
      </trkpt>
      <trkpt lat="45.67831976339221" lon="7.61968407779932">
        <ele>1303.2</ele>
        <time>2021-06-06T06:58:29Z</time>
      </trkpt>
      <trkpt lat="45.678295120596886" lon="7.619725735858083">
        <ele>1304.1700000000001</ele>
        <time>2021-06-06T06:58:45Z</time>
      </trkpt>
      <trkpt lat="45.678291851654649" lon="7.619675192981958">
        <ele>1304.6500000000001</ele>
        <time>2021-06-06T06:59:25Z</time>
      </trkpt>
      <trkpt lat="45.678314734250307" lon="7.619668236002326">
        <ele>1304.6500000000001</ele>
        <time>2021-06-06T06:59:46Z</time>
      </trkpt>
      <trkpt lat="45.678328732028604" lon="7.619656836614013">
        <ele>1304.6500000000001</ele>
        <time>2021-06-06T07:00:00Z</time>
      </trkpt>
      <trkpt lat="45.67833099514246" lon="7.619641581550241">
        <ele>1304.1700000000001</ele>
        <time>2021-06-06T07:00:31Z</time>
      </trkpt>
      <trkpt lat="45.678273495286703" lon="7.619698159396648">
        <ele>1304.1700000000001</ele>
        <time>2021-06-06T07:01:01Z</time>
      </trkpt>
      <trkpt lat="45.67822446115315" lon="7.619734788313508">
        <ele>1304.1700000000001</ele>
        <time>2021-06-06T07:01:10Z</time>
      </trkpt>
      <trkpt lat="45.678203171119094" lon="7.619734536856413">
        <ele>1307.05</ele>
        <time>2021-06-06T07:01:12Z</time>
      </trkpt>
      <trkpt lat="45.678110718727112" lon="7.619708133861423">
        <ele>1308.49</ele>
        <time>2021-06-06T07:01:24Z</time>
      </trkpt>
      <trkpt lat="45.678073419257998" lon="7.619667481631041">
        <ele>1309.9300000000001</ele>
        <time>2021-06-06T07:01:31Z</time>
      </trkpt>
      <trkpt lat="45.678038047626615" lon="7.61953697539866">
        <ele>1311.8599999999999</ele>
        <time>2021-06-06T07:01:43Z</time>
      </trkpt>
      <trkpt lat="45.677993455901742" lon="7.619380652904511">
        <ele>1314.26</ele>
        <time>2021-06-06T07:01:57Z</time>
      </trkpt>
      <trkpt lat="45.677949534729123" lon="7.619239585474134">
        <ele>1315.7</ele>
        <time>2021-06-06T07:02:11Z</time>
      </trkpt>
      <trkpt lat="45.677920198068023" lon="7.619104385375977">
        <ele>1317.1400000000001</ele>
        <time>2021-06-06T07:02:25Z</time>
      </trkpt>
      <trkpt lat="45.677881138399243" lon="7.618963485583663">
        <ele>1318.5899999999999</ele>
        <time>2021-06-06T07:02:38Z</time>
      </trkpt>
      <trkpt lat="45.677861776202917" lon="7.618817053735256">
        <ele>1320.03</ele>
        <time>2021-06-06T07:02:51Z</time>
      </trkpt>
      <trkpt lat="45.677819363772869" lon="7.618652936071158">
        <ele>1321.95</ele>
        <time>2021-06-06T07:03:05Z</time>
      </trkpt>
      <trkpt lat="45.677800588309765" lon="7.618499044328928">
        <ele>1323.8699999999999</ele>
        <time>2021-06-06T07:03:18Z</time>
      </trkpt>
      <trkpt lat="45.677788099274039" lon="7.618356384336948">
        <ele>1325.3099999999999</ele>
        <time>2021-06-06T07:03:31Z</time>
      </trkpt>
      <trkpt lat="45.677718864753842" lon="7.618383876979351">
        <ele>1327.24</ele>
        <time>2021-06-06T07:03:47Z</time>
      </trkpt>
      <trkpt lat="45.677675446495414" lon="7.618461158126593">
        <ele>1328.6800000000001</ele>
        <time>2021-06-06T07:03:58Z</time>
      </trkpt>
      <trkpt lat="45.677619455382228" lon="7.618556963279843">
        <ele>1330.1199999999999</ele>
        <time>2021-06-06T07:04:10Z</time>
      </trkpt>
      <trkpt lat="45.6775535736233" lon="7.618603063747287">
        <ele>1331.5599999999999</ele>
        <time>2021-06-06T07:04:23Z</time>
      </trkpt>
      <trkpt lat="45.677508730441332" lon="7.618716219440103">
        <ele>1333.49</ele>
        <time>2021-06-06T07:04:35Z</time>
      </trkpt>
      <trkpt lat="45.677431365475059" lon="7.618770366534591">
        <ele>1335.8900000000001</ele>
        <time>2021-06-06T07:04:49Z</time>
      </trkpt>
      <trkpt lat="45.677338661625981" lon="7.618853682652116">
        <ele>1337.3299999999999</ele>
        <time>2021-06-06T07:05:02Z</time>
      </trkpt>
      <trkpt lat="45.67725408822298" lon="7.618925180286169">
        <ele>1338.77</ele>
        <time>2021-06-06T07:05:17Z</time>
      </trkpt>
      <trkpt lat="45.677186865359545" lon="7.618991145864129">
        <ele>1340.22</ele>
        <time>2021-06-06T07:05:30Z</time>
      </trkpt>
      <trkpt lat="45.677107321098447" lon="7.61905275285244">
        <ele>1342.1400000000001</ele>
        <time>2021-06-06T07:05:44Z</time>
      </trkpt>
      <trkpt lat="45.677009588107467" lon="7.619137158617377">
        <ele>1343.5799999999999</ele>
        <time>2021-06-06T07:05:58Z</time>
      </trkpt>
      <trkpt lat="45.676903892308474" lon="7.619160795584321">
        <ele>1345.5</ele>
        <time>2021-06-06T07:06:12Z</time>
      </trkpt>
      <trkpt lat="45.676803728565574" lon="7.619152329862118">
        <ele>1347.4300000000001</ele>
        <time>2021-06-06T07:06:25Z</time>
      </trkpt>
      <trkpt lat="45.676803980022669" lon="7.619248470291495">
        <ele>1348.3900000000001</ele>
        <time>2021-06-06T07:06:38Z</time>
      </trkpt>
      <trkpt lat="45.67678302526474" lon="7.619413426145911">
        <ele>1350.3099999999999</ele>
        <time>2021-06-06T07:06:54Z</time>
      </trkpt>
      <trkpt lat="45.67674052901566" lon="7.619568575173616">
        <ele>1352.23</ele>
        <time>2021-06-06T07:07:09Z</time>
      </trkpt>
      <trkpt lat="45.676647741347551" lon="7.619671672582626">
        <ele>1354.6300000000001</ele>
        <time>2021-06-06T07:07:24Z</time>
      </trkpt>
      <trkpt lat="45.676565682515502" lon="7.619781224057078">
        <ele>1355.5999999999999</ele>
        <time>2021-06-06T07:07:39Z</time>
      </trkpt>
      <trkpt lat="45.676517654210329" lon="7.619907958433032">
        <ele>1357.04</ele>
        <time>2021-06-06T07:07:52Z</time>
      </trkpt>
      <trkpt lat="45.676453616470098" lon="7.619989849627018">
        <ele>1358.96</ele>
        <time>2021-06-06T07:08:06Z</time>
      </trkpt>
      <trkpt lat="45.676345825195313" lon="7.619965123012662">
        <ele>1360.8800000000001</ele>
        <time>2021-06-06T07:08:23Z</time>
      </trkpt>
      <trkpt lat="45.676227556541562" lon="7.619966464117169">
        <ele>1362.8099999999999</ele>
        <time>2021-06-06T07:08:37Z</time>
      </trkpt>
      <trkpt lat="45.676203416660428" lon="7.619894379749894">
        <ele>1364.73</ele>
        <time>2021-06-06T07:08:50Z</time>
      </trkpt>
      <trkpt lat="45.676248846575618" lon="7.61974174529314">
        <ele>1367.1300000000001</ele>
        <time>2021-06-06T07:09:06Z</time>
      </trkpt>
      <trkpt lat="45.676238285377622" lon="7.619588524103165">
        <ele>1370.02</ele>
        <time>2021-06-06T07:09:23Z</time>
      </trkpt>
      <trkpt lat="45.676207691431046" lon="7.619457934051752">
        <ele>1371.46</ele>
        <time>2021-06-06T07:09:37Z</time>
      </trkpt>
      <trkpt lat="45.676173074170947" lon="7.619343269616365">
        <ele>1372.9000000000001</ele>
        <time>2021-06-06T07:09:50Z</time>
      </trkpt>
      <trkpt lat="45.676133176311851" lon="7.619132129475474">
        <ele>1375.3</ele>
        <time>2021-06-06T07:10:12Z</time>
      </trkpt>
      <trkpt lat="45.676133092492819" lon="7.619003718718886">
        <ele>1376.75</ele>
        <time>2021-06-06T07:10:25Z</time>
      </trkpt>
      <trkpt lat="45.676071234047413" lon="7.618888383731246">
        <ele>1378.1900000000001</ele>
        <time>2021-06-06T07:10:37Z</time>
      </trkpt>
      <trkpt lat="45.676036449149251" lon="7.618752848356962">
        <ele>1380.1099999999999</ele>
        <time>2021-06-06T07:10:53Z</time>
      </trkpt>
      <trkpt lat="45.676040388643742" lon="7.618580851703882">
        <ele>1382.03</ele>
        <time>2021-06-06T07:11:11Z</time>
      </trkpt>
      <trkpt lat="45.676107779145241" lon="7.618465181440115">
        <ele>1382.99</ele>
        <time>2021-06-06T07:11:25Z</time>
      </trkpt>
      <trkpt lat="45.676182964816689" lon="7.618339033797383">
        <ele>1384.4400000000001</ele>
        <time>2021-06-06T07:11:40Z</time>
      </trkpt>
      <trkpt lat="45.676222946494818" lon="7.618239372968674">
        <ele>1386.8399999999999</ele>
        <time>2021-06-06T07:11:54Z</time>
      </trkpt>
      <trkpt lat="45.676246751099825" lon="7.618069052696228">
        <ele>1389.24</ele>
        <time>2021-06-06T07:12:10Z</time>
      </trkpt>
      <trkpt lat="45.676209786906838" lon="7.617984730750322">
        <ele>1391.1700000000001</ele>
        <time>2021-06-06T07:12:19Z</time>
      </trkpt>
      <trkpt lat="45.676201656460762" lon="7.617921279743314">
        <ele>1392.6099999999999</ele>
        <time>2021-06-06T07:12:30Z</time>
      </trkpt>
      <trkpt lat="45.676185479387641" lon="7.617837879806757">
        <ele>1394.53</ele>
        <time>2021-06-06T07:12:44Z</time>
      </trkpt>
      <trkpt lat="45.676161758601665" lon="7.617801753804088">
        <ele>1395.01</ele>
        <time>2021-06-06T07:12:48Z</time>
      </trkpt>
      <trkpt lat="45.676111299544573" lon="7.617680048570037">
        <ele>1396.45</ele>
        <time>2021-06-06T07:13:00Z</time>
      </trkpt>
      <trkpt lat="45.676049524918199" lon="7.617534371092916">
        <ele>1397.8900000000001</ele>
        <time>2021-06-06T07:13:16Z</time>
      </trkpt>
      <trkpt lat="45.675982050597668" lon="7.617426831275225">
        <ele>1398.8599999999999</ele>
        <time>2021-06-06T07:13:32Z</time>
      </trkpt>
      <trkpt lat="45.675915917381644" lon="7.617285093292594">
        <ele>1401.26</ele>
        <time>2021-06-06T07:13:51Z</time>
      </trkpt>
      <trkpt lat="45.675858333706856" lon="7.617196748033166">
        <ele>1403.1800000000001</ele>
        <time>2021-06-06T07:14:04Z</time>
      </trkpt>
      <trkpt lat="45.675771161913872" lon="7.61708409525454">
        <ele>1405.5799999999999</ele>
        <time>2021-06-06T07:14:19Z</time>
      </trkpt>
      <trkpt lat="45.675741238519549" lon="7.617053333669901">
        <ele>1406.0699999999999</ele>
        <time>2021-06-06T07:14:24Z</time>
      </trkpt>
      <trkpt lat="45.675653731450438" lon="7.616945626214147">
        <ele>1407.99</ele>
        <time>2021-06-06T07:14:36Z</time>
      </trkpt>
      <trkpt lat="45.675580138340592" lon="7.616836745291948">
        <ele>1409.9100000000001</ele>
        <time>2021-06-06T07:14:53Z</time>
      </trkpt>
      <trkpt lat="45.675526326522231" lon="7.616742867976427">
        <ele>1411.8299999999999</ele>
        <time>2021-06-06T07:15:08Z</time>
      </trkpt>
      <trkpt lat="45.675444519147277" lon="7.616659551858902">
        <ele>1413.76</ele>
        <time>2021-06-06T07:15:21Z</time>
      </trkpt>
      <trkpt lat="45.675413254648447" lon="7.616610182449222">
        <ele>1414.24</ele>
        <time>2021-06-06T07:15:29Z</time>
      </trkpt>
      <trkpt lat="45.675344858318567" lon="7.616517059504986">
        <ele>1416.1600000000001</ele>
        <time>2021-06-06T07:15:42Z</time>
      </trkpt>
      <trkpt lat="45.675293058156967" lon="7.616494428366423">
        <ele>1417.5999999999999</ele>
        <time>2021-06-06T07:15:54Z</time>
      </trkpt>
      <trkpt lat="45.675219381228089" lon="7.616464085876942">
        <ele>1420</ele>
        <time>2021-06-06T07:16:08Z</time>
      </trkpt>
      <trkpt lat="45.675135897472501" lon="7.616386888548732">
        <ele>1422.4100000000001</ele>
        <time>2021-06-06T07:16:24Z</time>
      </trkpt>
      <trkpt lat="45.675083678215742" lon="7.616325030103326">
        <ele>1423.8499999999999</ele>
        <time>2021-06-06T07:16:36Z</time>
      </trkpt>
      <trkpt lat="45.675056269392371" lon="7.616225872188807">
        <ele>1425.77</ele>
        <time>2021-06-06T07:16:50Z</time>
      </trkpt>
      <trkpt lat="45.67504646256566" lon="7.616174491122365">
        <ele>1427.7</ele>
        <time>2021-06-06T07:17:05Z</time>
      </trkpt>
      <trkpt lat="45.675047719851136" lon="7.616264345124364">
        <ele>1429.1400000000001</ele>
        <time>2021-06-06T07:17:16Z</time>
      </trkpt>
      <trkpt lat="45.675071440637112" lon="7.616400551050901">
        <ele>1430.5799999999999</ele>
        <time>2021-06-06T07:17:31Z</time>
      </trkpt>
      <trkpt lat="45.675018886104226" lon="7.616406250745058">
        <ele>1432.5</ele>
        <time>2021-06-06T07:17:47Z</time>
      </trkpt>
      <trkpt lat="45.67493355832994" lon="7.616323940455914">
        <ele>1434.4200000000001</ele>
        <time>2021-06-06T07:17:59Z</time>
      </trkpt>
      <trkpt lat="45.674856780096889" lon="7.616260992363095">
        <ele>1436.3499999999999</ele>
        <time>2021-06-06T07:18:13Z</time>
      </trkpt>
      <trkpt lat="45.674818223342299" lon="7.61616007424891">
        <ele>1438.27</ele>
        <time>2021-06-06T07:18:27Z</time>
      </trkpt>
      <trkpt lat="45.674740774556994" lon="7.616072483360767">
        <ele>1440.1900000000001</ele>
        <time>2021-06-06T07:18:41Z</time>
      </trkpt>
      <trkpt lat="45.674717053771019" lon="7.615944324061275">
        <ele>1441.6300000000001</ele>
        <time>2021-06-06T07:18:55Z</time>
      </trkpt>
      <trkpt lat="45.674685956910253" lon="7.615791773423553">
        <ele>1443.0799999999999</ele>
        <time>2021-06-06T07:19:12Z</time>
      </trkpt>
      <trkpt lat="45.674685621634126" lon="7.615653891116381">
        <ele>1445</ele>
        <time>2021-06-06T07:19:26Z</time>
      </trkpt>
      <trkpt lat="45.674638180062175" lon="7.615513829514384">
        <ele>1446.9200000000001</ele>
        <time>2021-06-06T07:19:42Z</time>
      </trkpt>
      <trkpt lat="45.674646394327283" lon="7.615340994670987">
        <ele>1448.3599999999999</ele>
        <time>2021-06-06T07:19:57Z</time>
      </trkpt>
      <trkpt lat="45.674663661047816" lon="7.615267653018236">
        <ele>1449.3199999999999</ele>
        <time>2021-06-06T07:20:03Z</time>
      </trkpt>
      <trkpt lat="45.674675898626447" lon="7.615204956382513">
        <ele>1449.8099999999999</ele>
        <time>2021-06-06T07:20:08Z</time>
      </trkpt>
      <trkpt lat="45.674704732373357" lon="7.615170842036605">
        <ele>1451.25</ele>
        <time>2021-06-06T07:20:19Z</time>
      </trkpt>
      <trkpt lat="45.674777068197727" lon="7.615129016339779">
        <ele>1452.6900000000001</ele>
        <time>2021-06-06T07:20:32Z</time>
      </trkpt>
      <trkpt lat="45.674863150343299" lon="7.615017034113407">
        <ele>1454.6099999999999</ele>
        <time>2021-06-06T07:20:47Z</time>
      </trkpt>
      <trkpt lat="45.674878489226103" lon="7.614979483187199">
        <ele>1455.0899999999999</ele>
        <time>2021-06-06T07:20:51Z</time>
      </trkpt>
      <trkpt lat="45.674942946061492" lon="7.614893149584532">
        <ele>1457.02</ele>
        <time>2021-06-06T07:21:03Z</time>
      </trkpt>
      <trkpt lat="45.675014359876513" lon="7.614831794053316">
        <ele>1458.46</ele>
        <time>2021-06-06T07:21:16Z</time>
      </trkpt>
      <trkpt lat="45.675068758428097" lon="7.614728026092053">
        <ele>1460.3800000000001</ele>
        <time>2021-06-06T07:21:29Z</time>
      </trkpt>
      <trkpt lat="45.675146877765656" lon="7.614674046635628">
        <ele>1462.3</ele>
        <time>2021-06-06T07:21:43Z</time>
      </trkpt>
      <trkpt lat="45.675190379843116" lon="7.614648146554828">
        <ele>1464.23</ele>
        <time>2021-06-06T07:21:56Z</time>
      </trkpt>
      <trkpt lat="45.675222650170326" lon="7.614561477676034">
        <ele>1466.1500000000001</ele>
        <time>2021-06-06T07:22:11Z</time>
      </trkpt>
      <trkpt lat="45.675158863887191" lon="7.614597687497735">
        <ele>1468.0699999999999</ele>
        <time>2021-06-06T07:22:26Z</time>
      </trkpt>
      <trkpt lat="45.675146793946624" lon="7.614602632820606">
        <ele>1468.55</ele>
        <time>2021-06-06T07:22:29Z</time>
      </trkpt>
      <trkpt lat="45.67503766156733" lon="7.614590981975198">
        <ele>1470.47</ele>
        <time>2021-06-06T07:22:42Z</time>
      </trkpt>
      <trkpt lat="45.674944538623095" lon="7.614603973925114">
        <ele>1472.4000000000001</ele>
        <time>2021-06-06T07:22:57Z</time>
      </trkpt>
      <trkpt lat="45.674863653257489" lon="7.614592239260674">
        <ele>1473.8399999999999</ele>
        <time>2021-06-06T07:23:11Z</time>
      </trkpt>
      <trkpt lat="45.674783941358328" lon="7.614630963653326">
        <ele>1475.28</ele>
        <time>2021-06-06T07:23:23Z</time>
      </trkpt>
      <trkpt lat="45.674702217802405" lon="7.614641021937132">
        <ele>1476.72</ele>
        <time>2021-06-06T07:23:34Z</time>
      </trkpt>
      <trkpt lat="45.674593755975366" lon="7.614648649469018">
        <ele>1479.1300000000001</ele>
        <time>2021-06-06T07:23:51Z</time>
      </trkpt>
      <trkpt lat="45.674642454832792" lon="7.614566925913096">
        <ele>1480.5699999999999</ele>
        <time>2021-06-06T07:24:02Z</time>
      </trkpt>
      <trkpt lat="45.674721244722605" lon="7.614430636167526">
        <ele>1482.49</ele>
        <time>2021-06-06T07:24:17Z</time>
      </trkpt>
      <trkpt lat="45.674783522263169" lon="7.614352516829968">
        <ele>1484.4100000000001</ele>
        <time>2021-06-06T07:24:31Z</time>
      </trkpt>
      <trkpt lat="45.674839178100228" lon="7.614250760525465">
        <ele>1486.3399999999999</ele>
        <time>2021-06-06T07:24:47Z</time>
      </trkpt>
      <trkpt lat="45.674889972433448" lon="7.614155625924468">
        <ele>1488.74</ele>
        <time>2021-06-06T07:25:05Z</time>
      </trkpt>
      <trkpt lat="45.674943868070841" lon="7.614085888490081">
        <ele>1491.6199999999999</ele>
        <time>2021-06-06T07:25:24Z</time>
      </trkpt>
      <trkpt lat="45.67484512925148" lon="7.614093432202935">
        <ele>1494.03</ele>
        <time>2021-06-06T07:25:41Z</time>
      </trkpt>
      <trkpt lat="45.674791652709246" lon="7.614171132445335">
        <ele>1495.47</ele>
        <time>2021-06-06T07:25:52Z</time>
      </trkpt>
      <trkpt lat="45.674722418189049" lon="7.614208264276385">
        <ele>1496.9100000000001</ele>
        <time>2021-06-06T07:26:03Z</time>
      </trkpt>
      <trkpt lat="45.6746247690171" lon="7.614226453006268">
        <ele>1498.8299999999999</ele>
        <time>2021-06-06T07:26:18Z</time>
      </trkpt>
      <trkpt lat="45.674535166472197" lon="7.614256292581558">
        <ele>1500.76</ele>
        <time>2021-06-06T07:26:36Z</time>
      </trkpt>
      <trkpt lat="45.674411281943321" lon="7.614216394722462">
        <ele>1502.6800000000001</ele>
        <time>2021-06-06T07:26:52Z</time>
      </trkpt>
      <trkpt lat="45.674350764602423" lon="7.614197786897421">
        <ele>1504.5999999999999</ele>
        <time>2021-06-06T07:27:05Z</time>
      </trkpt>
      <trkpt lat="45.674278261139989" lon="7.614193428307772">
        <ele>1506.04</ele>
        <time>2021-06-06T07:27:19Z</time>
      </trkpt>
      <trkpt lat="45.674200728535652" lon="7.614193176850677">
        <ele>1507.97</ele>
        <time>2021-06-06T07:27:32Z</time>
      </trkpt>
      <trkpt lat="45.674144066870213" lon="7.614220250397921">
        <ele>1509.8900000000001</ele>
        <time>2021-06-06T07:27:45Z</time>
      </trkpt>
      <trkpt lat="45.674075335264206" lon="7.614213041961193">
        <ele>1511.3299999999999</ele>
        <time>2021-06-06T07:27:55Z</time>
      </trkpt>
      <trkpt lat="45.674007525667548" lon="7.614217232912779">
        <ele>1513.73</ele>
        <time>2021-06-06T07:28:10Z</time>
      </trkpt>
      <trkpt lat="45.673931417986751" lon="7.614214131608605">
        <ele>1515.1800000000001</ele>
        <time>2021-06-06T07:28:22Z</time>
      </trkpt>
      <trkpt lat="45.673860590904951" lon="7.614184459671378">
        <ele>1517.0999999999999</ele>
        <time>2021-06-06T07:28:35Z</time>
      </trkpt>
      <trkpt lat="45.673795379698277" lon="7.614216143265367">
        <ele>1518.54</ele>
        <time>2021-06-06T07:28:49Z</time>
      </trkpt>
      <trkpt lat="45.673680631443858" lon="7.614253861829639">
        <ele>1520.46</ele>
        <time>2021-06-06T07:29:01Z</time>
      </trkpt>
      <trkpt lat="45.673696221783757" lon="7.614185130223632">
        <ele>1522.8699999999999</ele>
        <time>2021-06-06T07:29:18Z</time>
      </trkpt>
      <trkpt lat="45.673723043873906" lon="7.614082619547844">
        <ele>1524.79</ele>
        <time>2021-06-06T07:29:33Z</time>
      </trkpt>
      <trkpt lat="45.673791272565722" lon="7.614023694768548">
        <ele>1526.23</ele>
        <time>2021-06-06T07:29:46Z</time>
      </trkpt>
      <trkpt lat="45.673869643360376" lon="7.613974325358868">
        <ele>1527.6700000000001</ele>
        <time>2021-06-06T07:29:59Z</time>
      </trkpt>
      <trkpt lat="45.673945499584079" lon="7.613880364224315">
        <ele>1530.0799999999999</ele>
        <time>2021-06-06T07:30:15Z</time>
      </trkpt>
      <trkpt lat="45.673989672213793" lon="7.613802747800946">
        <ele>1532</ele>
        <time>2021-06-06T07:30:29Z</time>
      </trkpt>
      <trkpt lat="45.674041640013456" lon="7.61374281719327">
        <ele>1534.4000000000001</ele>
        <time>2021-06-06T07:30:43Z</time>
      </trkpt>
      <trkpt lat="45.674055051058531" lon="7.613660925999284">
        <ele>1535.8399999999999</ele>
        <time>2021-06-06T07:30:55Z</time>
      </trkpt>
      <trkpt lat="45.67409947514534" lon="7.613608287647367">
        <ele>1538.25</ele>
        <time>2021-06-06T07:31:10Z</time>
      </trkpt>
      <trkpt lat="45.674202991649508" lon="7.613488426432014">
        <ele>1540.1700000000001</ele>
        <time>2021-06-06T07:31:26Z</time>
      </trkpt>
      <trkpt lat="45.674262335523963" lon="7.613340318202972">
        <ele>1542.5699999999999</ele>
        <time>2021-06-06T07:31:46Z</time>
      </trkpt>
      <trkpt lat="45.674299634993076" lon="7.61320922523737">
        <ele>1544.01</ele>
        <time>2021-06-06T07:32:02Z</time>
      </trkpt>
      <trkpt lat="45.67433207295835" lon="7.613061536103487">
        <ele>1546.4200000000001</ele>
        <time>2021-06-06T07:32:18Z</time>
      </trkpt>
      <trkpt lat="45.674339784309268" lon="7.612953074276447">
        <ele>1547.8599999999999</ele>
        <time>2021-06-06T07:32:32Z</time>
      </trkpt>
      <trkpt lat="45.674316063523293" lon="7.612935556098819">
        <ele>1548.8199999999999</ele>
        <time>2021-06-06T07:32:58Z</time>
      </trkpt>
      <trkpt lat="45.67432863637805" lon="7.612933628261089">
        <ele>1550.26</ele>
        <time>2021-06-06T07:33:22Z</time>
      </trkpt>
      <trkpt lat="45.674289995804429" lon="7.612931281328201">
        <ele>1549.3</ele>
        <time>2021-06-06T07:33:53Z</time>
      </trkpt>
      <trkpt lat="45.67427784204483" lon="7.612931784242392">
        <ele>1549.3</ele>
        <time>2021-06-06T07:33:55Z</time>
      </trkpt>
      <trkpt lat="45.6742621678859" lon="7.612932622432709">
        <ele>1549.3</ele>
        <time>2021-06-06T07:34:06Z</time>
      </trkpt>
      <trkpt lat="45.674279183149338" lon="7.612973777577281">
        <ele>1549.3</ele>
        <time>2021-06-06T07:34:34Z</time>
      </trkpt>
      <trkpt lat="45.674315644428134" lon="7.612974783405662">
        <ele>1550.26</ele>
        <time>2021-06-06T07:35:19Z</time>
      </trkpt>
      <trkpt lat="45.674305837601423" lon="7.612972436472774">
        <ele>1550.26</ele>
        <time>2021-06-06T07:36:22Z</time>
      </trkpt>
      <trkpt lat="45.674306843429804" lon="7.612975956872106">
        <ele>1550.26</ele>
        <time>2021-06-06T07:37:01Z</time>
      </trkpt>
      <trkpt lat="45.674300557002425" lon="7.612990792840719">
        <ele>1550.26</ele>
        <time>2021-06-06T07:37:27Z</time>
      </trkpt>
      <trkpt lat="45.674284631386399" lon="7.613044437021017">
        <ele>1550.26</ele>
        <time>2021-06-06T07:37:43Z</time>
      </trkpt>
      <trkpt lat="45.674234256148338" lon="7.613073857501149">
        <ele>1550.26</ele>
        <time>2021-06-06T07:37:54Z</time>
      </trkpt>
      <trkpt lat="45.674222521483898" lon="7.613131860271096">
        <ele>1550.26</ele>
        <time>2021-06-06T07:38:00Z</time>
      </trkpt>
      <trkpt lat="45.674151359125972" lon="7.613178296014667">
        <ele>1550.26</ele>
        <time>2021-06-06T07:38:11Z</time>
      </trkpt>
      <trkpt lat="45.674144485965371" lon="7.613178631290793">
        <ele>1554.1099999999999</ele>
        <time>2021-06-06T07:38:12Z</time>
      </trkpt>
      <trkpt lat="45.67413903772831" lon="7.613182319328189">
        <ele>1554.1099999999999</ele>
        <time>2021-06-06T07:38:13Z</time>
      </trkpt>
      <trkpt lat="45.674064522609115" lon="7.613254655152559">
        <ele>1555.55</ele>
        <time>2021-06-06T07:38:28Z</time>
      </trkpt>
      <trkpt lat="45.67400568164885" lon="7.61330452747643">
        <ele>1556.99</ele>
        <time>2021-06-06T07:38:41Z</time>
      </trkpt>
      <trkpt lat="45.673938542604446" lon="7.613325398415327">
        <ele>1558.9200000000001</ele>
        <time>2021-06-06T07:38:55Z</time>
      </trkpt>
      <trkpt lat="45.673866122961044" lon="7.613397063687444">
        <ele>1560.3599999999999</ele>
        <time>2021-06-06T07:39:07Z</time>
      </trkpt>
      <trkpt lat="45.673780962824821" lon="7.613445091992617">
        <ele>1561.3199999999999</ele>
        <time>2021-06-06T07:39:20Z</time>
      </trkpt>
      <trkpt lat="45.673696892336011" lon="7.613461520522833">
        <ele>1562.76</ele>
        <time>2021-06-06T07:39:34Z</time>
      </trkpt>
      <trkpt lat="45.673607960343361" lon="7.613473422825337">
        <ele>1565.1600000000001</ele>
        <time>2021-06-06T07:39:50Z</time>
      </trkpt>
      <trkpt lat="45.673523051664233" lon="7.613468142226338">
        <ele>1567.0899999999999</ele>
        <time>2021-06-06T07:40:04Z</time>
      </trkpt>
      <trkpt lat="45.673444848507643" lon="7.613492785021663">
        <ele>1569.01</ele>
        <time>2021-06-06T07:40:19Z</time>
      </trkpt>
      <trkpt lat="45.673382990062237" lon="7.613528659567237">
        <ele>1570.9300000000001</ele>
        <time>2021-06-06T07:40:31Z</time>
      </trkpt>
      <trkpt lat="45.673309648409486" lon="7.613570485264063">
        <ele>1572.8499999999999</ele>
        <time>2021-06-06T07:40:44Z</time>
      </trkpt>
      <trkpt lat="45.673237144947052" lon="7.613563528284431">
        <ele>1574.3</ele>
        <time>2021-06-06T07:40:55Z</time>
      </trkpt>
      <trkpt lat="45.673173274844885" lon="7.613539220765233">
        <ele>1576.22</ele>
        <time>2021-06-06T07:41:07Z</time>
      </trkpt>
      <trkpt lat="45.673097250983119" lon="7.61356545612216">
        <ele>1577.1800000000001</ele>
        <time>2021-06-06T07:41:17Z</time>
      </trkpt>
      <trkpt lat="45.673058526590466" lon="7.613587081432343">
        <ele>1579.0999999999999</ele>
        <time>2021-06-06T07:41:28Z</time>
      </trkpt>
      <trkpt lat="45.67301376722753" lon="7.613545842468739">
        <ele>1581.03</ele>
        <time>2021-06-06T07:41:40Z</time>
      </trkpt>
      <trkpt lat="45.672951741144061" lon="7.61359378695488">
        <ele>1582.47</ele>
        <time>2021-06-06T07:41:52Z</time>
      </trkpt>
      <trkpt lat="45.672880578786135" lon="7.613624548539519">
        <ele>1584.3900000000001</ele>
        <time>2021-06-06T07:42:08Z</time>
      </trkpt>
      <trkpt lat="45.672809919342399" lon="7.613643072545528">
        <ele>1586.79</ele>
        <time>2021-06-06T07:42:22Z</time>
      </trkpt>
      <trkpt lat="45.672747474163771" lon="7.613676181063056">
        <ele>1588.72</ele>
        <time>2021-06-06T07:42:34Z</time>
      </trkpt>
      <trkpt lat="45.672678155824542" lon="7.613630164414644">
        <ele>1590.6400000000001</ele>
        <time>2021-06-06T07:42:48Z</time>
      </trkpt>
      <trkpt lat="45.672646472230554" lon="7.61363192461431">
        <ele>1592.5599999999999</ele>
        <time>2021-06-06T07:42:59Z</time>
      </trkpt>
      <trkpt lat="45.672566676512361" lon="7.613609964028001">
        <ele>1594</ele>
        <time>2021-06-06T07:43:10Z</time>
      </trkpt>
      <trkpt lat="45.672541195526719" lon="7.613554978743196">
        <ele>1595.9300000000001</ele>
        <time>2021-06-06T07:43:23Z</time>
      </trkpt>
      <trkpt lat="45.672577992081642" lon="7.613550368696451">
        <ele>1597.8499999999999</ele>
        <time>2021-06-06T07:43:37Z</time>
      </trkpt>
      <trkpt lat="45.672599617391825" lon="7.613542573526502">
        <ele>1598.3299999999999</ele>
        <time>2021-06-06T07:43:40Z</time>
      </trkpt>
      <trkpt lat="45.672652423381805" lon="7.613494964316487">
        <ele>1600.25</ele>
        <time>2021-06-06T07:43:53Z</time>
      </trkpt>
      <trkpt lat="45.672685950994492" lon="7.613394297659397">
        <ele>1602.1700000000001</ele>
        <time>2021-06-06T07:44:06Z</time>
      </trkpt>
      <trkpt lat="45.672703888267279" lon="7.613365883007646">
        <ele>1602.1700000000001</ele>
        <time>2021-06-06T07:44:08Z</time>
      </trkpt>
      <trkpt lat="45.672771446406841" lon="7.613272843882442">
        <ele>1603.6199999999999</ele>
        <time>2021-06-06T07:44:20Z</time>
      </trkpt>
      <trkpt lat="45.672814948484302" lon="7.613187683746219">
        <ele>1605.54</ele>
        <time>2021-06-06T07:44:33Z</time>
      </trkpt>
      <trkpt lat="45.672862641513348" lon="7.613093554973602">
        <ele>1607.46</ele>
        <time>2021-06-06T07:44:46Z</time>
      </trkpt>
      <trkpt lat="45.672908490523696" lon="7.613004455342889">
        <ele>1609.8599999999999</ele>
        <time>2021-06-06T07:45:01Z</time>
      </trkpt>
      <trkpt lat="45.672939671203494" lon="7.612930946052074">
        <ele>1611.79</ele>
        <time>2021-06-06T07:45:14Z</time>
      </trkpt>
      <trkpt lat="45.672959871590137" lon="7.612806893885136">
        <ele>1613.71</ele>
        <time>2021-06-06T07:45:27Z</time>
      </trkpt>
      <trkpt lat="45.672985520213842" lon="7.612732965499163">
        <ele>1615.1500000000001</ele>
        <time>2021-06-06T07:45:38Z</time>
      </trkpt>
      <trkpt lat="45.673015862703323" lon="7.612633556127548">
        <ele>1616.5899999999999</ele>
        <time>2021-06-06T07:45:52Z</time>
      </trkpt>
      <trkpt lat="45.673033129423857" lon="7.612579660490155">
        <ele>1617.5599999999999</ele>
        <time>2021-06-06T07:45:59Z</time>
      </trkpt>
      <trkpt lat="45.672996751964092" lon="7.612588293850422">
        <ele>1619.48</ele>
        <time>2021-06-06T07:46:11Z</time>
      </trkpt>
      <trkpt lat="45.672944532707334" lon="7.612621234729886">
        <ele>1620.9200000000001</ele>
        <time>2021-06-06T07:46:23Z</time>
      </trkpt>
      <trkpt lat="45.67288912832737" lon="7.612633556127548">
        <ele>1622.3599999999999</ele>
        <time>2021-06-06T07:46:39Z</time>
      </trkpt>
      <trkpt lat="45.67281243391335" lon="7.612712681293488">
        <ele>1624.28</ele>
        <time>2021-06-06T07:46:52Z</time>
      </trkpt>
      <trkpt lat="45.672737751156092" lon="7.612734055146575">
        <ele>1626.21</ele>
        <time>2021-06-06T07:47:06Z</time>
      </trkpt>
      <trkpt lat="45.672650663182139" lon="7.612779987975955">
        <ele>1627.6500000000001</ele>
        <time>2021-06-06T07:47:21Z</time>
      </trkpt>
      <trkpt lat="45.672589978203177" lon="7.612817119807005">
        <ele>1630.05</ele>
        <time>2021-06-06T07:47:35Z</time>
      </trkpt>
      <trkpt lat="45.672526694834232" lon="7.612868919968605">
        <ele>1631.49</ele>
        <time>2021-06-06T07:47:48Z</time>
      </trkpt>
      <trkpt lat="45.672423345968127" lon="7.612885097041726">
        <ele>1633.4200000000001</ele>
        <time>2021-06-06T07:48:01Z</time>
      </trkpt>
      <trkpt lat="45.67234774120152" lon="7.612896328791976">
        <ele>1635.8199999999999</ele>
        <time>2021-06-06T07:48:17Z</time>
      </trkpt>
      <trkpt lat="45.672307256609201" lon="7.612846624106169">
        <ele>1637.74</ele>
        <time>2021-06-06T07:48:31Z</time>
      </trkpt>
      <trkpt lat="45.672325948253274" lon="7.612755764275789">
        <ele>1639.6700000000001</ele>
        <time>2021-06-06T07:48:47Z</time>
      </trkpt>
      <trkpt lat="45.672328043729067" lon="7.612729864194989">
        <ele>1640.6300000000001</ele>
        <time>2021-06-06T07:48:53Z</time>
      </trkpt>
      <trkpt lat="45.672365762293339" lon="7.612652918323875">
        <ele>1642.0699999999999</ele>
        <time>2021-06-06T07:49:05Z</time>
      </trkpt>
      <trkpt lat="45.672390572726727" lon="7.612560549750924">
        <ele>1643.99</ele>
        <time>2021-06-06T07:49:20Z</time>
      </trkpt>
      <trkpt lat="45.672432985156775" lon="7.6124909799546">
        <ele>1645.9100000000001</ele>
        <time>2021-06-06T07:49:32Z</time>
      </trkpt>
      <trkpt lat="45.672468272969127" lon="7.612429624423385">
        <ele>1647.8399999999999</ele>
        <time>2021-06-06T07:49:47Z</time>
      </trkpt>
      <trkpt lat="45.672459388151765" lon="7.61228914372623">
        <ele>1649.28</ele>
        <time>2021-06-06T07:49:59Z</time>
      </trkpt>
      <trkpt lat="45.672400128096342" lon="7.612293837592006">
        <ele>1651.2</ele>
        <time>2021-06-06T07:50:13Z</time>
      </trkpt>
      <trkpt lat="45.672326534986496" lon="7.612295262515545">
        <ele>1653.1199999999999</ele>
        <time>2021-06-06T07:50:27Z</time>
      </trkpt>
      <trkpt lat="45.672262497246265" lon="7.612318145111203">
        <ele>1654.5699999999999</ele>
        <time>2021-06-06T07:50:44Z</time>
      </trkpt>
      <trkpt lat="45.672185970470309" lon="7.612337591126561">
        <ele>1656.49</ele>
        <time>2021-06-06T07:50:58Z</time>
      </trkpt>
      <trkpt lat="45.672081364318728" lon="7.61236927472055">
        <ele>1657.9300000000001</ele>
        <time>2021-06-06T07:51:11Z</time>
      </trkpt>
      <trkpt lat="45.672063678503036" lon="7.612299621105194">
        <ele>1659.8499999999999</ele>
        <time>2021-06-06T07:51:28Z</time>
      </trkpt>
      <trkpt lat="45.672087734565139" lon="7.612268524244428">
        <ele>1661.78</ele>
        <time>2021-06-06T07:51:40Z</time>
      </trkpt>
      <trkpt lat="45.672111790627241" lon="7.612157547846437">
        <ele>1663.7</ele>
        <time>2021-06-06T07:51:53Z</time>
      </trkpt>
      <trkpt lat="45.672150934115052" lon="7.612097952514887">
        <ele>1664.6600000000001</ele>
        <time>2021-06-06T07:52:01Z</time>
      </trkpt>
      <trkpt lat="45.672183372080326" lon="7.612038860097528">
        <ele>1666.5799999999999</ele>
        <time>2021-06-06T07:52:11Z</time>
      </trkpt>
      <trkpt lat="45.672216983512044" lon="7.611951269209385">
        <ele>1668.51</ele>
        <time>2021-06-06T07:52:24Z</time>
      </trkpt>
      <trkpt lat="45.672263838350773" lon="7.611883291974664">
        <ele>1670.4300000000001</ele>
        <time>2021-06-06T07:52:36Z</time>
      </trkpt>
      <trkpt lat="45.672292169183493" lon="7.611769633367658">
        <ele>1672.3499999999999</ele>
        <time>2021-06-06T07:52:49Z</time>
      </trkpt>
      <trkpt lat="45.672326451167464" lon="7.611672570928931">
        <ele>1674.27</ele>
        <time>2021-06-06T07:53:02Z</time>
      </trkpt>
      <trkpt lat="45.672362074255943" lon="7.611616495996714">
        <ele>1676.2</ele>
        <time>2021-06-06T07:53:16Z</time>
      </trkpt>
      <trkpt lat="45.672419657930732" lon="7.611548770219088">
        <ele>1678.1199999999999</ele>
        <time>2021-06-06T07:53:29Z</time>
      </trkpt>
      <trkpt lat="45.672466764226556" lon="7.611471321433783">
        <ele>1681</ele>
        <time>2021-06-06T07:53:46Z</time>
      </trkpt>
      <trkpt lat="45.672541446983814" lon="7.611360596492887">
        <ele>1683.4100000000001</ele>
        <time>2021-06-06T07:54:05Z</time>
      </trkpt>
      <trkpt lat="45.672602970153093" lon="7.611269317567349">
        <ele>1684.8499999999999</ele>
        <time>2021-06-06T07:54:18Z</time>
      </trkpt>
      <trkpt lat="45.672703133895993" lon="7.611229084432125">
        <ele>1686.29</ele>
        <time>2021-06-06T07:54:31Z</time>
      </trkpt>
      <trkpt lat="45.672773038968444" lon="7.611164543777704">
        <ele>1687.25</ele>
        <time>2021-06-06T07:54:44Z</time>
      </trkpt>
      <trkpt lat="45.672825677320361" lon="7.611067397519946">
        <ele>1688.6900000000001</ele>
        <time>2021-06-06T07:54:57Z</time>
      </trkpt>
      <trkpt lat="45.672920476645231" lon="7.610994642600417">
        <ele>1689.6500000000001</ele>
        <time>2021-06-06T07:55:10Z</time>
      </trkpt>
      <trkpt lat="45.673011923208833" lon="7.610916187986732">
        <ele>1691.5799999999999</ele>
        <time>2021-06-06T07:55:26Z</time>
      </trkpt>
      <trkpt lat="45.673044193536043" lon="7.610870841890574">
        <ele>1693.02</ele>
        <time>2021-06-06T07:55:39Z</time>
      </trkpt>
      <trkpt lat="45.673003792762756" lon="7.610848126932979">
        <ele>1694.46</ele>
        <time>2021-06-06T07:55:48Z</time>
      </trkpt>
      <trkpt lat="45.672928942367435" lon="7.610799176618457">
        <ele>1696.3800000000001</ele>
        <time>2021-06-06T07:56:02Z</time>
      </trkpt>
      <trkpt lat="45.672863395884633" lon="7.610742347314954">
        <ele>1698.3099999999999</ele>
        <time>2021-06-06T07:56:16Z</time>
      </trkpt>
      <trkpt lat="45.672815535217524" lon="7.610669592395425">
        <ele>1700.71</ele>
        <time>2021-06-06T07:56:35Z</time>
      </trkpt>
      <trkpt lat="45.672813691198826" lon="7.610579989850521">
        <ele>1702.6300000000001</ele>
        <time>2021-06-06T07:56:47Z</time>
      </trkpt>
      <trkpt lat="45.672803968191147" lon="7.610491057857871">
        <ele>1704.55</ele>
        <time>2021-06-06T07:56:58Z</time>
      </trkpt>
      <trkpt lat="45.672803046181798" lon="7.610329370945692">
        <ele>1706.96</ele>
        <time>2021-06-06T07:57:19Z</time>
      </trkpt>
      <trkpt lat="45.672795753926039" lon="7.610272290185094">
        <ele>1708.8800000000001</ele>
        <time>2021-06-06T07:57:37Z</time>
      </trkpt>
      <trkpt lat="45.672819390892982" lon="7.610238930210471">
        <ele>1709.3599999999999</ele>
        <time>2021-06-06T07:57:44Z</time>
      </trkpt>
      <trkpt lat="45.672854343429208" lon="7.610088558867574">
        <ele>1710.8</ele>
        <time>2021-06-06T07:57:57Z</time>
      </trkpt>
      <trkpt lat="45.672906646504998" lon="7.610022090375423">
        <ele>1712.73</ele>
        <time>2021-06-06T07:58:08Z</time>
      </trkpt>
      <trkpt lat="45.672950735315681" lon="7.609941624104977">
        <ele>1714.1700000000001</ele>
        <time>2021-06-06T07:58:20Z</time>
      </trkpt>
      <trkpt lat="45.672919973731041" lon="7.609823690727353">
        <ele>1716.0899999999999</ele>
        <time>2021-06-06T07:58:34Z</time>
      </trkpt>
      <trkpt lat="45.672896169126034" lon="7.609695196151733">
        <ele>1718.01</ele>
        <time>2021-06-06T07:58:49Z</time>
      </trkpt>
      <trkpt lat="45.672882255166769" lon="7.609599390998483">
        <ele>1719.9400000000001</ele>
        <time>2021-06-06T07:59:02Z</time>
      </trkpt>
      <trkpt lat="45.672907987609506" lon="7.609481625258923">
        <ele>1721.8599999999999</ele>
        <time>2021-06-06T07:59:16Z</time>
      </trkpt>
      <trkpt lat="45.672897761687636" lon="7.609357992187142">
        <ele>1723.3</ele>
        <time>2021-06-06T07:59:29Z</time>
      </trkpt>
      <trkpt lat="45.672919889912009" lon="7.609256152063608">
        <ele>1725.22</ele>
        <time>2021-06-06T07:59:43Z</time>
      </trkpt>
      <trkpt lat="45.672872196882963" lon="7.609170824289322">
        <ele>1726.6700000000001</ele>
        <time>2021-06-06T07:59:55Z</time>
      </trkpt>
      <trkpt lat="45.672831293195486" lon="7.609064122661948">
        <ele>1727.6300000000001</ele>
        <time>2021-06-06T08:00:07Z</time>
      </trkpt>
      <trkpt lat="45.672782594338059" lon="7.608968988060951">
        <ele>1729.55</ele>
        <time>2021-06-06T08:00:21Z</time>
      </trkpt>
      <trkpt lat="45.672724340111017" lon="7.608859436586499">
        <ele>1731.47</ele>
        <time>2021-06-06T08:00:35Z</time>
      </trkpt>
      <trkpt lat="45.672680251300335" lon="7.608736474066973">
        <ele>1733.3900000000001</ele>
        <time>2021-06-06T08:00:50Z</time>
      </trkpt>
      <trkpt lat="45.672623254358768" lon="7.60856774635613">
        <ele>1734.8399999999999</ele>
        <time>2021-06-06T08:01:05Z</time>
      </trkpt>
      <trkpt lat="45.672567095607519" lon="7.608491135761142">
        <ele>1735.8</ele>
        <time>2021-06-06T08:01:15Z</time>
      </trkpt>
      <trkpt lat="45.672533484175801" lon="7.608374459668994">
        <ele>1735.8</ele>
        <time>2021-06-06T08:01:27Z</time>
      </trkpt>
      <trkpt lat="45.672452095896006" lon="7.608262142166495">
        <ele>1737.24</ele>
        <time>2021-06-06T08:01:40Z</time>
      </trkpt>
      <trkpt lat="45.672364169731736" lon="7.608240181580186">
        <ele>1737.72</ele>
        <time>2021-06-06T08:01:52Z</time>
      </trkpt>
      <trkpt lat="45.672267023473978" lon="7.608243450522423">
        <ele>1738.6800000000001</ele>
        <time>2021-06-06T08:02:06Z</time>
      </trkpt>
      <trkpt lat="45.672188652679324" lon="7.608217298984528">
        <ele>1739.1600000000001</ele>
        <time>2021-06-06T08:02:17Z</time>
      </trkpt>
      <trkpt lat="45.672137774527073" lon="7.608219394460321">
        <ele>1739.1600000000001</ele>
        <time>2021-06-06T08:02:25Z</time>
      </trkpt>
      <trkpt lat="45.671998132020235" lon="7.608199026435614">
        <ele>1739.6400000000001</ele>
        <time>2021-06-06T08:02:39Z</time>
      </trkpt>
      <trkpt lat="45.671893022954464" lon="7.608186453580856">
        <ele>1740.1199999999999</ele>
        <time>2021-06-06T08:02:51Z</time>
      </trkpt>
      <trkpt lat="45.671804677695036" lon="7.608164241537452">
        <ele>1740.5999999999999</ele>
        <time>2021-06-06T08:03:02Z</time>
      </trkpt>
      <trkpt lat="45.671724127605557" lon="7.608174718916416">
        <ele>1741.0799999999999</ele>
        <time>2021-06-06T08:03:14Z</time>
      </trkpt>
      <trkpt lat="45.671613570302725" lon="7.608206318691373">
        <ele>1741.5699999999999</ele>
        <time>2021-06-06T08:03:25Z</time>
      </trkpt>
      <trkpt lat="45.671502090990543" lon="7.608278570696712">
        <ele>1742.05</ele>
        <time>2021-06-06T08:03:41Z</time>
      </trkpt>
      <trkpt lat="45.67138466052711" lon="7.608307991176844">
        <ele>1743.01</ele>
        <time>2021-06-06T08:03:57Z</time>
      </trkpt>
      <trkpt lat="45.671268068253994" lon="7.608301034197211">
        <ele>1743.49</ele>
        <time>2021-06-06T08:04:10Z</time>
      </trkpt>
      <trkpt lat="45.671242671087384" lon="7.608286198228598">
        <ele>1743.49</ele>
        <time>2021-06-06T08:04:13Z</time>
      </trkpt>
      <trkpt lat="45.671148039400578" lon="7.608239594846964">
        <ele>1743.49</ele>
        <time>2021-06-06T08:04:25Z</time>
      </trkpt>
      <trkpt lat="45.67106413654983" lon="7.608213443309069">
        <ele>1743.97</ele>
        <time>2021-06-06T08:04:37Z</time>
      </trkpt>
      <trkpt lat="45.670962799340487" lon="7.60816365480423">
        <ele>1744.45</ele>
        <time>2021-06-06T08:04:50Z</time>
      </trkpt>
      <trkpt lat="45.670863892883062" lon="7.608115375041962">
        <ele>1744.9300000000001</ele>
        <time>2021-06-06T08:05:03Z</time>
      </trkpt>
      <trkpt lat="45.67072156816721" lon="7.608073465526104">
        <ele>1744.9300000000001</ele>
        <time>2021-06-06T08:05:19Z</time>
      </trkpt>
      <trkpt lat="45.670640766620636" lon="7.608022168278694">
        <ele>1745.4100000000001</ele>
        <time>2021-06-06T08:05:31Z</time>
      </trkpt>
      <trkpt lat="45.670537836849689" lon="7.607947820797563">
        <ele>1745.8900000000001</ele>
        <time>2021-06-06T08:05:44Z</time>
      </trkpt>
      <trkpt lat="45.670440020039678" lon="7.60783483274281">
        <ele>1746.3699999999999</ele>
        <time>2021-06-06T08:05:57Z</time>
      </trkpt>
      <trkpt lat="45.670431889593601" lon="7.607823265716434">
        <ele>1746.3699999999999</ele>
        <time>2021-06-06T08:05:58Z</time>
      </trkpt>
      <trkpt lat="45.670404145494103" lon="7.607779679819942">
        <ele>1746.3699999999999</ele>
        <time>2021-06-06T08:06:02Z</time>
      </trkpt>
      <trkpt lat="45.670338263735175" lon="7.607706589624286">
        <ele>1746.3699999999999</ele>
        <time>2021-06-06T08:06:12Z</time>
      </trkpt>
      <trkpt lat="45.670330384746194" lon="7.607700554654002">
        <ele>1746.3699999999999</ele>
        <time>2021-06-06T08:06:13Z</time>
      </trkpt>
      <trkpt lat="45.670242458581924" lon="7.607590164989233">
        <ele>1745.8900000000001</ele>
        <time>2021-06-06T08:06:26Z</time>
      </trkpt>
      <trkpt lat="45.670143971219659" lon="7.607474494725466">
        <ele>1746.3699999999999</ele>
        <time>2021-06-06T08:06:41Z</time>
      </trkpt>
      <trkpt lat="45.670056631788611" lon="7.607358321547508">
        <ele>1746.8499999999999</ele>
        <time>2021-06-06T08:06:54Z</time>
      </trkpt>
      <trkpt lat="45.669967867434025" lon="7.607286991551518">
        <ele>1747.3299999999999</ele>
        <time>2021-06-06T08:07:06Z</time>
      </trkpt>
      <trkpt lat="45.669845826923847" lon="7.607140559703112">
        <ele>1748.29</ele>
        <time>2021-06-06T08:07:22Z</time>
      </trkpt>
      <trkpt lat="45.66984205506742" lon="7.607125472277403">
        <ele>1748.29</ele>
        <time>2021-06-06T08:07:23Z</time>
      </trkpt>
      <trkpt lat="45.66976242698729" lon="7.606996055692434">
        <ele>1748.78</ele>
        <time>2021-06-06T08:07:36Z</time>
      </trkpt>
      <trkpt lat="45.669661592692137" lon="7.606848869472742">
        <ele>1748.78</ele>
        <time>2021-06-06T08:07:51Z</time>
      </trkpt>
      <trkpt lat="45.669646086171269" lon="7.606840655207634">
        <ele>1748.78</ele>
        <time>2021-06-06T08:07:53Z</time>
      </trkpt>
      <trkpt lat="45.66955522634089" lon="7.606798829510808">
        <ele>1749.26</ele>
        <time>2021-06-06T08:08:05Z</time>
      </trkpt>
      <trkpt lat="45.669462438672781" lon="7.606772677972913">
        <ele>1749.26</ele>
        <time>2021-06-06T08:08:17Z</time>
      </trkpt>
      <trkpt lat="45.669354731217027" lon="7.606753818690777">
        <ele>1749.74</ele>
        <time>2021-06-06T08:08:31Z</time>
      </trkpt>
      <trkpt lat="45.669264793395996" lon="7.606749963015318">
        <ele>1749.74</ele>
        <time>2021-06-06T08:08:43Z</time>
      </trkpt>
      <trkpt lat="45.669256495311856" lon="7.606747699901462">
        <ele>1749.74</ele>
        <time>2021-06-06T08:08:44Z</time>
      </trkpt>
      <trkpt lat="45.669148955494165" lon="7.606669832020998">
        <ele>1750.22</ele>
        <time>2021-06-06T08:08:57Z</time>
      </trkpt>
      <trkpt lat="45.669123139232397" lon="7.60665281675756">
        <ele>1750.22</ele>
        <time>2021-06-06T08:09:00Z</time>
      </trkpt>
      <trkpt lat="45.669017862528563" lon="7.60655315592885">
        <ele>1751.1800000000001</ele>
        <time>2021-06-06T08:09:16Z</time>
      </trkpt>
      <trkpt lat="45.668923230841756" lon="7.606528680771589">
        <ele>1751.6600000000001</ele>
        <time>2021-06-06T08:09:29Z</time>
      </trkpt>
      <trkpt lat="45.668817367404699" lon="7.606463637202978">
        <ele>1752.6199999999999</ele>
        <time>2021-06-06T08:09:43Z</time>
      </trkpt>
      <trkpt lat="45.668743774294853" lon="7.6064383238554">
        <ele>1753.5799999999999</ele>
        <time>2021-06-06T08:09:54Z</time>
      </trkpt>
      <trkpt lat="45.668653333559632" lon="7.60632055811584">
        <ele>1754.54</ele>
        <time>2021-06-06T08:10:08Z</time>
      </trkpt>
      <trkpt lat="45.668583763763309" lon="7.606202121824026">
        <ele>1755.5</ele>
        <time>2021-06-06T08:10:21Z</time>
      </trkpt>
      <trkpt lat="45.668497178703547" lon="7.60603666305542">
        <ele>1756.95</ele>
        <time>2021-06-06T08:10:38Z</time>
      </trkpt>
      <trkpt lat="45.668467925861478" lon="7.605918729677796">
        <ele>1757.4300000000001</ele>
        <time>2021-06-06T08:10:50Z</time>
      </trkpt>
      <trkpt lat="45.668464824557304" lon="7.605897272005677">
        <ele>1757.9100000000001</ele>
        <time>2021-06-06T08:10:53Z</time>
      </trkpt>
      <trkpt lat="45.66843674518168" lon="7.605731729418039">
        <ele>1758.3900000000001</ele>
        <time>2021-06-06T08:11:09Z</time>
      </trkpt>
      <trkpt lat="45.668381759896874" lon="7.605626955628395">
        <ele>1759.8299999999999</ele>
        <time>2021-06-06T08:11:22Z</time>
      </trkpt>
      <trkpt lat="45.668356027454138" lon="7.605579849332571">
        <ele>1759.8299999999999</ele>
        <time>2021-06-06T08:11:28Z</time>
      </trkpt>
      <trkpt lat="45.668279249221087" lon="7.60551824234426">
        <ele>1761.27</ele>
        <time>2021-06-06T08:11:41Z</time>
      </trkpt>
      <trkpt lat="45.668201884254813" lon="7.605467196553946">
        <ele>1762.71</ele>
        <time>2021-06-06T08:11:54Z</time>
      </trkpt>
      <trkpt lat="45.668152598664165" lon="7.605379354208708">
        <ele>1763.6800000000001</ele>
        <time>2021-06-06T08:12:04Z</time>
      </trkpt>
      <trkpt lat="45.668081268668175" lon="7.605262845754623">
        <ele>1764.6400000000001</ele>
        <time>2021-06-06T08:12:16Z</time>
      </trkpt>
      <trkpt lat="45.668022679165006" lon="7.605161089450121">
        <ele>1765.1199999999999</ele>
        <time>2021-06-06T08:12:27Z</time>
      </trkpt>
      <trkpt lat="45.667989319190383" lon="7.605005437508225">
        <ele>1766.0799999999999</ele>
        <time>2021-06-06T08:12:42Z</time>
      </trkpt>
      <trkpt lat="45.667947996407747" lon="7.604857748374343">
        <ele>1767.52</ele>
        <time>2021-06-06T08:12:56Z</time>
      </trkpt>
      <trkpt lat="45.667897034436464" lon="7.604748196899891">
        <ele>1768.48</ele>
        <time>2021-06-06T08:13:10Z</time>
      </trkpt>
      <trkpt lat="45.667827799916267" lon="7.604658175259829">
        <ele>1770.4100000000001</ele>
        <time>2021-06-06T08:13:21Z</time>
      </trkpt>
      <trkpt lat="45.667789662256837" lon="7.604594975709915">
        <ele>1771.3699999999999</ele>
        <time>2021-06-06T08:13:31Z</time>
      </trkpt>
      <trkpt lat="45.667709866538644" lon="7.604483664035797">
        <ele>1773.77</ele>
        <time>2021-06-06T08:13:46Z</time>
      </trkpt>
      <trkpt lat="45.667627053335309" lon="7.604368999600411">
        <ele>1775.21</ele>
        <time>2021-06-06T08:14:01Z</time>
      </trkpt>
      <trkpt lat="45.667542647570372" lon="7.604298256337643">
        <ele>1776.1700000000001</ele>
        <time>2021-06-06T08:14:14Z</time>
      </trkpt>
      <trkpt lat="45.667419182136655" lon="7.604177976027131">
        <ele>1777.1300000000001</ele>
        <time>2021-06-06T08:14:31Z</time>
      </trkpt>
      <trkpt lat="45.667338045313954" lon="7.604102790355682">
        <ele>1778.5799999999999</ele>
        <time>2021-06-06T08:14:44Z</time>
      </trkpt>
      <trkpt lat="45.667254561558366" lon="7.604058785364032">
        <ele>1780.02</ele>
        <time>2021-06-06T08:14:56Z</time>
      </trkpt>
      <trkpt lat="45.667192870751023" lon="7.603997429832816">
        <ele>1780.98</ele>
        <time>2021-06-06T08:15:06Z</time>
      </trkpt>
      <trkpt lat="45.667085163295269" lon="7.603994831442833">
        <ele>1782.4200000000001</ele>
        <time>2021-06-06T08:15:20Z</time>
      </trkpt>
      <trkpt lat="45.666986340656877" lon="7.603965830057859">
        <ele>1784.3399999999999</ele>
        <time>2021-06-06T08:15:34Z</time>
      </trkpt>
      <trkpt lat="45.666910568252206" lon="7.603914616629481">
        <ele>1785.79</ele>
        <time>2021-06-06T08:15:47Z</time>
      </trkpt>
      <trkpt lat="45.666802525520325" lon="7.60390087030828">
        <ele>1787.23</ele>
        <time>2021-06-06T08:16:01Z</time>
      </trkpt>
      <trkpt lat="45.666681826114655" lon="7.603936996310949">
        <ele>1788.6700000000001</ele>
        <time>2021-06-06T08:16:16Z</time>
      </trkpt>
      <trkpt lat="45.666627427563071" lon="7.603976055979729">
        <ele>1790.1099999999999</ele>
        <time>2021-06-06T08:16:26Z</time>
      </trkpt>
      <trkpt lat="45.666529191657901" lon="7.604005727916956">
        <ele>1791.0699999999999</ele>
        <time>2021-06-06T08:16:38Z</time>
      </trkpt>
      <trkpt lat="45.666453586891294" lon="7.604010254144669">
        <ele>1792.03</ele>
        <time>2021-06-06T08:16:49Z</time>
      </trkpt>
      <trkpt lat="45.666348477825522" lon="7.603967254981399">
        <ele>1793</ele>
        <time>2021-06-06T08:17:01Z</time>
      </trkpt>
      <trkpt lat="45.666245128959417" lon="7.603904977440834">
        <ele>1793.48</ele>
        <time>2021-06-06T08:17:13Z</time>
      </trkpt>
      <trkpt lat="45.666188970208168" lon="7.60392626747489">
        <ele>1793.96</ele>
        <time>2021-06-06T08:17:22Z</time>
      </trkpt>
      <trkpt lat="45.666179582476616" lon="7.603930290788412">
        <ele>1793.96</ele>
        <time>2021-06-06T08:17:23Z</time>
      </trkpt>
      <trkpt lat="45.666120741516352" lon="7.603968093171716">
        <ele>1794.4400000000001</ele>
        <time>2021-06-06T08:17:30Z</time>
      </trkpt>
      <trkpt lat="45.666111689060926" lon="7.603976055979729">
        <ele>1794.4400000000001</ele>
        <time>2021-06-06T08:17:31Z</time>
      </trkpt>
      <trkpt lat="45.666102049872279" lon="7.603981336578727">
        <ele>1794.4400000000001</ele>
        <time>2021-06-06T08:17:32Z</time>
      </trkpt>
      <trkpt lat="45.665983445942402" lon="7.604013523086906">
        <ele>1794.9200000000001</ele>
        <time>2021-06-06T08:17:46Z</time>
      </trkpt>
      <trkpt lat="45.665950588881969" lon="7.604014528915286">
        <ele>1795.8800000000001</ele>
        <time>2021-06-06T08:18:04Z</time>
      </trkpt>
      <trkpt lat="45.665966430678964" lon="7.604023581370711">
        <ele>1795.4000000000001</ele>
        <time>2021-06-06T08:18:24Z</time>
      </trkpt>
      <trkpt lat="45.665960144251585" lon="7.604040848091245">
        <ele>1795.4000000000001</ele>
        <time>2021-06-06T08:18:50Z</time>
      </trkpt>
      <trkpt lat="45.666013285517693" lon="7.604012936353684">
        <ele>1795.4000000000001</ele>
        <time>2021-06-06T08:19:12Z</time>
      </trkpt>
      <trkpt lat="45.666010435670614" lon="7.604010757058859">
        <ele>1795.4000000000001</ele>
        <time>2021-06-06T08:19:37Z</time>
      </trkpt>
      <trkpt lat="45.666009094566107" lon="7.604025928303599">
        <ele>1795.4000000000001</ele>
        <time>2021-06-06T08:20:05Z</time>
      </trkpt>
      <trkpt lat="45.665952851995826" lon="7.60401469655335">
        <ele>1795.4000000000001</ele>
        <time>2021-06-06T08:20:20Z</time>
      </trkpt>
      <trkpt lat="45.665952768176794" lon="7.604018552228808">
        <ele>1795.4000000000001</ele>
        <time>2021-06-06T08:20:45Z</time>
      </trkpt>
      <trkpt lat="45.665938351303339" lon="7.603998938575387">
        <ele>1795.4000000000001</ele>
        <time>2021-06-06T08:21:06Z</time>
      </trkpt>
      <trkpt lat="45.665933238342404" lon="7.604001117870212">
        <ele>1795.4000000000001</ele>
        <time>2021-06-06T08:21:28Z</time>
      </trkpt>
      <trkpt lat="45.665938686579466" lon="7.603988377377391">
        <ele>1795.4000000000001</ele>
        <time>2021-06-06T08:22:08Z</time>
      </trkpt>
      <trkpt lat="45.665934076532722" lon="7.603990891948342">
        <ele>1795.4000000000001</ele>
        <time>2021-06-06T08:22:37Z</time>
      </trkpt>
      <trkpt lat="45.6659334897995" lon="7.603988125920296">
        <ele>1795.4000000000001</ele>
        <time>2021-06-06T08:23:10Z</time>
      </trkpt>
      <trkpt lat="45.665930388495326" lon="7.60399223305285">
        <ele>1795.4000000000001</ele>
        <time>2021-06-06T08:23:53Z</time>
      </trkpt>
      <trkpt lat="45.665902644395828" lon="7.603952921926975">
        <ele>1795.4000000000001</ele>
        <time>2021-06-06T08:24:02Z</time>
      </trkpt>
      <trkpt lat="45.665896525606513" lon="7.603943450376391">
        <ele>1795.4000000000001</ele>
        <time>2021-06-06T08:24:03Z</time>
      </trkpt>
      <trkpt lat="45.665837684646249" lon="7.603814620524645">
        <ele>1796.8399999999999</ele>
        <time>2021-06-06T08:24:16Z</time>
      </trkpt>
      <trkpt lat="45.665768450126052" lon="7.603633068501949">
        <ele>1797.8</ele>
        <time>2021-06-06T08:24:33Z</time>
      </trkpt>
      <trkpt lat="45.665763085708022" lon="7.603542376309633">
        <ele>1798.76</ele>
        <time>2021-06-06T08:24:41Z</time>
      </trkpt>
      <trkpt lat="45.665751518681645" lon="7.6034024823457">
        <ele>1799.73</ele>
        <time>2021-06-06T08:24:54Z</time>
      </trkpt>
      <trkpt lat="45.665741628035903" lon="7.603275077417493">
        <ele>1801.1700000000001</ele>
        <time>2021-06-06T08:25:06Z</time>
      </trkpt>
      <trkpt lat="45.665675159543753" lon="7.603182792663574">
        <ele>1802.6099999999999</ele>
        <time>2021-06-06T08:25:19Z</time>
      </trkpt>
      <trkpt lat="45.665622185915709" lon="7.603161418810487">
        <ele>1803.5699999999999</ele>
        <time>2021-06-06T08:25:27Z</time>
      </trkpt>
      <trkpt lat="45.665541887283325" lon="7.603122359141707">
        <ele>1805.49</ele>
        <time>2021-06-06T08:25:39Z</time>
      </trkpt>
      <trkpt lat="45.665562590584159" lon="7.603025883436203">
        <ele>1807.4200000000001</ele>
        <time>2021-06-06T08:25:53Z</time>
      </trkpt>
      <trkpt lat="45.665506096556783" lon="7.602941896766424">
        <ele>1808.8599999999999</ele>
        <time>2021-06-06T08:26:06Z</time>
      </trkpt>
      <trkpt lat="45.665415152907372" lon="7.6029206905514">
        <ele>1810.78</ele>
        <time>2021-06-06T08:26:22Z</time>
      </trkpt>
      <trkpt lat="45.665321024134755" lon="7.602894119918346">
        <ele>1812.7</ele>
        <time>2021-06-06T08:26:38Z</time>
      </trkpt>
      <trkpt lat="45.665220692753792" lon="7.602908117696643">
        <ele>1815.1099999999999</ele>
        <time>2021-06-06T08:26:55Z</time>
      </trkpt>
      <trkpt lat="45.665158918127418" lon="7.602805774658918">
        <ele>1817.03</ele>
        <time>2021-06-06T08:27:10Z</time>
      </trkpt>
      <trkpt lat="45.665197558701038" lon="7.602725978940725">
        <ele>1818.47</ele>
        <time>2021-06-06T08:27:23Z</time>
      </trkpt>
      <trkpt lat="45.665229829028249" lon="7.602612990885973">
        <ele>1820.3900000000001</ele>
        <time>2021-06-06T08:27:35Z</time>
      </trkpt>
      <trkpt lat="45.665262769907713" lon="7.602572087198496">
        <ele>1822.3199999999999</ele>
        <time>2021-06-06T08:27:50Z</time>
      </trkpt>
      <trkpt lat="45.66526603884995" lon="7.602480472996831">
        <ele>1823.76</ele>
        <time>2021-06-06T08:28:04Z</time>
      </trkpt>
      <trkpt lat="45.665192697197199" lon="7.602455159649253">
        <ele>1825.2</ele>
        <time>2021-06-06T08:28:15Z</time>
      </trkpt>
      <trkpt lat="45.66508817486465" lon="7.602405035868287">
        <ele>1827.5999999999999</ele>
        <time>2021-06-06T08:28:32Z</time>
      </trkpt>
      <trkpt lat="45.665021538734436" lon="7.602361617609859">
        <ele>1830.01</ele>
        <time>2021-06-06T08:28:47Z</time>
      </trkpt>
      <trkpt lat="45.664944844320416" lon="7.602349799126387">
        <ele>1832.4100000000001</ele>
        <time>2021-06-06T08:29:02Z</time>
      </trkpt>
      <trkpt lat="45.664954483509064" lon="7.602282827720046">
        <ele>1833.3699999999999</ele>
        <time>2021-06-06T08:29:10Z</time>
      </trkpt>
      <trkpt lat="45.665002260357141" lon="7.602245444431901">
        <ele>1835.29</ele>
        <time>2021-06-06T08:29:22Z</time>
      </trkpt>
      <trkpt lat="45.665061436593533" lon="7.602216275408864">
        <ele>1836.74</ele>
        <time>2021-06-06T08:29:33Z</time>
      </trkpt>
      <trkpt lat="45.664996560662985" lon="7.602164391428232">
        <ele>1837.7</ele>
        <time>2021-06-06T08:29:45Z</time>
      </trkpt>
      <trkpt lat="45.664901677519083" lon="7.602151148021221">
        <ele>1839.6199999999999</ele>
        <time>2021-06-06T08:30:02Z</time>
      </trkpt>
      <trkpt lat="45.664926068857312" lon="7.602102868258953">
        <ele>1839.6199999999999</ele>
        <time>2021-06-06T08:30:16Z</time>
      </trkpt>
      <trkpt lat="45.665003433823586" lon="7.602059450000525">
        <ele>1839.6199999999999</ele>
        <time>2021-06-06T08:30:30Z</time>
      </trkpt>
      <trkpt lat="45.665027238428593" lon="7.601975882425904">
        <ele>1839.6199999999999</ele>
        <time>2021-06-06T08:30:44Z</time>
      </trkpt>
      <trkpt lat="45.664933947846293" lon="7.601953335106373">
        <ele>1839.6199999999999</ele>
        <time>2021-06-06T08:31:00Z</time>
      </trkpt>
      <trkpt lat="45.664853397756815" lon="7.601898685097694">
        <ele>1839.6199999999999</ele>
        <time>2021-06-06T08:31:15Z</time>
      </trkpt>
      <trkpt lat="45.664788018912077" lon="7.601861720904708">
        <ele>1846.3499999999999</ele>
        <time>2021-06-06T08:31:26Z</time>
      </trkpt>
      <trkpt lat="45.664782151579857" lon="7.601859290152788">
        <ele>1850.6800000000001</ele>
        <time>2021-06-06T08:31:27Z</time>
      </trkpt>
      <trkpt lat="45.664771590381861" lon="7.601852836087346">
        <ele>1854.52</ele>
        <time>2021-06-06T08:31:29Z</time>
      </trkpt>
      <trkpt lat="45.664722975343466" lon="7.601864067837596">
        <ele>1855.48</ele>
        <time>2021-06-06T08:31:41Z</time>
      </trkpt>
      <trkpt lat="45.664632450789213" lon="7.601855266839266">
        <ele>1857.4000000000001</ele>
        <time>2021-06-06T08:31:57Z</time>
      </trkpt>
      <trkpt lat="45.664629181846976" lon="7.601776141673327">
        <ele>1858.8499999999999</ele>
        <time>2021-06-06T08:32:09Z</time>
      </trkpt>
      <trkpt lat="45.664646280929446" lon="7.601661393418908">
        <ele>1860.77</ele>
        <time>2021-06-06T08:32:22Z</time>
      </trkpt>
      <trkpt lat="45.664617447182536" lon="7.601555529981852">
        <ele>1862.6900000000001</ele>
        <time>2021-06-06T08:32:37Z</time>
      </trkpt>
      <trkpt lat="45.664527928456664" lon="7.601582435891032">
        <ele>1865.0899999999999</ele>
        <time>2021-06-06T08:32:53Z</time>
      </trkpt>
      <trkpt lat="45.664416197687387" lon="7.601642953231931">
        <ele>1867.5</ele>
        <time>2021-06-06T08:33:13Z</time>
      </trkpt>
      <trkpt lat="45.664313938468695" lon="7.601752672344446">
        <ele>1869.9000000000001</ele>
        <time>2021-06-06T08:33:31Z</time>
      </trkpt>
      <trkpt lat="45.664249565452337" lon="7.601866750046611">
        <ele>1871.3399999999999</ele>
        <time>2021-06-06T08:33:46Z</time>
      </trkpt>
      <trkpt lat="45.664201118052006" lon="7.601937493309379">
        <ele>1872.79</ele>
        <time>2021-06-06T08:33:58Z</time>
      </trkpt>
      <trkpt lat="45.66411436535418" lon="7.602004883810878">
        <ele>1874.23</ele>
        <time>2021-06-06T08:34:11Z</time>
      </trkpt>
      <trkpt lat="45.664011854678392" lon="7.602081494405866">
        <ele>1875.1900000000001</ele>
        <time>2021-06-06T08:34:25Z</time>
      </trkpt>
      <trkpt lat="45.663876822218299" lon="7.602055259048939">
        <ele>1876.1500000000001</ele>
        <time>2021-06-06T08:34:41Z</time>
      </trkpt>
      <trkpt lat="45.663826866075397" lon="7.602029694244266">
        <ele>1876.1500000000001</ele>
        <time>2021-06-06T08:34:47Z</time>
      </trkpt>
      <trkpt lat="45.66372737288475" lon="7.602037489414215">
        <ele>1876.1500000000001</ele>
        <time>2021-06-06T08:35:00Z</time>
      </trkpt>
      <trkpt lat="45.663667945191264" lon="7.602057941257954">
        <ele>1877.1099999999999</ele>
        <time>2021-06-06T08:35:11Z</time>
      </trkpt>
      <trkpt lat="45.663598040118814" lon="7.602144693955779">
        <ele>1877.5899999999999</ele>
        <time>2021-06-06T08:35:20Z</time>
      </trkpt>
      <trkpt lat="45.663555795326829" lon="7.602196661755443">
        <ele>1878.0699999999999</ele>
        <time>2021-06-06T08:35:25Z</time>
      </trkpt>
      <trkpt lat="45.663475831970572" lon="7.60221166536212">
        <ele>1878.0699999999999</ele>
        <time>2021-06-06T08:35:34Z</time>
      </trkpt>
      <trkpt lat="45.66342294216156" lon="7.602176126092672">
        <ele>1879.03</ele>
        <time>2021-06-06T08:35:41Z</time>
      </trkpt>
      <trkpt lat="45.663293860852718" lon="7.602111669257283">
        <ele>1879.51</ele>
        <time>2021-06-06T08:35:57Z</time>
      </trkpt>
      <trkpt lat="45.663134772330523" lon="7.602158188819885">
        <ele>1880.96</ele>
        <time>2021-06-06T08:36:18Z</time>
      </trkpt>
      <trkpt lat="45.663010217249393" lon="7.602186435833573">
        <ele>1881.9200000000001</ele>
        <time>2021-06-06T08:36:35Z</time>
      </trkpt>
      <trkpt lat="45.66288742236793" lon="7.602249132469297">
        <ele>1882.8800000000001</ele>
        <time>2021-06-06T08:36:51Z</time>
      </trkpt>
      <trkpt lat="45.662815254181623" lon="7.602298837155104">
        <ele>1883.3599999999999</ele>
        <time>2021-06-06T08:37:00Z</time>
      </trkpt>
      <trkpt lat="45.66270561888814" lon="7.602392127737403">
        <ele>1883.3599999999999</ele>
        <time>2021-06-06T08:37:15Z</time>
      </trkpt>
      <trkpt lat="45.662620458751917" lon="7.602405287325382">
        <ele>1883.3599999999999</ele>
        <time>2021-06-06T08:37:26Z</time>
      </trkpt>
      <trkpt lat="45.662494646385312" lon="7.60236706584692">
        <ele>1884.3199999999999</ele>
        <time>2021-06-06T08:37:43Z</time>
      </trkpt>
      <trkpt lat="45.662354836240411" lon="7.602417524904013">
        <ele>1885.28</ele>
        <time>2021-06-06T08:38:01Z</time>
      </trkpt>
      <trkpt lat="45.662256767973304" lon="7.602353487163782">
        <ele>1885.76</ele>
        <time>2021-06-06T08:38:18Z</time>
      </trkpt>
      <trkpt lat="45.662233382463455" lon="7.602329682558775">
        <ele>1885.76</ele>
        <time>2021-06-06T08:38:37Z</time>
      </trkpt>
      <trkpt lat="45.662211757153273" lon="7.602261621505022">
        <ele>1886.24</ele>
        <time>2021-06-06T08:38:57Z</time>
      </trkpt>
      <trkpt lat="45.662179738283157" lon="7.602140754461289">
        <ele>1886.24</ele>
        <time>2021-06-06T08:39:12Z</time>
      </trkpt>
      <trkpt lat="45.662169093266129" lon="7.602092642337084">
        <ele>1886.24</ele>
        <time>2021-06-06T08:39:16Z</time>
      </trkpt>
      <trkpt lat="45.66210899502039" lon="7.601933889091015">
        <ele>1886.72</ele>
        <time>2021-06-06T08:39:28Z</time>
      </trkpt>
      <trkpt lat="45.662015872076154" lon="7.601865073665977">
        <ele>1888.1700000000001</ele>
        <time>2021-06-06T08:39:42Z</time>
      </trkpt>
      <trkpt lat="45.662000784650445" lon="7.601853087544441">
        <ele>1888.6500000000001</ele>
        <time>2021-06-06T08:39:45Z</time>
      </trkpt>
      <trkpt lat="45.66189156845212" lon="7.601757198572159">
        <ele>1890.5699999999999</ele>
        <time>2021-06-06T08:40:00Z</time>
      </trkpt>
      <trkpt lat="45.661808168515563" lon="7.601671535521746">
        <ele>1892.49</ele>
        <time>2021-06-06T08:40:14Z</time>
      </trkpt>
      <trkpt lat="45.661731893196702" lon="7.60157061740756">
        <ele>1894.4200000000001</ele>
        <time>2021-06-06T08:40:28Z</time>
      </trkpt>
      <trkpt lat="45.661693755537271" lon="7.601441536098719">
        <ele>1895.8599999999999</ele>
        <time>2021-06-06T08:40:40Z</time>
      </trkpt>
      <trkpt lat="45.661669699475169" lon="7.601391999050975">
        <ele>1896.3399999999999</ele>
        <time>2021-06-06T08:40:44Z</time>
      </trkpt>
      <trkpt lat="45.66157883964479" lon="7.601212291046977">
        <ele>1897.78</ele>
        <time>2021-06-06T08:41:01Z</time>
      </trkpt>
      <trkpt lat="45.661562494933605" lon="7.601185888051987">
        <ele>1898.26</ele>
        <time>2021-06-06T08:41:04Z</time>
      </trkpt>
      <trkpt lat="45.661562578752637" lon="7.601047167554498">
        <ele>1899.22</ele>
        <time>2021-06-06T08:41:19Z</time>
      </trkpt>
      <trkpt lat="45.661648660898209" lon="7.6009192597121">
        <ele>1900.6600000000001</ele>
        <time>2021-06-06T08:41:35Z</time>
      </trkpt>
      <trkpt lat="45.661654779687524" lon="7.60089822113514">
        <ele>1901.1400000000001</ele>
        <time>2021-06-06T08:41:37Z</time>
      </trkpt>
      <trkpt lat="45.661695934832096" lon="7.60080736130476">
        <ele>1901.6300000000001</ele>
        <time>2021-06-06T08:41:47Z</time>
      </trkpt>
      <trkpt lat="45.661737089976668" lon="7.600685739889741">
        <ele>1902.1099999999999</ele>
        <time>2021-06-06T08:41:58Z</time>
      </trkpt>
      <trkpt lat="45.661780927330256" lon="7.600514581426978">
        <ele>1902.5899999999999</ele>
        <time>2021-06-06T08:42:12Z</time>
      </trkpt>
      <trkpt lat="45.661830548197031" lon="7.600438473746181">
        <ele>1903.0699999999999</ele>
        <time>2021-06-06T08:42:20Z</time>
      </trkpt>
      <trkpt lat="45.66188377328217" lon="7.600328251719475">
        <ele>1903.55</ele>
        <time>2021-06-06T08:42:31Z</time>
      </trkpt>
      <trkpt lat="45.661944458261132" lon="7.600207636132836">
        <ele>1904.51</ele>
        <time>2021-06-06T08:42:43Z</time>
      </trkpt>
      <trkpt lat="45.661977482959628" lon="7.600132366642356">
        <ele>1904.99</ele>
        <time>2021-06-06T08:42:50Z</time>
      </trkpt>
      <trkpt lat="45.661998270079494" lon="7.600014097988606">
        <ele>1906.4300000000001</ele>
        <time>2021-06-06T08:43:01Z</time>
      </trkpt>
      <trkpt lat="45.662037162110209" lon="7.599962465465069">
        <ele>1907.8699999999999</ele>
        <time>2021-06-06T08:43:12Z</time>
      </trkpt>
      <trkpt lat="45.662076640874147" lon="7.599850818514824">
        <ele>1909.3199999999999</ele>
        <time>2021-06-06T08:43:25Z</time>
      </trkpt>
      <trkpt lat="45.66214662976563" lon="7.599780159071088">
        <ele>1911.24</ele>
        <time>2021-06-06T08:43:38Z</time>
      </trkpt>
      <trkpt lat="45.662136990576982" lon="7.599669937044382">
        <ele>1912.2</ele>
        <time>2021-06-06T08:43:48Z</time>
      </trkpt>
      <trkpt lat="45.662035653367639" lon="7.59956918656826">
        <ele>1914.1199999999999</ele>
        <time>2021-06-06T08:44:05Z</time>
      </trkpt>
      <trkpt lat="45.662019643932581" lon="7.599416552111507">
        <ele>1916.04</ele>
        <time>2021-06-06T08:44:20Z</time>
      </trkpt>
      <trkpt lat="45.662027271464467" lon="7.599285542964935">
        <ele>1917.97</ele>
        <time>2021-06-06T08:44:35Z</time>
      </trkpt>
      <trkpt lat="45.662014363333583" lon="7.599157718941569">
        <ele>1919.8900000000001</ele>
        <time>2021-06-06T08:44:48Z</time>
      </trkpt>
      <trkpt lat="45.661962982267141" lon="7.599205495789647">
        <ele>1922.77</ele>
        <time>2021-06-06T08:45:03Z</time>
      </trkpt>
      <trkpt lat="45.661961389705539" lon="7.599218571558595">
        <ele>1922.77</ele>
        <time>2021-06-06T08:45:04Z</time>
      </trkpt>
      <trkpt lat="45.661902632564306" lon="7.599323429167271">
        <ele>1924.7</ele>
        <time>2021-06-06T08:45:18Z</time>
      </trkpt>
      <trkpt lat="45.661834152415395" lon="7.599312281236053">
        <ele>1927.0999999999999</ele>
        <time>2021-06-06T08:45:31Z</time>
      </trkpt>
      <trkpt lat="45.661773299798369" lon="7.599217062816024">
        <ele>1929.02</ele>
        <time>2021-06-06T08:45:44Z</time>
      </trkpt>
      <trkpt lat="45.661731977015734" lon="7.599218152463436">
        <ele>1929.98</ele>
        <time>2021-06-06T08:45:49Z</time>
      </trkpt>
      <trkpt lat="45.661723846569657" lon="7.599217398092151">
        <ele>1929.98</ele>
        <time>2021-06-06T08:45:50Z</time>
      </trkpt>
      <trkpt lat="45.661631058901548" lon="7.599242879077792">
        <ele>1931.4300000000001</ele>
        <time>2021-06-06T08:46:03Z</time>
      </trkpt>
      <trkpt lat="45.66153047606349" lon="7.59933608584106">
        <ele>1932.3900000000001</ele>
        <time>2021-06-06T08:46:19Z</time>
      </trkpt>
      <trkpt lat="45.661425031721592" lon="7.59941378608346">
        <ele>1934.79</ele>
        <time>2021-06-06T08:46:33Z</time>
      </trkpt>
      <trkpt lat="45.661306763067842" lon="7.599459132179618">
        <ele>1936.23</ele>
        <time>2021-06-06T08:46:49Z</time>
      </trkpt>
      <trkpt lat="45.661233253777027" lon="7.599527528509498">
        <ele>1937.1900000000001</ele>
        <time>2021-06-06T08:47:02Z</time>
      </trkpt>
      <trkpt lat="45.661153960973024" lon="7.599645042791963">
        <ele>1939.5999999999999</ele>
        <time>2021-06-06T08:47:19Z</time>
      </trkpt>
      <trkpt lat="45.661151446402073" lon="7.599734896793962">
        <ele>1941.04</ele>
        <time>2021-06-06T08:47:33Z</time>
      </trkpt>
      <trkpt lat="45.661097634583712" lon="7.59979197755456">
        <ele>1942.48</ele>
        <time>2021-06-06T08:47:46Z</time>
      </trkpt>
      <trkpt lat="45.660994369536638" lon="7.599879736080766">
        <ele>1944.4000000000001</ele>
        <time>2021-06-06T08:48:04Z</time>
      </trkpt>
      <trkpt lat="45.660901749506593" lon="7.599862553179264">
        <ele>1946.3299999999999</ele>
        <time>2021-06-06T08:48:18Z</time>
      </trkpt>
      <trkpt lat="45.660756658762693" lon="7.599876970052719">
        <ele>1947.29</ele>
        <time>2021-06-06T08:48:38Z</time>
      </trkpt>
      <trkpt lat="45.660655070096254" lon="7.599865822121501">
        <ele>1948.73</ele>
        <time>2021-06-06T08:48:55Z</time>
      </trkpt>
      <trkpt lat="45.660568149760365" lon="7.599879987537861">
        <ele>1949.6900000000001</ele>
        <time>2021-06-06T08:49:10Z</time>
      </trkpt>
      <trkpt lat="45.660473769530654" lon="7.599895494058728">
        <ele>1952.0899999999999</ele>
        <time>2021-06-06T08:49:26Z</time>
      </trkpt>
      <trkpt lat="45.660364385694265" lon="7.599908234551549">
        <ele>1954.02</ele>
        <time>2021-06-06T08:49:43Z</time>
      </trkpt>
      <trkpt lat="45.660248128697276" lon="7.599942097440362">
        <ele>1955.9400000000001</ele>
        <time>2021-06-06T08:50:01Z</time>
      </trkpt>
      <trkpt lat="45.660164393484592" lon="7.599977217614651">
        <ele>1957.8599999999999</ele>
        <time>2021-06-06T08:50:18Z</time>
      </trkpt>
      <trkpt lat="45.660049729049206" lon="7.600019127130508">
        <ele>1959.78</ele>
        <time>2021-06-06T08:50:34Z</time>
      </trkpt>
      <trkpt lat="45.659935064613819" lon="7.600081572309136">
        <ele>1961.23</ele>
        <time>2021-06-06T08:50:51Z</time>
      </trkpt>
      <trkpt lat="45.659839259460568" lon="7.600100934505463">
        <ele>1962.6700000000001</ele>
        <time>2021-06-06T08:51:06Z</time>
      </trkpt>
      <trkpt lat="45.659741861745715" lon="7.600171426311135">
        <ele>1965.0699999999999</ele>
        <time>2021-06-06T08:51:23Z</time>
      </trkpt>
      <trkpt lat="45.659736162051558" lon="7.600087942555547">
        <ele>1966.51</ele>
        <time>2021-06-06T08:51:34Z</time>
      </trkpt>
      <trkpt lat="45.659716548398137" lon="7.599967746064067">
        <ele>1967.96</ele>
        <time>2021-06-06T08:51:46Z</time>
      </trkpt>
      <trkpt lat="45.659707328304648" lon="7.599855428561568">
        <ele>1969.8800000000001</ele>
        <time>2021-06-06T08:51:58Z</time>
      </trkpt>
      <trkpt lat="45.659672543406487" lon="7.599747637286782">
        <ele>1971.8</ele>
        <time>2021-06-06T08:52:09Z</time>
      </trkpt>
      <trkpt lat="45.659626945853233" lon="7.599667171016336">
        <ele>1973.24</ele>
        <time>2021-06-06T08:52:24Z</time>
      </trkpt>
      <trkpt lat="45.659575397148728" lon="7.599805723875761">
        <ele>1975.1700000000001</ele>
        <time>2021-06-06T08:52:39Z</time>
      </trkpt>
      <trkpt lat="45.659546479582787" lon="7.599920388311148">
        <ele>1977.5699999999999</ele>
        <time>2021-06-06T08:52:53Z</time>
      </trkpt>
      <trkpt lat="45.65950415097177" lon="7.599913766607642">
        <ele>1979.49</ele>
        <time>2021-06-06T08:53:09Z</time>
      </trkpt>
      <trkpt lat="45.659465426579118" lon="7.59974604472518">
        <ele>1981.9000000000001</ele>
        <time>2021-06-06T08:53:25Z</time>
      </trkpt>
      <trkpt lat="45.659426534548402" lon="7.59979248046875">
        <ele>1983.8199999999999</ele>
        <time>2021-06-06T08:53:40Z</time>
      </trkpt>
      <trkpt lat="45.659396359696984" lon="7.599924076348543">
        <ele>1985.26</ele>
        <time>2021-06-06T08:53:54Z</time>
      </trkpt>
      <trkpt lat="45.659388229250908" lon="7.599939499050379">
        <ele>1985.26</ele>
        <time>2021-06-06T08:53:56Z</time>
      </trkpt>
      <trkpt lat="45.659336429089308" lon="7.600022479891777">
        <ele>1986.22</ele>
        <time>2021-06-06T08:54:07Z</time>
      </trkpt>
      <trkpt lat="45.659290999174118" lon="7.600119542330504">
        <ele>1988.1400000000001</ele>
        <time>2021-06-06T08:54:23Z</time>
      </trkpt>
      <trkpt lat="45.659291250631213" lon="7.600277289748192">
        <ele>1990.0699999999999</ele>
        <time>2021-06-06T08:54:40Z</time>
      </trkpt>
      <trkpt lat="45.659252442419529" lon="7.600305872038007">
        <ele>1992.47</ele>
        <time>2021-06-06T08:54:57Z</time>
      </trkpt>
      <trkpt lat="45.659231068566442" lon="7.600264381617308">
        <ele>1992.95</ele>
        <time>2021-06-06T08:55:02Z</time>
      </trkpt>
      <trkpt lat="45.659163594245911" lon="7.600217945873737">
        <ele>1994.8699999999999</ele>
        <time>2021-06-06T08:55:14Z</time>
      </trkpt>
      <trkpt lat="45.659059574827552" lon="7.600280726328492">
        <ele>1996.8</ele>
        <time>2021-06-06T08:55:30Z</time>
      </trkpt>
      <trkpt lat="45.658915741369128" lon="7.60033487342298">
        <ele>1998.24</ele>
        <time>2021-06-06T08:55:50Z</time>
      </trkpt>
      <trkpt lat="45.658817924559116" lon="7.600403018295765">
        <ele>1999.2</ele>
        <time>2021-06-06T08:56:05Z</time>
      </trkpt>
      <trkpt lat="45.658771740272641" lon="7.600455321371555">
        <ele>1999.2</ele>
        <time>2021-06-06T08:56:19Z</time>
      </trkpt>
      <trkpt lat="45.658788252621889" lon="7.60052346624434">
        <ele>1999.2</ele>
        <time>2021-06-06T08:57:14Z</time>
      </trkpt>
      <trkpt lat="45.658780122175813" lon="7.600555820390582">
        <ele>1998.72</ele>
        <time>2021-06-06T08:57:30Z</time>
      </trkpt>
      <trkpt lat="45.658841393887997" lon="7.600619187578559">
        <ele>1998.72</ele>
        <time>2021-06-06T08:57:43Z</time>
      </trkpt>
      <trkpt lat="45.658833431079984" lon="7.600708957761526">
        <ele>1998.72</ele>
        <time>2021-06-06T08:57:56Z</time>
      </trkpt>
      <trkpt lat="45.658837538212538" lon="7.600717842578888">
        <ele>1998.24</ele>
        <time>2021-06-06T08:58:13Z</time>
      </trkpt>
      <trkpt lat="45.658808117732406" lon="7.600695295259357">
        <ele>1998.72</ele>
        <time>2021-06-06T08:58:34Z</time>
      </trkpt>
      <trkpt lat="45.658820690587163" lon="7.600698480382562">
        <ele>1998.72</ele>
        <time>2021-06-06T08:58:53Z</time>
      </trkpt>
      <trkpt lat="45.658820271492004" lon="7.600690266117454">
        <ele>1998.72</ele>
        <time>2021-06-06T08:59:35Z</time>
      </trkpt>
      <trkpt lat="45.658824797719717" lon="7.600684566423297">
        <ele>1998.72</ele>
        <time>2021-06-06T09:00:02Z</time>
      </trkpt>
      <trkpt lat="45.65881809219718" lon="7.600678531453013">
        <ele>1999.2</ele>
        <time>2021-06-06T09:00:28Z</time>
      </trkpt>
      <trkpt lat="45.658820271492004" lon="7.600687080994248">
        <ele>1999.2</ele>
        <time>2021-06-06T09:00:42Z</time>
      </trkpt>
      <trkpt lat="45.65882345661521" lon="7.600690182298422">
        <ele>1999.2</ele>
        <time>2021-06-06T09:01:19Z</time>
      </trkpt>
      <trkpt lat="45.658794455230236" lon="7.600627485662699">
        <ele>1999.2</ele>
        <time>2021-06-06T09:01:41Z</time>
      </trkpt>
      <trkpt lat="45.658799149096012" lon="7.600604267790914">
        <ele>1999.2</ele>
        <time>2021-06-06T09:02:27Z</time>
      </trkpt>
      <trkpt lat="45.658780038356781" lon="7.600550288334489">
        <ele>1999.2</ele>
        <time>2021-06-06T09:02:42Z</time>
      </trkpt>
      <trkpt lat="45.658781630918384" lon="7.600547773763537">
        <ele>1999.2</ele>
        <time>2021-06-06T09:03:12Z</time>
      </trkpt>
      <trkpt lat="45.658776350319386" lon="7.600551964715123">
        <ele>1999.2</ele>
        <time>2021-06-06T09:03:45Z</time>
      </trkpt>
      <trkpt lat="45.658853966742754" lon="7.600647937506437">
        <ele>1999.2</ele>
        <time>2021-06-06T09:04:01Z</time>
      </trkpt>
      <trkpt lat="45.658868551254272" lon="7.600641064345837">
        <ele>1999.2</ele>
        <time>2021-06-06T09:04:04Z</time>
      </trkpt>
      <trkpt lat="45.658885650336742" lon="7.600630251690745">
        <ele>1999.2</ele>
        <time>2021-06-06T09:04:06Z</time>
      </trkpt>
      <trkpt lat="45.658901492133737" lon="7.600617678835988">
        <ele>1999.2</ele>
        <time>2021-06-06T09:04:08Z</time>
      </trkpt>
      <trkpt lat="45.65898179076612" lon="7.600561184808612">
        <ele>1999.6800000000001</ele>
        <time>2021-06-06T09:04:17Z</time>
      </trkpt>
      <trkpt lat="45.659004086628556" lon="7.600607620552182">
        <ele>2000.1600000000001</ele>
        <time>2021-06-06T09:04:21Z</time>
      </trkpt>
      <trkpt lat="45.659085977822542" lon="7.600627485662699">
        <ele>2000.6400000000001</ele>
        <time>2021-06-06T09:04:42Z</time>
      </trkpt>
      <trkpt lat="45.659099137410522" lon="7.600634526461363">
        <ele>2000.6400000000001</ele>
        <time>2021-06-06T09:05:04Z</time>
      </trkpt>
      <trkpt lat="45.659095617011189" lon="7.600631844252348">
        <ele>1999.6800000000001</ele>
        <time>2021-06-06T09:05:46Z</time>
      </trkpt>
      <trkpt lat="45.659097628667951" lon="7.600627150386572">
        <ele>2000.1600000000001</ele>
        <time>2021-06-06T09:06:27Z</time>
      </trkpt>
      <trkpt lat="45.65910005941987" lon="7.600618936121464">
        <ele>2000.1600000000001</ele>
        <time>2021-06-06T09:07:07Z</time>
      </trkpt>
      <trkpt lat="45.659081870689988" lon="7.60062606073916">
        <ele>2000.1600000000001</ele>
        <time>2021-06-06T09:07:37Z</time>
      </trkpt>
      <trkpt lat="45.659073488786817" lon="7.600621283054352">
        <ele>2000.1600000000001</ele>
        <time>2021-06-06T09:07:47Z</time>
      </trkpt>
      <trkpt lat="45.659069465473294" lon="7.600624551996589">
        <ele>2000.1600000000001</ele>
        <time>2021-06-06T09:08:20Z</time>
      </trkpt>
      <trkpt lat="45.659069716930389" lon="7.600626982748509">
        <ele>2000.1600000000001</ele>
        <time>2021-06-06T09:08:53Z</time>
      </trkpt>
      <trkpt lat="45.659070052206516" lon="7.600616337731481">
        <ele>2000.1600000000001</ele>
        <time>2021-06-06T09:09:14Z</time>
      </trkpt>
      <trkpt lat="45.659051360562444" lon="7.600620361045003">
        <ele>2000.1600000000001</ele>
        <time>2021-06-06T09:10:25Z</time>
      </trkpt>
      <trkpt lat="45.659010959789157" lon="7.600611727684736">
        <ele>2000.1600000000001</ele>
        <time>2021-06-06T09:10:30Z</time>
      </trkpt>
      <trkpt lat="45.658946670591831" lon="7.600592197850347">
        <ele>2001.5999999999999</ele>
        <time>2021-06-06T09:10:46Z</time>
      </trkpt>
      <trkpt lat="45.65889629535377" lon="7.600620780140162">
        <ele>2000.6400000000001</ele>
        <time>2021-06-06T09:10:53Z</time>
      </trkpt>
      <trkpt lat="45.658885231241584" lon="7.600627318024635">
        <ele>2000.6400000000001</ele>
        <time>2021-06-06T09:10:54Z</time>
      </trkpt>
      <trkpt lat="45.658871317282319" lon="7.600631089881063">
        <ele>2000.6400000000001</ele>
        <time>2021-06-06T09:10:55Z</time>
      </trkpt>
      <trkpt lat="45.65881515853107" lon="7.600668724626303">
        <ele>1999.2</ele>
        <time>2021-06-06T09:11:11Z</time>
      </trkpt>
      <trkpt lat="45.658822534605861" lon="7.600659588351846">
        <ele>1998.72</ele>
        <time>2021-06-06T09:11:32Z</time>
      </trkpt>
      <trkpt lat="45.658821361139417" lon="7.600620025768876">
        <ele>1998.72</ele>
        <time>2021-06-06T09:11:50Z</time>
      </trkpt>
      <trkpt lat="45.658829994499683" lon="7.600629162043333">
        <ele>1998.72</ele>
        <time>2021-06-06T09:12:26Z</time>
      </trkpt>
      <trkpt lat="45.658834185451269" lon="7.600611057132483">
        <ele>1998.72</ele>
        <time>2021-06-06T09:13:01Z</time>
      </trkpt>
      <trkpt lat="45.658800574019551" lon="7.600533692166209">
        <ele>1998.72</ele>
        <time>2021-06-06T09:13:12Z</time>
      </trkpt>
      <trkpt lat="45.658852458000183" lon="7.600364377722144">
        <ele>1998.72</ele>
        <time>2021-06-06T09:13:30Z</time>
      </trkpt>
      <trkpt lat="45.658865449950099" lon="7.600250467658043">
        <ele>1999.2</ele>
        <time>2021-06-06T09:13:46Z</time>
      </trkpt>
      <trkpt lat="45.658845417201519" lon="7.600119123235345">
        <ele>2000.1600000000001</ele>
        <time>2021-06-06T09:14:02Z</time>
      </trkpt>
      <trkpt lat="45.658905766904354" lon="7.600024156272411">
        <ele>2001.5999999999999</ele>
        <time>2021-06-06T09:14:16Z</time>
      </trkpt>
      <trkpt lat="45.658934181556106" lon="7.599912844598293">
        <ele>2004.01</ele>
        <time>2021-06-06T09:14:31Z</time>
      </trkpt>
      <trkpt lat="45.658973325043917" lon="7.599790468811989">
        <ele>2006.8900000000001</ele>
        <time>2021-06-06T09:14:47Z</time>
      </trkpt>
      <trkpt lat="45.659008948132396" lon="7.599625764414668">
        <ele>2007.8499999999999</ele>
        <time>2021-06-06T09:15:03Z</time>
      </trkpt>
      <trkpt lat="45.658985646441579" lon="7.599485954269767">
        <ele>2009.29</ele>
        <time>2021-06-06T09:15:18Z</time>
      </trkpt>
      <trkpt lat="45.658901575952768" lon="7.599329799413681">
        <ele>2011.22</ele>
        <time>2021-06-06T09:15:38Z</time>
      </trkpt>
      <trkpt lat="45.658835023641586" lon="7.599195688962936">
        <ele>2013.6199999999999</ele>
        <time>2021-06-06T09:15:55Z</time>
      </trkpt>
      <trkpt lat="45.658760257065296" lon="7.599078342318535">
        <ele>2015.0599999999999</ele>
        <time>2021-06-06T09:16:11Z</time>
      </trkpt>
      <trkpt lat="45.658704098314047" lon="7.598975161090493">
        <ele>2016.98</ele>
        <time>2021-06-06T09:16:27Z</time>
      </trkpt>
      <trkpt lat="45.658636875450611" lon="7.598854964599013">
        <ele>2019.3900000000001</ele>
        <time>2021-06-06T09:16:45Z</time>
      </trkpt>
      <trkpt lat="45.658568060025573" lon="7.598842140287161">
        <ele>2021.79</ele>
        <time>2021-06-06T09:17:01Z</time>
      </trkpt>
      <trkpt lat="45.658492790535092" lon="7.598874745890498">
        <ele>2024.1900000000001</ele>
        <time>2021-06-06T09:17:15Z</time>
      </trkpt>
      <trkpt lat="45.658435542136431" lon="7.598939370363951">
        <ele>2026.5999999999999</ele>
        <time>2021-06-06T09:17:30Z</time>
      </trkpt>
      <trkpt lat="45.658370247110724" lon="7.598981531336904">
        <ele>2028.04</ele>
        <time>2021-06-06T09:17:43Z</time>
      </trkpt>
      <trkpt lat="45.658261366188526" lon="7.599038695916534">
        <ele>2031.4000000000001</ele>
        <time>2021-06-06T09:18:02Z</time>
      </trkpt>
      <trkpt lat="45.658158184960485" lon="7.599117569625378">
        <ele>2033.8099999999999</ele>
        <time>2021-06-06T09:18:23Z</time>
      </trkpt>
      <trkpt lat="45.658063553273678" lon="7.59916509501636">
        <ele>2037.1700000000001</ele>
        <time>2021-06-06T09:18:40Z</time>
      </trkpt>
      <trkpt lat="45.657980237156153" lon="7.5992735568434">
        <ele>2039.5699999999999</ele>
        <time>2021-06-06T09:18:59Z</time>
      </trkpt>
      <trkpt lat="45.657915277406573" lon="7.599372630938888">
        <ele>2042.46</ele>
        <time>2021-06-06T09:19:17Z</time>
      </trkpt>
      <trkpt lat="45.657845037057996" lon="7.599478494375944">
        <ele>2044.8599999999999</ele>
        <time>2021-06-06T09:19:34Z</time>
      </trkpt>
      <trkpt lat="45.657748058438301" lon="7.599608330056071">
        <ele>2046.78</ele>
        <time>2021-06-06T09:19:52Z</time>
      </trkpt>
      <trkpt lat="45.657707070931792" lon="7.59977001696825">
        <ele>2049.6700000000001</ele>
        <time>2021-06-06T09:20:11Z</time>
      </trkpt>
      <trkpt lat="45.657659964635968" lon="7.599803460761905">
        <ele>2051.1100000000001</ele>
        <time>2021-06-06T09:20:24Z</time>
      </trkpt>
      <trkpt lat="45.657616965472698" lon="7.599842688068748">
        <ele>2052.0700000000002</ele>
        <time>2021-06-06T09:20:46Z</time>
      </trkpt>
      <trkpt lat="45.657554687932134" lon="7.599877137690783">
        <ele>2053.0300000000002</ele>
        <time>2021-06-06T09:21:27Z</time>
      </trkpt>
      <trkpt lat="45.657446393743157" lon="7.599959699437022">
        <ele>2054.4699999999998</ele>
        <time>2021-06-06T09:21:47Z</time>
      </trkpt>
      <trkpt lat="45.657335920259356" lon="7.60005047544837">
        <ele>2057.8400000000001</ele>
        <time>2021-06-06T09:22:07Z</time>
      </trkpt>
      <trkpt lat="45.657336674630642" lon="7.599960872903466">
        <ele>2059.7600000000002</ele>
        <time>2021-06-06T09:22:21Z</time>
      </trkpt>
      <trkpt lat="45.657356958836317" lon="7.599835228174925">
        <ele>2062.1700000000001</ele>
        <time>2021-06-06T09:22:37Z</time>
      </trkpt>
      <trkpt lat="45.657409345731139" lon="7.599716037511826">
        <ele>2064.5700000000002</ele>
        <time>2021-06-06T09:22:54Z</time>
      </trkpt>
      <trkpt lat="45.65745385363698" lon="7.599610425531864">
        <ele>2066.4899999999998</ele>
        <time>2021-06-06T09:23:11Z</time>
      </trkpt>
      <trkpt lat="45.65749391913414" lon="7.599465418606997">
        <ele>2068.8899999999999</ele>
        <time>2021-06-06T09:23:29Z</time>
      </trkpt>
      <trkpt lat="45.657535074278712" lon="7.59931705892086">
        <ele>2070.8200000000002</ele>
        <time>2021-06-06T09:23:47Z</time>
      </trkpt>
      <trkpt lat="45.657566338777542" lon="7.599195269867778">
        <ele>2072.2600000000002</ele>
        <time>2021-06-06T09:24:02Z</time>
      </trkpt>
      <trkpt lat="45.657563488930464" lon="7.599142966791987">
        <ele>2074.1799999999998</ele>
        <time>2021-06-06T09:24:19Z</time>
      </trkpt>
      <trkpt lat="45.657568350434303" lon="7.599078677594662">
        <ele>2076.0999999999999</ele>
        <time>2021-06-06T09:24:45Z</time>
      </trkpt>
      <trkpt lat="45.65751445479691" lon="7.599068451672792">
        <ele>2078.5100000000002</ele>
        <time>2021-06-06T09:25:01Z</time>
      </trkpt>
      <trkpt lat="45.657467935234308" lon="7.599132573232055">
        <ele>2081.3899999999999</ele>
        <time>2021-06-06T09:25:17Z</time>
      </trkpt>
      <trkpt lat="45.657411944121122" lon="7.599008856341243">
        <ele>2084.2800000000002</ele>
        <time>2021-06-06T09:25:34Z</time>
      </trkpt>
      <trkpt lat="45.657353522256017" lon="7.599075073376298">
        <ele>2086.6799999999998</ele>
        <time>2021-06-06T09:25:49Z</time>
      </trkpt>
      <trkpt lat="45.657310942187905" lon="7.599127795547247">
        <ele>2089.0799999999999</ele>
        <time>2021-06-06T09:26:05Z</time>
      </trkpt>
      <trkpt lat="45.657293424010277" lon="7.599081275984645">
        <ele>2090.04</ele>
        <time>2021-06-06T09:26:20Z</time>
      </trkpt>
      <trkpt lat="45.65728822723031" lon="7.599075827747583">
        <ele>2090.04</ele>
        <time>2021-06-06T09:26:44Z</time>
      </trkpt>
      <trkpt lat="45.657288059592247" lon="7.599080940708518">
        <ele>2090.04</ele>
        <time>2021-06-06T09:27:15Z</time>
      </trkpt>
      <trkpt lat="45.657291579991579" lon="7.599083371460438">
        <ele>2090.04</ele>
        <time>2021-06-06T09:27:40Z</time>
      </trkpt>
      <trkpt lat="45.657286467030644" lon="7.59910206310451">
        <ele>2090.04</ele>
        <time>2021-06-06T09:28:00Z</time>
      </trkpt>
      <trkpt lat="45.657313875854015" lon="7.599110780283809">
        <ele>2090.04</ele>
        <time>2021-06-06T09:28:13Z</time>
      </trkpt>
      <trkpt lat="45.657314043492079" lon="7.599092843011022">
        <ele>2090.04</ele>
        <time>2021-06-06T09:28:36Z</time>
      </trkpt>
      <trkpt lat="45.657310774549842" lon="7.599092172458768">
        <ele>2090.04</ele>
        <time>2021-06-06T09:29:05Z</time>
      </trkpt>
      <trkpt lat="45.657308176159859" lon="7.599098375067115">
        <ele>2090.04</ele>
        <time>2021-06-06T09:29:40Z</time>
      </trkpt>
      <trkpt lat="45.657305745407939" lon="7.599098375067115">
        <ele>2090.04</ele>
        <time>2021-06-06T09:30:05Z</time>
      </trkpt>
      <trkpt lat="45.657309181988239" lon="7.599097872152925">
        <ele>2090.04</ele>
        <time>2021-06-06T09:30:36Z</time>
      </trkpt>
      <trkpt lat="45.657314797863364" lon="7.599121844395995">
        <ele>2090.04</ele>
        <time>2021-06-06T09:30:54Z</time>
      </trkpt>
      <trkpt lat="45.657310942187905" lon="7.599113881587982">
        <ele>2090.04</ele>
        <time>2021-06-06T09:31:24Z</time>
      </trkpt>
      <trkpt lat="45.657307086512446" lon="7.599110445007682">
        <ele>2090.04</ele>
        <time>2021-06-06T09:31:51Z</time>
      </trkpt>
      <trkpt lat="45.657306835055351" lon="7.599106840789318">
        <ele>2090.04</ele>
        <time>2021-06-06T09:32:18Z</time>
      </trkpt>
      <trkpt lat="45.657314797863364" lon="7.599211363121867">
        <ele>2089.5599999999999</ele>
        <time>2021-06-06T09:32:49Z</time>
      </trkpt>
      <trkpt lat="45.657248832285404" lon="7.599385622888804">
        <ele>2091</ele>
        <time>2021-06-06T09:33:08Z</time>
      </trkpt>
      <trkpt lat="45.657174484804273" lon="7.599461898207665">
        <ele>2092.9299999999998</ele>
        <time>2021-06-06T09:33:20Z</time>
      </trkpt>
      <trkpt lat="45.657076919451356" lon="7.599608581513166">
        <ele>2094.3699999999999</ele>
        <time>2021-06-06T09:33:40Z</time>
      </trkpt>
      <trkpt lat="45.656992932781577" lon="7.59956625290215">
        <ele>2095.8099999999999</ele>
        <time>2021-06-06T09:34:04Z</time>
      </trkpt>
      <trkpt lat="45.656867539510131" lon="7.599456533789635">
        <ele>2098.21</ele>
        <time>2021-06-06T09:34:21Z</time>
      </trkpt>
      <trkpt lat="45.656818673014641" lon="7.59941034950316">
        <ele>2099.1799999999998</ele>
        <time>2021-06-06T09:34:29Z</time>
      </trkpt>
      <trkpt lat="45.656730327755213" lon="7.59936785325408">
        <ele>2100.6199999999999</ele>
        <time>2021-06-06T09:34:41Z</time>
      </trkpt>
      <trkpt lat="45.656723538413644" lon="7.599359974265099">
        <ele>2100.6199999999999</ele>
        <time>2021-06-06T09:34:42Z</time>
      </trkpt>
      <trkpt lat="45.656684897840023" lon="7.599316723644733">
        <ele>2100.6199999999999</ele>
        <time>2021-06-06T09:34:46Z</time>
      </trkpt>
      <trkpt lat="45.656606946140528" lon="7.599225360900164">
        <ele>2100.6199999999999</ele>
        <time>2021-06-06T09:34:58Z</time>
      </trkpt>
      <trkpt lat="45.656572245061398" lon="7.599183032289147">
        <ele>2100.6199999999999</ele>
        <time>2021-06-06T09:35:04Z</time>
      </trkpt>
      <trkpt lat="45.656518768519163" lon="7.599094267934561">
        <ele>2099.6599999999999</ele>
        <time>2021-06-06T09:35:18Z</time>
      </trkpt>
      <trkpt lat="45.656512062996626" lon="7.599048921838403">
        <ele>2100.1399999999999</ele>
        <time>2021-06-06T09:35:36Z</time>
      </trkpt>
      <trkpt lat="45.656497729942203" lon="7.599033499136567">
        <ele>2101.0999999999999</ele>
        <time>2021-06-06T09:36:00Z</time>
      </trkpt>
      <trkpt lat="45.656458754092455" lon="7.598925875499845">
        <ele>2102.54</ele>
        <time>2021-06-06T09:36:32Z</time>
      </trkpt>
      <trkpt lat="45.656429836526513" lon="7.598864939063788">
        <ele>2103.98</ele>
        <time>2021-06-06T09:36:44Z</time>
      </trkpt>
      <trkpt lat="45.656369151547551" lon="7.598867118358612">
        <ele>2105.4200000000001</ele>
        <time>2021-06-06T09:37:13Z</time>
      </trkpt>
      <trkpt lat="45.656306035816669" lon="7.598883463069797">
        <ele>2105.4200000000001</ele>
        <time>2021-06-06T09:37:21Z</time>
      </trkpt>
      <trkpt lat="45.656156251206994" lon="7.598931156098843">
        <ele>2104.46</ele>
        <time>2021-06-06T09:37:38Z</time>
      </trkpt>
      <trkpt lat="45.656135967001319" lon="7.598930737003684">
        <ele>2103.98</ele>
        <time>2021-06-06T09:37:40Z</time>
      </trkpt>
      <trkpt lat="45.656096823513508" lon="7.59891489520669">
        <ele>2103.98</ele>
        <time>2021-06-06T09:37:44Z</time>
      </trkpt>
      <trkpt lat="45.655999341979623" lon="7.598893772810698">
        <ele>2103.5</ele>
        <time>2021-06-06T09:37:55Z</time>
      </trkpt>
      <trkpt lat="45.655941339209676" lon="7.598892766982317">
        <ele>2103.5</ele>
        <time>2021-06-06T09:38:01Z</time>
      </trkpt>
      <trkpt lat="45.655899094417691" lon="7.598878182470799">
        <ele>2103.5</ele>
        <time>2021-06-06T09:38:05Z</time>
      </trkpt>
      <trkpt lat="45.65579884685576" lon="7.598840547725558">
        <ele>2102.54</ele>
        <time>2021-06-06T09:38:15Z</time>
      </trkpt>
      <trkpt lat="45.655790381133556" lon="7.598843816667795">
        <ele>2102.0599999999999</ele>
        <time>2021-06-06T09:38:16Z</time>
      </trkpt>
      <trkpt lat="45.655769342556596" lon="7.598849516361952">
        <ele>2102.0599999999999</ele>
        <time>2021-06-06T09:38:18Z</time>
      </trkpt>
      <trkpt lat="45.655758948996663" lon="7.598851025104523">
        <ele>2102.0599999999999</ele>
        <time>2021-06-06T09:38:19Z</time>
      </trkpt>
      <trkpt lat="45.655737156048417" lon="7.598856221884489">
        <ele>2101.5799999999999</ele>
        <time>2021-06-06T09:38:21Z</time>
      </trkpt>
      <trkpt lat="45.655714441090822" lon="7.598858065903187">
        <ele>2101.5799999999999</ele>
        <time>2021-06-06T09:38:23Z</time>
      </trkpt>
      <trkpt lat="45.655704634264112" lon="7.598858568817377">
        <ele>2101.5799999999999</ele>
        <time>2021-06-06T09:38:24Z</time>
      </trkpt>
      <trkpt lat="45.655533391982317" lon="7.598895281553268">
        <ele>2100.6199999999999</ele>
        <time>2021-06-06T09:38:41Z</time>
      </trkpt>
      <trkpt lat="45.655390396714211" lon="7.598875919356942">
        <ele>2100.1399999999999</ele>
        <time>2021-06-06T09:38:57Z</time>
      </trkpt>
      <trkpt lat="45.655223177745938" lon="7.598820179700851">
        <ele>2099.1799999999998</ele>
        <time>2021-06-06T09:39:17Z</time>
      </trkpt>
      <trkpt lat="45.655152099207044" lon="7.598741557449102">
        <ele>2098.6999999999998</ele>
        <time>2021-06-06T09:39:28Z</time>
      </trkpt>
      <trkpt lat="45.655144639313221" lon="7.598733929917216">
        <ele>2098.6999999999998</ele>
        <time>2021-06-06T09:39:29Z</time>
      </trkpt>
      <trkpt lat="45.655000219121575" lon="7.598648937419057">
        <ele>2097.73</ele>
        <time>2021-06-06T09:39:46Z</time>
      </trkpt>
      <trkpt lat="45.65499116666615" lon="7.598645836114883">
        <ele>2097.73</ele>
        <time>2021-06-06T09:39:47Z</time>
      </trkpt>
      <trkpt lat="45.654921429231763" lon="7.598721189424396">
        <ele>2097.25</ele>
        <time>2021-06-06T09:40:03Z</time>
      </trkpt>
      <trkpt lat="45.654902150854468" lon="7.598753795027733">
        <ele>2097.25</ele>
        <time>2021-06-06T09:40:07Z</time>
      </trkpt>
      <trkpt lat="45.654770471155643" lon="7.598961498588324">
        <ele>2095.8099999999999</ele>
        <time>2021-06-06T09:40:27Z</time>
      </trkpt>
      <trkpt lat="45.654606018215418" lon="7.599054621532559">
        <ele>2094.8499999999999</ele>
        <time>2021-06-06T09:40:45Z</time>
      </trkpt>
      <trkpt lat="45.654449528083205" lon="7.59913869202137">
        <ele>2095.8099999999999</ele>
        <time>2021-06-06T09:41:03Z</time>
      </trkpt>
      <trkpt lat="45.654331594705582" lon="7.599231731146574">
        <ele>2096.29</ele>
        <time>2021-06-06T09:41:20Z</time>
      </trkpt>
      <trkpt lat="45.654270239174366" lon="7.5992735568434">
        <ele>2096.77</ele>
        <time>2021-06-06T09:41:29Z</time>
      </trkpt>
      <trkpt lat="45.654225731268525" lon="7.599377073347569">
        <ele>2095.8099999999999</ele>
        <time>2021-06-06T09:41:39Z</time>
      </trkpt>
      <trkpt lat="45.654132775962353" lon="7.599465167149901">
        <ele>2095.3299999999999</ele>
        <time>2021-06-06T09:41:54Z</time>
      </trkpt>
      <trkpt lat="45.654108552262187" lon="7.599472962319851">
        <ele>2095.3299999999999</ele>
        <time>2021-06-06T09:41:57Z</time>
      </trkpt>
      <trkpt lat="45.653958097100258" lon="7.599516632035375">
        <ele>2095.8099999999999</ele>
        <time>2021-06-06T09:42:14Z</time>
      </trkpt>
      <trkpt lat="45.65385608933866" lon="7.599655017256737">
        <ele>2095.3299999999999</ele>
        <time>2021-06-06T09:42:31Z</time>
      </trkpt>
      <trkpt lat="45.653722146525979" lon="7.599670020863414">
        <ele>2093.4099999999999</ele>
        <time>2021-06-06T09:42:49Z</time>
      </trkpt>
      <trkpt lat="45.653606979176402" lon="7.599712265655398">
        <ele>2091.9699999999998</ele>
        <time>2021-06-06T09:43:05Z</time>
      </trkpt>
      <trkpt lat="45.653544869273901" lon="7.599771777167916">
        <ele>2091.9699999999998</ele>
        <time>2021-06-06T09:43:14Z</time>
      </trkpt>
      <trkpt lat="45.653462475165725" lon="7.599857188761234">
        <ele>2091.9699999999998</ele>
        <time>2021-06-06T09:43:26Z</time>
      </trkpt>
      <trkpt lat="45.653331466019154" lon="7.600019462406635">
        <ele>2091.9699999999998</ele>
        <time>2021-06-06T09:43:44Z</time>
      </trkpt>
      <trkpt lat="45.653289053589106" lon="7.600003620609641">
        <ele>2091.9699999999998</ele>
        <time>2021-06-06T09:44:02Z</time>
      </trkpt>
      <trkpt lat="45.653257369995117" lon="7.599986018612981">
        <ele>2091.4899999999998</ele>
        <time>2021-06-06T09:44:24Z</time>
      </trkpt>
      <trkpt lat="45.653172377496958" lon="7.599978391081095">
        <ele>2091.4899999999998</ele>
        <time>2021-06-06T09:44:35Z</time>
      </trkpt>
      <trkpt lat="45.653162654489279" lon="7.5999815762043">
        <ele>2091.4899999999998</ele>
        <time>2021-06-06T09:44:36Z</time>
      </trkpt>
      <trkpt lat="45.653019659221172" lon="7.599983084946871">
        <ele>2090.52</ele>
        <time>2021-06-06T09:44:51Z</time>
      </trkpt>
      <trkpt lat="45.653004571795464" lon="7.599993562325835">
        <ele>2090.52</ele>
        <time>2021-06-06T09:44:53Z</time>
      </trkpt>
      <trkpt lat="45.652996860444546" lon="7.600003117695451">
        <ele>2090.52</ele>
        <time>2021-06-06T09:44:54Z</time>
      </trkpt>
      <trkpt lat="45.65285294316709" lon="7.600110825151205">
        <ele>2090.04</ele>
        <time>2021-06-06T09:45:11Z</time>
      </trkpt>
      <trkpt lat="45.652784965932369" lon="7.600159775465727">
        <ele>2090.04</ele>
        <time>2021-06-06T09:45:21Z</time>
      </trkpt>
      <trkpt lat="45.652774572372437" lon="7.600165726616979">
        <ele>2090.04</ele>
        <time>2021-06-06T09:45:22Z</time>
      </trkpt>
      <trkpt lat="45.652764262631536" lon="7.600171593949199">
        <ele>2090.04</ele>
        <time>2021-06-06T09:45:23Z</time>
      </trkpt>
      <trkpt lat="45.652754791080952" lon="7.600177377462387">
        <ele>2090.04</ele>
        <time>2021-06-06T09:45:24Z</time>
      </trkpt>
      <trkpt lat="45.652630319818854" lon="7.600195063278079">
        <ele>2089.5599999999999</ele>
        <time>2021-06-06T09:45:38Z</time>
      </trkpt>
      <trkpt lat="45.652619926258922" lon="7.600198918953538">
        <ele>2089.5599999999999</ele>
        <time>2021-06-06T09:45:39Z</time>
      </trkpt>
      <trkpt lat="45.652463771402836" lon="7.600261028856039">
        <ele>2088.5999999999999</ele>
        <time>2021-06-06T09:45:55Z</time>
      </trkpt>
      <trkpt lat="45.652398141101003" lon="7.600299753248692">
        <ele>2088.1199999999999</ele>
        <time>2021-06-06T09:46:02Z</time>
      </trkpt>
      <trkpt lat="45.652389675378799" lon="7.600308889523149">
        <ele>2088.1199999999999</ele>
        <time>2021-06-06T09:46:03Z</time>
      </trkpt>
      <trkpt lat="45.652356566861272" lon="7.600316181778908">
        <ele>2087.6399999999999</ele>
        <time>2021-06-06T09:46:07Z</time>
      </trkpt>
      <trkpt lat="45.65232178196311" lon="7.600298244506121">
        <ele>2087.1599999999999</ele>
        <time>2021-06-06T09:46:11Z</time>
      </trkpt>
      <trkpt lat="45.65229588188231" lon="7.600267985835671">
        <ele>2087.1599999999999</ele>
        <time>2021-06-06T09:46:15Z</time>
      </trkpt>
      <trkpt lat="45.652287332341075" lon="7.600246947258711">
        <ele>2087.1599999999999</ele>
        <time>2021-06-06T09:46:17Z</time>
      </trkpt>
      <trkpt lat="45.65228414721787" lon="7.600234542042017">
        <ele>2087.1599999999999</ele>
        <time>2021-06-06T09:46:18Z</time>
      </trkpt>
      <trkpt lat="45.652278698980808" lon="7.600208725780249">
        <ele>2087.1599999999999</ele>
        <time>2021-06-06T09:46:20Z</time>
      </trkpt>
      <trkpt lat="45.652257325127721" lon="7.600132534280419">
        <ele>2087.6399999999999</ele>
        <time>2021-06-06T09:46:28Z</time>
      </trkpt>
      <trkpt lat="45.65225288271904" lon="7.600119290873408">
        <ele>2087.6399999999999</ele>
        <time>2021-06-06T09:46:29Z</time>
      </trkpt>
      <trkpt lat="45.652248188853264" lon="7.600105376914144">
        <ele>2087.6399999999999</ele>
        <time>2021-06-06T09:46:30Z</time>
      </trkpt>
      <trkpt lat="45.652243830263615" lon="7.60009054094553">
        <ele>2087.6399999999999</ele>
        <time>2021-06-06T09:46:31Z</time>
      </trkpt>
      <trkpt lat="45.652240645140409" lon="7.60007587261498">
        <ele>2087.6399999999999</ele>
        <time>2021-06-06T09:46:32Z</time>
      </trkpt>
      <trkpt lat="45.652213739231229" lon="7.599986772984266">
        <ele>2088.5999999999999</ele>
        <time>2021-06-06T09:46:44Z</time>
      </trkpt>
      <trkpt lat="45.652200495824218" lon="7.599966321140528">
        <ele>2088.5999999999999</ele>
        <time>2021-06-06T09:46:46Z</time>
      </trkpt>
      <trkpt lat="45.652193371206522" lon="7.599955340847373">
        <ele>2088.5999999999999</ele>
        <time>2021-06-06T09:46:47Z</time>
      </trkpt>
      <trkpt lat="45.652098320424557" lon="7.599781416356564">
        <ele>2089.0799999999999</ele>
        <time>2021-06-06T09:47:05Z</time>
      </trkpt>
      <trkpt lat="45.652086166664958" lon="7.599753672257066">
        <ele>2089.0799999999999</ele>
        <time>2021-06-06T09:47:08Z</time>
      </trkpt>
      <trkpt lat="45.652043838053942" lon="7.599654765799642">
        <ele>2089.0799999999999</ele>
        <time>2021-06-06T09:47:17Z</time>
      </trkpt>
      <trkpt lat="45.65199195407331" lon="7.599551165476441">
        <ele>2089.5599999999999</ele>
        <time>2021-06-06T09:47:31Z</time>
      </trkpt>
      <trkpt lat="45.651970077306032" lon="7.599340360611677">
        <ele>2090.04</ele>
        <time>2021-06-06T09:47:49Z</time>
      </trkpt>
      <trkpt lat="45.651875697076321" lon="7.599176662042737">
        <ele>2091.9699999999998</ele>
        <time>2021-06-06T09:48:07Z</time>
      </trkpt>
      <trkpt lat="45.651873350143433" lon="7.599163418635726">
        <ele>2091.9699999999998</ele>
        <time>2021-06-06T09:48:08Z</time>
      </trkpt>
      <trkpt lat="45.651838732883334" lon="7.5990179926157">
        <ele>2092.9299999999998</ele>
        <time>2021-06-06T09:48:21Z</time>
      </trkpt>
      <trkpt lat="45.651756171137094" lon="7.59891196154058">
        <ele>2094.3699999999999</ele>
        <time>2021-06-06T09:48:36Z</time>
      </trkpt>
      <trkpt lat="45.651665143668652" lon="7.598854964599013">
        <ele>2096.29</ele>
        <time>2021-06-06T09:48:49Z</time>
      </trkpt>
      <trkpt lat="45.651638321578503" lon="7.598850941285491">
        <ele>2096.77</ele>
        <time>2021-06-06T09:48:52Z</time>
      </trkpt>
      <trkpt lat="45.651628850027919" lon="7.598851695656776">
        <ele>2096.77</ele>
        <time>2021-06-06T09:48:53Z</time>
      </trkpt>
      <trkpt lat="45.651618121191859" lon="7.598852952942252">
        <ele>2096.77</ele>
        <time>2021-06-06T09:48:54Z</time>
      </trkpt>
      <trkpt lat="45.651534888893366" lon="7.598839625716209">
        <ele>2097.25</ele>
        <time>2021-06-06T09:49:03Z</time>
      </trkpt>
      <trkpt lat="45.651476886123419" lon="7.59867399930954">
        <ele>2098.6999999999998</ele>
        <time>2021-06-06T09:49:19Z</time>
      </trkpt>
      <trkpt lat="45.651399940252304" lon="7.598503259941936">
        <ele>2100.6199999999999</ele>
        <time>2021-06-06T09:49:34Z</time>
      </trkpt>
      <trkpt lat="45.651311846449971" lon="7.598365964367986">
        <ele>2102.54</ele>
        <time>2021-06-06T09:49:50Z</time>
      </trkpt>
      <trkpt lat="45.651202797889709" lon="7.59827627800405">
        <ele>2103.98</ele>
        <time>2021-06-06T09:50:05Z</time>
      </trkpt>
      <trkpt lat="45.651117721572518" lon="7.598108723759651">
        <ele>2105.4200000000001</ele>
        <time>2021-06-06T09:50:22Z</time>
      </trkpt>
      <trkpt lat="45.650972379371524" lon="7.597970841452479">
        <ele>2107.3499999999999</ele>
        <time>2021-06-06T09:50:41Z</time>
      </trkpt>
      <trkpt lat="45.650895936414599" lon="7.597776968032122">
        <ele>2108.3099999999999</ele>
        <time>2021-06-06T09:51:01Z</time>
      </trkpt>
      <trkpt lat="45.650886883959174" lon="7.597591727972031">
        <ele>2110.23</ele>
        <time>2021-06-06T09:51:18Z</time>
      </trkpt>
      <trkpt lat="45.650881184265018" lon="7.597586447373033">
        <ele>2110.23</ele>
        <time>2021-06-06T09:51:19Z</time>
      </trkpt>
      <trkpt lat="45.650813039392233" lon="7.597534228116274">
        <ele>2112.1500000000001</ele>
        <time>2021-06-06T09:51:31Z</time>
      </trkpt>
      <trkpt lat="45.650727041065693" lon="7.597429119050503">
        <ele>2113.5999999999999</ele>
        <time>2021-06-06T09:51:46Z</time>
      </trkpt>
      <trkpt lat="45.650712372735143" lon="7.597403973340988">
        <ele>2114.0799999999999</ele>
        <time>2021-06-06T09:51:49Z</time>
      </trkpt>
      <trkpt lat="45.650707092136145" lon="7.5973947532475">
        <ele>2114.0799999999999</ele>
        <time>2021-06-06T09:51:50Z</time>
      </trkpt>
      <trkpt lat="45.650641964748502" lon="7.597241029143333">
        <ele>2115.04</ele>
        <time>2021-06-06T09:52:04Z</time>
      </trkpt>
      <trkpt lat="45.650597373023629" lon="7.59707372635603">
        <ele>2115.52</ele>
        <time>2021-06-06T09:52:20Z</time>
      </trkpt>
      <trkpt lat="45.650519756600261" lon="7.597007676959038">
        <ele>2115.52</ele>
        <time>2021-06-06T09:52:33Z</time>
      </trkpt>
      <trkpt lat="45.650515398010612" lon="7.596839871257544">
        <ele>2116</ele>
        <time>2021-06-06T09:52:49Z</time>
      </trkpt>
      <trkpt lat="45.650457227602601" lon="7.59670483879745">
        <ele>2116.96</ele>
        <time>2021-06-06T09:53:04Z</time>
      </trkpt>
      <trkpt lat="45.650434931740165" lon="7.596682040020824">
        <ele>2116.96</ele>
        <time>2021-06-06T09:53:07Z</time>
      </trkpt>
      <trkpt lat="45.650420179590583" lon="7.596630156040192">
        <ele>2117.4400000000001</ele>
        <time>2021-06-06T09:53:24Z</time>
      </trkpt>
      <trkpt lat="45.650424621999264" lon="7.596574751660228">
        <ele>2117.4400000000001</ele>
        <time>2021-06-06T09:53:43Z</time>
      </trkpt>
      <trkpt lat="45.650407690554857" lon="7.596416417509317">
        <ele>2117.9200000000001</ele>
        <time>2021-06-06T09:54:03Z</time>
      </trkpt>
      <trkpt lat="45.650430489331484" lon="7.596244337037206">
        <ele>2119.3600000000001</ele>
        <time>2021-06-06T09:54:21Z</time>
      </trkpt>
      <trkpt lat="45.650335941463709" lon="7.596137719228864">
        <ele>2121.29</ele>
        <time>2021-06-06T09:54:40Z</time>
      </trkpt>
      <trkpt lat="45.650242986157537" lon="7.596026742830873">
        <ele>2123.6900000000001</ele>
        <time>2021-06-06T09:54:56Z</time>
      </trkpt>
      <trkpt lat="45.650137960910797" lon="7.595893051475287">
        <ele>2126.0900000000001</ele>
        <time>2021-06-06T09:55:14Z</time>
      </trkpt>
      <trkpt lat="45.650020865723491" lon="7.595735639333725">
        <ele>2128.98</ele>
        <time>2021-06-06T09:55:34Z</time>
      </trkpt>
      <trkpt lat="45.64994165673852" lon="7.595615442842245">
        <ele>2130.4200000000001</ele>
        <time>2021-06-06T09:55:50Z</time>
      </trkpt>
      <trkpt lat="45.649865632876754" lon="7.595494324341416">
        <ele>2132.8200000000002</ele>
        <time>2021-06-06T09:56:05Z</time>
      </trkpt>
      <trkpt lat="45.649805869907141" lon="7.595388879999518">
        <ele>2133.7800000000002</ele>
        <time>2021-06-06T09:56:19Z</time>
      </trkpt>
      <trkpt lat="45.64971886575222" lon="7.595232641324401">
        <ele>2136.1900000000001</ele>
        <time>2021-06-06T09:56:37Z</time>
      </trkpt>
      <trkpt lat="45.649626078084111" lon="7.595062656328082">
        <ele>2138.1100000000001</ele>
        <time>2021-06-06T09:56:58Z</time>
      </trkpt>
      <trkpt lat="45.649566985666752" lon="7.594920918345451">
        <ele>2139.5500000000002</ele>
        <time>2021-06-06T09:57:14Z</time>
      </trkpt>
      <trkpt lat="45.649515520781279" lon="7.594744982197881">
        <ele>2141.9499999999998</ele>
        <time>2021-06-06T09:57:33Z</time>
      </trkpt>
      <trkpt lat="45.649467157199979" lon="7.594551779329777">
        <ele>2143.8800000000001</ele>
        <time>2021-06-06T09:57:52Z</time>
      </trkpt>
      <trkpt lat="45.649459278210998" lon="7.594346422702074">
        <ele>2146.2800000000002</ele>
        <time>2021-06-06T09:58:11Z</time>
      </trkpt>
      <trkpt lat="45.649481154978275" lon="7.594126984477043">
        <ele>2148.1999999999998</ele>
        <time>2021-06-06T09:58:30Z</time>
      </trkpt>
      <trkpt lat="45.649461289867759" lon="7.594001675024629">
        <ele>2149.1599999999999</ele>
        <time>2021-06-06T09:58:41Z</time>
      </trkpt>
      <trkpt lat="45.649415021762252" lon="7.59377502836287">
        <ele>2149.1599999999999</ele>
        <time>2021-06-06T09:58:59Z</time>
      </trkpt>
      <trkpt lat="45.649337070062757" lon="7.593571851029992">
        <ele>2149.6500000000001</ele>
        <time>2021-06-06T09:59:17Z</time>
      </trkpt>
      <trkpt lat="45.649284850805998" lon="7.593345791101456">
        <ele>2150.6100000000001</ele>
        <time>2021-06-06T09:59:36Z</time>
      </trkpt>
      <trkpt lat="45.649199355393648" lon="7.593114199116826">
        <ele>2151.5700000000002</ele>
        <time>2021-06-06T09:59:56Z</time>
      </trkpt>
      <trkpt lat="45.64914177171886" lon="7.592850923538208">
        <ele>2152.0500000000002</ele>
        <time>2021-06-06T10:00:18Z</time>
      </trkpt>
      <trkpt lat="45.649116542190313" lon="7.592712622135878">
        <ele>2153.0100000000002</ele>
        <time>2021-06-06T10:00:30Z</time>
      </trkpt>
      <trkpt lat="45.649031884968281" lon="7.592608099803329">
        <ele>2153.4899999999998</ele>
        <time>2021-06-06T10:00:42Z</time>
      </trkpt>
      <trkpt lat="45.648949323222041" lon="7.592534590512514">
        <ele>2153.9699999999998</ele>
        <time>2021-06-06T10:00:59Z</time>
      </trkpt>
      <trkpt lat="45.648948149755597" lon="7.592472564429045">
        <ele>2153.9699999999998</ele>
        <time>2021-06-06T10:01:14Z</time>
      </trkpt>
      <trkpt lat="45.648919232189655" lon="7.592460243031383">
        <ele>2153.9699999999998</ele>
        <time>2021-06-06T10:01:40Z</time>
      </trkpt>
      <trkpt lat="45.648846728727221" lon="7.592354798689485">
        <ele>2154.4499999999998</ele>
        <time>2021-06-06T10:01:54Z</time>
      </trkpt>
      <trkpt lat="45.648702559992671" lon="7.592190345749259">
        <ele>2155.8899999999999</ele>
        <time>2021-06-06T10:02:14Z</time>
      </trkpt>
      <trkpt lat="45.648632822558284" lon="7.592021785676479">
        <ele>2156.8600000000001</ele>
        <time>2021-06-06T10:02:31Z</time>
      </trkpt>
      <trkpt lat="45.64863164909184" lon="7.59197149425745">
        <ele>2157.3400000000001</ele>
        <time>2021-06-06T10:02:35Z</time>
      </trkpt>
      <trkpt lat="45.648641539737582" lon="7.591917598620057">
        <ele>2157.3400000000001</ele>
        <time>2021-06-06T10:02:39Z</time>
      </trkpt>
      <trkpt lat="45.648725526407361" lon="7.591799665242434">
        <ele>2157.3400000000001</ele>
        <time>2021-06-06T10:02:54Z</time>
      </trkpt>
      <trkpt lat="45.648729717358947" lon="7.591785835102201">
        <ele>2157.3400000000001</ele>
        <time>2021-06-06T10:02:55Z</time>
      </trkpt>
      <trkpt lat="45.648750839754939" lon="7.59163579903543">
        <ele>2156.3699999999999</ele>
        <time>2021-06-06T10:03:08Z</time>
      </trkpt>
      <trkpt lat="45.648862235248089" lon="7.591509064659476">
        <ele>2155.8899999999999</ele>
        <time>2021-06-06T10:03:24Z</time>
      </trkpt>
      <trkpt lat="45.648872880265117" lon="7.59150336496532">
        <ele>2155.4099999999999</ele>
        <time>2021-06-06T10:03:25Z</time>
      </trkpt>
      <trkpt lat="45.648997519165277" lon="7.591421557590365">
        <ele>2153.9699999999998</ele>
        <time>2021-06-06T10:03:41Z</time>
      </trkpt>
      <trkpt lat="45.64903574064374" lon="7.591339750215411">
        <ele>2153.4899999999998</ele>
        <time>2021-06-06T10:03:50Z</time>
      </trkpt>
      <trkpt lat="45.649069771170616" lon="7.591311670839787">
        <ele>2153.9699999999998</ele>
        <time>2021-06-06T10:03:54Z</time>
      </trkpt>
      <trkpt lat="45.649149650707841" lon="7.591275377199054">
        <ele>2154.4499999999998</ele>
        <time>2021-06-06T10:04:08Z</time>
      </trkpt>
      <trkpt lat="45.649157781153917" lon="7.591246794909239">
        <ele>2154.4499999999998</ele>
        <time>2021-06-06T10:04:11Z</time>
      </trkpt>
      <trkpt lat="45.649171946570277" lon="7.59119457565248">
        <ele>2154.4499999999998</ele>
        <time>2021-06-06T10:04:16Z</time>
      </trkpt>
      <trkpt lat="45.649201534688473" lon="7.591170519590378">
        <ele>2154.4499999999998</ele>
        <time>2021-06-06T10:04:34Z</time>
      </trkpt>
      <trkpt lat="45.649205725640059" lon="7.591171273961663">
        <ele>2154.4499999999998</ele>
        <time>2021-06-06T10:04:48Z</time>
      </trkpt>
      <trkpt lat="45.649215951561928" lon="7.591143026947975">
        <ele>2154.4499999999998</ele>
        <time>2021-06-06T10:05:08Z</time>
      </trkpt>
      <trkpt lat="45.649207821115851" lon="7.591161718592048">
        <ele>2154.4499999999998</ele>
        <time>2021-06-06T10:05:48Z</time>
      </trkpt>
      <trkpt lat="45.649209078401327" lon="7.591153755784035">
        <ele>2154.4499999999998</ele>
        <time>2021-06-06T10:05:59Z</time>
      </trkpt>
      <trkpt lat="45.649215951561928" lon="7.591146128252149">
        <ele>2154.4499999999998</ele>
        <time>2021-06-06T10:06:35Z</time>
      </trkpt>
      <trkpt lat="45.649223159998655" lon="7.59113933891058">
        <ele>2154.4499999999998</ele>
        <time>2021-06-06T10:06:36Z</time>
      </trkpt>
      <trkpt lat="45.649318797513843" lon="7.591100530698896">
        <ele>2155.4099999999999</ele>
        <time>2021-06-06T10:06:53Z</time>
      </trkpt>
      <trkpt lat="45.649337321519852" lon="7.591067422181368">
        <ele>2155.4099999999999</ele>
        <time>2021-06-06T10:07:10Z</time>
      </trkpt>
      <trkpt lat="45.649344027042389" lon="7.591054597869515">
        <ele>2155.4099999999999</ele>
        <time>2021-06-06T10:07:30Z</time>
      </trkpt>
      <trkpt lat="45.649347295984626" lon="7.591053675860167">
        <ele>2155.4099999999999</ele>
        <time>2021-06-06T10:08:17Z</time>
      </trkpt>
      <trkpt lat="45.649347547441721" lon="7.591057699173689">
        <ele>2155.4099999999999</ele>
        <time>2021-06-06T10:08:47Z</time>
      </trkpt>
      <trkpt lat="45.649308487772942" lon="7.591050155460835">
        <ele>2155.4099999999999</ele>
        <time>2021-06-06T10:09:14Z</time>
      </trkpt>
      <trkpt lat="45.649237493053079" lon="7.590971784666181">
        <ele>2155.4099999999999</ele>
        <time>2021-06-06T10:09:31Z</time>
      </trkpt>
      <trkpt lat="45.649252831935883" lon="7.590814875438809">
        <ele>2155.4099999999999</ele>
        <time>2021-06-06T10:09:47Z</time>
      </trkpt>
      <trkpt lat="45.649294070899487" lon="7.590661654248834">
        <ele>2156.8600000000001</ele>
        <time>2021-06-06T10:10:01Z</time>
      </trkpt>
      <trkpt lat="45.649344278499484" lon="7.590539194643498">
        <ele>2157.3400000000001</ele>
        <time>2021-06-06T10:10:15Z</time>
      </trkpt>
      <trkpt lat="45.649386774748564" lon="7.590359319001436">
        <ele>2158.3000000000002</ele>
        <time>2021-06-06T10:10:32Z</time>
      </trkpt>
      <trkpt lat="45.64950286410749" lon="7.59022562764585">
        <ele>2158.3000000000002</ele>
        <time>2021-06-06T10:10:49Z</time>
      </trkpt>
      <trkpt lat="45.649528931826353" lon="7.590191597118974">
        <ele>2158.7800000000002</ele>
        <time>2021-06-06T10:10:53Z</time>
      </trkpt>
      <trkpt lat="45.649540331214666" lon="7.590172570198774">
        <ele>2158.7800000000002</ele>
        <time>2021-06-06T10:10:55Z</time>
      </trkpt>
      <trkpt lat="45.649589030072093" lon="7.589997556060553">
        <ele>2161.1799999999998</ele>
        <time>2021-06-06T10:11:11Z</time>
      </trkpt>
      <trkpt lat="45.649598753079772" lon="7.589820027351379">
        <ele>2162.6199999999999</ele>
        <time>2021-06-06T10:11:27Z</time>
      </trkpt>
      <trkpt lat="45.649589197710156" lon="7.589608049020171">
        <ele>2164.0599999999999</ele>
        <time>2021-06-06T10:11:45Z</time>
      </trkpt>
      <trkpt lat="45.649559693410993" lon="7.589418785646558">
        <ele>2165.5100000000002</ele>
        <time>2021-06-06T10:12:03Z</time>
      </trkpt>
      <trkpt lat="45.649530524387956" lon="7.589253829792142">
        <ele>2167.4299999999998</ele>
        <time>2021-06-06T10:12:21Z</time>
      </trkpt>
      <trkpt lat="45.649455171078444" lon="7.589060291647911">
        <ele>2168.8699999999999</ele>
        <time>2021-06-06T10:12:41Z</time>
      </trkpt>
      <trkpt lat="45.649320976808667" lon="7.588883936405182">
        <ele>2170.79</ele>
        <time>2021-06-06T10:13:02Z</time>
      </trkpt>
      <trkpt lat="45.649158284068108" lon="7.588811852037907">
        <ele>2172.2399999999998</ele>
        <time>2021-06-06T10:13:22Z</time>
      </trkpt>
      <trkpt lat="45.649094833061099" lon="7.588796177878976">
        <ele>2172.7199999999998</ele>
        <time>2021-06-06T10:13:29Z</time>
      </trkpt>
      <trkpt lat="45.648962147533894" lon="7.588746221736074">
        <ele>2174.1599999999999</ele>
        <time>2021-06-06T10:13:46Z</time>
      </trkpt>
      <trkpt lat="45.64894437789917" lon="7.588748652487993">
        <ele>2174.6399999999999</ele>
        <time>2021-06-06T10:13:48Z</time>
      </trkpt>
      <trkpt lat="45.648931134492159" lon="7.588737336918712">
        <ele>2175.1199999999999</ele>
        <time>2021-06-06T10:14:07Z</time>
      </trkpt>
      <trkpt lat="45.648929793387651" lon="7.58873775601387">
        <ele>2175.1199999999999</ele>
        <time>2021-06-06T10:14:36Z</time>
      </trkpt>
      <trkpt lat="45.648901546373963" lon="7.588702887296677">
        <ele>2174.6399999999999</ele>
        <time>2021-06-06T10:14:54Z</time>
      </trkpt>
      <trkpt lat="45.648899786174297" lon="7.588700791820884">
        <ele>2174.6399999999999</ele>
        <time>2021-06-06T10:15:43Z</time>
      </trkpt>
      <trkpt lat="45.648888889700174" lon="7.588700791820884">
        <ele>2174.6399999999999</ele>
        <time>2021-06-06T10:16:22Z</time>
      </trkpt>
      <trkpt lat="45.648844633251429" lon="7.588730463758111">
        <ele>2175.1199999999999</ele>
        <time>2021-06-06T10:16:51Z</time>
      </trkpt>
      <trkpt lat="45.648820577189326" lon="7.588736498728395">
        <ele>2175.5999999999999</ele>
        <time>2021-06-06T10:16:55Z</time>
      </trkpt>
      <trkpt lat="45.648739356547594" lon="7.588749993592501">
        <ele>2175.5999999999999</ele>
        <time>2021-06-06T10:17:04Z</time>
      </trkpt>
      <trkpt lat="45.648729046806693" lon="7.58874949067831">
        <ele>2175.5999999999999</ele>
        <time>2021-06-06T10:17:05Z</time>
      </trkpt>
      <trkpt lat="45.648483289405704" lon="7.588754938915372">
        <ele>2178</ele>
        <time>2021-06-06T10:17:30Z</time>
      </trkpt>
      <trkpt lat="45.648284973576665" lon="7.588714119046927">
        <ele>2179.4499999999998</ele>
        <time>2021-06-06T10:17:51Z</time>
      </trkpt>
      <trkpt lat="45.648274328559637" lon="7.588678663596511">
        <ele>2179.4499999999998</ele>
        <time>2021-06-06T10:17:54Z</time>
      </trkpt>
      <trkpt lat="45.648243650794029" lon="7.588452519848943">
        <ele>2177.52</ele>
        <time>2021-06-06T10:18:12Z</time>
      </trkpt>
      <trkpt lat="45.64816108904779" lon="7.588346656411886">
        <ele>2175.1199999999999</ele>
        <time>2021-06-06T10:18:25Z</time>
      </trkpt>
      <trkpt lat="45.648151533678174" lon="7.588340453803539">
        <ele>2174.6399999999999</ele>
        <time>2021-06-06T10:18:26Z</time>
      </trkpt>
      <trkpt lat="45.648055141791701" lon="7.588240876793861">
        <ele>2172.2399999999998</ele>
        <time>2021-06-06T10:18:39Z</time>
      </trkpt>
      <trkpt lat="45.64807659946382" lon="7.588195027783513">
        <ele>2172.2399999999998</ele>
        <time>2021-06-06T10:18:44Z</time>
      </trkpt>
      <trkpt lat="45.648083472624421" lon="7.588167451322079">
        <ele>2172.2399999999998</ele>
        <time>2021-06-06T10:18:46Z</time>
      </trkpt>
      <trkpt lat="45.64812789671123" lon="7.587934350594878">
        <ele>2171.27</ele>
        <time>2021-06-06T10:19:05Z</time>
      </trkpt>
      <trkpt lat="45.648135021328926" lon="7.587905684486032">
        <ele>2171.27</ele>
        <time>2021-06-06T10:19:10Z</time>
      </trkpt>
      <trkpt lat="45.648155054077506" lon="7.587844831869006">
        <ele>2170.79</ele>
        <time>2021-06-06T10:19:15Z</time>
      </trkpt>
      <trkpt lat="45.64816209487617" lon="7.587833516299725">
        <ele>2170.79</ele>
        <time>2021-06-06T10:19:16Z</time>
      </trkpt>
      <trkpt lat="45.6481674592942" lon="7.587819183245301">
        <ele>2170.79</ele>
        <time>2021-06-06T10:19:17Z</time>
      </trkpt>
      <trkpt lat="45.64817676320672" lon="7.587602930143476">
        <ele>2168.3899999999999</ele>
        <time>2021-06-06T10:19:33Z</time>
      </trkpt>
      <trkpt lat="45.648133428767323" lon="7.58736664429307">
        <ele>2165.5100000000002</ele>
        <time>2021-06-06T10:19:51Z</time>
      </trkpt>
      <trkpt lat="45.648117419332266" lon="7.587335798889399">
        <ele>2165.0300000000002</ele>
        <time>2021-06-06T10:19:54Z</time>
      </trkpt>
      <trkpt lat="45.648086322471499" lon="7.587192049250007">
        <ele>2163.5799999999999</ele>
        <time>2021-06-06T10:20:06Z</time>
      </trkpt>
      <trkpt lat="45.648008370772004" lon="7.587032960727811">
        <ele>2160.6999999999998</ele>
        <time>2021-06-06T10:20:22Z</time>
      </trkpt>
      <trkpt lat="45.647925389930606" lon="7.586841182783246">
        <ele>2157.8200000000002</ele>
        <time>2021-06-06T10:20:41Z</time>
      </trkpt>
      <trkpt lat="45.647880462929606" lon="7.586740097030997">
        <ele>2156.3699999999999</ele>
        <time>2021-06-06T10:20:52Z</time>
      </trkpt>
      <trkpt lat="45.64787719398737" lon="7.586730374023318">
        <ele>2156.3699999999999</ele>
        <time>2021-06-06T10:20:53Z</time>
      </trkpt>
      <trkpt lat="45.647871745750308" lon="7.586722075939179">
        <ele>2156.3699999999999</ele>
        <time>2021-06-06T10:20:54Z</time>
      </trkpt>
      <trkpt lat="45.647848024964333" lon="7.586697684600949">
        <ele>2155.4099999999999</ele>
        <time>2021-06-06T10:20:57Z</time>
      </trkpt>
      <trkpt lat="45.647814916446805" lon="7.58660338819027">
        <ele>2153.9699999999998</ele>
        <time>2021-06-06T10:21:05Z</time>
      </trkpt>
      <trkpt lat="45.647801673039794" lon="7.586581595242024">
        <ele>2153.4899999999998</ele>
        <time>2021-06-06T10:21:07Z</time>
      </trkpt>
      <trkpt lat="45.647794548422098" lon="7.586498698219657">
        <ele>2152.5300000000002</ele>
        <time>2021-06-06T10:21:13Z</time>
      </trkpt>
      <trkpt lat="45.647793458774686" lon="7.586484365165234">
        <ele>2152.5300000000002</ele>
        <time>2021-06-06T10:21:14Z</time>
      </trkpt>
      <trkpt lat="45.64779169857502" lon="7.586471457034349">
        <ele>2152.0500000000002</ele>
        <time>2021-06-06T10:21:15Z</time>
      </trkpt>
      <trkpt lat="45.647719278931618" lon="7.586367353796959">
        <ele>2150.6100000000001</ele>
        <time>2021-06-06T10:21:25Z</time>
      </trkpt>
      <trkpt lat="45.647713160142303" lon="7.586354864761233">
        <ele>2150.6100000000001</ele>
        <time>2021-06-06T10:21:26Z</time>
      </trkpt>
      <trkpt lat="45.647659851238132" lon="7.586156716570258">
        <ele>2148.6799999999998</ele>
        <time>2021-06-06T10:21:42Z</time>
      </trkpt>
      <trkpt lat="45.647656330838799" lon="7.586144646629691">
        <ele>2148.6799999999998</ele>
        <time>2021-06-06T10:21:43Z</time>
      </trkpt>
      <trkpt lat="45.647634454071522" lon="7.58599846623838">
        <ele>2147.2399999999998</ele>
        <time>2021-06-06T10:21:56Z</time>
      </trkpt>
      <trkpt lat="45.647632861509919" lon="7.585983965545893">
        <ele>2146.7600000000002</ele>
        <time>2021-06-06T10:21:57Z</time>
      </trkpt>
      <trkpt lat="45.647631352767348" lon="7.585955550894141">
        <ele>2146.7600000000002</ele>
        <time>2021-06-06T10:21:59Z</time>
      </trkpt>
      <trkpt lat="45.647621797397733" lon="7.58587877266109">
        <ele>2146.2800000000002</ele>
        <time>2021-06-06T10:22:04Z</time>
      </trkpt>
      <trkpt lat="45.647620121017098" lon="7.585859745740891">
        <ele>2146.2800000000002</ele>
        <time>2021-06-06T10:22:05Z</time>
      </trkpt>
      <trkpt lat="45.647619282826781" lon="7.585841976106167">
        <ele>2146.2800000000002</ele>
        <time>2021-06-06T10:22:06Z</time>
      </trkpt>
      <trkpt lat="45.647666892036796" lon="7.585536120459437">
        <ele>2144.8400000000001</ele>
        <time>2021-06-06T10:22:26Z</time>
      </trkpt>
      <trkpt lat="45.647680386900902" lon="7.585459342226386">
        <ele>2144.8400000000001</ele>
        <time>2021-06-06T10:22:42Z</time>
      </trkpt>
      <trkpt lat="45.647683069109917" lon="7.585444087162614">
        <ele>2144.8400000000001</ele>
        <time>2021-06-06T10:22:44Z</time>
      </trkpt>
      <trkpt lat="45.647688768804073" lon="7.585430843755603">
        <ele>2144.8400000000001</ele>
        <time>2021-06-06T10:22:45Z</time>
      </trkpt>
      <trkpt lat="45.647696061059833" lon="7.585416678339243">
        <ele>2144.8400000000001</ele>
        <time>2021-06-06T10:22:46Z</time>
      </trkpt>
      <trkpt lat="45.64770377241075" lon="7.585403937846422">
        <ele>2144.3600000000001</ele>
        <time>2021-06-06T10:22:47Z</time>
      </trkpt>
      <trkpt lat="45.647710980847478" lon="7.585391867905855">
        <ele>2144.3600000000001</ele>
        <time>2021-06-06T10:22:48Z</time>
      </trkpt>
      <trkpt lat="45.647752555087209" lon="7.585339229553938">
        <ele>2144.3600000000001</ele>
        <time>2021-06-06T10:22:54Z</time>
      </trkpt>
      <trkpt lat="45.647756243124604" lon="7.585324477404356">
        <ele>2143.8800000000001</ele>
        <time>2021-06-06T10:22:55Z</time>
      </trkpt>
      <trkpt lat="45.647759679704905" lon="7.585309222340584">
        <ele>2143.8800000000001</ele>
        <time>2021-06-06T10:22:56Z</time>
      </trkpt>
      <trkpt lat="45.647763116285205" lon="7.585292793810368">
        <ele>2143.8800000000001</ele>
        <time>2021-06-06T10:22:57Z</time>
      </trkpt>
      <trkpt lat="45.647768983617425" lon="7.585279634222388">
        <ele>2143.4000000000001</ele>
        <time>2021-06-06T10:22:58Z</time>
      </trkpt>
      <trkpt lat="45.647802678868175" lon="7.585187936201692">
        <ele>2143.4000000000001</ele>
        <time>2021-06-06T10:23:05Z</time>
      </trkpt>
      <trkpt lat="45.647882893681526" lon="7.585083330050111">
        <ele>2142.4400000000001</ele>
        <time>2021-06-06T10:23:16Z</time>
      </trkpt>
      <trkpt lat="45.6479187682271" lon="7.584988698363304">
        <ele>2142.4400000000001</ele>
        <time>2021-06-06T10:23:29Z</time>
      </trkpt>
      <trkpt lat="45.647917594760656" lon="7.584948465228081">
        <ele>2141.9499999999998</ele>
        <time>2021-06-06T10:23:32Z</time>
      </trkpt>
      <trkpt lat="45.647913571447134" lon="7.584934383630753">
        <ele>2141.9499999999998</ele>
        <time>2021-06-06T10:23:33Z</time>
      </trkpt>
      <trkpt lat="45.647910470142961" lon="7.584853582084179">
        <ele>2142.4400000000001</ele>
        <time>2021-06-06T10:23:40Z</time>
      </trkpt>
      <trkpt lat="45.64792999997735" lon="7.584753753617406">
        <ele>2143.4000000000001</ele>
        <time>2021-06-06T10:23:52Z</time>
      </trkpt>
      <trkpt lat="45.64792999997735" lon="7.584738498553634">
        <ele>2143.4000000000001</ele>
        <time>2021-06-06T10:23:53Z</time>
      </trkpt>
      <trkpt lat="45.647825561463833" lon="7.5844915676862">
        <ele>2145.3200000000002</ele>
        <time>2021-06-06T10:24:14Z</time>
      </trkpt>
      <trkpt lat="45.64772866666317" lon="7.584345890209079">
        <ele>2148.1999999999998</ele>
        <time>2021-06-06T10:24:31Z</time>
      </trkpt>
      <trkpt lat="45.647731851786375" lon="7.584199290722609">
        <ele>2150.1300000000001</ele>
        <time>2021-06-06T10:24:44Z</time>
      </trkpt>
      <trkpt lat="45.647710645571351" lon="7.584046572446823">
        <ele>2151.5700000000002</ele>
        <time>2021-06-06T10:24:58Z</time>
      </trkpt>
      <trkpt lat="45.647703018039465" lon="7.583865942433476">
        <ele>2153.9699999999998</ele>
        <time>2021-06-06T10:25:16Z</time>
      </trkpt>
      <trkpt lat="45.647727744653821" lon="7.583828223869205">
        <ele>2154.9299999999998</ele>
        <time>2021-06-06T10:25:21Z</time>
      </trkpt>
      <trkpt lat="45.647829081863165" lon="7.58367458358407">
        <ele>2156.8600000000001</ele>
        <time>2021-06-06T10:25:39Z</time>
      </trkpt>
      <trkpt lat="45.647840648889542" lon="7.583610629662871">
        <ele>2157.3400000000001</ele>
        <time>2021-06-06T10:25:45Z</time>
      </trkpt>
      <trkpt lat="45.647774683311582" lon="7.583523374050856">
        <ele>2159.2600000000002</ele>
        <time>2021-06-06T10:25:59Z</time>
      </trkpt>
      <trkpt lat="45.647767223417759" lon="7.583540892228484">
        <ele>2160.6999999999998</ele>
        <time>2021-06-06T10:26:18Z</time>
      </trkpt>
      <trkpt lat="45.647745095193386" lon="7.583557488396764">
        <ele>2160.6999999999998</ele>
        <time>2021-06-06T10:26:21Z</time>
      </trkpt>
      <trkpt lat="45.647710645571351" lon="7.583539299666882">
        <ele>2160.6999999999998</ele>
        <time>2021-06-06T10:26:37Z</time>
      </trkpt>
      <trkpt lat="45.647724978625774" lon="7.58358464576304">
        <ele>2160.6999999999998</ele>
        <time>2021-06-06T10:26:54Z</time>
      </trkpt>
      <trkpt lat="45.647718943655491" lon="7.583568468689919">
        <ele>2160.6999999999998</ele>
        <time>2021-06-06T10:27:12Z</time>
      </trkpt>
      <trkpt lat="45.647730091586709" lon="7.583585064858198">
        <ele>2160.6999999999998</ele>
        <time>2021-06-06T10:27:37Z</time>
      </trkpt>
      <trkpt lat="45.647729923948646" lon="7.583590932190418">
        <ele>2161.1799999999998</ele>
        <time>2021-06-06T10:28:04Z</time>
      </trkpt>
      <trkpt lat="45.64771986566484" lon="7.583581795915961">
        <ele>2161.1799999999998</ele>
        <time>2021-06-06T10:28:23Z</time>
      </trkpt>
      <trkpt lat="45.647748783230782" lon="7.583589591085911">
        <ele>2161.1799999999998</ele>
        <time>2021-06-06T10:28:46Z</time>
      </trkpt>
      <trkpt lat="45.647813659161329" lon="7.583631668239832">
        <ele>2161.1799999999998</ele>
        <time>2021-06-06T10:29:00Z</time>
      </trkpt>
      <trkpt lat="45.647826986387372" lon="7.583630494773388">
        <ele>2161.1799999999998</ele>
        <time>2021-06-06T10:29:19Z</time>
      </trkpt>
      <trkpt lat="45.647829584777355" lon="7.58364818058908">
        <ele>2161.1799999999998</ele>
        <time>2021-06-06T10:29:39Z</time>
      </trkpt>
      <trkpt lat="45.647826064378023" lon="7.583646755665541">
        <ele>2161.1799999999998</ele>
        <time>2021-06-06T10:30:04Z</time>
      </trkpt>
      <trkpt lat="45.647837044671178" lon="7.583634266629815">
        <ele>2161.1799999999998</ele>
        <time>2021-06-06T10:30:31Z</time>
      </trkpt>
      <trkpt lat="45.647840648889542" lon="7.583640720695257">
        <ele>2161.1799999999998</ele>
        <time>2021-06-06T10:31:06Z</time>
      </trkpt>
      <trkpt lat="45.647805444896221" lon="7.583759492263198">
        <ele>2161.1799999999998</ele>
        <time>2021-06-06T10:31:19Z</time>
      </trkpt>
      <trkpt lat="45.64772523008287" lon="7.583836438134313">
        <ele>2157.8200000000002</ele>
        <time>2021-06-06T10:31:31Z</time>
      </trkpt>
      <trkpt lat="45.647712573409081" lon="7.58387248031795">
        <ele>2157.3400000000001</ele>
        <time>2021-06-06T10:31:36Z</time>
      </trkpt>
      <trkpt lat="45.647720452398062" lon="7.584032826125622">
        <ele>2155.4099999999999</ele>
        <time>2021-06-06T10:31:50Z</time>
      </trkpt>
      <trkpt lat="45.647733528167009" lon="7.584199877455831">
        <ele>2153.4899999999998</ele>
        <time>2021-06-06T10:32:05Z</time>
      </trkpt>
      <trkpt lat="45.64773453399539" lon="7.584322839975357">
        <ele>2151.5700000000002</ele>
        <time>2021-06-06T10:32:16Z</time>
      </trkpt>
      <trkpt lat="45.647729421034455" lon="7.584351254627109">
        <ele>2151.5700000000002</ele>
        <time>2021-06-06T10:32:18Z</time>
      </trkpt>
      <trkpt lat="45.647725062444806" lon="7.584365587681532">
        <ele>2151.5700000000002</ele>
        <time>2021-06-06T10:32:19Z</time>
      </trkpt>
      <trkpt lat="45.647672759369016" lon="7.584382435306907">
        <ele>2150.6100000000001</ele>
        <time>2021-06-06T10:32:33Z</time>
      </trkpt>
      <trkpt lat="45.64763437025249" lon="7.584371287375689">
        <ele>2149.1599999999999</ele>
        <time>2021-06-06T10:32:45Z</time>
      </trkpt>
      <trkpt lat="45.647581396624446" lon="7.584338933229446">
        <ele>2146.7600000000002</ele>
        <time>2021-06-06T10:32:57Z</time>
      </trkpt>
      <trkpt lat="45.647560693323612" lon="7.584320576861501">
        <ele>2145.8000000000002</ele>
        <time>2021-06-06T10:33:04Z</time>
      </trkpt>
      <trkpt lat="45.647504283115268" lon="7.584208343178034">
        <ele>2144.3600000000001</ele>
        <time>2021-06-06T10:33:17Z</time>
      </trkpt>
      <trkpt lat="45.647467570379376" lon="7.584141539409757">
        <ele>2143.8800000000001</ele>
        <time>2021-06-06T10:33:25Z</time>
      </trkpt>
      <trkpt lat="45.647461786866188" lon="7.584130056202412">
        <ele>2143.8800000000001</ele>
        <time>2021-06-06T10:33:26Z</time>
      </trkpt>
      <trkpt lat="45.647431695833802" lon="7.584061156958342">
        <ele>2143.4000000000001</ele>
        <time>2021-06-06T10:33:45Z</time>
      </trkpt>
      <trkpt lat="45.647417865693569" lon="7.584024779498577">
        <ele>2143.4000000000001</ele>
        <time>2021-06-06T10:33:51Z</time>
      </trkpt>
      <trkpt lat="45.647387271746993" lon="7.5839286390692">
        <ele>2143.8800000000001</ele>
        <time>2021-06-06T10:34:05Z</time>
      </trkpt>
      <trkpt lat="45.647381823509932" lon="7.583915647119284">
        <ele>2143.8800000000001</ele>
        <time>2021-06-06T10:34:06Z</time>
      </trkpt>
      <trkpt lat="45.64734804444015" lon="7.583771226927638">
        <ele>2143.8800000000001</ele>
        <time>2021-06-06T10:34:19Z</time>
      </trkpt>
      <trkpt lat="45.647319043055177" lon="7.583628566935659">
        <ele>2143.8800000000001</ele>
        <time>2021-06-06T10:34:30Z</time>
      </trkpt>
      <trkpt lat="45.647313259541988" lon="7.583601577207446">
        <ele>2143.8800000000001</ele>
        <time>2021-06-06T10:34:32Z</time>
      </trkpt>
      <trkpt lat="45.647282497957349" lon="7.583314329385757">
        <ele>2143.8800000000001</ele>
        <time>2021-06-06T10:34:51Z</time>
      </trkpt>
      <trkpt lat="45.647285683080554" lon="7.583158845081925">
        <ele>2143.8800000000001</ele>
        <time>2021-06-06T10:35:03Z</time>
      </trkpt>
      <trkpt lat="45.647288030013442" lon="7.583142835646868">
        <ele>2143.8800000000001</ele>
        <time>2021-06-06T10:35:04Z</time>
      </trkpt>
      <trkpt lat="45.647313091903925" lon="7.583023393526673">
        <ele>2143.8800000000001</ele>
        <time>2021-06-06T10:35:13Z</time>
      </trkpt>
      <trkpt lat="45.647312169894576" lon="7.583007970824838">
        <ele>2143.8800000000001</ele>
        <time>2021-06-06T10:35:14Z</time>
      </trkpt>
      <trkpt lat="45.647310074418783" lon="7.582734553143382">
        <ele>2143.4000000000001</ele>
        <time>2021-06-06T10:35:31Z</time>
      </trkpt>
      <trkpt lat="45.647281492128968" lon="7.582495585083962">
        <ele>2143.4000000000001</ele>
        <time>2021-06-06T10:35:47Z</time>
      </trkpt>
      <trkpt lat="45.647275373339653" lon="7.582294587045908">
        <ele>2143.4000000000001</ele>
        <time>2021-06-06T10:36:02Z</time>
      </trkpt>
      <trkpt lat="45.647287862375379" lon="7.582104485481978">
        <ele>2144.3600000000001</ele>
        <time>2021-06-06T10:36:15Z</time>
      </trkpt>
      <trkpt lat="45.647290544584394" lon="7.582012116909027">
        <ele>2144.8400000000001</ele>
        <time>2021-06-06T10:36:23Z</time>
      </trkpt>
      <trkpt lat="45.64727084711194" lon="7.581823943182826">
        <ele>2145.3200000000002</ele>
        <time>2021-06-06T10:36:39Z</time>
      </trkpt>
      <trkpt lat="45.647258693352342" lon="7.581777255982161">
        <ele>2145.3200000000002</ele>
        <time>2021-06-06T10:36:45Z</time>
      </trkpt>
      <trkpt lat="45.647254837676883" lon="7.581766443327069">
        <ele>2145.3200000000002</ele>
        <time>2021-06-06T10:36:46Z</time>
      </trkpt>
      <trkpt lat="45.647243354469538" lon="7.581729562953115">
        <ele>2145.3200000000002</ele>
        <time>2021-06-06T10:36:49Z</time>
      </trkpt>
      <trkpt lat="45.647242432460189" lon="7.581632668152452">
        <ele>2144.8400000000001</ele>
        <time>2021-06-06T10:37:06Z</time>
      </trkpt>
      <trkpt lat="45.647237822413445" lon="7.581489169970155">
        <ele>2145.8000000000002</ele>
        <time>2021-06-06T10:37:19Z</time>
      </trkpt>
      <trkpt lat="45.647236648947001" lon="7.581464359536767">
        <ele>2145.8000000000002</ele>
        <time>2021-06-06T10:37:21Z</time>
      </trkpt>
      <trkpt lat="45.647242851555347" lon="7.581425635144115">
        <ele>2146.2800000000002</ele>
        <time>2021-06-06T10:37:24Z</time>
      </trkpt>
      <trkpt lat="45.647325916215777" lon="7.58133502677083">
        <ele>2146.7600000000002</ele>
        <time>2021-06-06T10:37:38Z</time>
      </trkpt>
      <trkpt lat="45.647365562617779" lon="7.581249363720417">
        <ele>2148.6799999999998</ele>
        <time>2021-06-06T10:37:52Z</time>
      </trkpt>
      <trkpt lat="45.64735977910459" lon="7.581195468083024">
        <ele>2149.1599999999999</ele>
        <time>2021-06-06T10:38:15Z</time>
      </trkpt>
      <trkpt lat="45.647350559011102" lon="7.58108189329505">
        <ele>2148.1999999999998</ele>
        <time>2021-06-06T10:38:29Z</time>
      </trkpt>
      <trkpt lat="45.647374782711267" lon="7.580985249951482">
        <ele>2148.6799999999998</ele>
        <time>2021-06-06T10:38:40Z</time>
      </trkpt>
      <trkpt lat="45.647377632558346" lon="7.580969491973519">
        <ele>2148.6799999999998</ele>
        <time>2021-06-06T10:38:41Z</time>
      </trkpt>
      <trkpt lat="45.647406298667192" lon="7.580837560817599">
        <ele>2149.1599999999999</ele>
        <time>2021-06-06T10:38:52Z</time>
      </trkpt>
      <trkpt lat="45.647411830723286" lon="7.58082733489573">
        <ele>2149.1599999999999</ele>
        <time>2021-06-06T10:38:53Z</time>
      </trkpt>
      <trkpt lat="45.647419961169362" lon="7.580817779526115">
        <ele>2149.1599999999999</ele>
        <time>2021-06-06T10:38:54Z</time>
      </trkpt>
      <trkpt lat="45.647501852363348" lon="7.580759692937136">
        <ele>2149.6500000000001</ele>
        <time>2021-06-06T10:39:06Z</time>
      </trkpt>
      <trkpt lat="45.647525992244482" lon="7.580725662410259">
        <ele>2150.1300000000001</ele>
        <time>2021-06-06T10:39:11Z</time>
      </trkpt>
      <trkpt lat="45.647526830434799" lon="7.580698672682047">
        <ele>2150.1300000000001</ele>
        <time>2021-06-06T10:39:13Z</time>
      </trkpt>
      <trkpt lat="45.647540241479874" lon="7.580644022673369">
        <ele>2150.1300000000001</ele>
        <time>2021-06-06T10:39:28Z</time>
      </trkpt>
      <trkpt lat="45.647532865405083" lon="7.580609740689397">
        <ele>2150.1300000000001</ele>
        <time>2021-06-06T10:39:46Z</time>
      </trkpt>
      <trkpt lat="45.647547449916601" lon="7.580514354631305">
        <ele>2149.1599999999999</ele>
        <time>2021-06-06T10:40:00Z</time>
      </trkpt>
      <trkpt lat="45.647548036649823" lon="7.58034068159759">
        <ele>2148.1999999999998</ele>
        <time>2021-06-06T10:40:15Z</time>
      </trkpt>
      <trkpt lat="45.647550551220775" lon="7.580189639702439">
        <ele>2147.2399999999998</ele>
        <time>2021-06-06T10:40:29Z</time>
      </trkpt>
      <trkpt lat="45.64756203442812" lon="7.580146221444011">
        <ele>2146.2800000000002</ele>
        <time>2021-06-06T10:40:42Z</time>
      </trkpt>
      <trkpt lat="45.647585168480873" lon="7.580084949731827">
        <ele>2146.7600000000002</ele>
        <time>2021-06-06T10:40:59Z</time>
      </trkpt>
      <trkpt lat="45.647600842639804" lon="7.579963998869062">
        <ele>2146.7600000000002</ele>
        <time>2021-06-06T10:41:14Z</time>
      </trkpt>
      <trkpt lat="45.647641662508249" lon="7.579835085198283">
        <ele>2146.7600000000002</ele>
        <time>2021-06-06T10:41:28Z</time>
      </trkpt>
      <trkpt lat="45.647641997784376" lon="7.57977582514286">
        <ele>2146.7600000000002</ele>
        <time>2021-06-06T10:41:33Z</time>
      </trkpt>
      <trkpt lat="45.647643422707915" lon="7.579655880108476">
        <ele>2146.7600000000002</ele>
        <time>2021-06-06T10:41:47Z</time>
      </trkpt>
      <trkpt lat="45.647678291425109" lon="7.579556554555893">
        <ele>2147.2399999999998</ele>
        <time>2021-06-06T10:42:07Z</time>
      </trkpt>
      <trkpt lat="45.647683320567012" lon="7.579545825719833">
        <ele>2147.2399999999998</ele>
        <time>2021-06-06T10:42:08Z</time>
      </trkpt>
      <trkpt lat="45.647679632529616" lon="7.579410960897803">
        <ele>2146.7600000000002</ele>
        <time>2021-06-06T10:42:21Z</time>
      </trkpt>
      <trkpt lat="45.647672675549984" lon="7.579363770782948">
        <ele>2146.7600000000002</ele>
        <time>2021-06-06T10:42:25Z</time>
      </trkpt>
      <trkpt lat="45.647665299475193" lon="7.579207783564925">
        <ele>2146.7600000000002</ele>
        <time>2021-06-06T10:42:38Z</time>
      </trkpt>
      <trkpt lat="45.647667394950986" lon="7.579176938161254">
        <ele>2146.7600000000002</ele>
        <time>2021-06-06T10:42:41Z</time>
      </trkpt>
      <trkpt lat="45.647670328617096" lon="7.579163191840053">
        <ele>2146.7600000000002</ele>
        <time>2021-06-06T10:42:42Z</time>
      </trkpt>
      <trkpt lat="45.647676195949316" lon="7.579148858785629">
        <ele>2146.7600000000002</ele>
        <time>2021-06-06T10:42:43Z</time>
      </trkpt>
      <trkpt lat="45.647718440741301" lon="7.578943334519863">
        <ele>2146.7600000000002</ele>
        <time>2021-06-06T10:42:58Z</time>
      </trkpt>
      <trkpt lat="45.647766720503569" lon="7.57885423488915">
        <ele>2146.2800000000002</ele>
        <time>2021-06-06T10:43:10Z</time>
      </trkpt>
      <trkpt lat="45.647765379399061" lon="7.578815678134561">
        <ele>2146.7600000000002</ele>
        <time>2021-06-06T10:43:13Z</time>
      </trkpt>
      <trkpt lat="45.647762948647141" lon="7.578802183270454">
        <ele>2146.7600000000002</ele>
        <time>2021-06-06T10:43:14Z</time>
      </trkpt>
      <trkpt lat="45.647741071879864" lon="7.578741498291493">
        <ele>2146.2800000000002</ele>
        <time>2021-06-06T10:43:19Z</time>
      </trkpt>
      <trkpt lat="45.647733192890882" lon="7.578731691464782">
        <ele>2146.2800000000002</ele>
        <time>2021-06-06T10:43:20Z</time>
      </trkpt>
      <trkpt lat="45.64772573299706" lon="7.578720124438405">
        <ele>2146.2800000000002</ele>
        <time>2021-06-06T10:43:21Z</time>
      </trkpt>
      <trkpt lat="45.64761433750391" lon="7.578431954607368">
        <ele>2147.2399999999998</ele>
        <time>2021-06-06T10:43:44Z</time>
      </trkpt>
      <trkpt lat="45.647604865953326" lon="7.578396582975984">
        <ele>2147.7199999999998</ele>
        <time>2021-06-06T10:43:47Z</time>
      </trkpt>
      <trkpt lat="45.647600842639804" lon="7.578371269628406">
        <ele>2147.7199999999998</ele>
        <time>2021-06-06T10:43:49Z</time>
      </trkpt>
      <trkpt lat="45.647573936730623" lon="7.578281750902534">
        <ele>2148.1999999999998</ele>
        <time>2021-06-06T10:43:57Z</time>
      </trkpt>
      <trkpt lat="45.647567566484213" lon="7.578271441161633">
        <ele>2148.1999999999998</ele>
        <time>2021-06-06T10:43:58Z</time>
      </trkpt>
      <trkpt lat="45.647560190409422" lon="7.578259538859129">
        <ele>2148.1999999999998</ele>
        <time>2021-06-06T10:43:59Z</time>
      </trkpt>
      <trkpt lat="45.64755323342979" lon="7.578246630728245">
        <ele>2148.1999999999998</ele>
        <time>2021-06-06T10:44:00Z</time>
      </trkpt>
      <trkpt lat="45.647546024993062" lon="7.578233722597361">
        <ele>2147.7199999999998</ele>
        <time>2021-06-06T10:44:01Z</time>
      </trkpt>
      <trkpt lat="45.647533033043146" lon="7.578211929649115">
        <ele>2147.7199999999998</ele>
        <time>2021-06-06T10:44:03Z</time>
      </trkpt>
      <trkpt lat="45.647525321692228" lon="7.578203547745943">
        <ele>2147.7199999999998</ele>
        <time>2021-06-06T10:44:04Z</time>
      </trkpt>
      <trkpt lat="45.647504953667521" lon="7.578172367066145">
        <ele>2147.7199999999998</ele>
        <time>2021-06-06T10:44:07Z</time>
      </trkpt>
      <trkpt lat="45.647463966161013" lon="7.578029958531261">
        <ele>2147.7199999999998</ele>
        <time>2021-06-06T10:44:17Z</time>
      </trkpt>
      <trkpt lat="45.647462792694569" lon="7.578015122562647">
        <ele>2147.7199999999998</ele>
        <time>2021-06-06T10:44:18Z</time>
      </trkpt>
      <trkpt lat="45.647460278123617" lon="7.577935578301549">
        <ele>2147.7199999999998</ele>
        <time>2021-06-06T10:44:23Z</time>
      </trkpt>
      <trkpt lat="45.647456673905253" lon="7.577920742332935">
        <ele>2147.2399999999998</ele>
        <time>2021-06-06T10:44:24Z</time>
      </trkpt>
      <trkpt lat="45.647452063858509" lon="7.577906241640449">
        <ele>2147.2399999999998</ele>
        <time>2021-06-06T10:44:25Z</time>
      </trkpt>
      <trkpt lat="45.647446867078543" lon="7.577893333509564">
        <ele>2147.2399999999998</ele>
        <time>2021-06-06T10:44:26Z</time>
      </trkpt>
      <trkpt lat="45.647440496832132" lon="7.577881431207061">
        <ele>2147.2399999999998</ele>
        <time>2021-06-06T10:44:27Z</time>
      </trkpt>
      <trkpt lat="45.647420799359679" lon="7.577831391245127">
        <ele>2147.2399999999998</ele>
        <time>2021-06-06T10:44:31Z</time>
      </trkpt>
      <trkpt lat="45.647409232333302" lon="7.577783865854144">
        <ele>2146.7600000000002</ele>
        <time>2021-06-06T10:44:35Z</time>
      </trkpt>
      <trkpt lat="45.647402694448829" lon="7.577775148674846">
        <ele>2146.7600000000002</ele>
        <time>2021-06-06T10:44:36Z</time>
      </trkpt>
      <trkpt lat="45.647395066916943" lon="7.577764671295881">
        <ele>2146.7600000000002</ele>
        <time>2021-06-06T10:44:37Z</time>
      </trkpt>
      <trkpt lat="45.647342260926962" lon="7.577602649107575">
        <ele>2146.7600000000002</ele>
        <time>2021-06-06T10:44:53Z</time>
      </trkpt>
      <trkpt lat="45.647337986156344" lon="7.577597452327609">
        <ele>2146.7600000000002</ele>
        <time>2021-06-06T10:45:13Z</time>
      </trkpt>
      <trkpt lat="45.647349720820785" lon="7.577583957463503">
        <ele>2147.2399999999998</ele>
        <time>2021-06-06T10:45:41Z</time>
      </trkpt>
      <trkpt lat="45.647354666143656" lon="7.57761119864881">
        <ele>2146.7600000000002</ele>
        <time>2021-06-06T10:46:00Z</time>
      </trkpt>
      <trkpt lat="45.647340249270201" lon="7.5776082649827">
        <ele>2146.2800000000002</ele>
        <time>2021-06-06T10:46:18Z</time>
      </trkpt>
      <trkpt lat="45.647327341139317" lon="7.577612875029445">
        <ele>2146.2800000000002</ele>
        <time>2021-06-06T10:46:38Z</time>
      </trkpt>
      <trkpt lat="45.647354917600751" lon="7.577586136758328">
        <ele>2146.7600000000002</ele>
        <time>2021-06-06T10:46:58Z</time>
      </trkpt>
      <trkpt lat="45.647348128259182" lon="7.577590579167008">
        <ele>2146.7600000000002</ele>
        <time>2021-06-06T10:47:25Z</time>
      </trkpt>
      <trkpt lat="45.647350726649165" lon="7.577603822574019">
        <ele>2146.7600000000002</ele>
        <time>2021-06-06T10:47:45Z</time>
      </trkpt>
      <trkpt lat="45.647344356402755" lon="7.577583454549313">
        <ele>2146.7600000000002</ele>
        <time>2021-06-06T10:48:03Z</time>
      </trkpt>
      <trkpt lat="45.647328263148665" lon="7.57756719365716">
        <ele>2146.7600000000002</ele>
        <time>2021-06-06T10:48:19Z</time>
      </trkpt>
      <trkpt lat="45.647323150187731" lon="7.577566020190716">
        <ele>2146.7600000000002</ele>
        <time>2021-06-06T10:48:47Z</time>
      </trkpt>
      <trkpt lat="45.647357599809766" lon="7.57759602740407">
        <ele>2146.7600000000002</ele>
        <time>2021-06-06T10:49:19Z</time>
      </trkpt>
      <trkpt lat="45.647362293675542" lon="7.577613042667508">
        <ele>2146.7600000000002</ele>
        <time>2021-06-06T10:49:50Z</time>
      </trkpt>
      <trkpt lat="45.647366065531969" lon="7.577616898342967">
        <ele>2146.7600000000002</ele>
        <time>2021-06-06T10:50:07Z</time>
      </trkpt>
      <trkpt lat="45.647358186542988" lon="7.577601978555322">
        <ele>2146.7600000000002</ele>
        <time>2021-06-06T10:50:23Z</time>
      </trkpt>
      <trkpt lat="45.647351564839482" lon="7.577592087909579">
        <ele>2146.7600000000002</ele>
        <time>2021-06-06T10:50:48Z</time>
      </trkpt>
      <trkpt lat="45.647356174886227" lon="7.577597871422768">
        <ele>2146.7600000000002</ele>
        <time>2021-06-06T10:51:22Z</time>
      </trkpt>
      <trkpt lat="45.647358940914273" lon="7.577594937756658">
        <ele>2146.7600000000002</ele>
        <time>2021-06-06T10:51:55Z</time>
      </trkpt>
      <trkpt lat="45.647362964227796" lon="7.577605918049812">
        <ele>2146.7600000000002</ele>
        <time>2021-06-06T10:52:19Z</time>
      </trkpt>
      <trkpt lat="45.647362126037478" lon="7.577608432620764">
        <ele>2146.7600000000002</ele>
        <time>2021-06-06T10:53:11Z</time>
      </trkpt>
      <trkpt lat="45.647371597588062" lon="7.577691916376352">
        <ele>2146.7600000000002</ele>
        <time>2021-06-06T10:53:21Z</time>
      </trkpt>
      <trkpt lat="45.647375285625458" lon="7.577703148126602">
        <ele>2146.7600000000002</ele>
        <time>2021-06-06T10:53:22Z</time>
      </trkpt>
      <trkpt lat="45.647379392758012" lon="7.577717481181026">
        <ele>2146.7600000000002</ele>
        <time>2021-06-06T10:53:23Z</time>
      </trkpt>
      <trkpt lat="45.647382494062185" lon="7.577731562778354">
        <ele>2146.7600000000002</ele>
        <time>2021-06-06T10:53:24Z</time>
      </trkpt>
      <trkpt lat="45.647400850430131" lon="7.577790571376681">
        <ele>2146.7600000000002</ele>
        <time>2021-06-06T10:53:29Z</time>
      </trkpt>
      <trkpt lat="45.647406047210097" lon="7.577801886945963">
        <ele>2146.7600000000002</ele>
        <time>2021-06-06T10:53:30Z</time>
      </trkpt>
      <trkpt lat="45.647413926199079" lon="7.577814375981689">
        <ele>2146.7600000000002</ele>
        <time>2021-06-06T10:53:31Z</time>
      </trkpt>
      <trkpt lat="45.647470252588391" lon="7.577927950769663">
        <ele>2147.2399999999998</ele>
        <time>2021-06-06T10:53:40Z</time>
      </trkpt>
      <trkpt lat="45.647473186254501" lon="7.577942116186023">
        <ele>2147.2399999999998</ele>
        <time>2021-06-06T10:53:41Z</time>
      </trkpt>
      <trkpt lat="45.647471593692899" lon="7.577959299087524">
        <ele>2147.2399999999998</ele>
        <time>2021-06-06T10:53:42Z</time>
      </trkpt>
      <trkpt lat="45.647468324750662" lon="7.577976230531931">
        <ele>2147.2399999999998</ele>
        <time>2021-06-06T10:53:43Z</time>
      </trkpt>
      <trkpt lat="45.647472431883216" lon="7.578055774793029">
        <ele>2147.7199999999998</ele>
        <time>2021-06-06T10:53:49Z</time>
      </trkpt>
      <trkpt lat="45.647476371377707" lon="7.578069185838103">
        <ele>2147.7199999999998</ele>
        <time>2021-06-06T10:53:50Z</time>
      </trkpt>
      <trkpt lat="45.647549880668521" lon="7.57823565043509">
        <ele>2148.1999999999998</ele>
        <time>2021-06-06T10:54:07Z</time>
      </trkpt>
      <trkpt lat="45.647604698315263" lon="7.578390967100859">
        <ele>2149.1599999999999</ele>
        <time>2021-06-06T10:54:21Z</time>
      </trkpt>
      <trkpt lat="45.647594975307584" lon="7.578455340117216">
        <ele>2149.1599999999999</ele>
        <time>2021-06-06T10:54:26Z</time>
      </trkpt>
      <trkpt lat="45.647592293098569" lon="7.578469086438417">
        <ele>2149.1599999999999</ele>
        <time>2021-06-06T10:54:27Z</time>
      </trkpt>
      <trkpt lat="45.647585587576032" lon="7.578533459454775">
        <ele>2149.1599999999999</ele>
        <time>2021-06-06T10:54:40Z</time>
      </trkpt>
      <trkpt lat="45.647592293098569" lon="7.578538740053773">
        <ele>2149.1599999999999</ele>
        <time>2021-06-06T10:54:41Z</time>
      </trkpt>
      <trkpt lat="45.647609476000071" lon="7.578549887984991">
        <ele>2149.1599999999999</ele>
        <time>2021-06-06T10:54:43Z</time>
      </trkpt>
      <trkpt lat="45.647627664729953" lon="7.578563382849097">
        <ele>2149.1599999999999</ele>
        <time>2021-06-06T10:54:45Z</time>
      </trkpt>
      <trkpt lat="45.647636884823442" lon="7.578573441132903">
        <ele>2149.1599999999999</ele>
        <time>2021-06-06T10:54:46Z</time>
      </trkpt>
      <trkpt lat="45.647646356374025" lon="7.578581320121884">
        <ele>2149.1599999999999</ele>
        <time>2021-06-06T10:54:47Z</time>
      </trkpt>
      <trkpt lat="45.647655576467514" lon="7.578589199110866">
        <ele>2149.1599999999999</ele>
        <time>2021-06-06T10:54:48Z</time>
      </trkpt>
      <trkpt lat="45.647733360528946" lon="7.578704366460443">
        <ele>2149.1599999999999</ele>
        <time>2021-06-06T10:55:01Z</time>
      </trkpt>
      <trkpt lat="45.647750543430448" lon="7.578723728656769">
        <ele>2149.1599999999999</ele>
        <time>2021-06-06T10:55:03Z</time>
      </trkpt>
      <trkpt lat="45.647780885919929" lon="7.578821294009686">
        <ele>2148.6799999999998</ele>
        <time>2021-06-06T10:55:10Z</time>
      </trkpt>
      <trkpt lat="45.647730343043804" lon="7.578926486894488">
        <ele>2148.1999999999998</ele>
        <time>2021-06-06T10:55:23Z</time>
      </trkpt>
      <trkpt lat="45.64771207049489" lon="7.579058250412345">
        <ele>2147.7199999999998</ele>
        <time>2021-06-06T10:55:36Z</time>
      </trkpt>
      <trkpt lat="45.647697821259499" lon="7.579125976189971">
        <ele>2147.7199999999998</ele>
        <time>2021-06-06T10:55:43Z</time>
      </trkpt>
      <trkpt lat="45.647663539275527" lon="7.579238126054406">
        <ele>2147.7199999999998</ele>
        <time>2021-06-06T10:55:54Z</time>
      </trkpt>
      <trkpt lat="45.647667897865176" lon="7.579309958964586">
        <ele>2147.7199999999998</ele>
        <time>2021-06-06T10:56:01Z</time>
      </trkpt>
      <trkpt lat="45.647669993340969" lon="7.579323034733534">
        <ele>2147.7199999999998</ele>
        <time>2021-06-06T10:56:02Z</time>
      </trkpt>
      <trkpt lat="45.647686924785376" lon="7.579384976997972">
        <ele>2147.2399999999998</ele>
        <time>2021-06-06T10:56:07Z</time>
      </trkpt>
      <trkpt lat="45.647695390507579" lon="7.57952319458127">
        <ele>2147.2399999999998</ele>
        <time>2021-06-06T10:56:17Z</time>
      </trkpt>
      <trkpt lat="45.647661527618766" lon="7.579656550660729">
        <ele>2147.7199999999998</ele>
        <time>2021-06-06T10:56:31Z</time>
      </trkpt>
      <trkpt lat="45.647653564810753" lon="7.579770041629672">
        <ele>2148.1999999999998</ele>
        <time>2021-06-06T10:56:43Z</time>
      </trkpt>
      <trkpt lat="45.647617857903242" lon="7.579934075474739">
        <ele>2147.7199999999998</ele>
        <time>2021-06-06T10:56:58Z</time>
      </trkpt>
      <trkpt lat="45.647610481828451" lon="7.579957963898778">
        <ele>2147.7199999999998</ele>
        <time>2021-06-06T10:57:00Z</time>
      </trkpt>
      <trkpt lat="45.647593466565013" lon="7.580105988308787">
        <ele>2148.1999999999998</ele>
        <time>2021-06-06T10:57:12Z</time>
      </trkpt>
      <trkpt lat="45.647567231208086" lon="7.58021947927773">
        <ele>2148.1999999999998</ele>
        <time>2021-06-06T10:57:25Z</time>
      </trkpt>
      <trkpt lat="45.647566979750991" lon="7.580360546708107">
        <ele>2149.1599999999999</ele>
        <time>2021-06-06T10:57:38Z</time>
      </trkpt>
      <trkpt lat="45.647564884275198" lon="7.580531537532806">
        <ele>2149.6500000000001</ele>
        <time>2021-06-06T10:57:53Z</time>
      </trkpt>
      <trkpt lat="45.647554993629456" lon="7.580677885562182">
        <ele>2150.6100000000001</ele>
        <time>2021-06-06T10:58:08Z</time>
      </trkpt>
      <trkpt lat="45.647494560107589" lon="7.580787520855665">
        <ele>2151.0900000000001</ele>
        <time>2021-06-06T10:58:24Z</time>
      </trkpt>
      <trkpt lat="45.64741987735033" lon="7.580858683213592">
        <ele>2150.6100000000001</ele>
        <time>2021-06-06T10:58:37Z</time>
      </trkpt>
      <trkpt lat="45.647401940077543" lon="7.580922888591886">
        <ele>2150.6100000000001</ele>
        <time>2021-06-06T10:58:43Z</time>
      </trkpt>
      <trkpt lat="45.647383583709598" lon="7.581077283248305">
        <ele>2150.1300000000001</ele>
        <time>2021-06-06T10:58:57Z</time>
      </trkpt>
      <trkpt lat="45.647361036390066" lon="7.581181554123759">
        <ele>2150.1300000000001</ele>
        <time>2021-06-06T10:59:13Z</time>
      </trkpt>
      <trkpt lat="45.647337986156344" lon="7.581300241872668">
        <ele>2150.1300000000001</ele>
        <time>2021-06-06T10:59:25Z</time>
      </trkpt>
      <trkpt lat="45.64731677994132" lon="7.581344833597541">
        <ele>2149.6500000000001</ele>
        <time>2021-06-06T10:59:30Z</time>
      </trkpt>
      <trkpt lat="45.647265482693911" lon="7.581387916579843">
        <ele>2149.1599999999999</ele>
        <time>2021-06-06T10:59:37Z</time>
      </trkpt>
      <trkpt lat="45.647257519885898" lon="7.581397471949458">
        <ele>2148.6799999999998</ele>
        <time>2021-06-06T10:59:38Z</time>
      </trkpt>
      <trkpt lat="45.647238241508603" lon="7.581421779468656">
        <ele>2148.1999999999998</ele>
        <time>2021-06-06T10:59:41Z</time>
      </trkpt>
      <trkpt lat="45.647234218195081" lon="7.581451535224915">
        <ele>2148.1999999999998</ele>
        <time>2021-06-06T10:59:44Z</time>
      </trkpt>
      <trkpt lat="45.647240588441491" lon="7.581585058942437">
        <ele>2147.2399999999998</ele>
        <time>2021-06-06T10:59:57Z</time>
      </trkpt>
      <trkpt lat="45.647237654775381" lon="7.581611378118396">
        <ele>2146.7600000000002</ele>
        <time>2021-06-06T10:59:59Z</time>
      </trkpt>
      <trkpt lat="45.647235726937652" lon="7.581627387553453">
        <ele>2146.7600000000002</ele>
        <time>2021-06-06T11:00:00Z</time>
      </trkpt>
      <trkpt lat="45.647267075255513" lon="7.581820758059621">
        <ele>2146.2800000000002</ele>
        <time>2021-06-06T11:00:15Z</time>
      </trkpt>
      <trkpt lat="45.647294064983726" lon="7.582054696977139">
        <ele>2146.2800000000002</ele>
        <time>2021-06-06T11:00:32Z</time>
      </trkpt>
      <trkpt lat="45.647289287298918" lon="7.582137677818537">
        <ele>2146.2800000000002</ele>
        <time>2021-06-06T11:00:38Z</time>
      </trkpt>
      <trkpt lat="45.647273194044828" lon="7.582331970334053">
        <ele>2145.8000000000002</ele>
        <time>2021-06-06T11:00:53Z</time>
      </trkpt>
      <trkpt lat="45.647285263985395" lon="7.58241537027061">
        <ele>2145.3200000000002</ele>
        <time>2021-06-06T11:00:59Z</time>
      </trkpt>
      <trkpt lat="45.647313259541988" lon="7.582617457956076">
        <ele>2144.8400000000001</ele>
        <time>2021-06-06T11:01:15Z</time>
      </trkpt>
      <trkpt lat="45.647315438836813" lon="7.582825999706984">
        <ele>2144.8400000000001</ele>
        <time>2021-06-06T11:01:31Z</time>
      </trkpt>
      <trkpt lat="45.647319126874208" lon="7.582893390208483">
        <ele>2144.8400000000001</ele>
        <time>2021-06-06T11:01:37Z</time>
      </trkpt>
      <trkpt lat="45.647318037226796" lon="7.582918116822839">
        <ele>2144.8400000000001</ele>
        <time>2021-06-06T11:01:39Z</time>
      </trkpt>
      <trkpt lat="45.647315941751003" lon="7.582931946963072">
        <ele>2144.8400000000001</ele>
        <time>2021-06-06T11:01:40Z</time>
      </trkpt>
      <trkpt lat="45.647311834618449" lon="7.583048874512315">
        <ele>2144.8400000000001</ele>
        <time>2021-06-06T11:01:49Z</time>
      </trkpt>
      <trkpt lat="45.647283084690571" lon="7.583129592239857">
        <ele>2144.8400000000001</ele>
        <time>2021-06-06T11:01:56Z</time>
      </trkpt>
      <trkpt lat="45.647278726100922" lon="7.583176279440522">
        <ele>2144.8400000000001</ele>
        <time>2021-06-06T11:01:59Z</time>
      </trkpt>
      <trkpt lat="45.647268081083894" lon="7.583414744585753">
        <ele>2144.8400000000001</ele>
        <time>2021-06-06T11:02:16Z</time>
      </trkpt>
      <trkpt lat="45.647317450493574" lon="7.583645330742002">
        <ele>2144.8400000000001</ele>
        <time>2021-06-06T11:02:34Z</time>
      </trkpt>
      <trkpt lat="45.647369753569365" lon="7.58387197740376">
        <ele>2144.8400000000001</ele>
        <time>2021-06-06T11:02:53Z</time>
      </trkpt>
      <trkpt lat="45.647387355566025" lon="7.583918999880552">
        <ele>2144.8400000000001</ele>
        <time>2021-06-06T11:02:57Z</time>
      </trkpt>
      <trkpt lat="45.647471426054835" lon="7.584133744239807">
        <ele>2144.8400000000001</ele>
        <time>2021-06-06T11:03:16Z</time>
      </trkpt>
      <trkpt lat="45.647545773535967" lon="7.584296688437462">
        <ele>2145.3200000000002</ele>
        <time>2021-06-06T11:03:34Z</time>
      </trkpt>
      <trkpt lat="45.647572092711926" lon="7.584316721186042">
        <ele>2145.3200000000002</ele>
        <time>2021-06-06T11:03:43Z</time>
      </trkpt>
      <trkpt lat="45.647648870944977" lon="7.584359385073185">
        <ele>2146.7600000000002</ele>
        <time>2021-06-06T11:03:57Z</time>
      </trkpt>
      <trkpt lat="45.647689439356327" lon="7.584398360922933">
        <ele>2148.6799999999998</ele>
        <time>2021-06-06T11:04:12Z</time>
      </trkpt>
      <trkpt lat="45.647791950032115" lon="7.584432139992714">
        <ele>2149.6500000000001</ele>
        <time>2021-06-06T11:04:31Z</time>
      </trkpt>
      <trkpt lat="45.64787769690156" lon="7.584580667316914">
        <ele>2147.2399999999998</ele>
        <time>2021-06-06T11:04:51Z</time>
      </trkpt>
      <trkpt lat="45.647886749356985" lon="7.584597766399384">
        <ele>2146.7600000000002</ele>
        <time>2021-06-06T11:04:53Z</time>
      </trkpt>
      <trkpt lat="45.647900830954313" lon="7.58463179692626">
        <ele>2146.2800000000002</ele>
        <time>2021-06-06T11:04:56Z</time>
      </trkpt>
      <trkpt lat="45.647919271141291" lon="7.584839584305883">
        <ele>2144.8400000000001</ele>
        <time>2021-06-06T11:05:13Z</time>
      </trkpt>
      <trkpt lat="45.647931760177016" lon="7.584944358095527">
        <ele>2144.8400000000001</ele>
        <time>2021-06-06T11:05:24Z</time>
      </trkpt>
      <trkpt lat="45.647926898673177" lon="7.584954164922237">
        <ele>2144.8400000000001</ele>
        <time>2021-06-06T11:05:25Z</time>
      </trkpt>
      <trkpt lat="45.647912817075849" lon="7.584975622594357">
        <ele>2144.3600000000001</ele>
        <time>2021-06-06T11:05:27Z</time>
      </trkpt>
      <trkpt lat="45.647816928103566" lon="7.585062962025404">
        <ele>2143.4000000000001</ele>
        <time>2021-06-06T11:05:43Z</time>
      </trkpt>
      <trkpt lat="45.647809049114585" lon="7.585068326443434">
        <ele>2143.4000000000001</ele>
        <time>2021-06-06T11:05:44Z</time>
      </trkpt>
      <trkpt lat="45.647760517895222" lon="7.585091292858124">
        <ele>2143.8800000000001</ele>
        <time>2021-06-06T11:05:59Z</time>
      </trkpt>
      <trkpt lat="45.647759763523936" lon="7.585132867097855">
        <ele>2144.8400000000001</ele>
        <time>2021-06-06T11:06:21Z</time>
      </trkpt>
      <trkpt lat="45.64775506965816" lon="7.585139069706202">
        <ele>2144.3600000000001</ele>
        <time>2021-06-06T11:07:01Z</time>
      </trkpt>
      <trkpt lat="45.647756746038795" lon="7.585140243172646">
        <ele>2144.3600000000001</ele>
        <time>2021-06-06T11:07:34Z</time>
      </trkpt>
      <trkpt lat="45.647749537602067" lon="7.585130268707871">
        <ele>2144.3600000000001</ele>
        <time>2021-06-06T11:08:10Z</time>
      </trkpt>
      <trkpt lat="45.64775213599205" lon="7.585136722773314">
        <ele>2144.3600000000001</ele>
        <time>2021-06-06T11:08:39Z</time>
      </trkpt>
      <trkpt lat="45.64775163307786" lon="7.585136387497187">
        <ele>2144.3600000000001</ele>
        <time>2021-06-06T11:09:07Z</time>
      </trkpt>
      <trkpt lat="45.647751465439796" lon="7.585134375840426">
        <ele>2144.3600000000001</ele>
        <time>2021-06-06T11:09:48Z</time>
      </trkpt>
      <trkpt lat="45.647735372185707" lon="7.585143428295851">
        <ele>2144.3600000000001</ele>
        <time>2021-06-06T11:10:16Z</time>
      </trkpt>
      <trkpt lat="45.647743921726942" lon="7.585146864876151">
        <ele>2144.3600000000001</ele>
        <time>2021-06-06T11:10:34Z</time>
      </trkpt>
      <trkpt lat="45.647741155698895" lon="7.585155498236418">
        <ele>2144.3600000000001</ele>
        <time>2021-06-06T11:10:35Z</time>
      </trkpt>
      <trkpt lat="45.647726152092218" lon="7.5851995870471">
        <ele>2144.3600000000001</ele>
        <time>2021-06-06T11:10:39Z</time>
      </trkpt>
      <trkpt lat="45.647718021646142" lon="7.585225654765964">
        <ele>2144.3600000000001</ele>
        <time>2021-06-06T11:10:41Z</time>
      </trkpt>
      <trkpt lat="45.647717183455825" lon="7.585240574553609">
        <ele>2144.3600000000001</ele>
        <time>2021-06-06T11:10:42Z</time>
      </trkpt>
      <trkpt lat="45.64771793782711" lon="7.585332859307528">
        <ele>2144.3600000000001</ele>
        <time>2021-06-06T11:10:49Z</time>
      </trkpt>
      <trkpt lat="45.647716429084539" lon="7.585346270352602">
        <ele>2144.3600000000001</ele>
        <time>2021-06-06T11:10:50Z</time>
      </trkpt>
      <trkpt lat="45.647712573409081" lon="7.585360435768962">
        <ele>2144.3600000000001</ele>
        <time>2021-06-06T11:10:51Z</time>
      </trkpt>
      <trkpt lat="45.647647781297565" lon="7.585631171241403">
        <ele>2146.2800000000002</ele>
        <time>2021-06-06T11:11:09Z</time>
      </trkpt>
      <trkpt lat="45.647617941722274" lon="7.585895033553243">
        <ele>2146.7600000000002</ele>
        <time>2021-06-06T11:11:26Z</time>
      </trkpt>
      <trkpt lat="45.647629927843809" lon="7.586036352440715">
        <ele>2147.7199999999998</ele>
        <time>2021-06-06T11:11:36Z</time>
      </trkpt>
      <trkpt lat="45.647676698863506" lon="7.586210360750556">
        <ele>2149.1599999999999</ele>
        <time>2021-06-06T11:11:49Z</time>
      </trkpt>
      <trkpt lat="45.647694719955325" lon="7.586293760687113">
        <ele>2150.6100000000001</ele>
        <time>2021-06-06T11:11:55Z</time>
      </trkpt>
      <trkpt lat="45.647697318345308" lon="7.586308429017663">
        <ele>2150.6100000000001</ele>
        <time>2021-06-06T11:11:56Z</time>
      </trkpt>
      <trkpt lat="45.647716596722603" lon="7.586343549191952">
        <ele>2151.0900000000001</ele>
        <time>2021-06-06T11:11:59Z</time>
      </trkpt>
      <trkpt lat="45.647799577564001" lon="7.586527280509472">
        <ele>2153.0100000000002</ele>
        <time>2021-06-06T11:12:16Z</time>
      </trkpt>
      <trkpt lat="45.647851880639791" lon="7.586670191958547">
        <ele>2155.4099999999999</ele>
        <time>2021-06-06T11:12:31Z</time>
      </trkpt>
      <trkpt lat="45.647896053269506" lon="7.5867969263345">
        <ele>2157.8200000000002</ele>
        <time>2021-06-06T11:12:46Z</time>
      </trkpt>
      <trkpt lat="45.647912984713912" lon="7.586828526109457">
        <ele>2158.3000000000002</ele>
        <time>2021-06-06T11:12:50Z</time>
      </trkpt>
      <trkpt lat="45.647969646379352" lon="7.586949728429318">
        <ele>2159.7399999999998</ele>
        <time>2021-06-06T11:13:03Z</time>
      </trkpt>
      <trkpt lat="45.647983979433775" lon="7.587001193314791">
        <ele>2160.6999999999998</ele>
        <time>2021-06-06T11:13:09Z</time>
      </trkpt>
      <trkpt lat="45.648063439875841" lon="7.587151983752847">
        <ele>2163.0999999999999</ele>
        <time>2021-06-06T11:13:26Z</time>
      </trkpt>
      <trkpt lat="45.648156395182014" lon="7.587219290435314">
        <ele>2164.0599999999999</ele>
        <time>2021-06-06T11:13:43Z</time>
      </trkpt>
      <trkpt lat="45.648174080997705" lon="7.587228761985898">
        <ele>2164.0599999999999</ele>
        <time>2021-06-06T11:13:45Z</time>
      </trkpt>
      <trkpt lat="45.648311963304877" lon="7.58731777779758">
        <ele>2163.5799999999999</ele>
        <time>2021-06-06T11:14:06Z</time>
      </trkpt>
      <trkpt lat="45.648369630798697" lon="7.587362285703421">
        <ele>2163.0999999999999</ele>
        <time>2021-06-06T11:14:17Z</time>
      </trkpt>
      <trkpt lat="45.648433919996023" lon="7.587410397827625">
        <ele>2163.0999999999999</ele>
        <time>2021-06-06T11:14:28Z</time>
      </trkpt>
      <trkpt lat="45.64844255335629" lon="7.587432693690062">
        <ele>2163.0999999999999</ele>
        <time>2021-06-06T11:14:45Z</time>
      </trkpt>
      <trkpt lat="45.648463172838092" lon="7.587445266544819">
        <ele>2163.5799999999999</ele>
        <time>2021-06-06T11:14:58Z</time>
      </trkpt>
      <trkpt lat="45.648549674078822" lon="7.587574096396565">
        <ele>2164.5500000000002</ele>
        <time>2021-06-06T11:15:14Z</time>
      </trkpt>
      <trkpt lat="45.648553445935249" lon="7.587600750848651">
        <ele>2164.5500000000002</ele>
        <time>2021-06-06T11:15:16Z</time>
      </trkpt>
      <trkpt lat="45.648631481453776" lon="7.587757743895054">
        <ele>2165.9899999999998</ele>
        <time>2021-06-06T11:15:30Z</time>
      </trkpt>
      <trkpt lat="45.648756790906191" lon="7.58788506500423">
        <ele>2167.9099999999999</ele>
        <time>2021-06-06T11:15:47Z</time>
      </trkpt>
      <trkpt lat="45.648786462843418" lon="7.587928986176848">
        <ele>2168.3899999999999</ele>
        <time>2021-06-06T11:15:52Z</time>
      </trkpt>
      <trkpt lat="45.648817140609026" lon="7.587943822145462">
        <ele>2168.8699999999999</ele>
        <time>2021-06-06T11:15:55Z</time>
      </trkpt>
      <trkpt lat="45.648954352363944" lon="7.588077932596207">
        <ele>2169.3499999999999</ele>
        <time>2021-06-06T11:16:13Z</time>
      </trkpt>
      <trkpt lat="45.649007493630052" lon="7.588149765506387">
        <ele>2170.3099999999999</ele>
        <time>2021-06-06T11:16:27Z</time>
      </trkpt>
      <trkpt lat="45.649065747857094" lon="7.58825839497149">
        <ele>2172.2399999999998</ele>
        <time>2021-06-06T11:16:40Z</time>
      </trkpt>
      <trkpt lat="45.649105561897159" lon="7.588351853191853">
        <ele>2173.6799999999998</ele>
        <time>2021-06-06T11:16:59Z</time>
      </trkpt>
      <trkpt lat="45.649062395095825" lon="7.588497446849942">
        <ele>2174.1599999999999</ele>
        <time>2021-06-06T11:17:18Z</time>
      </trkpt>
      <trkpt lat="45.649019982665777" lon="7.588548492640257">
        <ele>2175.5999999999999</ele>
        <time>2021-06-06T11:17:33Z</time>
      </trkpt>
      <trkpt lat="45.648956783115864" lon="7.588749071583152">
        <ele>2176.5599999999999</ele>
        <time>2021-06-06T11:17:53Z</time>
      </trkpt>
      <trkpt lat="45.648919986560941" lon="7.588931964710355">
        <ele>2178.48</ele>
        <time>2021-06-06T11:18:08Z</time>
      </trkpt>
      <trkpt lat="45.648964578285813" lon="7.589035145938397">
        <ele>2181.3699999999999</ele>
        <time>2021-06-06T11:18:24Z</time>
      </trkpt>
      <trkpt lat="45.648997016251087" lon="7.589074289426208">
        <ele>2182.3299999999999</ele>
        <time>2021-06-06T11:18:41Z</time>
      </trkpt>
      <trkpt lat="45.648995088413358" lon="7.589173195883632">
        <ele>2183.77</ele>
        <time>2021-06-06T11:18:58Z</time>
      </trkpt>
      <trkpt lat="45.648969858884811" lon="7.589195240288973">
        <ele>2183.77</ele>
        <time>2021-06-06T11:19:01Z</time>
      </trkpt>
      <trkpt lat="45.648936498910189" lon="7.589213429018855">
        <ele>2183.77</ele>
        <time>2021-06-06T11:19:04Z</time>
      </trkpt>
      <trkpt lat="45.64892677590251" lon="7.589323818683624">
        <ele>2184.25</ele>
        <time>2021-06-06T11:19:18Z</time>
      </trkpt>
      <trkpt lat="45.648930799216032" lon="7.589324321597815">
        <ele>2185.21</ele>
        <time>2021-06-06T11:19:35Z</time>
      </trkpt>
      <trkpt lat="45.648939767852426" lon="7.589325746521354">
        <ele>2185.21</ele>
        <time>2021-06-06T11:19:54Z</time>
      </trkpt>
      <trkpt lat="45.648955861106515" lon="7.589341085404158">
        <ele>2184.25</ele>
        <time>2021-06-06T11:20:14Z</time>
      </trkpt>
      <trkpt lat="45.64896197989583" lon="7.589348964393139">
        <ele>2183.77</ele>
        <time>2021-06-06T11:21:25Z</time>
      </trkpt>
      <trkpt lat="45.648962231352925" lon="7.58934997022152">
        <ele>2183.77</ele>
        <time>2021-06-06T11:23:23Z</time>
      </trkpt>
      <trkpt lat="45.648964326828718" lon="7.589339828118682">
        <ele>2183.77</ele>
        <time>2021-06-06T11:25:32Z</time>
      </trkpt>
      <trkpt lat="45.648955861106515" lon="7.589326249435544">
        <ele>2183.77</ele>
        <time>2021-06-06T11:26:49Z</time>
      </trkpt>
      <trkpt lat="45.648964159190655" lon="7.589336475357413">
        <ele>2183.77</ele>
        <time>2021-06-06T11:27:24Z</time>
      </trkpt>
      <trkpt lat="45.648964745923877" lon="7.589338151738048">
        <ele>2183.77</ele>
        <time>2021-06-06T11:28:47Z</time>
      </trkpt>
      <trkpt lat="45.648963321000338" lon="7.589336056262255">
        <ele>2183.77</ele>
        <time>2021-06-06T11:30:31Z</time>
      </trkpt>
      <trkpt lat="45.648953430354595" lon="7.589335972443223">
        <ele>2183.77</ele>
        <time>2021-06-06T11:31:36Z</time>
      </trkpt>
      <trkpt lat="45.648950999602675" lon="7.589339660480619">
        <ele>2183.77</ele>
        <time>2021-06-06T11:32:40Z</time>
      </trkpt>
      <trkpt lat="45.648954184725881" lon="7.589337648823857">
        <ele>2183.77</ele>
        <time>2021-06-06T11:35:05Z</time>
      </trkpt>
      <trkpt lat="45.6489531788975" lon="7.589341923594475">
        <ele>2183.77</ele>
        <time>2021-06-06T11:44:19Z</time>
      </trkpt>
      <trkpt lat="45.648956699296832" lon="7.589336559176445">
        <ele>2183.77</ele>
        <time>2021-06-06T11:54:39Z</time>
      </trkpt>
      <trkpt lat="45.648960638791323" lon="7.589344438165426">
        <ele>2183.77</ele>
        <time>2021-06-06T12:00:14Z</time>
      </trkpt>
      <trkpt lat="45.648948233574629" lon="7.589327339082956">
        <ele>2183.77</ele>
        <time>2021-06-06T12:00:54Z</time>
      </trkpt>
      <trkpt lat="45.648939684033394" lon="7.589317029342055">
        <ele>2183.77</ele>
        <time>2021-06-06T12:01:16Z</time>
      </trkpt>
      <trkpt lat="45.648930547758937" lon="7.589315185323358">
        <ele>2183.77</ele>
        <time>2021-06-06T12:01:49Z</time>
      </trkpt>
      <trkpt lat="45.648934487253428" lon="7.589322561398149">
        <ele>2183.77</ele>
        <time>2021-06-06T12:02:15Z</time>
      </trkpt>
      <trkpt lat="45.648934319615364" lon="7.58928794413805">
        <ele>2183.77</ele>
        <time>2021-06-06T12:02:39Z</time>
      </trkpt>
      <trkpt lat="45.648925937712193" lon="7.589286686852574">
        <ele>2183.77</ele>
        <time>2021-06-06T12:03:24Z</time>
      </trkpt>
      <trkpt lat="45.648936331272125" lon="7.58928257972002">
        <ele>2183.77</ele>
        <time>2021-06-06T12:04:08Z</time>
      </trkpt>
      <trkpt lat="45.648928619921207" lon="7.589222230017185">
        <ele>2183.77</ele>
        <time>2021-06-06T12:04:40Z</time>
      </trkpt>
      <trkpt lat="45.648924680426717" lon="7.589213848114014">
        <ele>2183.77</ele>
        <time>2021-06-06T12:05:14Z</time>
      </trkpt>
      <trkpt lat="45.648879753425717" lon="7.589152660220861">
        <ele>2183.77</ele>
        <time>2021-06-06T12:05:44Z</time>
      </trkpt>
      <trkpt lat="45.648886123672128" lon="7.589020393788815">
        <ele>2183.77</ele>
        <time>2021-06-06T12:06:01Z</time>
      </trkpt>
      <trkpt lat="45.648902887478471" lon="7.588908076286316">
        <ele>2179.4499999999998</ele>
        <time>2021-06-06T12:06:17Z</time>
      </trkpt>
      <trkpt lat="45.648904480040073" lon="7.588899275287986">
        <ele>2179.4499999999998</ele>
        <time>2021-06-06T12:06:18Z</time>
      </trkpt>
      <trkpt lat="45.648972457274795" lon="7.58876072242856">
        <ele>2178</ele>
        <time>2021-06-06T12:06:37Z</time>
      </trkpt>
      <trkpt lat="45.648985365405679" lon="7.588733062148094">
        <ele>2177.04</ele>
        <time>2021-06-06T12:06:54Z</time>
      </trkpt>
      <trkpt lat="45.649059126153588" lon="7.588771786540747">
        <ele>2177.04</ele>
        <time>2021-06-06T12:07:16Z</time>
      </trkpt>
      <trkpt lat="45.649217879399657" lon="7.588806571438909">
        <ele>2176.0799999999999</ele>
        <time>2021-06-06T12:07:39Z</time>
      </trkpt>
      <trkpt lat="45.649361293762922" lon="7.588897850364447">
        <ele>2174.6399999999999</ele>
        <time>2021-06-06T12:08:01Z</time>
      </trkpt>
      <trkpt lat="45.649523148313165" lon="7.588985692709684">
        <ele>2173.1999999999998</ele>
        <time>2021-06-06T12:08:22Z</time>
      </trkpt>
      <trkpt lat="45.649662371724844" lon="7.588988961651921">
        <ele>2172.2399999999998</ele>
        <time>2021-06-06T12:08:41Z</time>
      </trkpt>
      <trkpt lat="45.649704281240702" lon="7.58902408182621">
        <ele>2172.2399999999998</ele>
        <time>2021-06-06T12:08:47Z</time>
      </trkpt>
      <trkpt lat="45.649714339524508" lon="7.589028859511018">
        <ele>2172.2399999999998</ele>
        <time>2021-06-06T12:08:48Z</time>
      </trkpt>
      <trkpt lat="45.649725319817662" lon="7.589033888652921">
        <ele>2172.2399999999998</ele>
        <time>2021-06-06T12:08:49Z</time>
      </trkpt>
      <trkpt lat="45.649745855480433" lon="7.589038833975792">
        <ele>2172.2399999999998</ele>
        <time>2021-06-06T12:08:51Z</time>
      </trkpt>
      <trkpt lat="45.64987569116056" lon="7.589002372696996">
        <ele>2172.7199999999998</ele>
        <time>2021-06-06T12:09:07Z</time>
      </trkpt>
      <trkpt lat="45.64998515881598" lon="7.589062387123704">
        <ele>2173.6799999999998</ele>
        <time>2021-06-06T12:09:22Z</time>
      </trkpt>
      <trkpt lat="45.65002229064703" lon="7.589118545874953">
        <ele>2174.6399999999999</ele>
        <time>2021-06-06T12:09:37Z</time>
      </trkpt>
      <trkpt lat="45.650067217648029" lon="7.589209238067269">
        <ele>2174.6399999999999</ele>
        <time>2021-06-06T12:09:52Z</time>
      </trkpt>
      <trkpt lat="45.650072246789932" lon="7.589157354086638">
        <ele>2175.1199999999999</ele>
        <time>2021-06-06T12:10:10Z</time>
      </trkpt>
      <trkpt lat="45.650087166577578" lon="7.589076217263937">
        <ele>2175.1199999999999</ele>
        <time>2021-06-06T12:10:23Z</time>
      </trkpt>
      <trkpt lat="45.650154892355204" lon="7.589005474001169">
        <ele>2175.5999999999999</ele>
        <time>2021-06-06T12:10:40Z</time>
      </trkpt>
      <trkpt lat="45.650121867656708" lon="7.589063141494989">
        <ele>2175.5999999999999</ele>
        <time>2021-06-06T12:11:03Z</time>
      </trkpt>
      <trkpt lat="45.650135697796941" lon="7.589074959978461">
        <ele>2175.5999999999999</ele>
        <time>2021-06-06T12:11:34Z</time>
      </trkpt>
      <trkpt lat="45.650105439126492" lon="7.589122569188476">
        <ele>2175.5999999999999</ele>
        <time>2021-06-06T12:11:51Z</time>
      </trkpt>
      <trkpt lat="45.650096638128161" lon="7.58913648314774">
        <ele>2175.5999999999999</ele>
        <time>2021-06-06T12:12:35Z</time>
      </trkpt>
      <trkpt lat="45.650112396106124" lon="7.589148385450244">
        <ele>2175.5999999999999</ele>
        <time>2021-06-06T12:12:58Z</time>
      </trkpt>
      <trkpt lat="45.650101667270064" lon="7.589139584451914">
        <ele>2175.5999999999999</ele>
        <time>2021-06-06T12:13:27Z</time>
      </trkpt>
      <trkpt lat="45.650093453004956" lon="7.58915257640183">
        <ele>2175.5999999999999</ele>
        <time>2021-06-06T12:13:50Z</time>
      </trkpt>
      <trkpt lat="45.650084652006626" lon="7.589143523946405">
        <ele>2175.5999999999999</ele>
        <time>2021-06-06T12:14:18Z</time>
      </trkpt>
      <trkpt lat="45.650083897635341" lon="7.589148133993149">
        <ele>2175.5999999999999</ele>
        <time>2021-06-06T12:14:58Z</time>
      </trkpt>
      <trkpt lat="45.650095464661717" lon="7.589188367128372">
        <ele>2175.5999999999999</ele>
        <time>2021-06-06T12:15:16Z</time>
      </trkpt>
      <trkpt lat="45.650109043344855" lon="7.589199179783464">
        <ele>2175.5999999999999</ele>
        <time>2021-06-06T12:15:41Z</time>
      </trkpt>
      <trkpt lat="45.650112060829997" lon="7.589204544201493">
        <ele>2175.5999999999999</ele>
        <time>2021-06-06T12:16:13Z</time>
      </trkpt>
      <trkpt lat="45.650055147707462" lon="7.589212758466601">
        <ele>2175.1199999999999</ele>
        <time>2021-06-06T12:16:35Z</time>
      </trkpt>
      <trkpt lat="45.650035198777914" lon="7.589131873100996">
        <ele>2174.6399999999999</ele>
        <time>2021-06-06T12:16:46Z</time>
      </trkpt>
      <trkpt lat="45.650037880986929" lon="7.589078396558762">
        <ele>2174.6399999999999</ele>
        <time>2021-06-06T12:16:51Z</time>
      </trkpt>
      <trkpt lat="45.650037964805961" lon="7.588935820385814">
        <ele>2173.1999999999998</ele>
        <time>2021-06-06T12:17:07Z</time>
      </trkpt>
      <trkpt lat="45.650051543489099" lon="7.588879158720374">
        <ele>2172.2399999999998</ele>
        <time>2021-06-06T12:17:14Z</time>
      </trkpt>
      <trkpt lat="45.650104768574238" lon="7.588788717985153">
        <ele>2169.8299999999999</ele>
        <time>2021-06-06T12:17:23Z</time>
      </trkpt>
      <trkpt lat="45.650113821029663" lon="7.588781425729394">
        <ele>2169.8299999999999</ele>
        <time>2021-06-06T12:17:24Z</time>
      </trkpt>
      <trkpt lat="45.650266539305449" lon="7.588625438511372">
        <ele>2167.4299999999998</ele>
        <time>2021-06-06T12:17:44Z</time>
      </trkpt>
      <trkpt lat="45.650289673358202" lon="7.588608926162124">
        <ele>2166.9499999999998</ele>
        <time>2021-06-06T12:17:47Z</time>
      </trkpt>
      <trkpt lat="45.650405930355191" lon="7.588542541489005">
        <ele>2165.0300000000002</ele>
        <time>2021-06-06T12:17:58Z</time>
      </trkpt>
      <trkpt lat="45.650424789637327" lon="7.588526951149106">
        <ele>2165.0300000000002</ele>
        <time>2021-06-06T12:18:00Z</time>
      </trkpt>
      <trkpt lat="45.650435350835323" lon="7.588522592559457">
        <ele>2165.0300000000002</ele>
        <time>2021-06-06T12:18:01Z</time>
      </trkpt>
      <trkpt lat="45.650466196238995" lon="7.588515719398856">
        <ele>2164.5500000000002</ele>
        <time>2021-06-06T12:18:04Z</time>
      </trkpt>
      <trkpt lat="45.650551272556186" lon="7.588423350825906">
        <ele>2164.0599999999999</ele>
        <time>2021-06-06T12:18:15Z</time>
      </trkpt>
      <trkpt lat="45.650557558983564" lon="7.588420081883669">
        <ele>2164.0599999999999</ele>
        <time>2021-06-06T12:18:16Z</time>
      </trkpt>
      <trkpt lat="45.650572646409273" lon="7.588405329734087">
        <ele>2163.5799999999999</ele>
        <time>2021-06-06T12:18:18Z</time>
      </trkpt>
      <trkpt lat="45.650615226477385" lon="7.58836098946631">
        <ele>2163.0999999999999</ele>
        <time>2021-06-06T12:18:24Z</time>
      </trkpt>
      <trkpt lat="45.650622686371207" lon="7.588351434096694">
        <ele>2163.0999999999999</ele>
        <time>2021-06-06T12:18:25Z</time>
      </trkpt>
      <trkpt lat="45.650631068274379" lon="7.588342046365142">
        <ele>2162.6199999999999</ele>
        <time>2021-06-06T12:18:26Z</time>
      </trkpt>
      <trkpt lat="45.650707092136145" lon="7.588260490447283">
        <ele>2160.6999999999998</ele>
        <time>2021-06-06T12:18:36Z</time>
      </trkpt>
      <trkpt lat="45.650711450725794" lon="7.588247917592526">
        <ele>2160.6999999999998</ele>
        <time>2021-06-06T12:18:37Z</time>
      </trkpt>
      <trkpt lat="45.650856960564852" lon="7.588075837120414">
        <ele>2157.8200000000002</ele>
        <time>2021-06-06T12:18:54Z</time>
      </trkpt>
      <trkpt lat="45.650950837880373" lon="7.588050942867994">
        <ele>2155.8899999999999</ele>
        <time>2021-06-06T12:19:10Z</time>
      </trkpt>
      <trkpt lat="45.650991657748818" lon="7.587999729439616">
        <ele>2154.4499999999998</ele>
        <time>2021-06-06T12:19:50Z</time>
      </trkpt>
      <trkpt lat="45.651018898934126" lon="7.588003585115075">
        <ele>2153.9699999999998</ele>
        <time>2021-06-06T12:19:54Z</time>
      </trkpt>
      <trkpt lat="45.651029041036963" lon="7.588003417477012">
        <ele>2153.9699999999998</ele>
        <time>2021-06-06T12:19:55Z</time>
      </trkpt>
      <trkpt lat="45.651040440425277" lon="7.587999394163489">
        <ele>2153.4899999999998</ele>
        <time>2021-06-06T12:19:56Z</time>
      </trkpt>
      <trkpt lat="45.651177149266005" lon="7.587862852960825">
        <ele>2150.6100000000001</ele>
        <time>2021-06-06T12:20:10Z</time>
      </trkpt>
      <trkpt lat="45.651199780404568" lon="7.587819769978523">
        <ele>2150.1300000000001</ele>
        <time>2021-06-06T12:20:13Z</time>
      </trkpt>
      <trkpt lat="45.651208329945803" lon="7.587809460237622">
        <ele>2149.6500000000001</ele>
        <time>2021-06-06T12:20:14Z</time>
      </trkpt>
      <trkpt lat="45.651216376572847" lon="7.587798982858658">
        <ele>2149.6500000000001</ele>
        <time>2021-06-06T12:20:15Z</time>
      </trkpt>
      <trkpt lat="45.651251832023263" lon="7.587749445810914">
        <ele>2149.1599999999999</ele>
        <time>2021-06-06T12:20:20Z</time>
      </trkpt>
      <trkpt lat="45.651262141764164" lon="7.587740644812584">
        <ele>2149.1599999999999</ele>
        <time>2021-06-06T12:20:21Z</time>
      </trkpt>
      <trkpt lat="45.651322575286031" lon="7.587725389748812">
        <ele>2148.6799999999998</ele>
        <time>2021-06-06T12:20:27Z</time>
      </trkpt>
      <trkpt lat="45.651330621913075" lon="7.587723378092051">
        <ele>2148.6799999999998</ele>
        <time>2021-06-06T12:20:28Z</time>
      </trkpt>
      <trkpt lat="45.651340931653976" lon="7.587722958996892">
        <ele>2148.6799999999998</ele>
        <time>2021-06-06T12:20:29Z</time>
      </trkpt>
      <trkpt lat="45.651353923603892" lon="7.587724719196558">
        <ele>2148.1999999999998</ele>
        <time>2021-06-06T12:20:30Z</time>
      </trkpt>
      <trkpt lat="45.651367334648967" lon="7.587729664519429">
        <ele>2148.1999999999998</ele>
        <time>2021-06-06T12:20:31Z</time>
      </trkpt>
      <trkpt lat="45.651394240558147" lon="7.58773947134614">
        <ele>2147.7199999999998</ele>
        <time>2021-06-06T12:20:33Z</time>
      </trkpt>
      <trkpt lat="45.65140656195581" lon="7.587737459689379">
        <ele>2147.7199999999998</ele>
        <time>2021-06-06T12:20:34Z</time>
      </trkpt>
      <trkpt lat="45.651612924411893" lon="7.58760804310441">
        <ele>2146.2800000000002</ele>
        <time>2021-06-06T12:20:51Z</time>
      </trkpt>
      <trkpt lat="45.651625664904714" lon="7.587610054761171">
        <ele>2146.2800000000002</ele>
        <time>2021-06-06T12:20:52Z</time>
      </trkpt>
      <trkpt lat="45.651803780347109" lon="7.587722958996892">
        <ele>2144.3600000000001</ele>
        <time>2021-06-06T12:21:09Z</time>
      </trkpt>
      <trkpt lat="45.651922384276986" lon="7.587707284837961">
        <ele>2142.4400000000001</ele>
        <time>2021-06-06T12:21:26Z</time>
      </trkpt>
      <trkpt lat="45.651954654604197" lon="7.587713990360498">
        <ele>2142.4400000000001</ele>
        <time>2021-06-06T12:21:30Z</time>
      </trkpt>
      <trkpt lat="45.651981644332409" lon="7.587728323414922">
        <ele>2141.9499999999998</ele>
        <time>2021-06-06T12:21:33Z</time>
      </trkpt>
      <trkpt lat="45.651990277692676" lon="7.587736286222935">
        <ele>2141.9499999999998</ele>
        <time>2021-06-06T12:21:34Z</time>
      </trkpt>
      <trkpt lat="45.651998240500689" lon="7.587746679782867">
        <ele>2141.4699999999998</ele>
        <time>2021-06-06T12:21:35Z</time>
      </trkpt>
      <trkpt lat="45.652003940194845" lon="7.587759923189879">
        <ele>2141.4699999999998</ele>
        <time>2021-06-06T12:21:36Z</time>
      </trkpt>
      <trkpt lat="45.65200662240386" lon="7.587774591520429">
        <ele>2141.4699999999998</ele>
        <time>2021-06-06T12:21:37Z</time>
      </trkpt>
      <trkpt lat="45.652008969336748" lon="7.587789678946137">
        <ele>2140.9899999999998</ele>
        <time>2021-06-06T12:21:38Z</time>
      </trkpt>
      <trkpt lat="45.652067391201854" lon="7.587866624817252">
        <ele>2139.5500000000002</ele>
        <time>2021-06-06T12:21:47Z</time>
      </trkpt>
      <trkpt lat="45.652207368984818" lon="7.588000986725092">
        <ele>2137.1500000000001</ele>
        <time>2021-06-06T12:22:04Z</time>
      </trkpt>
      <trkpt lat="45.652237962931395" lon="7.588019426912069">
        <ele>2136.6700000000001</ele>
        <time>2021-06-06T12:22:09Z</time>
      </trkpt>
      <trkpt lat="45.65226998180151" lon="7.588022276759148">
        <ele>2136.1900000000001</ele>
        <time>2021-06-06T12:22:13Z</time>
      </trkpt>
      <trkpt lat="45.652389423921704" lon="7.588025461882353">
        <ele>2132.8200000000002</ele>
        <time>2021-06-06T12:22:31Z</time>
      </trkpt>
      <trkpt lat="45.652514146640897" lon="7.588057396933436">
        <ele>2130.4200000000001</ele>
        <time>2021-06-06T12:22:51Z</time>
      </trkpt>
      <trkpt lat="45.652598971500993" lon="7.588037950918078">
        <ele>2128.02</ele>
        <time>2021-06-06T12:23:08Z</time>
      </trkpt>
      <trkpt lat="45.652632582932711" lon="7.588044824078679">
        <ele>2128.02</ele>
        <time>2021-06-06T12:23:12Z</time>
      </trkpt>
      <trkpt lat="45.652655130252242" lon="7.588038286194205">
        <ele>2127.5300000000002</ele>
        <time>2021-06-06T12:23:14Z</time>
      </trkpt>
      <trkpt lat="45.652667451649904" lon="7.58803996257484">
        <ele>2127.5300000000002</ele>
        <time>2021-06-06T12:23:15Z</time>
      </trkpt>
      <trkpt lat="45.652718162164092" lon="7.588064353913069">
        <ele>2126.5700000000002</ele>
        <time>2021-06-06T12:23:20Z</time>
      </trkpt>
      <trkpt lat="45.65285436809063" lon="7.588089499622583">
        <ele>2125.1300000000001</ele>
        <time>2021-06-06T12:23:37Z</time>
      </trkpt>
      <trkpt lat="45.652976240962744" lon="7.588097294792533">
        <ele>2122.73</ele>
        <time>2021-06-06T12:23:54Z</time>
      </trkpt>
      <trkpt lat="45.653064921498299" lon="7.588138785213232">
        <ele>2120.3200000000002</ele>
        <time>2021-06-06T12:24:08Z</time>
      </trkpt>
      <trkpt lat="45.653139520436525" lon="7.588120345026255">
        <ele>2118.4000000000001</ele>
        <time>2021-06-06T12:24:18Z</time>
      </trkpt>
      <trkpt lat="45.653147399425507" lon="7.588109951466322">
        <ele>2117.9200000000001</ele>
        <time>2021-06-06T12:24:19Z</time>
      </trkpt>
      <trkpt lat="45.653168940916657" lon="7.588078351691365">
        <ele>2117.4400000000001</ele>
        <time>2021-06-06T12:24:22Z</time>
      </trkpt>
      <trkpt lat="45.653177071362734" lon="7.588068963959813">
        <ele>2116.96</ele>
        <time>2021-06-06T12:24:23Z</time>
      </trkpt>
      <trkpt lat="45.653227865695953" lon="7.588074831292033">
        <ele>2116</ele>
        <time>2021-06-06T12:24:29Z</time>
      </trkpt>
      <trkpt lat="45.653238594532013" lon="7.588078184053302">
        <ele>2115.52</ele>
        <time>2021-06-06T12:24:30Z</time>
      </trkpt>
      <trkpt lat="45.653251586481929" lon="7.588082626461983">
        <ele>2115.52</ele>
        <time>2021-06-06T12:24:31Z</time>
      </trkpt>
      <trkpt lat="45.653262147679925" lon="7.588089583441615">
        <ele>2115.04</ele>
        <time>2021-06-06T12:24:32Z</time>
      </trkpt>
      <trkpt lat="45.653269272297621" lon="7.588100982829928">
        <ele>2115.04</ele>
        <time>2021-06-06T12:24:33Z</time>
      </trkpt>
      <trkpt lat="45.653272960335016" lon="7.588114561513066">
        <ele>2114.5599999999999</ele>
        <time>2021-06-06T12:24:34Z</time>
      </trkpt>
      <trkpt lat="45.653295340016484" lon="7.588186142966151">
        <ele>2113.1199999999999</ele>
        <time>2021-06-06T12:24:41Z</time>
      </trkpt>
      <trkpt lat="45.653310175985098" lon="7.588205086067319">
        <ele>2112.6300000000001</ele>
        <time>2021-06-06T12:24:43Z</time>
      </trkpt>
      <trkpt lat="45.653319228440523" lon="7.588207181543112">
        <ele>2112.1500000000001</ele>
        <time>2021-06-06T12:24:44Z</time>
      </trkpt>
      <trkpt lat="45.653329622000456" lon="7.588207684457302">
        <ele>2112.1500000000001</ele>
        <time>2021-06-06T12:24:45Z</time>
      </trkpt>
      <trkpt lat="45.653340686112642" lon="7.588210199028254">
        <ele>2111.6700000000001</ele>
        <time>2021-06-06T12:24:46Z</time>
      </trkpt>
      <trkpt lat="45.653406232595444" lon="7.588243223726749">
        <ele>2110.23</ele>
        <time>2021-06-06T12:24:53Z</time>
      </trkpt>
      <trkpt lat="45.653498098254204" lon="7.588282618671656">
        <ele>2107.8299999999999</ele>
        <time>2021-06-06T12:25:02Z</time>
      </trkpt>
      <trkpt lat="45.653495918959379" lon="7.588317738845944">
        <ele>2107.3499999999999</ele>
        <time>2021-06-06T12:25:04Z</time>
      </trkpt>
      <trkpt lat="45.653459373861551" lon="7.588402228429914">
        <ele>2105.9099999999999</ele>
        <time>2021-06-06T12:25:11Z</time>
      </trkpt>
      <trkpt lat="45.653418218716979" lon="7.5885359197855">
        <ele>2103.02</ele>
        <time>2021-06-06T12:25:26Z</time>
      </trkpt>
      <trkpt lat="45.653454596176744" lon="7.588570537045598">
        <ele>2102.54</ele>
        <time>2021-06-06T12:25:30Z</time>
      </trkpt>
      <trkpt lat="45.653464738279581" lon="7.588579589501023">
        <ele>2102.54</ele>
        <time>2021-06-06T12:25:31Z</time>
      </trkpt>
      <trkpt lat="45.653475886210799" lon="7.588584534823895">
        <ele>2102.0599999999999</ele>
        <time>2021-06-06T12:25:32Z</time>
      </trkpt>
      <trkpt lat="45.653487537056208" lon="7.58858478628099">
        <ele>2102.0599999999999</ele>
        <time>2021-06-06T12:25:33Z</time>
      </trkpt>
      <trkpt lat="45.65349935553968" lon="7.588578248396516">
        <ele>2101.5799999999999</ele>
        <time>2021-06-06T12:25:34Z</time>
      </trkpt>
      <trkpt lat="45.653509749099612" lon="7.588569195941091">
        <ele>2101.5799999999999</ele>
        <time>2021-06-06T12:25:35Z</time>
      </trkpt>
      <trkpt lat="45.653519472107291" lon="7.58855989202857">
        <ele>2101.5799999999999</ele>
        <time>2021-06-06T12:25:36Z</time>
      </trkpt>
      <trkpt lat="45.653528021648526" lon="7.588550169020891">
        <ele>2101.5799999999999</ele>
        <time>2021-06-06T12:25:37Z</time>
      </trkpt>
      <trkpt lat="45.653536319732666" lon="7.588539943099022">
        <ele>2101.5799999999999</ele>
        <time>2021-06-06T12:25:38Z</time>
      </trkpt>
      <trkpt lat="45.653549563139677" lon="7.588517144322395">
        <ele>2101.0999999999999</ele>
        <time>2021-06-06T12:25:40Z</time>
      </trkpt>
      <trkpt lat="45.653599435463548" lon="7.588464841246605">
        <ele>2100.6199999999999</ele>
        <time>2021-06-06T12:25:53Z</time>
      </trkpt>
      <trkpt lat="45.653635477647185" lon="7.588416645303369">
        <ele>2100.1399999999999</ele>
        <time>2021-06-06T12:26:05Z</time>
      </trkpt>
      <trkpt lat="45.653675962239504" lon="7.588418824598193">
        <ele>2099.1799999999998</ele>
        <time>2021-06-06T12:26:27Z</time>
      </trkpt>
      <trkpt lat="45.653680488467216" lon="7.588489148765802">
        <ele>2096.77</ele>
        <time>2021-06-06T12:26:40Z</time>
      </trkpt>
      <trkpt lat="45.653712088242173" lon="7.588454531505704">
        <ele>2096.29</ele>
        <time>2021-06-06T12:26:45Z</time>
      </trkpt>
      <trkpt lat="45.653716195374727" lon="7.588463751599193">
        <ele>2096.29</ele>
        <time>2021-06-06T12:26:46Z</time>
      </trkpt>
      <trkpt lat="45.653729271143675" lon="7.588604064658284">
        <ele>2093.8899999999999</ele>
        <time>2021-06-06T12:27:00Z</time>
      </trkpt>
      <trkpt lat="45.65372901968658" lon="7.58862879127264">
        <ele>2093.4099999999999</ele>
        <time>2021-06-06T12:27:02Z</time>
      </trkpt>
      <trkpt lat="45.653765983879566" lon="7.588706742972136">
        <ele>2091</ele>
        <time>2021-06-06T12:27:14Z</time>
      </trkpt>
      <trkpt lat="45.653772689402103" lon="7.588741695508361">
        <ele>2090.04</ele>
        <time>2021-06-06T12:27:19Z</time>
      </trkpt>
      <trkpt lat="45.653837146237493" lon="7.588758124038577">
        <ele>2088.1199999999999</ele>
        <time>2021-06-06T12:27:31Z</time>
      </trkpt>
      <trkpt lat="45.653880899772048" lon="7.588731134310365">
        <ele>2085.2399999999998</ele>
        <time>2021-06-06T12:27:45Z</time>
      </trkpt>
      <trkpt lat="45.653881570324302" lon="7.588707329705358">
        <ele>2083.79</ele>
        <time>2021-06-06T12:28:19Z</time>
      </trkpt>
      <trkpt lat="45.653915768489242" lon="7.588713532313705">
        <ele>2083.3099999999999</ele>
        <time>2021-06-06T12:28:56Z</time>
      </trkpt>
      <trkpt lat="45.654000928625464" lon="7.588729038834572">
        <ele>2082.3499999999999</ele>
        <time>2021-06-06T12:29:06Z</time>
      </trkpt>
      <trkpt lat="45.654040658846498" lon="7.58876315318048">
        <ele>2081.3899999999999</ele>
        <time>2021-06-06T12:29:11Z</time>
      </trkpt>
      <trkpt lat="45.6540940515697" lon="7.588759632781148">
        <ele>2080.9099999999999</ele>
        <time>2021-06-06T12:29:18Z</time>
      </trkpt>
      <trkpt lat="45.654103020206094" lon="7.588759129866958">
        <ele>2080.9099999999999</ele>
        <time>2021-06-06T12:29:19Z</time>
      </trkpt>
      <trkpt lat="45.654115341603756" lon="7.588757537305355">
        <ele>2080.9099999999999</ele>
        <time>2021-06-06T12:29:20Z</time>
      </trkpt>
      <trkpt lat="45.654219193384051" lon="7.588749155402184">
        <ele>2078.9899999999998</ele>
        <time>2021-06-06T12:29:34Z</time>
      </trkpt>
      <trkpt lat="45.654261438176036" lon="7.588779162615538">
        <ele>2077.5500000000002</ele>
        <time>2021-06-06T12:29:48Z</time>
      </trkpt>
      <trkpt lat="45.654314327985048" lon="7.588736834004521">
        <ele>2074.1799999999998</ele>
        <time>2021-06-06T12:30:06Z</time>
      </trkpt>
      <trkpt lat="45.654358835890889" lon="7.588648572564125">
        <ele>2071.3000000000002</ele>
        <time>2021-06-06T12:30:23Z</time>
      </trkpt>
      <trkpt lat="45.654404098168015" lon="7.588701965287328">
        <ele>2069.3800000000001</ele>
        <time>2021-06-06T12:30:36Z</time>
      </trkpt>
      <trkpt lat="45.654419856145978" lon="7.588816964998841">
        <ele>2066.9699999999998</ele>
        <time>2021-06-06T12:30:52Z</time>
      </trkpt>
      <trkpt lat="45.654418598860502" lon="7.588993487879634">
        <ele>2064.0900000000001</ele>
        <time>2021-06-06T12:31:10Z</time>
      </trkpt>
      <trkpt lat="45.654445420950651" lon="7.589080994948745">
        <ele>2062.1700000000001</ele>
        <time>2021-06-06T12:31:26Z</time>
      </trkpt>
      <trkpt lat="45.654414156451821" lon="7.589222230017185">
        <ele>2059.7600000000002</ele>
        <time>2021-06-06T12:31:40Z</time>
      </trkpt>
      <trkpt lat="45.654415246099234" lon="7.589235557243228">
        <ele>2059.2800000000002</ele>
        <time>2021-06-06T12:31:41Z</time>
      </trkpt>
      <trkpt lat="45.654426477849483" lon="7.589295068755746">
        <ele>2058.8000000000002</ele>
        <time>2021-06-06T12:31:46Z</time>
      </trkpt>
      <trkpt lat="45.654432345181704" lon="7.589411744847894">
        <ele>2057.3600000000001</ele>
        <time>2021-06-06T12:31:58Z</time>
      </trkpt>
      <trkpt lat="45.654430584982038" lon="7.589424485340715">
        <ele>2057.3600000000001</ele>
        <time>2021-06-06T12:31:59Z</time>
      </trkpt>
      <trkpt lat="45.654427735134959" lon="7.589438986033201">
        <ele>2056.8800000000001</ele>
        <time>2021-06-06T12:32:00Z</time>
      </trkpt>
      <trkpt lat="45.654420861974359" lon="7.589498162269592">
        <ele>2056.8800000000001</ele>
        <time>2021-06-06T12:32:04Z</time>
      </trkpt>
      <trkpt lat="45.654430417343974" lon="7.5896065402776">
        <ele>2055.9200000000001</ele>
        <time>2021-06-06T12:32:15Z</time>
      </trkpt>
      <trkpt lat="45.654417341575027" lon="7.589707626029849">
        <ele>2055.4400000000001</ele>
        <time>2021-06-06T12:32:32Z</time>
      </trkpt>
      <trkpt lat="45.654441816732287" lon="7.589774345979095">
        <ele>2053.5100000000002</ele>
        <time>2021-06-06T12:32:46Z</time>
      </trkpt>
      <trkpt lat="45.654408456757665" lon="7.58986646309495">
        <ele>2050.6300000000001</ele>
        <time>2021-06-06T12:33:02Z</time>
      </trkpt>
      <trkpt lat="45.654431842267513" lon="7.589933937415481">
        <ele>2048.71</ele>
        <time>2021-06-06T12:33:15Z</time>
      </trkpt>
      <trkpt lat="45.654415162280202" lon="7.589988335967064">
        <ele>2046.78</ele>
        <time>2021-06-06T12:33:28Z</time>
      </trkpt>
      <trkpt lat="45.654416251927614" lon="7.590078273788095">
        <ele>2043.9000000000001</ele>
        <time>2021-06-06T12:33:44Z</time>
      </trkpt>
      <trkpt lat="45.654473416507244" lon="7.590123452246189">
        <ele>2041.5</ele>
        <time>2021-06-06T12:33:59Z</time>
      </trkpt>
      <trkpt lat="45.65447274595499" lon="7.590234093368053">
        <ele>2038.6099999999999</ele>
        <time>2021-06-06T12:34:15Z</time>
      </trkpt>
      <trkpt lat="45.654556397348642" lon="7.590256975963712">
        <ele>2036.21</ele>
        <time>2021-06-06T12:34:28Z</time>
      </trkpt>
      <trkpt lat="45.654605431482196" lon="7.590198973193765">
        <ele>2035.73</ele>
        <time>2021-06-06T12:34:38Z</time>
      </trkpt>
      <trkpt lat="45.6546691339463" lon="7.590171983465552">
        <ele>2035.73</ele>
        <time>2021-06-06T12:34:52Z</time>
      </trkpt>
      <trkpt lat="45.654725627973676" lon="7.590052038431168">
        <ele>2036.21</ele>
        <time>2021-06-06T12:35:09Z</time>
      </trkpt>
      <trkpt lat="45.654733842238784" lon="7.590031418949366">
        <ele>2036.6900000000001</ele>
        <time>2021-06-06T12:35:11Z</time>
      </trkpt>
      <trkpt lat="45.654824953526258" lon="7.589821871370077">
        <ele>2037.1700000000001</ele>
        <time>2021-06-06T12:35:29Z</time>
      </trkpt>
      <trkpt lat="45.654895361512899" lon="7.589699076488614">
        <ele>2037.1700000000001</ele>
        <time>2021-06-06T12:35:46Z</time>
      </trkpt>
      <trkpt lat="45.654972726479173" lon="7.589576616883278">
        <ele>2037.1700000000001</ele>
        <time>2021-06-06T12:36:03Z</time>
      </trkpt>
      <trkpt lat="45.655069872736931" lon="7.589451391249895">
        <ele>2037.6500000000001</ele>
        <time>2021-06-06T12:36:23Z</time>
      </trkpt>
      <trkpt lat="45.655110189691186" lon="7.589395232498646">
        <ele>2038.6099999999999</ele>
        <time>2021-06-06T12:36:31Z</time>
      </trkpt>
      <trkpt lat="45.655194763094187" lon="7.589287357404828">
        <ele>2041.02</ele>
        <time>2021-06-06T12:36:48Z</time>
      </trkpt>
      <trkpt lat="45.655248491093516" lon="7.589215021580458">
        <ele>2041.5</ele>
        <time>2021-06-06T12:36:57Z</time>
      </trkpt>
      <trkpt lat="45.655255867168307" lon="7.589205550029874">
        <ele>2041.5</ele>
        <time>2021-06-06T12:36:58Z</time>
      </trkpt>
      <trkpt lat="45.655377069488168" lon="7.588976472616196">
        <ele>2040.54</ele>
        <time>2021-06-06T12:37:18Z</time>
      </trkpt>
      <trkpt lat="45.655426941812038" lon="7.58883104659617">
        <ele>2041.02</ele>
        <time>2021-06-06T12:37:36Z</time>
      </trkpt>
      <trkpt lat="45.655450327321887" lon="7.588775223121047">
        <ele>2041.02</ele>
        <time>2021-06-06T12:38:00Z</time>
      </trkpt>
      <trkpt lat="45.655473629012704" lon="7.588706994429231">
        <ele>2041.5</ele>
        <time>2021-06-06T12:38:13Z</time>
      </trkpt>
      <trkpt lat="45.655554933473468" lon="7.588555198162794">
        <ele>2041.5</ele>
        <time>2021-06-06T12:38:27Z</time>
      </trkpt>
      <trkpt lat="45.655597178265452" lon="7.588495435193181">
        <ele>2041.02</ele>
        <time>2021-06-06T12:38:34Z</time>
      </trkpt>
      <trkpt lat="45.65571921877563" lon="7.588338358327746">
        <ele>2039.0899999999999</ele>
        <time>2021-06-06T12:38:51Z</time>
      </trkpt>
      <trkpt lat="45.655754590407014" lon="7.58819829672575">
        <ele>2038.1300000000001</ele>
        <time>2021-06-06T12:39:09Z</time>
      </trkpt>
      <trkpt lat="45.655802870169282" lon="7.588078519329429">
        <ele>2037.6500000000001</ele>
        <time>2021-06-06T12:39:21Z</time>
      </trkpt>
      <trkpt lat="45.655817873775959" lon="7.58800677023828">
        <ele>2037.1700000000001</ele>
        <time>2021-06-06T12:39:27Z</time>
      </trkpt>
      <trkpt lat="45.655833799391985" lon="7.587936948984861">
        <ele>2037.1700000000001</ele>
        <time>2021-06-06T12:39:33Z</time>
      </trkpt>
      <trkpt lat="45.655852491036057" lon="7.58783083409071">
        <ele>2036.21</ele>
        <time>2021-06-06T12:39:43Z</time>
      </trkpt>
      <trkpt lat="45.655894568189979" lon="7.58778884075582">
        <ele>2036.21</ele>
        <time>2021-06-06T12:39:49Z</time>
      </trkpt>
      <trkpt lat="45.655925162136555" lon="7.58772186934948">
        <ele>2035.25</ele>
        <time>2021-06-06T12:39:55Z</time>
      </trkpt>
      <trkpt lat="45.655988529324532" lon="7.587539479136467">
        <ele>2033.8099999999999</ele>
        <time>2021-06-06T12:40:12Z</time>
      </trkpt>
      <trkpt lat="45.656080394983292" lon="7.587373433634639">
        <ele>2031.8800000000001</ele>
        <time>2021-06-06T12:40:31Z</time>
      </trkpt>
      <trkpt lat="45.656190365552902" lon="7.587269833311439">
        <ele>2029.96</ele>
        <time>2021-06-06T12:40:46Z</time>
      </trkpt>
      <trkpt lat="45.656253565102816" lon="7.587254578247666">
        <ele>2029.48</ele>
        <time>2021-06-06T12:40:53Z</time>
      </trkpt>
      <trkpt lat="45.656287176534534" lon="7.587255584076047">
        <ele>2029</ele>
        <time>2021-06-06T12:40:57Z</time>
      </trkpt>
      <trkpt lat="45.656296899542212" lon="7.587250638753176">
        <ele>2029</ele>
        <time>2021-06-06T12:40:58Z</time>
      </trkpt>
      <trkpt lat="45.656467471271753" lon="7.587130442261696">
        <ele>2028.04</ele>
        <time>2021-06-06T12:41:19Z</time>
      </trkpt>
      <trkpt lat="45.656470069661736" lon="7.587117282673717">
        <ele>2028.04</ele>
        <time>2021-06-06T12:41:20Z</time>
      </trkpt>
      <trkpt lat="45.656474763527513" lon="7.587074534967542">
        <ele>2028.04</ele>
        <time>2021-06-06T12:41:23Z</time>
      </trkpt>
      <trkpt lat="45.656474092975259" lon="7.586799692362547">
        <ele>2026.5999999999999</ele>
        <time>2021-06-06T12:41:41Z</time>
      </trkpt>
      <trkpt lat="45.656440733000636" lon="7.586552761495113">
        <ele>2024.6700000000001</ele>
        <time>2021-06-06T12:42:01Z</time>
      </trkpt>
      <trkpt lat="45.656391782686114" lon="7.586390571668744">
        <ele>2023.23</ele>
        <time>2021-06-06T12:42:19Z</time>
      </trkpt>
      <trkpt lat="45.656410977244377" lon="7.586304657161236">
        <ele>2023.23</ele>
        <time>2021-06-06T12:42:29Z</time>
      </trkpt>
      <trkpt lat="45.65642966888845" lon="7.586198039352894">
        <ele>2024.1900000000001</ele>
        <time>2021-06-06T12:42:39Z</time>
      </trkpt>
      <trkpt lat="45.656378120183945" lon="7.586028724908829">
        <ele>2024.1900000000001</ele>
        <time>2021-06-06T12:42:54Z</time>
      </trkpt>
      <trkpt lat="45.656355740502477" lon="7.585986647754908">
        <ele>2024.1900000000001</ele>
        <time>2021-06-06T12:42:59Z</time>
      </trkpt>
      <trkpt lat="45.656310645863414" lon="7.585895117372274">
        <ele>2022.27</ele>
        <time>2021-06-06T12:43:12Z</time>
      </trkpt>
      <trkpt lat="45.656262952834368" lon="7.585835522040725">
        <ele>2020.8299999999999</ele>
        <time>2021-06-06T12:43:24Z</time>
      </trkpt>
      <trkpt lat="45.65627577714622" lon="7.58571607992053">
        <ele>2018.4300000000001</ele>
        <time>2021-06-06T12:43:39Z</time>
      </trkpt>
      <trkpt lat="45.656351633369923" lon="7.585653970018029">
        <ele>2016.02</ele>
        <time>2021-06-06T12:43:52Z</time>
      </trkpt>
      <trkpt lat="45.656366385519505" lon="7.585657658055425">
        <ele>2016.02</ele>
        <time>2021-06-06T12:43:54Z</time>
      </trkpt>
      <trkpt lat="45.656375773251057" lon="7.585662184283137">
        <ele>2016.02</ele>
        <time>2021-06-06T12:43:55Z</time>
      </trkpt>
      <trkpt lat="45.656387759372592" lon="7.585665453225374">
        <ele>2015.54</ele>
        <time>2021-06-06T12:43:56Z</time>
      </trkpt>
      <trkpt lat="45.656417263671756" lon="7.585650784894824">
        <ele>2015.0599999999999</ele>
        <time>2021-06-06T12:43:59Z</time>
      </trkpt>
      <trkpt lat="45.656464537605643" lon="7.585558919236064">
        <ele>2013.6199999999999</ele>
        <time>2021-06-06T12:44:12Z</time>
      </trkpt>
      <trkpt lat="45.656557073816657" lon="7.585568726062775">
        <ele>2011.22</ele>
        <time>2021-06-06T12:44:26Z</time>
      </trkpt>
      <trkpt lat="45.6566446647048" lon="7.5855000782758">
        <ele>2009.29</ele>
        <time>2021-06-06T12:44:42Z</time>
      </trkpt>
      <trkpt lat="45.656683472916484" lon="7.585475016385317">
        <ele>2008.8099999999999</ele>
        <time>2021-06-06T12:44:48Z</time>
      </trkpt>
      <trkpt lat="45.656761592254043" lon="7.5854223780334">
        <ele>2007.3699999999999</ele>
        <time>2021-06-06T12:45:03Z</time>
      </trkpt>
      <trkpt lat="45.656813560053706" lon="7.585410224273801">
        <ele>2005.9300000000001</ele>
        <time>2021-06-06T12:45:18Z</time>
      </trkpt>
      <trkpt lat="45.656891595572233" lon="7.585421539843082">
        <ele>2004.01</ele>
        <time>2021-06-06T12:45:32Z</time>
      </trkpt>
      <trkpt lat="45.657006930559874" lon="7.585494797676802">
        <ele>2002.5599999999999</ele>
        <time>2021-06-06T12:45:50Z</time>
      </trkpt>
      <trkpt lat="45.657058227807283" lon="7.585499659180641">
        <ele>2001.5999999999999</ele>
        <time>2021-06-06T12:46:06Z</time>
      </trkpt>
      <trkpt lat="45.657073399052024" lon="7.585470573976636">
        <ele>2000.6400000000001</ele>
        <time>2021-06-06T12:46:34Z</time>
      </trkpt>
      <trkpt lat="45.657087229192257" lon="7.585527738556266">
        <ele>2001.1199999999999</ele>
        <time>2021-06-06T12:46:50Z</time>
      </trkpt>
      <trkpt lat="45.65709862858057" lon="7.585531929507852">
        <ele>2001.1199999999999</ele>
        <time>2021-06-06T12:46:51Z</time>
      </trkpt>
      <trkpt lat="45.657111871987581" lon="7.585535785183311">
        <ele>2001.1199999999999</ele>
        <time>2021-06-06T12:46:52Z</time>
      </trkpt>
      <trkpt lat="45.657166186720133" lon="7.585554895922542">
        <ele>2001.1199999999999</ele>
        <time>2021-06-06T12:46:57Z</time>
      </trkpt>
      <trkpt lat="45.657185548916459" lon="7.585549196228385">
        <ele>2001.1199999999999</ele>
        <time>2021-06-06T12:46:59Z</time>
      </trkpt>
      <trkpt lat="45.657205330207944" lon="7.585534946992993">
        <ele>2001.1199999999999</ele>
        <time>2021-06-06T12:47:01Z</time>
      </trkpt>
      <trkpt lat="45.657239863649011" lon="7.585514830425382">
        <ele>2001.5999999999999</ele>
        <time>2021-06-06T12:47:04Z</time>
      </trkpt>
      <trkpt lat="45.657249167561531" lon="7.585503766313195">
        <ele>2001.5999999999999</ele>
        <time>2021-06-06T12:47:05Z</time>
      </trkpt>
      <trkpt lat="45.657258136197925" lon="7.585491696372628">
        <ele>2001.5999999999999</ele>
        <time>2021-06-06T12:47:06Z</time>
      </trkpt>
      <trkpt lat="45.657275319099426" lon="7.585464958101511">
        <ele>2001.5999999999999</ele>
        <time>2021-06-06T12:47:09Z</time>
      </trkpt>
      <trkpt lat="45.657276744022965" lon="7.585450373589993">
        <ele>2001.5999999999999</ele>
        <time>2021-06-06T12:47:10Z</time>
      </trkpt>
      <trkpt lat="45.657278168946505" lon="7.585433274507523">
        <ele>2001.5999999999999</ele>
        <time>2021-06-06T12:47:11Z</time>
      </trkpt>
      <trkpt lat="45.657357545569539" lon="7.585139153525233">
        <ele>2002.5599999999999</ele>
        <time>2021-06-06T12:47:29Z</time>
      </trkpt>
      <trkpt lat="45.65744454972446" lon="7.584959445521236">
        <ele>2004.01</ele>
        <time>2021-06-06T12:47:43Z</time>
      </trkpt>
      <trkpt lat="45.657471790909767" lon="7.584915775805712">
        <ele>2004.01</ele>
        <time>2021-06-06T12:47:48Z</time>
      </trkpt>
      <trkpt lat="45.657494924962521" lon="7.584885433316231">
        <ele>2004.97</ele>
        <time>2021-06-06T12:47:52Z</time>
      </trkpt>
      <trkpt lat="45.657529626041651" lon="7.584804883226752">
        <ele>2006.8900000000001</ele>
        <time>2021-06-06T12:48:02Z</time>
      </trkpt>
      <trkpt lat="45.657590730115771" lon="7.584725338965654">
        <ele>2007.8499999999999</ele>
        <time>2021-06-06T12:48:22Z</time>
      </trkpt>
      <trkpt lat="45.657682763412595" lon="7.584706228226423">
        <ele>2007.8499999999999</ele>
        <time>2021-06-06T12:48:33Z</time>
      </trkpt>
      <trkpt lat="45.65781494602561" lon="7.584670772776008">
        <ele>2008.8099999999999</ele>
        <time>2021-06-06T12:48:48Z</time>
      </trkpt>
      <trkpt lat="45.657937321811914" lon="7.584626097232103">
        <ele>2010.73</ele>
        <time>2021-06-06T12:49:05Z</time>
      </trkpt>
      <trkpt lat="45.657993061468005" lon="7.58455946110189">
        <ele>2011.7</ele>
        <time>2021-06-06T12:49:14Z</time>
      </trkpt>
      <trkpt lat="45.658117532730103" lon="7.584474049508572">
        <ele>2013.6199999999999</ele>
        <time>2021-06-06T12:49:31Z</time>
      </trkpt>
      <trkpt lat="45.658181570470333" lon="7.584414957091212">
        <ele>2014.5799999999999</ele>
        <time>2021-06-06T12:49:40Z</time>
      </trkpt>
      <trkpt lat="45.658296570181847" lon="7.584380926564336">
        <ele>2015.54</ele>
        <time>2021-06-06T12:49:56Z</time>
      </trkpt>
      <trkpt lat="45.658420119434595" lon="7.584313619881868">
        <ele>2016.02</ele>
        <time>2021-06-06T12:50:13Z</time>
      </trkpt>
      <trkpt lat="45.658537968993187" lon="7.584283361211419">
        <ele>2016.02</ele>
        <time>2021-06-06T12:50:31Z</time>
      </trkpt>
      <trkpt lat="45.658545596525073" lon="7.584285037592053">
        <ele>2016.02</ele>
        <time>2021-06-06T12:50:32Z</time>
      </trkpt>
      <trkpt lat="45.658569820225239" lon="7.584259891882539">
        <ele>2016.02</ele>
        <time>2021-06-06T12:50:36Z</time>
      </trkpt>
      <trkpt lat="45.658580046147108" lon="7.584236422553659">
        <ele>2016.02</ele>
        <time>2021-06-06T12:50:38Z</time>
      </trkpt>
      <trkpt lat="45.658692447468638" lon="7.584222089499235">
        <ele>2016.98</ele>
        <time>2021-06-06T12:50:53Z</time>
      </trkpt>
      <trkpt lat="45.658769058063626" lon="7.584200967103243">
        <ele>2019.3900000000001</ele>
        <time>2021-06-06T12:51:08Z</time>
      </trkpt>
      <trkpt lat="45.658856565132737" lon="7.584154028445482">
        <ele>2021.79</ele>
        <time>2021-06-06T12:51:23Z</time>
      </trkpt>
      <trkpt lat="45.658946838229895" lon="7.584047829732299">
        <ele>2023.23</ele>
        <time>2021-06-06T12:51:40Z</time>
      </trkpt>
      <trkpt lat="45.658971732482314" lon="7.584044644609094">
        <ele>2023.71</ele>
        <time>2021-06-06T12:51:44Z</time>
      </trkpt>
      <trkpt lat="45.659072650596499" lon="7.583973482251167">
        <ele>2024.6700000000001</ele>
        <time>2021-06-06T12:51:58Z</time>
      </trkpt>
      <trkpt lat="45.659198965877295" lon="7.583899972960353">
        <ele>2025.6400000000001</ele>
        <time>2021-06-06T12:52:15Z</time>
      </trkpt>
      <trkpt lat="45.659255627542734" lon="7.583862589672208">
        <ele>2026.5999999999999</ele>
        <time>2021-06-06T12:52:22Z</time>
      </trkpt>
      <trkpt lat="45.659298542886972" lon="7.583821266889572">
        <ele>2026.5999999999999</ele>
        <time>2021-06-06T12:52:29Z</time>
      </trkpt>
      <trkpt lat="45.659409938380122" lon="7.5837058480829">
        <ele>2026.5999999999999</ele>
        <time>2021-06-06T12:52:46Z</time>
      </trkpt>
      <trkpt lat="45.659474059939384" lon="7.583606522530317">
        <ele>2025.6400000000001</ele>
        <time>2021-06-06T12:53:01Z</time>
      </trkpt>
      <trkpt lat="45.659518148750067" lon="7.583527648821473">
        <ele>2026.5999999999999</ele>
        <time>2021-06-06T12:53:16Z</time>
      </trkpt>
      <trkpt lat="45.659580761566758" lon="7.583434022963047">
        <ele>2026.1199999999999</ele>
        <time>2021-06-06T12:53:29Z</time>
      </trkpt>
      <trkpt lat="45.65970498137176" lon="7.583360094577074">
        <ele>2024.6700000000001</ele>
        <time>2021-06-06T12:53:46Z</time>
      </trkpt>
      <trkpt lat="45.659729540348053" lon="7.583358669653535">
        <ele>2024.6700000000001</ele>
        <time>2021-06-06T12:53:50Z</time>
      </trkpt>
      <trkpt lat="45.659736916422844" lon="7.583364369347692">
        <ele>2024.6700000000001</ele>
        <time>2021-06-06T12:53:51Z</time>
      </trkpt>
      <trkpt lat="45.65982224419713" lon="7.583459252491593">
        <ele>2023.71</ele>
        <time>2021-06-06T12:54:04Z</time>
      </trkpt>
      <trkpt lat="45.659914193674922" lon="7.583445087075234">
        <ele>2023.23</ele>
        <time>2021-06-06T12:54:19Z</time>
      </trkpt>
      <trkpt lat="45.659968927502632" lon="7.583382222801447">
        <ele>2021.3099999999999</ele>
        <time>2021-06-06T12:54:33Z</time>
      </trkpt>
      <trkpt lat="45.660015949979424" lon="7.583321118727326">
        <ele>2018.4300000000001</ele>
        <time>2021-06-06T12:54:49Z</time>
      </trkpt>
      <trkpt lat="45.660084430128336" lon="7.58327191695571">
        <ele>2015.0599999999999</ele>
        <time>2021-06-06T12:55:06Z</time>
      </trkpt>
      <trkpt lat="45.66008023917675" lon="7.583180051296949">
        <ele>2013.1400000000001</ele>
        <time>2021-06-06T12:55:20Z</time>
      </trkpt>
      <trkpt lat="45.660134637728333" lon="7.583141662180424">
        <ele>2009.77</ele>
        <time>2021-06-06T12:55:35Z</time>
      </trkpt>
      <trkpt lat="45.660179732367396" lon="7.583108134567738">
        <ele>2007.3699999999999</ele>
        <time>2021-06-06T12:55:50Z</time>
      </trkpt>
      <trkpt lat="45.660198340192437" lon="7.583067566156387">
        <ele>2005.9300000000001</ele>
        <time>2021-06-06T12:56:02Z</time>
      </trkpt>
      <trkpt lat="45.660253996029496" lon="7.583024483174086">
        <ele>2002.5599999999999</ele>
        <time>2021-06-06T12:56:19Z</time>
      </trkpt>
      <trkpt lat="45.660322979092598" lon="7.58300319314003">
        <ele>1999.6800000000001</ele>
        <time>2021-06-06T12:56:34Z</time>
      </trkpt>
      <trkpt lat="45.660410821437836" lon="7.583017693832517">
        <ele>1997.76</ele>
        <time>2021-06-06T12:56:45Z</time>
      </trkpt>
      <trkpt lat="45.660440074279904" lon="7.58301392197609">
        <ele>1997.76</ele>
        <time>2021-06-06T12:56:48Z</time>
      </trkpt>
      <trkpt lat="45.66044912673533" lon="7.583017945289612">
        <ele>1997.28</ele>
        <time>2021-06-06T12:56:49Z</time>
      </trkpt>
      <trkpt lat="45.660564629361033" lon="7.583170998841524">
        <ele>1996.3199999999999</ele>
        <time>2021-06-06T12:57:05Z</time>
      </trkpt>
      <trkpt lat="45.660654399544001" lon="7.583306785672903">
        <ele>1994.3900000000001</ele>
        <time>2021-06-06T12:57:23Z</time>
      </trkpt>
      <trkpt lat="45.660710474476218" lon="7.58340778760612">
        <ele>1991.99</ele>
        <time>2021-06-06T12:57:38Z</time>
      </trkpt>
      <trkpt lat="45.660749953240156" lon="7.583421282470226">
        <ele>1990.55</ele>
        <time>2021-06-06T12:58:02Z</time>
      </trkpt>
      <trkpt lat="45.660849865525961" lon="7.583314077928662">
        <ele>1989.0999999999999</ele>
        <time>2021-06-06T12:58:19Z</time>
      </trkpt>
      <trkpt lat="45.660906359553337" lon="7.583286920562387">
        <ele>1988.6199999999999</ele>
        <time>2021-06-06T12:58:28Z</time>
      </trkpt>
      <trkpt lat="45.661008870229125" lon="7.583308797329664">
        <ele>1987.1800000000001</ele>
        <time>2021-06-06T12:58:38Z</time>
      </trkpt>
      <trkpt lat="45.661033848300576" lon="7.583323549479246">
        <ele>1987.1800000000001</ele>
        <time>2021-06-06T12:58:41Z</time>
      </trkpt>
      <trkpt lat="45.661168126389384" lon="7.583315586671233">
        <ele>1986.22</ele>
        <time>2021-06-06T12:58:57Z</time>
      </trkpt>
      <trkpt lat="45.661248425021768" lon="7.583275940269232">
        <ele>1985.26</ele>
        <time>2021-06-06T12:59:13Z</time>
      </trkpt>
      <trkpt lat="45.66122017800808" lon="7.583187678828836">
        <ele>1982.8599999999999</ele>
        <time>2021-06-06T12:59:31Z</time>
      </trkpt>
      <trkpt lat="45.661265272647142" lon="7.58309992030263">
        <ele>1980.9300000000001</ele>
        <time>2021-06-06T12:59:43Z</time>
      </trkpt>
      <trkpt lat="45.661282036453485" lon="7.583008976653218">
        <ele>1978.05</ele>
        <time>2021-06-06T12:59:59Z</time>
      </trkpt>
      <trkpt lat="45.661273570731282" lon="7.582945777103305">
        <ele>1975.6500000000001</ele>
        <time>2021-06-06T13:00:13Z</time>
      </trkpt>
      <trkpt lat="45.661252783611417" lon="7.582890121266246">
        <ele>1973.72</ele>
        <time>2021-06-06T13:00:27Z</time>
      </trkpt>
      <trkpt lat="45.661170557141304" lon="7.582821641117334">
        <ele>1970.3599999999999</ele>
        <time>2021-06-06T13:00:43Z</time>
      </trkpt>
      <trkpt lat="45.661080619320273" lon="7.582828430458903">
        <ele>1968.4400000000001</ele>
        <time>2021-06-06T13:00:58Z</time>
      </trkpt>
      <trkpt lat="45.661017671227455" lon="7.582747293636203">
        <ele>1965.0699999999999</ele>
        <time>2021-06-06T13:01:16Z</time>
      </trkpt>
      <trkpt lat="45.661052288487554" lon="7.582704797387123">
        <ele>1962.1900000000001</ele>
        <time>2021-06-06T13:01:31Z</time>
      </trkpt>
      <trkpt lat="45.661050193011761" lon="7.58263916708529">
        <ele>1959.78</ele>
        <time>2021-06-06T13:01:47Z</time>
      </trkpt>
      <trkpt lat="45.661071985960007" lon="7.582556018605828">
        <ele>1956.9000000000001</ele>
        <time>2021-06-06T13:02:03Z</time>
      </trkpt>
      <trkpt lat="45.661072488874197" lon="7.582523748278618">
        <ele>1954.98</ele>
        <time>2021-06-06T13:02:10Z</time>
      </trkpt>
      <trkpt lat="45.661064023151994" lon="7.582522574812174">
        <ele>1954.98</ele>
        <time>2021-06-06T13:02:11Z</time>
      </trkpt>
      <trkpt lat="45.66105404868722" lon="7.582524586468935">
        <ele>1954.98</ele>
        <time>2021-06-06T13:02:12Z</time>
      </trkpt>
      <trkpt lat="45.661030998453498" lon="7.582530286163092">
        <ele>1954.5</ele>
        <time>2021-06-06T13:02:14Z</time>
      </trkpt>
      <trkpt lat="45.660951873287559" lon="7.582455854862928">
        <ele>1952.5699999999999</ele>
        <time>2021-06-06T13:02:28Z</time>
      </trkpt>
      <trkpt lat="45.660977773368359" lon="7.582379160448909">
        <ele>1951.1300000000001</ele>
        <time>2021-06-06T13:02:41Z</time>
      </trkpt>
      <trkpt lat="45.660979868844151" lon="7.582372454926372">
        <ele>1950.6500000000001</ele>
        <time>2021-06-06T13:02:42Z</time>
      </trkpt>
      <trkpt lat="45.660983137786388" lon="7.582232896238565">
        <ele>1948.73</ele>
        <time>2021-06-06T13:02:55Z</time>
      </trkpt>
      <trkpt lat="45.660976683720946" lon="7.582111693918705">
        <ele>1947.29</ele>
        <time>2021-06-06T13:03:06Z</time>
      </trkpt>
      <trkpt lat="45.660982299596071" lon="7.582005830481648">
        <ele>1945.3599999999999</ele>
        <time>2021-06-06T13:03:18Z</time>
      </trkpt>
      <trkpt lat="45.66099151968956" lon="7.581967022269964">
        <ele>1944.8800000000001</ele>
        <time>2021-06-06T13:03:22Z</time>
      </trkpt>
      <trkpt lat="45.660973582416773" lon="7.581819919869304">
        <ele>1943.9200000000001</ele>
        <time>2021-06-06T13:03:36Z</time>
      </trkpt>
      <trkpt lat="45.66100375726819" lon="7.581812627613545">
        <ele>1943.4400000000001</ele>
        <time>2021-06-06T13:03:41Z</time>
      </trkpt>
      <trkpt lat="45.661113141104579" lon="7.581820255145431">
        <ele>1941.04</ele>
        <time>2021-06-06T13:03:57Z</time>
      </trkpt>
      <trkpt lat="45.661202240735292" lon="7.581724366173148">
        <ele>1938.6400000000001</ele>
        <time>2021-06-06T13:04:14Z</time>
      </trkpt>
      <trkpt lat="45.661265440285206" lon="7.581717073917389">
        <ele>1936.71</ele>
        <time>2021-06-06T13:04:31Z</time>
      </trkpt>
      <trkpt lat="45.661321682855487" lon="7.581671979278326">
        <ele>1935.27</ele>
        <time>2021-06-06T13:04:47Z</time>
      </trkpt>
      <trkpt lat="45.661295782774687" lon="7.581745069473982">
        <ele>1935.27</ele>
        <time>2021-06-06T13:05:17Z</time>
      </trkpt>
      <trkpt lat="45.661344481632113" lon="7.581807430833578">
        <ele>1932.3900000000001</ele>
        <time>2021-06-06T13:05:32Z</time>
      </trkpt>
      <trkpt lat="45.66137365065515" lon="7.581874569877982">
        <ele>1929.98</ele>
        <time>2021-06-06T13:05:45Z</time>
      </trkpt>
      <trkpt lat="45.661443723365664" lon="7.581890663132072">
        <ele>1928.0599999999999</ele>
        <time>2021-06-06T13:05:59Z</time>
      </trkpt>
      <trkpt lat="45.66151974722743" lon="7.581892423331738">
        <ele>1925.1800000000001</ele>
        <time>2021-06-06T13:06:15Z</time>
      </trkpt>
      <trkpt lat="45.661585796624422" lon="7.581839868798852">
        <ele>1922.29</ele>
        <time>2021-06-06T13:06:31Z</time>
      </trkpt>
      <trkpt lat="45.661647068336606" lon="7.581849843263626">
        <ele>1919.8900000000001</ele>
        <time>2021-06-06T13:06:45Z</time>
      </trkpt>
      <trkpt lat="45.661707753315568" lon="7.581853531301022">
        <ele>1917.49</ele>
        <time>2021-06-06T13:06:58Z</time>
      </trkpt>
      <trkpt lat="45.661736419424415" lon="7.581824278458953">
        <ele>1915.0799999999999</ele>
        <time>2021-06-06T13:07:10Z</time>
      </trkpt>
      <trkpt lat="45.661807833239436" lon="7.581882616505027">
        <ele>1912.2</ele>
        <time>2021-06-06T13:07:28Z</time>
      </trkpt>
      <trkpt lat="45.661792494356632" lon="7.581789325922728">
        <ele>1909.3199999999999</ele>
        <time>2021-06-06T13:07:44Z</time>
      </trkpt>
      <trkpt lat="45.661808084696531" lon="7.581729395315051">
        <ele>1906.9100000000001</ele>
        <time>2021-06-06T13:07:58Z</time>
      </trkpt>
      <trkpt lat="45.661860136315227" lon="7.581700645387173">
        <ele>1904.03</ele>
        <time>2021-06-06T13:08:13Z</time>
      </trkpt>
      <trkpt lat="45.66191696561873" lon="7.581720426678658">
        <ele>1901.6300000000001</ele>
        <time>2021-06-06T13:08:25Z</time>
      </trkpt>
      <trkpt lat="45.662018470466137" lon="7.58173325099051">
        <ele>1899.22</ele>
        <time>2021-06-06T13:08:41Z</time>
      </trkpt>
      <trkpt lat="45.6621153652668" lon="7.581706177443266">
        <ele>1897.3</ele>
        <time>2021-06-06T13:08:55Z</time>
      </trkpt>
      <trkpt lat="45.662084016948938" lon="7.581623196601868">
        <ele>1894.9000000000001</ele>
        <time>2021-06-06T13:09:11Z</time>
      </trkpt>
      <trkpt lat="45.662024924531579" lon="7.581569720059633">
        <ele>1892.49</ele>
        <time>2021-06-06T13:09:27Z</time>
      </trkpt>
      <trkpt lat="45.662031630054116" lon="7.581509873270989">
        <ele>1891.53</ele>
        <time>2021-06-06T13:09:35Z</time>
      </trkpt>
      <trkpt lat="45.661974381655455" lon="7.58140099234879">
        <ele>1888.1700000000001</ele>
        <time>2021-06-06T13:09:48Z</time>
      </trkpt>
      <trkpt lat="45.662030288949609" lon="7.581361932680011">
        <ele>1886.24</ele>
        <time>2021-06-06T13:09:59Z</time>
      </trkpt>
      <trkpt lat="45.662036826834083" lon="7.581367464736104">
        <ele>1886.24</ele>
        <time>2021-06-06T13:10:00Z</time>
      </trkpt>
      <trkpt lat="45.66209583543241" lon="7.581341648474336">
        <ele>1883.8399999999999</ele>
        <time>2021-06-06T13:10:15Z</time>
      </trkpt>
      <trkpt lat="45.66209776327014" lon="7.581213992089033">
        <ele>1880.96</ele>
        <time>2021-06-06T13:10:30Z</time>
      </trkpt>
      <trkpt lat="45.662147467955947" lon="7.581121874973178">
        <ele>1877.5899999999999</ele>
        <time>2021-06-06T13:10:45Z</time>
      </trkpt>
      <trkpt lat="45.662226341664791" lon="7.581138890236616">
        <ele>1876.1500000000001</ele>
        <time>2021-06-06T13:11:00Z</time>
      </trkpt>
      <trkpt lat="45.662300856783986" lon="7.581249279901385">
        <ele>1874.23</ele>
        <time>2021-06-06T13:11:16Z</time>
      </trkpt>
      <trkpt lat="45.662361793220043" lon="7.581209465861321">
        <ele>1872.3</ele>
        <time>2021-06-06T13:11:30Z</time>
      </trkpt>
      <trkpt lat="45.662423316389322" lon="7.581149535253644">
        <ele>1870.3800000000001</ele>
        <time>2021-06-06T13:11:42Z</time>
      </trkpt>
      <trkpt lat="45.662431446835399" lon="7.581140398979187">
        <ele>1870.3800000000001</ele>
        <time>2021-06-06T13:11:43Z</time>
      </trkpt>
      <trkpt lat="45.662498753517866" lon="7.581063620746136">
        <ele>1869.4200000000001</ele>
        <time>2021-06-06T13:11:54Z</time>
      </trkpt>
      <trkpt lat="45.662551559507847" lon="7.581024561077356">
        <ele>1867.98</ele>
        <time>2021-06-06T13:12:11Z</time>
      </trkpt>
      <trkpt lat="45.662597576156259" lon="7.581037133932114">
        <ele>1867.02</ele>
        <time>2021-06-06T13:12:24Z</time>
      </trkpt>
      <trkpt lat="45.662630936130881" lon="7.580987848341465">
        <ele>1864.6099999999999</ele>
        <time>2021-06-06T13:12:39Z</time>
      </trkpt>
      <trkpt lat="45.662643928080797" lon="7.580943172797561">
        <ele>1862.6900000000001</ele>
        <time>2021-06-06T13:12:50Z</time>
      </trkpt>
      <trkpt lat="45.662656417116523" lon="7.580942921340466">
        <ele>1862.6900000000001</ele>
        <time>2021-06-06T13:12:51Z</time>
      </trkpt>
      <trkpt lat="45.662720035761595" lon="7.581035541370511">
        <ele>1861.25</ele>
        <time>2021-06-06T13:13:03Z</time>
      </trkpt>
      <trkpt lat="45.662708636373281" lon="7.581092370674014">
        <ele>1860.29</ele>
        <time>2021-06-06T13:13:15Z</time>
      </trkpt>
      <trkpt lat="45.662725316360593" lon="7.581171495839953">
        <ele>1858.8499999999999</ele>
        <time>2021-06-06T13:13:27Z</time>
      </trkpt>
      <trkpt lat="45.662744594737887" lon="7.581184068694711">
        <ele>1857.8900000000001</ele>
        <time>2021-06-06T13:13:46Z</time>
      </trkpt>
      <trkpt lat="45.662743085995317" lon="7.581184823065996">
        <ele>1857.8900000000001</ele>
        <time>2021-06-06T13:14:31Z</time>
      </trkpt>
      <trkpt lat="45.662738475948572" lon="7.581185325980187">
        <ele>1857.8900000000001</ele>
        <time>2021-06-06T13:15:15Z</time>
      </trkpt>
      <trkpt lat="45.662744259461761" lon="7.581208292394877">
        <ele>1857.8900000000001</ele>
        <time>2021-06-06T13:15:38Z</time>
      </trkpt>
      <trkpt lat="45.662748031318188" lon="7.58121969178319">
        <ele>1857.8900000000001</ele>
        <time>2021-06-06T13:16:13Z</time>
      </trkpt>
      <trkpt lat="45.662744175642729" lon="7.58122069761157">
        <ele>1857.8900000000001</ele>
        <time>2021-06-06T13:16:58Z</time>
      </trkpt>
      <trkpt lat="45.66279505379498" lon="7.58128808811307">
        <ele>1857.8900000000001</ele>
        <time>2021-06-06T13:17:15Z</time>
      </trkpt>
      <trkpt lat="45.662860097363591" lon="7.581335362046957">
        <ele>1855.96</ele>
        <time>2021-06-06T13:17:26Z</time>
      </trkpt>
      <trkpt lat="45.662937881425023" lon="7.581339552998543">
        <ele>1853.0799999999999</ele>
        <time>2021-06-06T13:17:41Z</time>
      </trkpt>
      <trkpt lat="45.663026059046388" lon="7.58135749027133">
        <ele>1850.6800000000001</ele>
        <time>2021-06-06T13:17:56Z</time>
      </trkpt>
      <trkpt lat="45.663089761510491" lon="7.58130962960422">
        <ele>1847.79</ele>
        <time>2021-06-06T13:18:11Z</time>
      </trkpt>
      <trkpt lat="45.663101496174932" lon="7.58120208978653">
        <ele>1845.8699999999999</ele>
        <time>2021-06-06T13:18:25Z</time>
      </trkpt>
      <trkpt lat="45.663155140355229" lon="7.581138387322426">
        <ele>1843.47</ele>
        <time>2021-06-06T13:18:40Z</time>
      </trkpt>
      <trkpt lat="45.663250191137195" lon="7.581164371222258">
        <ele>1841.0599999999999</ele>
        <time>2021-06-06T13:18:55Z</time>
      </trkpt>
      <trkpt lat="45.663340045139194" lon="7.58114785887301">
        <ele>1838.1800000000001</ele>
        <time>2021-06-06T13:19:11Z</time>
      </trkpt>
      <trkpt lat="45.663404753431678" lon="7.581119444221258">
        <ele>1836.26</ele>
        <time>2021-06-06T13:19:26Z</time>
      </trkpt>
      <trkpt lat="45.663447668775916" lon="7.581017855554819">
        <ele>1834.3299999999999</ele>
        <time>2021-06-06T13:19:44Z</time>
      </trkpt>
      <trkpt lat="45.663469629362226" lon="7.580979550257325">
        <ele>1833.3699999999999</ele>
        <time>2021-06-06T13:19:50Z</time>
      </trkpt>
      <trkpt lat="45.663576750084758" lon="7.580943675711751">
        <ele>1830.97</ele>
        <time>2021-06-06T13:20:06Z</time>
      </trkpt>
      <trkpt lat="45.663666017353535" lon="7.580948956310749">
        <ele>1829.53</ele>
        <time>2021-06-06T13:20:18Z</time>
      </trkpt>
      <trkpt lat="45.663694851100445" lon="7.580958344042301">
        <ele>1829.05</ele>
        <time>2021-06-06T13:20:21Z</time>
      </trkpt>
      <trkpt lat="45.66370633430779" lon="7.580960690975189">
        <ele>1829.05</ele>
        <time>2021-06-06T13:20:22Z</time>
      </trkpt>
      <trkpt lat="45.663791326805949" lon="7.580931019037962">
        <ele>1828.5599999999999</ele>
        <time>2021-06-06T13:20:33Z</time>
      </trkpt>
      <trkpt lat="45.663830973207951" lon="7.580886343494058">
        <ele>1827.5999999999999</ele>
        <time>2021-06-06T13:20:39Z</time>
      </trkpt>
      <trkpt lat="45.663880677893758" lon="7.580862538889051">
        <ele>1827.1199999999999</ele>
        <time>2021-06-06T13:20:47Z</time>
      </trkpt>
      <trkpt lat="45.663957791402936" lon="7.58085809648037">
        <ele>1826.1600000000001</ele>
        <time>2021-06-06T13:20:56Z</time>
      </trkpt>
      <trkpt lat="45.663989642634988" lon="7.58084979839623">
        <ele>1825.6800000000001</ele>
        <time>2021-06-06T13:21:00Z</time>
      </trkpt>
      <trkpt lat="45.664065079763532" lon="7.580797327682376">
        <ele>1824.24</ele>
        <time>2021-06-06T13:21:14Z</time>
      </trkpt>
      <trkpt lat="45.664150575175881" lon="7.580788945779204">
        <ele>1821.8399999999999</ele>
        <time>2021-06-06T13:21:30Z</time>
      </trkpt>
      <trkpt lat="45.664215199649334" lon="7.580761034041643">
        <ele>1819.9100000000001</ele>
        <time>2021-06-06T13:21:43Z</time>
      </trkpt>
      <trkpt lat="45.664263227954507" lon="7.580726332962513">
        <ele>1818.47</ele>
        <time>2021-06-06T13:21:50Z</time>
      </trkpt>
      <trkpt lat="45.664281835779548" lon="7.580716442316771">
        <ele>1817.99</ele>
        <time>2021-06-06T13:21:52Z</time>
      </trkpt>
      <trkpt lat="45.664290972054005" lon="7.580709652975202">
        <ele>1817.99</ele>
        <time>2021-06-06T13:21:53Z</time>
      </trkpt>
      <trkpt lat="45.664307568222284" lon="7.580696158111095">
        <ele>1817.99</ele>
        <time>2021-06-06T13:21:55Z</time>
      </trkpt>
      <trkpt lat="45.664319051429629" lon="7.580641591921449">
        <ele>1817.51</ele>
        <time>2021-06-06T13:22:01Z</time>
      </trkpt>
      <trkpt lat="45.66431955434382" lon="7.580627091228962">
        <ele>1817.51</ele>
        <time>2021-06-06T13:22:02Z</time>
      </trkpt>
      <trkpt lat="45.664336737245321" lon="7.580517875030637">
        <ele>1816.55</ele>
        <time>2021-06-06T13:22:11Z</time>
      </trkpt>
      <trkpt lat="45.664354423061013" lon="7.580294497311115">
        <ele>1814.6300000000001</ele>
        <time>2021-06-06T13:22:31Z</time>
      </trkpt>
      <trkpt lat="45.664349896833301" lon="7.580274632200599">
        <ele>1814.1500000000001</ele>
        <time>2021-06-06T13:22:33Z</time>
      </trkpt>
      <trkpt lat="45.664346544072032" lon="7.58018528111279">
        <ele>1812.22</ele>
        <time>2021-06-06T13:22:46Z</time>
      </trkpt>
      <trkpt lat="45.664364984259009" lon="7.580085285007954">
        <ele>1810.3</ele>
        <time>2021-06-06T13:22:55Z</time>
      </trkpt>
      <trkpt lat="45.664509739726782" lon="7.579997442662716">
        <ele>1808.3800000000001</ele>
        <time>2021-06-06T13:23:10Z</time>
      </trkpt>
      <trkpt lat="45.664591547101736" lon="7.579951258376241">
        <ele>1805.97</ele>
        <time>2021-06-06T13:23:24Z</time>
      </trkpt>
      <trkpt lat="45.664621721953154" lon="7.579925777390599">
        <ele>1805.49</ele>
        <time>2021-06-06T13:23:28Z</time>
      </trkpt>
      <trkpt lat="45.664710570126772" lon="7.579861739650369">
        <ele>1802.6099999999999</ele>
        <time>2021-06-06T13:23:45Z</time>
      </trkpt>
      <trkpt lat="45.664785755798221" lon="7.579862326383591">
        <ele>1800.21</ele>
        <time>2021-06-06T13:23:58Z</time>
      </trkpt>
      <trkpt lat="45.664875693619251" lon="7.579823853448033">
        <ele>1797.8</ele>
        <time>2021-06-06T13:24:14Z</time>
      </trkpt>
      <trkpt lat="45.664938222616911" lon="7.579777417704463">
        <ele>1796.3599999999999</ele>
        <time>2021-06-06T13:24:30Z</time>
      </trkpt>
      <trkpt lat="45.664949286729097" lon="7.579700723290443">
        <ele>1796.3599999999999</ele>
        <time>2021-06-06T13:24:42Z</time>
      </trkpt>
      <trkpt lat="45.664952555671334" lon="7.57968689315021">
        <ele>1796.3599999999999</ele>
        <time>2021-06-06T13:24:43Z</time>
      </trkpt>
      <trkpt lat="45.664961943402886" lon="7.579627968370915">
        <ele>1795.8800000000001</ele>
        <time>2021-06-06T13:24:48Z</time>
      </trkpt>
      <trkpt lat="45.664977030828595" lon="7.579474579542875">
        <ele>1795.4000000000001</ele>
        <time>2021-06-06T13:25:05Z</time>
      </trkpt>
      <trkpt lat="45.664995219558477" lon="7.579488242045045">
        <ele>1793.96</ele>
        <time>2021-06-06T13:25:36Z</time>
      </trkpt>
      <trkpt lat="45.66499438136816" lon="7.579483631998301">
        <ele>1795.4000000000001</ele>
        <time>2021-06-06T13:25:40Z</time>
      </trkpt>
      <trkpt lat="45.664990190416574" lon="7.579460246488452">
        <ele>1795.4000000000001</ele>
        <time>2021-06-06T13:26:04Z</time>
      </trkpt>
      <trkpt lat="45.664988597854972" lon="7.579467874020338">
        <ele>1795.4000000000001</ele>
        <time>2021-06-06T13:26:42Z</time>
      </trkpt>
      <trkpt lat="45.664989352226257" lon="7.579458486288786">
        <ele>1795.4000000000001</ele>
        <time>2021-06-06T13:27:20Z</time>
      </trkpt>
      <trkpt lat="45.664992118254304" lon="7.579411799088121">
        <ele>1795.4000000000001</ele>
        <time>2021-06-06T13:27:42Z</time>
      </trkpt>
      <trkpt lat="45.66502028144896" lon="7.579323286190629">
        <ele>1795.4000000000001</ele>
        <time>2021-06-06T13:28:01Z</time>
      </trkpt>
      <trkpt lat="45.665022879838943" lon="7.579308617860079">
        <ele>1795.4000000000001</ele>
        <time>2021-06-06T13:28:02Z</time>
      </trkpt>
      <trkpt lat="45.66502564586699" lon="7.579292943701148">
        <ele>1795.4000000000001</ele>
        <time>2021-06-06T13:28:03Z</time>
      </trkpt>
      <trkpt lat="45.665105525404215" lon="7.579072499647737">
        <ele>1794.4400000000001</ele>
        <time>2021-06-06T13:28:19Z</time>
      </trkpt>
      <trkpt lat="45.665211640298367" lon="7.578991279006004">
        <ele>1793.96</ele>
        <time>2021-06-06T13:28:37Z</time>
      </trkpt>
      <trkpt lat="45.665226643905044" lon="7.578972754999995">
        <ele>1793.96</ele>
        <time>2021-06-06T13:29:02Z</time>
      </trkpt>
      <trkpt lat="45.665222033858299" lon="7.578932857140899">
        <ele>1793.96</ele>
        <time>2021-06-06T13:29:23Z</time>
      </trkpt>
      <trkpt lat="45.66523527726531" lon="7.578868567943573">
        <ele>1793.48</ele>
        <time>2021-06-06T13:29:52Z</time>
      </trkpt>
      <trkpt lat="45.665265116840601" lon="7.578682573512197">
        <ele>1793.48</ele>
        <time>2021-06-06T13:30:09Z</time>
      </trkpt>
      <trkpt lat="45.665325466543436" lon="7.578605376183987">
        <ele>1793.48</ele>
        <time>2021-06-06T13:30:29Z</time>
      </trkpt>
      <trkpt lat="45.665276432409883" lon="7.578568579629064">
        <ele>1793</ele>
        <time>2021-06-06T13:30:49Z</time>
      </trkpt>
      <trkpt lat="45.665288753807545" lon="7.578552821651101">
        <ele>1793.48</ele>
        <time>2021-06-06T13:31:13Z</time>
      </trkpt>
      <trkpt lat="45.665295459330082" lon="7.578390799462795">
        <ele>1793</ele>
        <time>2021-06-06T13:31:29Z</time>
      </trkpt>
      <trkpt lat="45.665371818467975" lon="7.578277979046106">
        <ele>1793.48</ele>
        <time>2021-06-06T13:31:43Z</time>
      </trkpt>
      <trkpt lat="45.665416326373816" lon="7.578269932419062">
        <ele>1793.48</ele>
        <time>2021-06-06T13:31:48Z</time>
      </trkpt>
      <trkpt lat="45.66561296582222" lon="7.578343693166971">
        <ele>1793.48</ele>
        <time>2021-06-06T13:32:06Z</time>
      </trkpt>
      <trkpt lat="45.665689157322049" lon="7.578387949615717">
        <ele>1793.96</ele>
        <time>2021-06-06T13:32:15Z</time>
      </trkpt>
      <trkpt lat="45.665698042139411" lon="7.578389961272478">
        <ele>1793.96</ele>
        <time>2021-06-06T13:32:16Z</time>
      </trkpt>
      <trkpt lat="45.665708435699344" lon="7.578395241871476">
        <ele>1793.96</ele>
        <time>2021-06-06T13:32:17Z</time>
      </trkpt>
      <trkpt lat="45.665718158707023" lon="7.578400941565633">
        <ele>1793.96</ele>
        <time>2021-06-06T13:32:18Z</time>
      </trkpt>
      <trkpt lat="45.665728216990829" lon="7.57840664125979">
        <ele>1793.96</ele>
        <time>2021-06-06T13:32:19Z</time>
      </trkpt>
      <trkpt lat="45.665737939998507" lon="7.578412340953946">
        <ele>1793.96</ele>
        <time>2021-06-06T13:32:20Z</time>
      </trkpt>
      <trkpt lat="45.665749255567789" lon="7.578418292105198">
        <ele>1793.96</ele>
        <time>2021-06-06T13:32:21Z</time>
      </trkpt>
      <trkpt lat="45.665920078754425" lon="7.578468332067132">
        <ele>1794.4400000000001</ele>
        <time>2021-06-06T13:32:36Z</time>
      </trkpt>
      <trkpt lat="45.666049495339394" lon="7.578459028154612">
        <ele>1794.9200000000001</ele>
        <time>2021-06-06T13:32:48Z</time>
      </trkpt>
      <trkpt lat="45.666060894727707" lon="7.578460285440087">
        <ele>1794.9200000000001</ele>
        <time>2021-06-06T13:32:49Z</time>
      </trkpt>
      <trkpt lat="45.666072629392147" lon="7.578464727848768">
        <ele>1794.9200000000001</ele>
        <time>2021-06-06T13:32:50Z</time>
      </trkpt>
      <trkpt lat="45.666204560548067" lon="7.578491298481822">
        <ele>1795.4000000000001</ele>
        <time>2021-06-06T13:33:03Z</time>
      </trkpt>
      <trkpt lat="45.666395835578442" lon="7.578470259904862">
        <ele>1795.4000000000001</ele>
        <time>2021-06-06T13:33:21Z</time>
      </trkpt>
      <trkpt lat="45.666452161967754" lon="7.578473445028067">
        <ele>1795.4000000000001</ele>
        <time>2021-06-06T13:33:27Z</time>
      </trkpt>
      <trkpt lat="45.666567999869585" lon="7.578443353995681">
        <ele>1795.4000000000001</ele>
        <time>2021-06-06T13:33:38Z</time>
      </trkpt>
      <trkpt lat="45.666620638221502" lon="7.578428350389004">
        <ele>1795.4000000000001</ele>
        <time>2021-06-06T13:33:43Z</time>
      </trkpt>
      <trkpt lat="45.666630445048213" lon="7.578428518027067">
        <ele>1795.4000000000001</ele>
        <time>2021-06-06T13:33:44Z</time>
      </trkpt>
      <trkpt lat="45.666794646531343" lon="7.578550558537245">
        <ele>1794.4400000000001</ele>
        <time>2021-06-06T13:34:00Z</time>
      </trkpt>
      <trkpt lat="45.666921716183424" lon="7.578592048957944">
        <ele>1794.9200000000001</ele>
        <time>2021-06-06T13:34:16Z</time>
      </trkpt>
      <trkpt lat="45.666919536888599" lon="7.578603029251099">
        <ele>1795.4000000000001</ele>
        <time>2021-06-06T13:34:24Z</time>
      </trkpt>
      <trkpt lat="45.666974354535341" lon="7.578624235466123">
        <ele>1794.9200000000001</ele>
        <time>2021-06-06T13:34:31Z</time>
      </trkpt>
      <trkpt lat="45.666993632912636" lon="7.578637478873134">
        <ele>1794.9200000000001</ele>
        <time>2021-06-06T13:34:39Z</time>
      </trkpt>
      <trkpt lat="45.667016431689262" lon="7.578638149425387">
        <ele>1794.9200000000001</ele>
        <time>2021-06-06T13:34:41Z</time>
      </trkpt>
      <trkpt lat="45.667028585448861" lon="7.578639071434736">
        <ele>1794.9200000000001</ele>
        <time>2021-06-06T13:34:42Z</time>
      </trkpt>
      <trkpt lat="45.66704023629427" lon="7.578639574348927">
        <ele>1794.9200000000001</ele>
        <time>2021-06-06T13:34:43Z</time>
      </trkpt>
      <trkpt lat="45.667111817747355" lon="7.578648291528225">
        <ele>1794.4400000000001</ele>
        <time>2021-06-06T13:34:56Z</time>
      </trkpt>
      <trkpt lat="45.667146099731326" lon="7.578672179952264">
        <ele>1794.4400000000001</ele>
        <time>2021-06-06T13:35:00Z</time>
      </trkpt>
      <trkpt lat="45.667155990377069" lon="7.578681483864784">
        <ele>1794.4400000000001</ele>
        <time>2021-06-06T13:35:01Z</time>
      </trkpt>
      <trkpt lat="45.667175771668553" lon="7.578708222135902">
        <ele>1794.4400000000001</ele>
        <time>2021-06-06T13:35:05Z</time>
      </trkpt>
      <trkpt lat="45.667181387543678" lon="7.578717861324549">
        <ele>1794.4400000000001</ele>
        <time>2021-06-06T13:35:06Z</time>
      </trkpt>
      <trkpt lat="45.667221369221807" lon="7.578743845224381">
        <ele>1794.4400000000001</ele>
        <time>2021-06-06T13:35:09Z</time>
      </trkpt>
      <trkpt lat="45.667259842157364" lon="7.578795729205012">
        <ele>1794.4400000000001</ele>
        <time>2021-06-06T13:35:14Z</time>
      </trkpt>
      <trkpt lat="45.667281383648515" lon="7.578890360891819">
        <ele>1794.4400000000001</ele>
        <time>2021-06-06T13:35:21Z</time>
      </trkpt>
      <trkpt lat="45.667290855199099" lon="7.578897820785642">
        <ele>1794.4400000000001</ele>
        <time>2021-06-06T13:35:22Z</time>
      </trkpt>
      <trkpt lat="45.667302086949348" lon="7.578907627612352">
        <ele>1794.4400000000001</ele>
        <time>2021-06-06T13:35:23Z</time>
      </trkpt>
      <trkpt lat="45.667313151061535" lon="7.578917350620031">
        <ele>1794.4400000000001</ele>
        <time>2021-06-06T13:35:24Z</time>
      </trkpt>
      <trkpt lat="45.667323376983404" lon="7.578927660360932">
        <ele>1794.4400000000001</ele>
        <time>2021-06-06T13:35:25Z</time>
      </trkpt>
      <trkpt lat="45.667431084439158" lon="7.579052718356252">
        <ele>1793.96</ele>
        <time>2021-06-06T13:35:37Z</time>
      </trkpt>
      <trkpt lat="45.667559495195746" lon="7.579167718067765">
        <ele>1793.96</ele>
        <time>2021-06-06T13:35:53Z</time>
      </trkpt>
      <trkpt lat="45.667665358632803" lon="7.579238461330533">
        <ele>1793.96</ele>
        <time>2021-06-06T13:36:08Z</time>
      </trkpt>
      <trkpt lat="45.667728390544653" lon="7.579224798828363">
        <ele>1794.4400000000001</ele>
        <time>2021-06-06T13:36:17Z</time>
      </trkpt>
      <trkpt lat="45.667810365557671" lon="7.57928179576993">
        <ele>1795.4000000000001</ele>
        <time>2021-06-06T13:36:28Z</time>
      </trkpt>
      <trkpt lat="45.667826542630792" lon="7.579301577061415">
        <ele>1794.9200000000001</ele>
        <time>2021-06-06T13:36:31Z</time>
      </trkpt>
      <trkpt lat="45.667896196246147" lon="7.579407943412662">
        <ele>1794.4400000000001</ele>
        <time>2021-06-06T13:36:44Z</time>
      </trkpt>
      <trkpt lat="45.667914971709251" lon="7.579420851543546">
        <ele>1794.4400000000001</ele>
        <time>2021-06-06T13:36:46Z</time>
      </trkpt>
      <trkpt lat="45.667926874011755" lon="7.579421438276768">
        <ele>1794.4400000000001</ele>
        <time>2021-06-06T13:36:47Z</time>
      </trkpt>
      <trkpt lat="45.667954199016094" lon="7.579419258981943">
        <ele>1794.4400000000001</ele>
        <time>2021-06-06T13:36:50Z</time>
      </trkpt>
      <trkpt lat="45.667977165430784" lon="7.579433340579271">
        <ele>1793.96</ele>
        <time>2021-06-06T13:36:53Z</time>
      </trkpt>
      <trkpt lat="45.667992169037461" lon="7.579454462975264">
        <ele>1793.96</ele>
        <time>2021-06-06T13:36:55Z</time>
      </trkpt>
      <trkpt lat="45.668001221492887" lon="7.579463263973594">
        <ele>1793.96</ele>
        <time>2021-06-06T13:36:56Z</time>
      </trkpt>
      <trkpt lat="45.668076993897557" lon="7.579535264521837">
        <ele>1793.96</ele>
        <time>2021-06-06T13:37:05Z</time>
      </trkpt>
      <trkpt lat="45.668097361922264" lon="7.579545741900802">
        <ele>1793.96</ele>
        <time>2021-06-06T13:37:07Z</time>
      </trkpt>
      <trkpt lat="45.668198028579354" lon="7.579567199572921">
        <ele>1793.96</ele>
        <time>2021-06-06T13:37:18Z</time>
      </trkpt>
      <trkpt lat="45.668218396604061" lon="7.579564098268747">
        <ele>1793.96</ele>
        <time>2021-06-06T13:37:20Z</time>
      </trkpt>
      <trkpt lat="45.668229879811406" lon="7.57955638691783">
        <ele>1793.96</ele>
        <time>2021-06-06T13:37:21Z</time>
      </trkpt>
      <trkpt lat="45.668310094624758" lon="7.57954222150147">
        <ele>1793.48</ele>
        <time>2021-06-06T13:37:32Z</time>
      </trkpt>
      <trkpt lat="45.668469769880176" lon="7.579495366662741">
        <ele>1792.03</ele>
        <time>2021-06-06T13:37:51Z</time>
      </trkpt>
      <trkpt lat="45.668498771265149" lon="7.579518249258399">
        <ele>1792.03</ele>
        <time>2021-06-06T13:37:54Z</time>
      </trkpt>
      <trkpt lat="45.668576052412391" lon="7.579564349725843">
        <ele>1790.5899999999999</ele>
        <time>2021-06-06T13:38:05Z</time>
      </trkpt>
      <trkpt lat="45.668654758483171" lon="7.579603744670749">
        <ele>1789.6300000000001</ele>
        <time>2021-06-06T13:38:20Z</time>
      </trkpt>
      <trkpt lat="45.668747797608376" lon="7.579733161255717">
        <ele>1787.23</ele>
        <time>2021-06-06T13:38:37Z</time>
      </trkpt>
      <trkpt lat="45.668815523386002" lon="7.579786973074079">
        <ele>1784.8199999999999</ele>
        <time>2021-06-06T13:38:51Z</time>
      </trkpt>
      <trkpt lat="45.66886774264276" lon="7.579804826527834">
        <ele>1783.8599999999999</ele>
        <time>2021-06-06T13:38:57Z</time>
      </trkpt>
      <trkpt lat="45.668945694342256" lon="7.57988722063601">
        <ele>1782.4200000000001</ele>
        <time>2021-06-06T13:39:08Z</time>
      </trkpt>
      <trkpt lat="45.668997662141919" lon="7.579930135980249">
        <ele>1780.5</ele>
        <time>2021-06-06T13:39:19Z</time>
      </trkpt>
      <trkpt lat="45.669058933854103" lon="7.579967435449362">
        <ele>1779.54</ele>
        <time>2021-06-06T13:39:34Z</time>
      </trkpt>
      <trkpt lat="45.669122217223048" lon="7.579992329701781">
        <ele>1777.6099999999999</ele>
        <time>2021-06-06T13:39:47Z</time>
      </trkpt>
      <trkpt lat="45.669206958264112" lon="7.580109257251024">
        <ele>1775.21</ele>
        <time>2021-06-06T13:40:02Z</time>
      </trkpt>
      <trkpt lat="45.669267978519201" lon="7.580155860632658">
        <ele>1773.29</ele>
        <time>2021-06-06T13:40:14Z</time>
      </trkpt>
      <trkpt lat="45.669327825307846" lon="7.58024537935853">
        <ele>1770.4100000000001</ele>
        <time>2021-06-06T13:40:31Z</time>
      </trkpt>
      <trkpt lat="45.669377697631717" lon="7.580309836193919">
        <ele>1768.48</ele>
        <time>2021-06-06T13:40:45Z</time>
      </trkpt>
      <trkpt lat="45.669421451166272" lon="7.58039684034884">
        <ele>1766.5599999999999</ele>
        <time>2021-06-06T13:40:57Z</time>
      </trkpt>
      <trkpt lat="45.669500827789307" lon="7.580439420416951">
        <ele>1764.1600000000001</ele>
        <time>2021-06-06T13:41:09Z</time>
      </trkpt>
      <trkpt lat="45.66954986192286" lon="7.580483173951507">
        <ele>1762.23</ele>
        <time>2021-06-06T13:41:21Z</time>
      </trkpt>
      <trkpt lat="45.669595962390304" lon="7.580555928871036">
        <ele>1759.8299999999999</ele>
        <time>2021-06-06T13:41:37Z</time>
      </trkpt>
      <trkpt lat="45.669637117534876" lon="7.580575793981552">
        <ele>1757.9100000000001</ele>
        <time>2021-06-06T13:41:48Z</time>
      </trkpt>
      <trkpt lat="45.669726133346558" lon="7.580603286623955">
        <ele>1755.99</ele>
        <time>2021-06-06T13:42:01Z</time>
      </trkpt>
      <trkpt lat="45.669831242412329" lon="7.580579984933138">
        <ele>1755.02</ele>
        <time>2021-06-06T13:42:12Z</time>
      </trkpt>
      <trkpt lat="45.669889161363244" lon="7.580602280795574">
        <ele>1753.5799999999999</ele>
        <time>2021-06-06T13:42:26Z</time>
      </trkpt>
      <trkpt lat="45.669934172183275" lon="7.58061426691711">
        <ele>1751.1800000000001</ele>
        <time>2021-06-06T13:42:40Z</time>
      </trkpt>
      <trkpt lat="45.670003574341536" lon="7.580712083727121">
        <ele>1749.26</ele>
        <time>2021-06-06T13:42:55Z</time>
      </trkpt>
      <trkpt lat="45.670017069205642" lon="7.580766063183546">
        <ele>1747.3299999999999</ele>
        <time>2021-06-06T13:43:08Z</time>
      </trkpt>
      <trkpt lat="45.670068366453052" lon="7.580809984356165">
        <ele>1744.9300000000001</ele>
        <time>2021-06-06T13:43:21Z</time>
      </trkpt>
      <trkpt lat="45.670067360624671" lon="7.580893216654658">
        <ele>1742.53</ele>
        <time>2021-06-06T13:43:35Z</time>
      </trkpt>
      <trkpt lat="45.670114383101463" lon="7.580949291586876">
        <ele>1740.1199999999999</ele>
        <time>2021-06-06T13:43:47Z</time>
      </trkpt>
      <trkpt lat="45.670212954282761" lon="7.580968653783202">
        <ele>1737.72</ele>
        <time>2021-06-06T13:44:02Z</time>
      </trkpt>
      <trkpt lat="45.670299790799618" lon="7.580975526943803">
        <ele>1734.8399999999999</ele>
        <time>2021-06-06T13:44:17Z</time>
      </trkpt>
      <trkpt lat="45.670366594567895" lon="7.580985836684704">
        <ele>1733.3900000000001</ele>
        <time>2021-06-06T13:44:29Z</time>
      </trkpt>
      <trkpt lat="45.670376485213637" lon="7.580988267436624">
        <ele>1733.3900000000001</ele>
        <time>2021-06-06T13:44:30Z</time>
      </trkpt>
      <trkpt lat="45.670438259840012" lon="7.580977119505405">
        <ele>1732.4300000000001</ele>
        <time>2021-06-06T13:44:37Z</time>
      </trkpt>
      <trkpt lat="45.670521575957537" lon="7.580945519730449">
        <ele>1730.99</ele>
        <time>2021-06-06T13:44:47Z</time>
      </trkpt>
      <trkpt lat="45.670595420524478" lon="7.580905873328447">
        <ele>1730.99</ele>
        <time>2021-06-06T13:44:59Z</time>
      </trkpt>
      <trkpt lat="45.670684520155191" lon="7.580855581909418">
        <ele>1731.47</ele>
        <time>2021-06-06T13:45:15Z</time>
      </trkpt>
      <trkpt lat="45.670792479068041" lon="7.58086153306067">
        <ele>1733.3900000000001</ele>
        <time>2021-06-06T13:45:30Z</time>
      </trkpt>
      <trkpt lat="45.670907059684396" lon="7.58089673705399">
        <ele>1734.3599999999999</ele>
        <time>2021-06-06T13:45:48Z</time>
      </trkpt>
      <trkpt lat="45.670959698036313" lon="7.580929594114423">
        <ele>1733.8800000000001</ele>
        <time>2021-06-06T13:46:05Z</time>
      </trkpt>
      <trkpt lat="45.671012755483389" lon="7.581015173345804">
        <ele>1731.47</ele>
        <time>2021-06-06T13:46:19Z</time>
      </trkpt>
      <trkpt lat="45.671040248125792" lon="7.581087341532111">
        <ele>1729.0699999999999</ele>
        <time>2021-06-06T13:46:35Z</time>
      </trkpt>
      <trkpt lat="45.671162791550159" lon="7.58115716278553">
        <ele>1727.1500000000001</ele>
        <time>2021-06-06T13:46:51Z</time>
      </trkpt>
      <trkpt lat="45.671225572004914" lon="7.581249363720417">
        <ele>1725.22</ele>
        <time>2021-06-06T13:47:06Z</time>
      </trkpt>
      <trkpt lat="45.671270750463009" lon="7.581335864961147">
        <ele>1723.78</ele>
        <time>2021-06-06T13:47:17Z</time>
      </trkpt>
      <trkpt lat="45.67129866220057" lon="7.581405099481344">
        <ele>1722.8199999999999</ele>
        <time>2021-06-06T13:47:23Z</time>
      </trkpt>
      <trkpt lat="45.671406369656324" lon="7.581492438912392">
        <ele>1721.8599999999999</ele>
        <time>2021-06-06T13:47:36Z</time>
      </trkpt>
      <trkpt lat="45.67144819535315" lon="7.581572150811553">
        <ele>1720.9000000000001</ele>
        <time>2021-06-06T13:47:50Z</time>
      </trkpt>
      <trkpt lat="45.671521117910743" lon="7.58163551799953">
        <ele>1719.46</ele>
        <time>2021-06-06T13:48:00Z</time>
      </trkpt>
      <trkpt lat="45.671577276661992" lon="7.581695951521397">
        <ele>1718.49</ele>
        <time>2021-06-06T13:48:09Z</time>
      </trkpt>
      <trkpt lat="45.671690180897713" lon="7.58181681856513">
        <ele>1716.5699999999999</ele>
        <time>2021-06-06T13:48:23Z</time>
      </trkpt>
      <trkpt lat="45.67178045399487" lon="7.581868283450604">
        <ele>1716.0899999999999</ele>
        <time>2021-06-06T13:48:36Z</time>
      </trkpt>
      <trkpt lat="45.671839294955134" lon="7.581885550171137">
        <ele>1716.0899999999999</ele>
        <time>2021-06-06T13:48:41Z</time>
      </trkpt>
      <trkpt lat="45.671908026561141" lon="7.58187004365027">
        <ele>1715.6099999999999</ele>
        <time>2021-06-06T13:48:51Z</time>
      </trkpt>
      <trkpt lat="45.671916157007217" lon="7.581858057528734">
        <ele>1715.1300000000001</ele>
        <time>2021-06-06T13:48:52Z</time>
      </trkpt>
      <trkpt lat="45.671928143128753" lon="7.581843892112374">
        <ele>1715.1300000000001</ele>
        <time>2021-06-06T13:48:53Z</time>
      </trkpt>
      <trkpt lat="45.67197734490037" lon="7.581776166334748">
        <ele>1714.6500000000001</ele>
        <time>2021-06-06T13:48:58Z</time>
      </trkpt>
      <trkpt lat="45.672041131183505" lon="7.581774154677987">
        <ele>1713.6900000000001</ele>
        <time>2021-06-06T13:49:09Z</time>
      </trkpt>
      <trkpt lat="45.67211028188467" lon="7.58176501840353">
        <ele>1712.25</ele>
        <time>2021-06-06T13:49:22Z</time>
      </trkpt>
      <trkpt lat="45.67215328104794" lon="7.581774741411209">
        <ele>1709.8399999999999</ele>
        <time>2021-06-06T13:49:41Z</time>
      </trkpt>
      <trkpt lat="45.672191418707371" lon="7.581754121929407">
        <ele>1709.8399999999999</ele>
        <time>2021-06-06T13:50:15Z</time>
      </trkpt>
      <trkpt lat="45.672210529446602" lon="7.58176744915545">
        <ele>1709.3599999999999</ele>
        <time>2021-06-06T13:50:38Z</time>
      </trkpt>
      <trkpt lat="45.672211786732078" lon="7.581771388649941">
        <ele>1709.3599999999999</ele>
        <time>2021-06-06T13:51:34Z</time>
      </trkpt>
      <trkpt lat="45.672205919399858" lon="7.581770969554782">
        <ele>1709.3599999999999</ele>
        <time>2021-06-06T13:52:02Z</time>
      </trkpt>
      <trkpt lat="45.672243051230907" lon="7.581783290952444">
        <ele>1709.3599999999999</ele>
        <time>2021-06-06T13:52:26Z</time>
      </trkpt>
      <trkpt lat="45.672292755916715" lon="7.581744147464633">
        <ele>1709.3599999999999</ele>
        <time>2021-06-06T13:52:42Z</time>
      </trkpt>
      <trkpt lat="45.67233357578516" lon="7.581716738641262">
        <ele>1706.96</ele>
        <time>2021-06-06T13:52:48Z</time>
      </trkpt>
      <trkpt lat="45.672386549413204" lon="7.581718666478992">
        <ele>1705.52</ele>
        <time>2021-06-06T13:52:58Z</time>
      </trkpt>
      <trkpt lat="45.672400379553437" lon="7.581725120544434">
        <ele>1705.52</ele>
        <time>2021-06-06T13:53:00Z</time>
      </trkpt>
      <trkpt lat="45.672412449494004" lon="7.581725539639592">
        <ele>1705.52</ele>
        <time>2021-06-06T13:53:01Z</time>
      </trkpt>
      <trkpt lat="45.672508254647255" lon="7.581754121929407">
        <ele>1705.04</ele>
        <time>2021-06-06T13:53:13Z</time>
      </trkpt>
      <trkpt lat="45.672589223831892" lon="7.581826876848936">
        <ele>1705.04</ele>
        <time>2021-06-06T13:53:26Z</time>
      </trkpt>
      <trkpt lat="45.672628870233893" lon="7.581894854083657">
        <ele>1703.5899999999999</ele>
        <time>2021-06-06T13:53:39Z</time>
      </trkpt>
      <trkpt lat="45.672678994014859" lon="7.581918742507696">
        <ele>1703.1099999999999</ele>
        <time>2021-06-06T13:53:50Z</time>
      </trkpt>
      <trkpt lat="45.67274403758347" lon="7.58199417963624">
        <ele>1702.6300000000001</ele>
        <time>2021-06-06T13:54:06Z</time>
      </trkpt>
      <trkpt lat="45.672768345102668" lon="7.582019241526723">
        <ele>1702.6300000000001</ele>
        <time>2021-06-06T13:54:12Z</time>
      </trkpt>
      <trkpt lat="45.672837076708674" lon="7.582073723897338">
        <ele>1701.1900000000001</ele>
        <time>2021-06-06T13:54:25Z</time>
      </trkpt>
      <trkpt lat="45.672892229631543" lon="7.582117645069957">
        <ele>1699.27</ele>
        <time>2021-06-06T13:54:40Z</time>
      </trkpt>
      <trkpt lat="45.672957021743059" lon="7.582167349755764">
        <ele>1697.8299999999999</ele>
        <time>2021-06-06T13:54:52Z</time>
      </trkpt>
      <trkpt lat="45.67297512665391" lon="7.582184365019202">
        <ele>1697.8299999999999</ele>
        <time>2021-06-06T13:54:54Z</time>
      </trkpt>
      <trkpt lat="45.67298635840416" lon="7.582195680588484">
        <ele>1697.3399999999999</ele>
        <time>2021-06-06T13:54:55Z</time>
      </trkpt>
      <trkpt lat="45.672998679801822" lon="7.582207750529051">
        <ele>1697.3399999999999</ele>
        <time>2021-06-06T13:54:56Z</time>
      </trkpt>
      <trkpt lat="45.673011085018516" lon="7.582221496850252">
        <ele>1697.3399999999999</ele>
        <time>2021-06-06T13:54:57Z</time>
      </trkpt>
      <trkpt lat="45.673023741692305" lon="7.582236332818866">
        <ele>1697.3399999999999</ele>
        <time>2021-06-06T13:54:58Z</time>
      </trkpt>
      <trkpt lat="45.673034135252237" lon="7.582250162959099">
        <ele>1696.8599999999999</ele>
        <time>2021-06-06T13:54:59Z</time>
      </trkpt>
      <trkpt lat="45.673093646764755" lon="7.582352589815855">
        <ele>1696.3800000000001</ele>
        <time>2021-06-06T13:55:11Z</time>
      </trkpt>
      <trkpt lat="45.67312809638679" lon="7.582451496273279">
        <ele>1695.4200000000001</ele>
        <time>2021-06-06T13:55:21Z</time>
      </trkpt>
      <trkpt lat="45.673129772767425" lon="7.582464572042227">
        <ele>1695.4200000000001</ele>
        <time>2021-06-06T13:55:22Z</time>
      </trkpt>
      <trkpt lat="45.673136562108994" lon="7.582482341676951">
        <ele>1695.4200000000001</ele>
        <time>2021-06-06T13:55:23Z</time>
      </trkpt>
      <trkpt lat="45.673163132742047" lon="7.582544535398483">
        <ele>1694.9400000000001</ele>
        <time>2021-06-06T13:55:27Z</time>
      </trkpt>
      <trkpt lat="45.673173861578107" lon="7.582575883716345">
        <ele>1694.9400000000001</ele>
        <time>2021-06-06T13:55:29Z</time>
      </trkpt>
      <trkpt lat="45.673255333676934" lon="7.582645285874605">
        <ele>1694.9400000000001</ele>
        <time>2021-06-06T13:55:41Z</time>
      </trkpt>
      <trkpt lat="45.673312833532691" lon="7.582697421312332">
        <ele>1693.5</ele>
        <time>2021-06-06T13:55:56Z</time>
      </trkpt>
      <trkpt lat="45.673368321731687" lon="7.582724243402481">
        <ele>1690.6199999999999</ele>
        <time>2021-06-06T13:56:12Z</time>
      </trkpt>
      <trkpt lat="45.673428252339363" lon="7.582740420475602">
        <ele>1688.21</ele>
        <time>2021-06-06T13:56:27Z</time>
      </trkpt>
      <trkpt lat="45.673504024744034" lon="7.582724997773767">
        <ele>1684.8499999999999</ele>
        <time>2021-06-06T13:56:42Z</time>
      </trkpt>
      <trkpt lat="45.673553561791778" lon="7.582678142935038">
        <ele>1683.4100000000001</ele>
        <time>2021-06-06T13:56:59Z</time>
      </trkpt>
      <trkpt lat="45.673593627288938" lon="7.582647046074271">
        <ele>1682.4400000000001</ele>
        <time>2021-06-06T13:57:06Z</time>
      </trkpt>
      <trkpt lat="45.673603937029839" lon="7.582641178742051">
        <ele>1681.96</ele>
        <time>2021-06-06T13:57:07Z</time>
      </trkpt>
      <trkpt lat="45.673656323924661" lon="7.582612428814173">
        <ele>1681</ele>
        <time>2021-06-06T13:57:20Z</time>
      </trkpt>
      <trkpt lat="45.673723379150033" lon="7.582560377195478">
        <ele>1680.04</ele>
        <time>2021-06-06T13:57:32Z</time>
      </trkpt>
      <trkpt lat="45.673748524859548" lon="7.582539590075612">
        <ele>1678.5999999999999</ele>
        <time>2021-06-06T13:57:48Z</time>
      </trkpt>
      <trkpt lat="45.673787919804454" lon="7.582505475729704">
        <ele>1676.6800000000001</ele>
        <time>2021-06-06T13:58:06Z</time>
      </trkpt>
      <trkpt lat="45.673866290599108" lon="7.582486784085631">
        <ele>1674.27</ele>
        <time>2021-06-06T13:58:20Z</time>
      </trkpt>
      <trkpt lat="45.673859417438507" lon="7.582486448809505">
        <ele>1673.79</ele>
        <time>2021-06-06T13:58:25Z</time>
      </trkpt>
      <trkpt lat="45.673856567591429" lon="7.582606561481953">
        <ele>1671.3900000000001</ele>
        <time>2021-06-06T13:58:36Z</time>
      </trkpt>
      <trkpt lat="45.673835026100278" lon="7.582752155140042">
        <ele>1669.47</ele>
        <time>2021-06-06T13:58:49Z</time>
      </trkpt>
      <trkpt lat="45.673822620883584" lon="7.582819378003478">
        <ele>1668.99</ele>
        <time>2021-06-06T13:58:55Z</time>
      </trkpt>
      <trkpt lat="45.673869727179408" lon="7.582837985828519">
        <ele>1667.0599999999999</ele>
        <time>2021-06-06T13:59:06Z</time>
      </trkpt>
      <trkpt lat="45.673924125730991" lon="7.582756681367755">
        <ele>1665.1400000000001</ele>
        <time>2021-06-06T13:59:19Z</time>
      </trkpt>
      <trkpt lat="45.673957988619804" lon="7.582807643339038">
        <ele>1662.26</ele>
        <time>2021-06-06T13:59:30Z</time>
      </trkpt>
      <trkpt lat="45.673920186236501" lon="7.582912417128682">
        <ele>1659.8499999999999</ele>
        <time>2021-06-06T13:59:43Z</time>
      </trkpt>
      <trkpt lat="45.673927562311292" lon="7.583003779873252">
        <ele>1657.9300000000001</ele>
        <time>2021-06-06T13:59:54Z</time>
      </trkpt>
      <trkpt lat="45.673979530110955" lon="7.58301492780447">
        <ele>1656.01</ele>
        <time>2021-06-06T14:00:05Z</time>
      </trkpt>
      <trkpt lat="45.674083130434155" lon="7.582948878407478">
        <ele>1653.1199999999999</ele>
        <time>2021-06-06T14:00:19Z</time>
      </trkpt>
      <trkpt lat="45.674162255600095" lon="7.582995817065239">
        <ele>1652.1600000000001</ele>
        <time>2021-06-06T14:00:32Z</time>
      </trkpt>
      <trkpt lat="45.674121268093586" lon="7.58310436271131">
        <ele>1649.76</ele>
        <time>2021-06-06T14:00:47Z</time>
      </trkpt>
      <trkpt lat="45.674060080200434" lon="7.583168987184763">
        <ele>1647.3599999999999</ele>
        <time>2021-06-06T14:00:59Z</time>
      </trkpt>
      <trkpt lat="45.674049519002438" lon="7.583205448463559">
        <ele>1645.9100000000001</ele>
        <time>2021-06-06T14:01:08Z</time>
      </trkpt>
      <trkpt lat="45.674034934490919" lon="7.583309467881918">
        <ele>1643.51</ele>
        <time>2021-06-06T14:01:20Z</time>
      </trkpt>
      <trkpt lat="45.674010794609785" lon="7.583432849496603">
        <ele>1640.6300000000001</ele>
        <time>2021-06-06T14:01:33Z</time>
      </trkpt>
      <trkpt lat="45.673942565917969" lon="7.583466125652194">
        <ele>1638.7</ele>
        <time>2021-06-06T14:01:44Z</time>
      </trkpt>
      <trkpt lat="45.673916162922978" lon="7.583541898056865">
        <ele>1636.3</ele>
        <time>2021-06-06T14:01:58Z</time>
      </trkpt>
      <trkpt lat="45.673886658623815" lon="7.583649773150682">
        <ele>1633.9000000000001</ele>
        <time>2021-06-06T14:02:12Z</time>
      </trkpt>
      <trkpt lat="45.67391088232398" lon="7.583734430372715">
        <ele>1631.98</ele>
        <time>2021-06-06T14:02:24Z</time>
      </trkpt>
      <trkpt lat="45.673910798504949" lon="7.583768628537655">
        <ele>1631.49</ele>
        <time>2021-06-06T14:02:27Z</time>
      </trkpt>
      <trkpt lat="45.673850197345018" lon="7.583853621035814">
        <ele>1629.5699999999999</ele>
        <time>2021-06-06T14:02:40Z</time>
      </trkpt>
      <trkpt lat="45.67387224175036" lon="7.583922352641821">
        <ele>1627.1700000000001</ele>
        <time>2021-06-06T14:02:51Z</time>
      </trkpt>
      <trkpt lat="45.673886574804783" lon="7.583957053720951">
        <ele>1625.73</ele>
        <time>2021-06-06T14:03:00Z</time>
      </trkpt>
      <trkpt lat="45.673861429095268" lon="7.584023354575038">
        <ele>1623.8</ele>
        <time>2021-06-06T14:03:11Z</time>
      </trkpt>
      <trkpt lat="45.673762354999781" lon="7.584085129201412">
        <ele>1621.4000000000001</ele>
        <time>2021-06-06T14:03:24Z</time>
      </trkpt>
      <trkpt lat="45.673745758831501" lon="7.584158638492227">
        <ele>1619.96</ele>
        <time>2021-06-06T14:03:32Z</time>
      </trkpt>
      <trkpt lat="45.673716338351369" lon="7.584312781691551">
        <ele>1617.5599999999999</ele>
        <time>2021-06-06T14:03:46Z</time>
      </trkpt>
      <trkpt lat="45.673667639493942" lon="7.584415879100561">
        <ele>1615.6300000000001</ele>
        <time>2021-06-06T14:03:58Z</time>
      </trkpt>
      <trkpt lat="45.673680128529668" lon="7.584510343149304">
        <ele>1613.71</ele>
        <time>2021-06-06T14:04:10Z</time>
      </trkpt>
      <trkpt lat="45.67364408634603" lon="7.584642944857478">
        <ele>1611.3099999999999</ele>
        <time>2021-06-06T14:04:24Z</time>
      </trkpt>
      <trkpt lat="45.673620533198118" lon="7.584754172712565">
        <ele>1608.4200000000001</ele>
        <time>2021-06-06T14:04:39Z</time>
      </trkpt>
      <trkpt lat="45.673614582046866" lon="7.584807481616736">
        <ele>1606.98</ele>
        <time>2021-06-06T14:04:45Z</time>
      </trkpt>
      <trkpt lat="45.673619778826833" lon="7.584822149947286">
        <ele>1606.98</ele>
        <time>2021-06-06T14:04:46Z</time>
      </trkpt>
      <trkpt lat="45.673581138253212" lon="7.584961540997028">
        <ele>1605.0599999999999</ele>
        <time>2021-06-06T14:04:59Z</time>
      </trkpt>
      <trkpt lat="45.673568062484264" lon="7.584996242076159">
        <ele>1604.5799999999999</ele>
        <time>2021-06-06T14:05:03Z</time>
      </trkpt>
      <trkpt lat="45.67349405027926" lon="7.585040079429746">
        <ele>1602.1700000000001</ele>
        <time>2021-06-06T14:05:14Z</time>
      </trkpt>
      <trkpt lat="45.673516262322664" lon="7.585121467709541">
        <ele>1599.77</ele>
        <time>2021-06-06T14:05:28Z</time>
      </trkpt>
      <trkpt lat="45.673488434404135" lon="7.585198748856783">
        <ele>1596.8900000000001</ele>
        <time>2021-06-06T14:05:40Z</time>
      </trkpt>
      <trkpt lat="45.673507545143366" lon="7.585262199863792">
        <ele>1594</ele>
        <time>2021-06-06T14:05:55Z</time>
      </trkpt>
      <trkpt lat="45.673490781337023" lon="7.585331434383988">
        <ele>1591.5999999999999</ele>
        <time>2021-06-06T14:06:07Z</time>
      </trkpt>
      <trkpt lat="45.673478292301297" lon="7.585383066907525">
        <ele>1588.72</ele>
        <time>2021-06-06T14:06:22Z</time>
      </trkpt>
      <trkpt lat="45.673535373061895" lon="7.585476189851761">
        <ele>1585.8299999999999</ele>
        <time>2021-06-06T14:06:37Z</time>
      </trkpt>
      <trkpt lat="45.673625227063894" lon="7.585459761321545">
        <ele>1583.4300000000001</ele>
        <time>2021-06-06T14:06:52Z</time>
      </trkpt>
      <trkpt lat="45.673699155449867" lon="7.585484320297837">
        <ele>1581.03</ele>
        <time>2021-06-06T14:07:06Z</time>
      </trkpt>
      <trkpt lat="45.673743663355708" lon="7.585515752434731">
        <ele>1578.6199999999999</ele>
        <time>2021-06-06T14:07:18Z</time>
      </trkpt>
      <trkpt lat="45.673827063292265" lon="7.585514662787318">
        <ele>1576.22</ele>
        <time>2021-06-06T14:07:31Z</time>
      </trkpt>
      <trkpt lat="45.673893531784415" lon="7.585557159036398">
        <ele>1573.3299999999999</ele>
        <time>2021-06-06T14:07:44Z</time>
      </trkpt>
      <trkpt lat="45.673932339996099" lon="7.585666123777628">
        <ele>1570.45</ele>
        <time>2021-06-06T14:07:58Z</time>
      </trkpt>
      <trkpt lat="45.673939548432827" lon="7.585663357749581">
        <ele>1570.45</ele>
        <time>2021-06-06T14:07:59Z</time>
      </trkpt>
      <trkpt lat="45.673966789618134" lon="7.585654053837061">
        <ele>1569.49</ele>
        <time>2021-06-06T14:08:03Z</time>
      </trkpt>
      <trkpt lat="45.674041388556361" lon="7.585636619478464">
        <ele>1567.5699999999999</ele>
        <time>2021-06-06T14:08:18Z</time>
      </trkpt>
      <trkpt lat="45.674115149304271" lon="7.585646091029048">
        <ele>1567.0899999999999</ele>
        <time>2021-06-06T14:08:27Z</time>
      </trkpt>
      <trkpt lat="45.674126381054521" lon="7.585644749924541">
        <ele>1566.6099999999999</ele>
        <time>2021-06-06T14:08:28Z</time>
      </trkpt>
      <trkpt lat="45.674140546470881" lon="7.585646426305175">
        <ele>1566.6099999999999</ele>
        <time>2021-06-06T14:08:29Z</time>
      </trkpt>
      <trkpt lat="45.674222018569708" lon="7.585671152919531">
        <ele>1566.1199999999999</ele>
        <time>2021-06-06T14:08:40Z</time>
      </trkpt>
      <trkpt lat="45.674270465970039" lon="7.585750361904502">
        <ele>1564.2</ele>
        <time>2021-06-06T14:08:54Z</time>
      </trkpt>
      <trkpt lat="45.674315979704261" lon="7.585768885910511">
        <ele>1562.28</ele>
        <time>2021-06-06T14:09:06Z</time>
      </trkpt>
      <trkpt lat="45.674379346892238" lon="7.585795875638723">
        <ele>1560.3599999999999</ele>
        <time>2021-06-06T14:09:20Z</time>
      </trkpt>
      <trkpt lat="45.674413125962019" lon="7.585873240604997">
        <ele>1557.47</ele>
        <time>2021-06-06T14:09:34Z</time>
      </trkpt>
      <trkpt lat="45.674461489543319" lon="7.58582697249949">
        <ele>1555.55</ele>
        <time>2021-06-06T14:09:47Z</time>
      </trkpt>
      <trkpt lat="45.674511445686221" lon="7.585847256705165">
        <ele>1554.1099999999999</ele>
        <time>2021-06-06T14:09:54Z</time>
      </trkpt>
      <trkpt lat="45.674517061561346" lon="7.585967453196645">
        <ele>1552.1900000000001</ele>
        <time>2021-06-06T14:10:05Z</time>
      </trkpt>
      <trkpt lat="45.674523264169693" lon="7.585987988859415">
        <ele>1551.71</ele>
        <time>2021-06-06T14:10:09Z</time>
      </trkpt>
      <trkpt lat="45.674569699913263" lon="7.586027467623353">
        <ele>1550.74</ele>
        <time>2021-06-06T14:10:15Z</time>
      </trkpt>
      <trkpt lat="45.674620661884546" lon="7.585973823443055">
        <ele>1548.8199999999999</ele>
        <time>2021-06-06T14:10:25Z</time>
      </trkpt>
      <trkpt lat="45.674659218639135" lon="7.585967117920518">
        <ele>1546.9000000000001</ele>
        <time>2021-06-06T14:10:37Z</time>
      </trkpt>
      <trkpt lat="45.674696685746312" lon="7.586101647466421">
        <ele>1544.5</ele>
        <time>2021-06-06T14:10:51Z</time>
      </trkpt>
      <trkpt lat="45.674721663817763" lon="7.586096031591296">
        <ele>1543.53</ele>
        <time>2021-06-06T14:10:56Z</time>
      </trkpt>
      <trkpt lat="45.674751838669181" lon="7.586176078766584">
        <ele>1541.6099999999999</ele>
        <time>2021-06-06T14:11:10Z</time>
      </trkpt>
      <trkpt lat="45.674754688516259" lon="7.586247744038701">
        <ele>1540.1700000000001</ele>
        <time>2021-06-06T14:11:19Z</time>
      </trkpt>
      <trkpt lat="45.67475619725883" lon="7.586323851719499">
        <ele>1537.77</ele>
        <time>2021-06-06T14:11:30Z</time>
      </trkpt>
      <trkpt lat="45.67477086558938" lon="7.586373137310147">
        <ele>1536.3199999999999</ele>
        <time>2021-06-06T14:11:42Z</time>
      </trkpt>
      <trkpt lat="45.674812439829111" lon="7.586369533091784">
        <ele>1535.3599999999999</ele>
        <time>2021-06-06T14:11:47Z</time>
      </trkpt>
      <trkpt lat="45.674900449812412" lon="7.586377579718828">
        <ele>1535.3599999999999</ele>
        <time>2021-06-06T14:12:01Z</time>
      </trkpt>
      <trkpt lat="45.674917967990041" lon="7.586373053491116">
        <ele>1535.3599999999999</ele>
        <time>2021-06-06T14:12:23Z</time>
      </trkpt>
      <trkpt lat="45.674900365993381" lon="7.586371041834354">
        <ele>1535.3599999999999</ele>
        <time>2021-06-06T14:12:41Z</time>
      </trkpt>
      <trkpt lat="45.674882344901562" lon="7.586417980492115">
        <ele>1534.8800000000001</ele>
        <time>2021-06-06T14:13:02Z</time>
      </trkpt>
      <trkpt lat="45.674879075959325" lon="7.586412029340863">
        <ele>1534.4000000000001</ele>
        <time>2021-06-06T14:13:24Z</time>
      </trkpt>
      <trkpt lat="45.674874633550644" lon="7.586407084017992">
        <ele>1534.4000000000001</ele>
        <time>2021-06-06T14:13:54Z</time>
      </trkpt>
      <trkpt lat="45.674880752339959" lon="7.586418818682432">
        <ele>1534.4000000000001</ele>
        <time>2021-06-06T14:14:22Z</time>
      </trkpt>
      <trkpt lat="45.674874968826771" lon="7.586415885016322">
        <ele>1534.4000000000001</ele>
        <time>2021-06-06T14:14:59Z</time>
      </trkpt>
      <trkpt lat="45.674873292446136" lon="7.586416555568576">
        <ele>1534.4000000000001</ele>
        <time>2021-06-06T14:15:26Z</time>
      </trkpt>
      <trkpt lat="45.674878070130944" lon="7.586416136473417">
        <ele>1534.4000000000001</ele>
        <time>2021-06-06T14:15:53Z</time>
      </trkpt>
      <trkpt lat="45.674880919978023" lon="7.586417142301798">
        <ele>1534.4000000000001</ele>
        <time>2021-06-06T14:16:31Z</time>
      </trkpt>
      <trkpt lat="45.674879578873515" lon="7.58641286753118">
        <ele>1534.4000000000001</ele>
        <time>2021-06-06T14:17:10Z</time>
      </trkpt>
      <trkpt lat="45.674880752339959" lon="7.586419740691781">
        <ele>1534.4000000000001</ele>
        <time>2021-06-06T14:17:51Z</time>
      </trkpt>
      <trkpt lat="45.67487589083612" lon="7.586412280797958">
        <ele>1534.4000000000001</ele>
        <time>2021-06-06T14:18:31Z</time>
      </trkpt>
      <trkpt lat="45.67488712258637" lon="7.586446395143867">
        <ele>1534.4000000000001</ele>
        <time>2021-06-06T14:19:00Z</time>
      </trkpt>
      <trkpt lat="45.674902545288205" lon="7.586460560560226">
        <ele>1534.4000000000001</ele>
        <time>2021-06-06T14:19:02Z</time>
      </trkpt>
      <trkpt lat="45.674911933019757" lon="7.58646609261632">
        <ele>1534.4000000000001</ele>
        <time>2021-06-06T14:19:03Z</time>
      </trkpt>
      <trkpt lat="45.675032632425427" lon="7.586490735411644">
        <ele>1533.4400000000001</ele>
        <time>2021-06-06T14:19:13Z</time>
      </trkpt>
      <trkpt lat="45.675045372918248" lon="7.586494842544198">
        <ele>1533.4400000000001</ele>
        <time>2021-06-06T14:19:14Z</time>
      </trkpt>
      <trkpt lat="45.675141261890531" lon="7.586705982685089">
        <ele>1532</ele>
        <time>2021-06-06T14:19:33Z</time>
      </trkpt>
      <trkpt lat="45.675137490034103" lon="7.586909998208284">
        <ele>1529.1099999999999</ele>
        <time>2021-06-06T14:19:50Z</time>
      </trkpt>
      <trkpt lat="45.675138076767325" lon="7.586993230506778">
        <ele>1528.1500000000001</ele>
        <time>2021-06-06T14:19:57Z</time>
      </trkpt>
      <trkpt lat="45.675173783674836" lon="7.5872269179672">
        <ele>1525.27</ele>
        <time>2021-06-06T14:20:13Z</time>
      </trkpt>
      <trkpt lat="45.675179567188025" lon="7.587239993736148">
        <ele>1525.27</ele>
        <time>2021-06-06T14:20:14Z</time>
      </trkpt>
      <trkpt lat="45.675283335149288" lon="7.587443925440311">
        <ele>1522.3900000000001</ele>
        <time>2021-06-06T14:20:31Z</time>
      </trkpt>
      <trkpt lat="45.675397161394358" lon="7.587610892951489">
        <ele>1519.98</ele>
        <time>2021-06-06T14:20:48Z</time>
      </trkpt>
      <trkpt lat="45.675376961007714" lon="7.587716085836291">
        <ele>1518.0599999999999</ele>
        <time>2021-06-06T14:21:03Z</time>
      </trkpt>
      <trkpt lat="45.675312420353293" lon="7.587713319808245">
        <ele>1517.0999999999999</ele>
        <time>2021-06-06T14:21:10Z</time>
      </trkpt>
      <trkpt lat="45.675301691517234" lon="7.587714157998562">
        <ele>1517.0999999999999</ele>
        <time>2021-06-06T14:21:11Z</time>
      </trkpt>
      <trkpt lat="45.675290627405047" lon="7.587716085836291">
        <ele>1516.6199999999999</ele>
        <time>2021-06-06T14:21:12Z</time>
      </trkpt>
      <trkpt lat="45.67524385638535" lon="7.587741985917091">
        <ele>1516.1400000000001</ele>
        <time>2021-06-06T14:21:17Z</time>
      </trkpt>
      <trkpt lat="45.675127934664488" lon="7.587849022820592">
        <ele>1512.77</ele>
        <time>2021-06-06T14:21:32Z</time>
      </trkpt>
      <trkpt lat="45.675080073997378" lon="7.587850950658321">
        <ele>1511.8099999999999</ele>
        <time>2021-06-06T14:21:38Z</time>
      </trkpt>
      <trkpt lat="45.674986448138952" lon="7.587855979800224">
        <ele>1509.8900000000001</ele>
        <time>2021-06-06T14:21:49Z</time>
      </trkpt>
      <trkpt lat="45.67494479008019" lon="7.587859416380525">
        <ele>1509.4100000000001</ele>
        <time>2021-06-06T14:21:53Z</time>
      </trkpt>
      <trkpt lat="45.674883434548974" lon="7.587920939549804">
        <ele>1507.97</ele>
        <time>2021-06-06T14:22:01Z</time>
      </trkpt>
      <trkpt lat="45.674885362386703" lon="7.587973326444626">
        <ele>1507</ele>
        <time>2021-06-06T14:22:05Z</time>
      </trkpt>
      <trkpt lat="45.67499122582376" lon="7.588130068033934">
        <ele>1504.1199999999999</ele>
        <time>2021-06-06T14:22:20Z</time>
      </trkpt>
      <trkpt lat="45.674996254965663" lon="7.588194441050291">
        <ele>1503.1600000000001</ele>
        <time>2021-06-06T14:22:25Z</time>
      </trkpt>
      <trkpt lat="45.67496532574296" lon="7.58822956122458">
        <ele>1502.2</ele>
        <time>2021-06-06T14:22:30Z</time>
      </trkpt>
      <trkpt lat="45.674945628270507" lon="7.588226543739438">
        <ele>1501.72</ele>
        <time>2021-06-06T14:22:32Z</time>
      </trkpt>
      <trkpt lat="45.674861893057823" lon="7.588223358616233">
        <ele>1500.27</ele>
        <time>2021-06-06T14:22:41Z</time>
      </trkpt>
      <trkpt lat="45.674854265525937" lon="7.588232746347785">
        <ele>1499.79</ele>
        <time>2021-06-06T14:22:42Z</time>
      </trkpt>
      <trkpt lat="45.674829790368676" lon="7.588311368599534">
        <ele>1498.8299999999999</ele>
        <time>2021-06-06T14:22:48Z</time>
      </trkpt>
      <trkpt lat="45.674873627722263" lon="7.588475486263633">
        <ele>1496.4300000000001</ele>
        <time>2021-06-06T14:23:01Z</time>
      </trkpt>
      <trkpt lat="45.67493112757802" lon="7.588599538430572">
        <ele>1493.55</ele>
        <time>2021-06-06T14:23:18Z</time>
      </trkpt>
      <trkpt lat="45.674966834485531" lon="7.58858285844326">
        <ele>1493.0599999999999</ele>
        <time>2021-06-06T14:23:32Z</time>
      </trkpt>
      <trkpt lat="45.675012851133943" lon="7.588565088808537">
        <ele>1493.0599999999999</ele>
        <time>2021-06-06T14:23:38Z</time>
      </trkpt>
      <trkpt lat="45.67502299323678" lon="7.588561484590173">
        <ele>1493.0599999999999</ele>
        <time>2021-06-06T14:23:39Z</time>
      </trkpt>
      <trkpt lat="45.675034895539284" lon="7.58855888620019">
        <ele>1493.55</ele>
        <time>2021-06-06T14:23:40Z</time>
      </trkpt>
      <trkpt lat="45.675154840573668" lon="7.58855645544827">
        <ele>1493.55</ele>
        <time>2021-06-06T14:23:53Z</time>
      </trkpt>
      <trkpt lat="45.675261374562979" lon="7.588611440733075">
        <ele>1491.1400000000001</ele>
        <time>2021-06-06T14:24:05Z</time>
      </trkpt>
      <trkpt lat="45.675364639610052" lon="7.588655529543757">
        <ele>1489.22</ele>
        <time>2021-06-06T14:24:15Z</time>
      </trkpt>
      <trkpt lat="45.675387438386679" lon="7.588663073256612">
        <ele>1488.74</ele>
        <time>2021-06-06T14:24:17Z</time>
      </trkpt>
      <trkpt lat="45.675410320982337" lon="7.58865469135344">
        <ele>1488.26</ele>
        <time>2021-06-06T14:24:19Z</time>
      </trkpt>
      <trkpt lat="45.675423564389348" lon="7.58865469135344">
        <ele>1488.26</ele>
        <time>2021-06-06T14:24:20Z</time>
      </trkpt>
      <trkpt lat="45.675545856356621" lon="7.588644381612539">
        <ele>1486.8199999999999</ele>
        <time>2021-06-06T14:24:31Z</time>
      </trkpt>
      <trkpt lat="45.675677033141255" lon="7.588536674156785">
        <ele>1485.3699999999999</ele>
        <time>2021-06-06T14:24:42Z</time>
      </trkpt>
      <trkpt lat="45.67568558268249" lon="7.588522927835584">
        <ele>1485.3699999999999</ele>
        <time>2021-06-06T14:24:43Z</time>
      </trkpt>
      <trkpt lat="45.675692623481154" lon="7.58850566111505">
        <ele>1485.3699999999999</ele>
        <time>2021-06-06T14:24:44Z</time>
      </trkpt>
      <trkpt lat="45.67570167593658" lon="7.588490238413215">
        <ele>1485.3699999999999</ele>
        <time>2021-06-06T14:24:45Z</time>
      </trkpt>
      <trkpt lat="45.67571148276329" lon="7.588479425758123">
        <ele>1485.3699999999999</ele>
        <time>2021-06-06T14:24:46Z</time>
      </trkpt>
      <trkpt lat="45.675741322338581" lon="7.588435253128409">
        <ele>1485.8499999999999</ele>
        <time>2021-06-06T14:24:57Z</time>
      </trkpt>
      <trkpt lat="45.675754733383656" lon="7.588432319462299">
        <ele>1485.8499999999999</ele>
        <time>2021-06-06T14:24:59Z</time>
      </trkpt>
      <trkpt lat="45.675796391442418" lon="7.588389739394188">
        <ele>1486.8199999999999</ele>
        <time>2021-06-06T14:25:04Z</time>
      </trkpt>
      <trkpt lat="45.675806449726224" lon="7.588382195681334">
        <ele>1486.8199999999999</ele>
        <time>2021-06-06T14:25:05Z</time>
      </trkpt>
      <trkpt lat="45.675817597657442" lon="7.588377082720399">
        <ele>1486.8199999999999</ele>
        <time>2021-06-06T14:25:06Z</time>
      </trkpt>
      <trkpt lat="45.67582773976028" lon="7.588372556492686">
        <ele>1486.8199999999999</ele>
        <time>2021-06-06T14:25:07Z</time>
      </trkpt>
      <trkpt lat="45.675886161625385" lon="7.588354367762804">
        <ele>1487.78</ele>
        <time>2021-06-06T14:25:13Z</time>
      </trkpt>
      <trkpt lat="45.675905691459775" lon="7.588279936462641">
        <ele>1489.22</ele>
        <time>2021-06-06T14:25:20Z</time>
      </trkpt>
      <trkpt lat="45.675914157181978" lon="7.588257053866983">
        <ele>1489.22</ele>
        <time>2021-06-06T14:25:22Z</time>
      </trkpt>
      <trkpt lat="45.675921533256769" lon="7.588245654478669">
        <ele>1489.22</ele>
        <time>2021-06-06T14:25:23Z</time>
      </trkpt>
      <trkpt lat="45.675953133031726" lon="7.588142137974501">
        <ele>1489.7</ele>
        <time>2021-06-06T14:25:29Z</time>
      </trkpt>
      <trkpt lat="45.676018260419369" lon="7.58806292898953">
        <ele>1490.1800000000001</ele>
        <time>2021-06-06T14:25:35Z</time>
      </trkpt>
      <trkpt lat="45.676038628444076" lon="7.588053038343787">
        <ele>1490.1800000000001</ele>
        <time>2021-06-06T14:25:37Z</time>
      </trkpt>
      <trkpt lat="45.676124794408679" lon="7.588037867099047">
        <ele>1492.5799999999999</ele>
        <time>2021-06-06T14:25:49Z</time>
      </trkpt>
      <trkpt lat="45.676193190738559" lon="7.588046668097377">
        <ele>1493.55</ele>
        <time>2021-06-06T14:26:08Z</time>
      </trkpt>
      <trkpt lat="45.676202746108174" lon="7.588047673925757">
        <ele>1493.55</ele>
        <time>2021-06-06T14:26:09Z</time>
      </trkpt>
      <trkpt lat="45.67622696980834" lon="7.588052535429597">
        <ele>1493.55</ele>
        <time>2021-06-06T14:26:11Z</time>
      </trkpt>
      <trkpt lat="45.676239626482129" lon="7.588057396933436">
        <ele>1493.55</ele>
        <time>2021-06-06T14:26:12Z</time>
      </trkpt>
      <trkpt lat="45.676251696422696" lon="7.588062593713403">
        <ele>1493.55</ele>
        <time>2021-06-06T14:26:13Z</time>
      </trkpt>
      <trkpt lat="45.67636476829648" lon="7.588186897337437">
        <ele>1492.5799999999999</ele>
        <time>2021-06-06T14:26:24Z</time>
      </trkpt>
      <trkpt lat="45.676375161856413" lon="7.588202571496368">
        <ele>1492.5799999999999</ele>
        <time>2021-06-06T14:26:25Z</time>
      </trkpt>
      <trkpt lat="45.676386142149568" lon="7.588216736912727">
        <ele>1492.5799999999999</ele>
        <time>2021-06-06T14:26:26Z</time>
      </trkpt>
      <trkpt lat="45.676392763853073" lon="7.588232662528753">
        <ele>1492.5799999999999</ele>
        <time>2021-06-06T14:26:27Z</time>
      </trkpt>
      <trkpt lat="45.676396368071437" lon="7.588248923420906">
        <ele>1492.0999999999999</ele>
        <time>2021-06-06T14:26:28Z</time>
      </trkpt>
      <trkpt lat="45.676415059715509" lon="7.5882906652987">
        <ele>1491.6199999999999</ele>
        <time>2021-06-06T14:26:31Z</time>
      </trkpt>
      <trkpt lat="45.676442719995975" lon="7.588386218994856">
        <ele>1490.6600000000001</ele>
        <time>2021-06-06T14:26:37Z</time>
      </trkpt>
      <trkpt lat="45.67645076662302" lon="7.588401641696692">
        <ele>1490.1800000000001</ele>
        <time>2021-06-06T14:26:38Z</time>
      </trkpt>
      <trkpt lat="45.676488820463419" lon="7.588503062725067">
        <ele>1489.22</ele>
        <time>2021-06-06T14:26:45Z</time>
      </trkpt>
      <trkpt lat="45.676491586491466" lon="7.588548492640257">
        <ele>1488.74</ele>
        <time>2021-06-06T14:26:48Z</time>
      </trkpt>
      <trkpt lat="45.676546236500144" lon="7.588663827627897">
        <ele>1487.3</ele>
        <time>2021-06-06T14:26:57Z</time>
      </trkpt>
      <trkpt lat="45.676589990034699" lon="7.588703222572804">
        <ele>1486.3399999999999</ele>
        <time>2021-06-06T14:27:02Z</time>
      </trkpt>
      <trkpt lat="45.676598874852061" lon="7.588705066591501">
        <ele>1486.3399999999999</ele>
        <time>2021-06-06T14:27:03Z</time>
      </trkpt>
      <trkpt lat="45.676609352231026" lon="7.588701127097011">
        <ele>1485.8499999999999</ele>
        <time>2021-06-06T14:27:04Z</time>
      </trkpt>
      <trkpt lat="45.676623098552227" lon="7.588697941973805">
        <ele>1485.8499999999999</ele>
        <time>2021-06-06T14:27:05Z</time>
      </trkpt>
      <trkpt lat="45.676636593416333" lon="7.588694170117378">
        <ele>1485.3699999999999</ele>
        <time>2021-06-06T14:27:06Z</time>
      </trkpt>
      <trkpt lat="45.676667522639036" lon="7.588685788214207">
        <ele>1485.3699999999999</ele>
        <time>2021-06-06T14:27:09Z</time>
      </trkpt>
      <trkpt lat="45.676675736904144" lon="7.588684782385826">
        <ele>1485.3699999999999</ele>
        <time>2021-06-06T14:27:10Z</time>
      </trkpt>
      <trkpt lat="45.676683532074094" lon="7.588682435452938">
        <ele>1484.8900000000001</ele>
        <time>2021-06-06T14:27:11Z</time>
      </trkpt>
      <trkpt lat="45.676693841814995" lon="7.588675394654274">
        <ele>1484.8900000000001</ele>
        <time>2021-06-06T14:27:12Z</time>
      </trkpt>
      <trkpt lat="45.676705241203308" lon="7.588671874254942">
        <ele>1484.8900000000001</ele>
        <time>2021-06-06T14:27:13Z</time>
      </trkpt>
      <trkpt lat="45.676720077171922" lon="7.588671622797847">
        <ele>1484.4100000000001</ele>
        <time>2021-06-06T14:27:14Z</time>
      </trkpt>
      <trkpt lat="45.676753269508481" lon="7.588680842891336">
        <ele>1484.4100000000001</ele>
        <time>2021-06-06T14:27:16Z</time>
      </trkpt>
      <trkpt lat="45.676766932010651" lon="7.588688973337412">
        <ele>1484.4100000000001</ele>
        <time>2021-06-06T14:27:17Z</time>
      </trkpt>
      <trkpt lat="45.676778499037027" lon="7.588700372725725">
        <ele>1484.4100000000001</ele>
        <time>2021-06-06T14:27:18Z</time>
      </trkpt>
      <trkpt lat="45.676787635311484" lon="7.588714454323053">
        <ele>1483.9300000000001</ele>
        <time>2021-06-06T14:27:19Z</time>
      </trkpt>
      <trkpt lat="45.676904479041696" lon="7.588847139850259">
        <ele>1482.01</ele>
        <time>2021-06-06T14:27:31Z</time>
      </trkpt>
      <trkpt lat="45.676940521225333" lon="7.588884020224214">
        <ele>1481.53</ele>
        <time>2021-06-06T14:27:34Z</time>
      </trkpt>
      <trkpt lat="45.676984945312142" lon="7.588922493159771">
        <ele>1480.5699999999999</ele>
        <time>2021-06-06T14:27:38Z</time>
      </trkpt>
      <trkpt lat="45.676992824301124" lon="7.588936490938067">
        <ele>1480.5699999999999</ele>
        <time>2021-06-06T14:27:39Z</time>
      </trkpt>
      <trkpt lat="45.677112769335508" lon="7.58910077624023">
        <ele>1477.6800000000001</ele>
        <time>2021-06-06T14:27:54Z</time>
      </trkpt>
      <trkpt lat="45.677173789590597" lon="7.589160371571779">
        <ele>1476.72</ele>
        <time>2021-06-06T14:28:00Z</time>
      </trkpt>
      <trkpt lat="45.677184099331498" lon="7.58917797356844">
        <ele>1476.24</ele>
        <time>2021-06-06T14:28:02Z</time>
      </trkpt>
      <trkpt lat="45.677195498719811" lon="7.5892024487257">
        <ele>1475.76</ele>
        <time>2021-06-06T14:28:04Z</time>
      </trkpt>
      <trkpt lat="45.677227266132832" lon="7.589259026572108">
        <ele>1475.28</ele>
        <time>2021-06-06T14:28:09Z</time>
      </trkpt>
      <trkpt lat="45.677239922806621" lon="7.589276963844895">
        <ele>1474.8</ele>
        <time>2021-06-06T14:28:11Z</time>
      </trkpt>
      <trkpt lat="45.677290884777904" lon="7.589311078190804">
        <ele>1474.3199999999999</ele>
        <time>2021-06-06T14:28:16Z</time>
      </trkpt>
      <trkpt lat="45.677313096821308" lon="7.58931577205658">
        <ele>1473.8399999999999</ele>
        <time>2021-06-06T14:28:18Z</time>
      </trkpt>
      <trkpt lat="45.677380654960871" lon="7.589340079575777">
        <ele>1472.8800000000001</ele>
        <time>2021-06-06T14:28:26Z</time>
      </trkpt>
      <trkpt lat="45.677464893087745" lon="7.589374780654907">
        <ele>1471.4400000000001</ele>
        <time>2021-06-06T14:28:34Z</time>
      </trkpt>
      <trkpt lat="45.677643762901425" lon="7.589440662413836">
        <ele>1469.99</ele>
        <time>2021-06-06T14:28:53Z</time>
      </trkpt>
      <trkpt lat="45.677659017965198" lon="7.589448625221849">
        <ele>1469.99</ele>
        <time>2021-06-06T14:28:55Z</time>
      </trkpt>
      <trkpt lat="45.677669662982225" lon="7.589452732354403">
        <ele>1469.99</ele>
        <time>2021-06-06T14:28:56Z</time>
      </trkpt>
      <trkpt lat="45.677680894732475" lon="7.589457761496306">
        <ele>1469.99</ele>
        <time>2021-06-06T14:28:57Z</time>
      </trkpt>
      <trkpt lat="45.677794637158513" lon="7.589590279385448">
        <ele>1469.99</ele>
        <time>2021-06-06T14:29:10Z</time>
      </trkpt>
      <trkpt lat="45.677872588858008" lon="7.589787589386106">
        <ele>1469.51</ele>
        <time>2021-06-06T14:29:23Z</time>
      </trkpt>
      <trkpt lat="45.677875941619277" lon="7.589804772287607">
        <ele>1469.51</ele>
        <time>2021-06-06T14:29:24Z</time>
      </trkpt>
      <trkpt lat="45.677879378199577" lon="7.58982346393168">
        <ele>1469.51</ele>
        <time>2021-06-06T14:29:25Z</time>
      </trkpt>
      <trkpt lat="45.677882479503751" lon="7.589842574670911">
        <ele>1469.51</ele>
        <time>2021-06-06T14:29:26Z</time>
      </trkpt>
      <trkpt lat="45.677883569151163" lon="7.589858667925">
        <ele>1469.51</ele>
        <time>2021-06-06T14:29:27Z</time>
      </trkpt>
      <trkpt lat="45.677884323522449" lon="7.589875850826502">
        <ele>1469.51</ele>
        <time>2021-06-06T14:29:28Z</time>
      </trkpt>
      <trkpt lat="45.677885664626956" lon="7.58993242867291">
        <ele>1469.99</ele>
        <time>2021-06-06T14:29:32Z</time>
      </trkpt>
      <trkpt lat="45.677868733182549" lon="7.590110627934337">
        <ele>1471.4400000000001</ele>
        <time>2021-06-06T14:29:47Z</time>
      </trkpt>
      <trkpt lat="45.677846018224955" lon="7.590212384238839">
        <ele>1471.4400000000001</ele>
        <time>2021-06-06T14:29:55Z</time>
      </trkpt>
      <trkpt lat="45.677860099822283" lon="7.590234177187085">
        <ele>1471.4400000000001</ele>
        <time>2021-06-06T14:29:57Z</time>
      </trkpt>
      <trkpt lat="45.677917851135135" lon="7.59032771922648">
        <ele>1471.4400000000001</ele>
        <time>2021-06-06T14:30:05Z</time>
      </trkpt>
      <trkpt lat="45.677922293543816" lon="7.590341130271554">
        <ele>1471.4400000000001</ele>
        <time>2021-06-06T14:30:06Z</time>
      </trkpt>
      <trkpt lat="45.677927490323782" lon="7.590399216860533">
        <ele>1471.4400000000001</ele>
        <time>2021-06-06T14:30:10Z</time>
      </trkpt>
      <trkpt lat="45.677923550829291" lon="7.590414052829146">
        <ele>1471.4400000000001</ele>
        <time>2021-06-06T14:30:11Z</time>
      </trkpt>
      <trkpt lat="45.677914582192898" lon="7.590450849384069">
        <ele>1471.4400000000001</ele>
        <time>2021-06-06T14:30:13Z</time>
      </trkpt>
      <trkpt lat="45.677901674062014" lon="7.590499296784401">
        <ele>1471.9200000000001</ele>
        <time>2021-06-06T14:30:16Z</time>
      </trkpt>
      <trkpt lat="45.677896477282047" lon="7.590522179380059">
        <ele>1471.9200000000001</ele>
        <time>2021-06-06T14:30:18Z</time>
      </trkpt>
      <trkpt lat="45.677838223055005" lon="7.590635335072875">
        <ele>1472.8800000000001</ele>
        <time>2021-06-06T14:30:27Z</time>
      </trkpt>
      <trkpt lat="45.677810730412602" lon="7.590703899040818">
        <ele>1473.3599999999999</ele>
        <time>2021-06-06T14:30:33Z</time>
      </trkpt>
      <trkpt lat="45.677806874737144" lon="7.590715633705258">
        <ele>1473.8399999999999</ele>
        <time>2021-06-06T14:30:34Z</time>
      </trkpt>
      <trkpt lat="45.677800420671701" lon="7.590728290379047">
        <ele>1473.8399999999999</ele>
        <time>2021-06-06T14:30:35Z</time>
      </trkpt>
      <trkpt lat="45.677792374044657" lon="7.590742791071534">
        <ele>1473.8399999999999</ele>
        <time>2021-06-06T14:30:36Z</time>
      </trkpt>
      <trkpt lat="45.677733030170202" lon="7.590874973684549">
        <ele>1473.8399999999999</ele>
        <time>2021-06-06T14:30:46Z</time>
      </trkpt>
      <trkpt lat="45.677726324647665" lon="7.590886959806085">
        <ele>1473.8399999999999</ele>
        <time>2021-06-06T14:30:47Z</time>
      </trkpt>
      <trkpt lat="45.677716517820954" lon="7.590899281203747">
        <ele>1473.8399999999999</ele>
        <time>2021-06-06T14:30:48Z</time>
      </trkpt>
      <trkpt lat="45.677706878632307" lon="7.590913698077202">
        <ele>1473.8399999999999</ele>
        <time>2021-06-06T14:30:49Z</time>
      </trkpt>
      <trkpt lat="45.677592381834984" lon="7.591119976714253">
        <ele>1472.4000000000001</ele>
        <time>2021-06-06T14:31:03Z</time>
      </trkpt>
      <trkpt lat="45.67757654003799" lon="7.591317789629102">
        <ele>1471.4400000000001</ele>
        <time>2021-06-06T14:31:17Z</time>
      </trkpt>
      <trkpt lat="45.677579138427973" lon="7.591423150151968">
        <ele>1471.4400000000001</ele>
        <time>2021-06-06T14:31:23Z</time>
      </trkpt>
      <trkpt lat="45.677583077922463" lon="7.591439578682184">
        <ele>1471.4400000000001</ele>
        <time>2021-06-06T14:31:24Z</time>
      </trkpt>
      <trkpt lat="45.677588693797588" lon="7.59145743213594">
        <ele>1471.4400000000001</ele>
        <time>2021-06-06T14:31:25Z</time>
      </trkpt>
      <trkpt lat="45.677605457603931" lon="7.591599924489856">
        <ele>1471.4400000000001</ele>
        <time>2021-06-06T14:31:34Z</time>
      </trkpt>
      <trkpt lat="45.677606128156185" lon="7.591615598648787">
        <ele>1471.4400000000001</ele>
        <time>2021-06-06T14:31:35Z</time>
      </trkpt>
      <trkpt lat="45.677607133984566" lon="7.591632278636098">
        <ele>1471.4400000000001</ele>
        <time>2021-06-06T14:31:36Z</time>
      </trkpt>
      <trkpt lat="45.677607888355851" lon="7.591651054099202">
        <ele>1471.4400000000001</ele>
        <time>2021-06-06T14:31:37Z</time>
      </trkpt>
      <trkpt lat="45.677679637447" lon="7.591849034652114">
        <ele>1470.95</ele>
        <time>2021-06-06T14:31:52Z</time>
      </trkpt>
      <trkpt lat="45.677707716822624" lon="7.59185129776597">
        <ele>1470.47</ele>
        <time>2021-06-06T14:31:55Z</time>
      </trkpt>
      <trkpt lat="45.677808383479714" lon="7.591802347451448">
        <ele>1469.99</ele>
        <time>2021-06-06T14:32:06Z</time>
      </trkpt>
      <trkpt lat="45.677849035710096" lon="7.591773178428412">
        <ele>1469.51</ele>
        <time>2021-06-06T14:32:27Z</time>
      </trkpt>
      <trkpt lat="45.677880216389894" lon="7.591807544231415">
        <ele>1469.03</ele>
        <time>2021-06-06T14:32:37Z</time>
      </trkpt>
      <trkpt lat="45.677912989631295" lon="7.591862194240093">
        <ele>1469.03</ele>
        <time>2021-06-06T14:32:43Z</time>
      </trkpt>
      <trkpt lat="45.677926987409592" lon="7.59190209209919">
        <ele>1468.55</ele>
        <time>2021-06-06T14:32:46Z</time>
      </trkpt>
      <trkpt lat="45.677936878055334" lon="7.591938721016049">
        <ele>1468.0699999999999</ele>
        <time>2021-06-06T14:32:49Z</time>
      </trkpt>
      <trkpt lat="45.677966047078371" lon="7.592027317732573">
        <ele>1466.6300000000001</ele>
        <time>2021-06-06T14:32:56Z</time>
      </trkpt>
      <trkpt lat="45.677988175302744" lon="7.592115579172969">
        <ele>1465.6700000000001</ele>
        <time>2021-06-06T14:33:02Z</time>
      </trkpt>
      <trkpt lat="45.677995132282376" lon="7.592147933319211">
        <ele>1465.1900000000001</ele>
        <time>2021-06-06T14:33:04Z</time>
      </trkpt>
      <trkpt lat="45.678001251071692" lon="7.592160757631064">
        <ele>1465.1900000000001</ele>
        <time>2021-06-06T14:33:05Z</time>
      </trkpt>
      <trkpt lat="45.678008459508419" lon="7.592172157019377">
        <ele>1465.1900000000001</ele>
        <time>2021-06-06T14:33:06Z</time>
      </trkpt>
      <trkpt lat="45.678015081211925" lon="7.59218598715961">
        <ele>1465.1900000000001</ele>
        <time>2021-06-06T14:33:07Z</time>
      </trkpt>
      <trkpt lat="45.678067971020937" lon="7.592374663800001">
        <ele>1462.78</ele>
        <time>2021-06-06T14:33:20Z</time>
      </trkpt>
      <trkpt lat="45.678098481148481" lon="7.592429649084806">
        <ele>1462.3</ele>
        <time>2021-06-06T14:33:24Z</time>
      </trkpt>
      <trkpt lat="45.678105521947145" lon="7.592442557215691">
        <ele>1461.8199999999999</ele>
        <time>2021-06-06T14:33:25Z</time>
      </trkpt>
      <trkpt lat="45.678112646564841" lon="7.592455465346575">
        <ele>1461.8199999999999</ele>
        <time>2021-06-06T14:33:26Z</time>
      </trkpt>
      <trkpt lat="45.678122872486711" lon="7.592481533065438">
        <ele>1461.3399999999999</ele>
        <time>2021-06-06T14:33:28Z</time>
      </trkpt>
      <trkpt lat="45.678171738982201" lon="7.592617152258754">
        <ele>1459.4200000000001</ele>
        <time>2021-06-06T14:33:39Z</time>
      </trkpt>
      <trkpt lat="45.678155394271016" lon="7.592656882479787">
        <ele>1458.9400000000001</ele>
        <time>2021-06-06T14:33:42Z</time>
      </trkpt>
      <trkpt lat="45.678150281310081" lon="7.592670544981957">
        <ele>1458.9400000000001</ele>
        <time>2021-06-06T14:33:43Z</time>
      </trkpt>
      <trkpt lat="45.678144665434957" lon="7.592683034017682">
        <ele>1458.46</ele>
        <time>2021-06-06T14:33:44Z</time>
      </trkpt>
      <trkpt lat="45.678139552474022" lon="7.592696947976947">
        <ele>1458.46</ele>
        <time>2021-06-06T14:33:45Z</time>
      </trkpt>
      <trkpt lat="45.678133936598897" lon="7.592708934098482">
        <ele>1457.98</ele>
        <time>2021-06-06T14:33:46Z</time>
      </trkpt>
      <trkpt lat="45.678129158914089" lon="7.592723937705159">
        <ele>1457.98</ele>
        <time>2021-06-06T14:33:47Z</time>
      </trkpt>
      <trkpt lat="45.678125219419599" lon="7.592740617692471">
        <ele>1457.98</ele>
        <time>2021-06-06T14:33:48Z</time>
      </trkpt>
      <trkpt lat="45.678085321560502" lon="7.592883529141545">
        <ele>1455.0899999999999</ele>
        <time>2021-06-06T14:33:59Z</time>
      </trkpt>
      <trkpt lat="45.678085153922439" lon="7.592896353453398">
        <ele>1454.6099999999999</ele>
        <time>2021-06-06T14:34:00Z</time>
      </trkpt>
      <trkpt lat="45.678086662665009" lon="7.59290867485106">
        <ele>1454.6099999999999</ele>
        <time>2021-06-06T14:34:01Z</time>
      </trkpt>
      <trkpt lat="45.678089847788215" lon="7.592920577153564">
        <ele>1454.1300000000001</ele>
        <time>2021-06-06T14:34:02Z</time>
      </trkpt>
      <trkpt lat="45.678113652393222" lon="7.592970784753561">
        <ele>1452.6900000000001</ele>
        <time>2021-06-06T14:34:09Z</time>
      </trkpt>
      <trkpt lat="45.678190598264337" lon="7.592997355386615">
        <ele>1450.77</ele>
        <time>2021-06-06T14:34:18Z</time>
      </trkpt>
      <trkpt lat="45.678289672359824" lon="7.593165831640363">
        <ele>1447.8800000000001</ele>
        <time>2021-06-06T14:34:35Z</time>
      </trkpt>
      <trkpt lat="45.678284978494048" lon="7.593334894627333">
        <ele>1445</ele>
        <time>2021-06-06T14:34:50Z</time>
      </trkpt>
      <trkpt lat="45.678273662924767" lon="7.593486355617642">
        <ele>1442.5999999999999</ele>
        <time>2021-06-06T14:35:03Z</time>
      </trkpt>
      <trkpt lat="45.678268633782864" lon="7.593739572912455">
        <ele>1440.1900000000001</ele>
        <time>2021-06-06T14:35:21Z</time>
      </trkpt>
      <trkpt lat="45.678214151412249" lon="7.593915844336152">
        <ele>1437.79</ele>
        <time>2021-06-06T14:35:35Z</time>
      </trkpt>
      <trkpt lat="45.678173834457994" lon="7.594100497663021">
        <ele>1434.4200000000001</ele>
        <time>2021-06-06T14:35:52Z</time>
      </trkpt>
      <trkpt lat="45.678165117278695" lon="7.594185573980212">
        <ele>1432.98</ele>
        <time>2021-06-06T14:36:01Z</time>
      </trkpt>
      <trkpt lat="45.678145671263337" lon="7.594364276155829">
        <ele>1430.0999999999999</ele>
        <time>2021-06-06T14:36:16Z</time>
      </trkpt>
      <trkpt lat="45.678124381229281" lon="7.594517832621932">
        <ele>1427.21</ele>
        <time>2021-06-06T14:36:31Z</time>
      </trkpt>
      <trkpt lat="45.678151370957494" lon="7.594698294997215">
        <ele>1423.8499999999999</ele>
        <time>2021-06-06T14:36:47Z</time>
      </trkpt>
      <trkpt lat="45.678188083693385" lon="7.594746239483357">
        <ele>1422.8900000000001</ele>
        <time>2021-06-06T14:36:53Z</time>
      </trkpt>
      <trkpt lat="45.678269639611244" lon="7.594795022159815">
        <ele>1420.97</ele>
        <time>2021-06-06T14:37:03Z</time>
      </trkpt>
      <trkpt lat="45.678279865533113" lon="7.594797788187861">
        <ele>1420.97</ele>
        <time>2021-06-06T14:37:04Z</time>
      </trkpt>
      <trkpt lat="45.678471894934773" lon="7.594790328294039">
        <ele>1418.0799999999999</ele>
        <time>2021-06-06T14:37:23Z</time>
      </trkpt>
      <trkpt lat="45.678556216880679" lon="7.594766775146127">
        <ele>1417.5999999999999</ele>
        <time>2021-06-06T14:37:31Z</time>
      </trkpt>
      <trkpt lat="45.67857482470572" lon="7.594755543395877">
        <ele>1417.1199999999999</ele>
        <time>2021-06-06T14:37:33Z</time>
      </trkpt>
      <trkpt lat="45.678585050627589" lon="7.594752358272672">
        <ele>1417.1199999999999</ele>
        <time>2021-06-06T14:37:34Z</time>
      </trkpt>
      <trkpt lat="45.678750425577164" lon="7.59470097720623">
        <ele>1414.24</ele>
        <time>2021-06-06T14:37:52Z</time>
      </trkpt>
      <trkpt lat="45.67887824960053" lon="7.594678094610572">
        <ele>1411.3499999999999</ele>
        <time>2021-06-06T14:38:07Z</time>
      </trkpt>
      <trkpt lat="45.678957374766469" lon="7.594687482342124">
        <ele>1409.4300000000001</ele>
        <time>2021-06-06T14:38:16Z</time>
      </trkpt>
      <trkpt lat="45.679054856300354" lon="7.594724278897047">
        <ele>1407.03</ele>
        <time>2021-06-06T14:38:27Z</time>
      </trkpt>
      <trkpt lat="45.679113697260618" lon="7.594787394627929">
        <ele>1405.0999999999999</ele>
        <time>2021-06-06T14:38:36Z</time>
      </trkpt>
      <trkpt lat="45.679127275943756" lon="7.594819581136107">
        <ele>1404.1400000000001</ele>
        <time>2021-06-06T14:38:39Z</time>
      </trkpt>
      <trkpt lat="45.679168850183487" lon="7.594843218103051">
        <ele>1403.1800000000001</ele>
        <time>2021-06-06T14:38:44Z</time>
      </trkpt>
      <trkpt lat="45.679201455786824" lon="7.594875153154135">
        <ele>1402.22</ele>
        <time>2021-06-06T14:38:49Z</time>
      </trkpt>
      <trkpt lat="45.679215788841248" lon="7.59489837102592">
        <ele>1402.22</ele>
        <time>2021-06-06T14:38:51Z</time>
      </trkpt>
      <trkpt lat="45.679220231249928" lon="7.594912284985185">
        <ele>1401.74</ele>
        <time>2021-06-06T14:38:52Z</time>
      </trkpt>
      <trkpt lat="45.679225930944085" lon="7.594929048791528">
        <ele>1401.74</ele>
        <time>2021-06-06T14:38:53Z</time>
      </trkpt>
      <trkpt lat="45.6793028768152" lon="7.595090316608548">
        <ele>1399.8199999999999</ele>
        <time>2021-06-06T14:39:07Z</time>
      </trkpt>
      <trkpt lat="45.679300529882312" lon="7.595291566103697">
        <ele>1396.45</ele>
        <time>2021-06-06T14:39:23Z</time>
      </trkpt>
      <trkpt lat="45.679298518225551" lon="7.59541779756546">
        <ele>1394.53</ele>
        <time>2021-06-06T14:39:34Z</time>
      </trkpt>
      <trkpt lat="45.679294243454933" lon="7.595516117289662">
        <ele>1392.6099999999999</ele>
        <time>2021-06-06T14:39:41Z</time>
      </trkpt>
      <trkpt lat="45.679227774962783" lon="7.595633463934064">
        <ele>1389.24</ele>
        <time>2021-06-06T14:39:54Z</time>
      </trkpt>
      <trkpt lat="45.679144877940416" lon="7.595681827515364">
        <ele>1387.8</ele>
        <time>2021-06-06T14:40:03Z</time>
      </trkpt>
      <trkpt lat="45.679064579308033" lon="7.59586094878614">
        <ele>1384.4400000000001</ele>
        <time>2021-06-06T14:40:20Z</time>
      </trkpt>
      <trkpt lat="45.679030632600188" lon="7.595960274338722">
        <ele>1382.03</ele>
        <time>2021-06-06T14:40:30Z</time>
      </trkpt>
      <trkpt lat="45.679005067795515" lon="7.596130762249231">
        <ele>1379.1500000000001</ele>
        <time>2021-06-06T14:40:44Z</time>
      </trkpt>
      <trkpt lat="45.679008420556784" lon="7.596176946535707">
        <ele>1378.1900000000001</ele>
        <time>2021-06-06T14:40:48Z</time>
      </trkpt>
      <trkpt lat="45.679000625386834" lon="7.5961893517524">
        <ele>1378.1900000000001</ele>
        <time>2021-06-06T14:40:49Z</time>
      </trkpt>
      <trkpt lat="45.678989393636584" lon="7.59619764983654">
        <ele>1378.1900000000001</ele>
        <time>2021-06-06T14:40:50Z</time>
      </trkpt>
      <trkpt lat="45.678964583203197" lon="7.596199158579111">
        <ele>1377.71</ele>
        <time>2021-06-06T14:40:52Z</time>
      </trkpt>
      <trkpt lat="45.678896522149444" lon="7.596222627907991">
        <ele>1377.23</ele>
        <time>2021-06-06T14:40:58Z</time>
      </trkpt>
      <trkpt lat="45.678868778049946" lon="7.59622941724956">
        <ele>1375.78</ele>
        <time>2021-06-06T14:41:18Z</time>
      </trkpt>
      <trkpt lat="45.678907334804535" lon="7.596173342317343">
        <ele>1376.26</ele>
        <time>2021-06-06T14:41:55Z</time>
      </trkpt>
      <trkpt lat="45.678952764719725" lon="7.596185496076942">
        <ele>1376.75</ele>
        <time>2021-06-06T14:41:58Z</time>
      </trkpt>
      <trkpt lat="45.678979335352778" lon="7.59620787575841">
        <ele>1376.75</ele>
        <time>2021-06-06T14:42:00Z</time>
      </trkpt>
      <trkpt lat="45.678989561274648" lon="7.596223382279277">
        <ele>1376.75</ele>
        <time>2021-06-06T14:42:01Z</time>
      </trkpt>
      <trkpt lat="45.679001295939088" lon="7.596240984275937">
        <ele>1376.75</ele>
        <time>2021-06-06T14:42:02Z</time>
      </trkpt>
      <trkpt lat="45.679053766652942" lon="7.596384650096297">
        <ele>1376.75</ele>
        <time>2021-06-06T14:42:09Z</time>
      </trkpt>
      <trkpt lat="45.679063154384494" lon="7.596403677016497">
        <ele>1376.75</ele>
        <time>2021-06-06T14:42:10Z</time>
      </trkpt>
      <trkpt lat="45.679072290658951" lon="7.596419434994459">
        <ele>1376.26</ele>
        <time>2021-06-06T14:42:11Z</time>
      </trkpt>
      <trkpt lat="45.67907958291471" lon="7.596435863524675">
        <ele>1376.26</ele>
        <time>2021-06-06T14:42:12Z</time>
      </trkpt>
      <trkpt lat="45.679086288437247" lon="7.596451286226511">
        <ele>1376.26</ele>
        <time>2021-06-06T14:42:13Z</time>
      </trkpt>
      <trkpt lat="45.67917781881988" lon="7.596697797998786">
        <ele>1374.8199999999999</ele>
        <time>2021-06-06T14:42:27Z</time>
      </trkpt>
      <trkpt lat="45.679253255948424" lon="7.59694816544652">
        <ele>1371.46</ele>
        <time>2021-06-06T14:42:41Z</time>
      </trkpt>
      <trkpt lat="45.679323747754097" lon="7.597118569537997">
        <ele>1368.0899999999999</ele>
        <time>2021-06-06T14:42:51Z</time>
      </trkpt>
      <trkpt lat="45.67937177605927" lon="7.597282687202096">
        <ele>1365.21</ele>
        <time>2021-06-06T14:43:00Z</time>
      </trkpt>
      <trkpt lat="45.679419636726379" lon="7.597413947805762">
        <ele>1361.8399999999999</ele>
        <time>2021-06-06T14:43:08Z</time>
      </trkpt>
      <trkpt lat="45.679454589262605" lon="7.597556188702583">
        <ele>1359.4400000000001</ele>
        <time>2021-06-06T14:43:15Z</time>
      </trkpt>
      <trkpt lat="45.679517285898328" lon="7.597807226702571">
        <ele>1356.5599999999999</ele>
        <time>2021-06-06T14:43:26Z</time>
      </trkpt>
      <trkpt lat="45.679537653923035" lon="7.597972769290209">
        <ele>1355.1199999999999</ele>
        <time>2021-06-06T14:43:35Z</time>
      </trkpt>
      <trkpt lat="45.679537737742066" lon="7.597987856715918">
        <ele>1354.6300000000001</ele>
        <time>2021-06-06T14:43:36Z</time>
      </trkpt>
      <trkpt lat="45.679536396637559" lon="7.598001519218087">
        <ele>1354.6300000000001</ele>
        <time>2021-06-06T14:43:37Z</time>
      </trkpt>
      <trkpt lat="45.679534636437893" lon="7.598050134256482">
        <ele>1354.1500000000001</ele>
        <time>2021-06-06T14:43:40Z</time>
      </trkpt>
      <trkpt lat="45.679555675014853" lon="7.598243923857808">
        <ele>1352.23</ele>
        <time>2021-06-06T14:43:52Z</time>
      </trkpt>
      <trkpt lat="45.679556177929044" lon="7.598345763981342">
        <ele>1351.27</ele>
        <time>2021-06-06T14:43:58Z</time>
      </trkpt>
      <trkpt lat="45.67956774495542" lon="7.598518347367644">
        <ele>1347.9100000000001</ele>
        <time>2021-06-06T14:44:11Z</time>
      </trkpt>
      <trkpt lat="45.679578389972448" lon="7.598620019853115">
        <ele>1345.98</ele>
        <time>2021-06-06T14:44:22Z</time>
      </trkpt>
      <trkpt lat="45.679583922028542" lon="7.598726553842425">
        <ele>1345.02</ele>
        <time>2021-06-06T14:44:30Z</time>
      </trkpt>
      <trkpt lat="45.679611749947071" lon="7.598991841077805">
        <ele>1341.6600000000001</ele>
        <time>2021-06-06T14:44:48Z</time>
      </trkpt>
      <trkpt lat="45.679622478783131" lon="7.599084628745914">
        <ele>1341.1800000000001</ele>
        <time>2021-06-06T14:44:54Z</time>
      </trkpt>
      <trkpt lat="45.679621053859591" lon="7.59911572560668">
        <ele>1341.1800000000001</ele>
        <time>2021-06-06T14:44:56Z</time>
      </trkpt>
      <trkpt lat="45.67962197586894" lon="7.599132154136896">
        <ele>1340.7</ele>
        <time>2021-06-06T14:44:57Z</time>
      </trkpt>
      <trkpt lat="45.679624490439892" lon="7.599149085581303">
        <ele>1340.7</ele>
        <time>2021-06-06T14:44:58Z</time>
      </trkpt>
      <trkpt lat="45.679637566208839" lon="7.599394088611007">
        <ele>1339.25</ele>
        <time>2021-06-06T14:45:14Z</time>
      </trkpt>
      <trkpt lat="45.679602026939392" lon="7.599613694474101">
        <ele>1337.8099999999999</ele>
        <time>2021-06-06T14:45:31Z</time>
      </trkpt>
      <trkpt lat="45.679555758833885" lon="7.599875964224339">
        <ele>1334.9300000000001</ele>
        <time>2021-06-06T14:45:51Z</time>
      </trkpt>
      <trkpt lat="45.6795325409621" lon="7.600053157657385">
        <ele>1332.04</ele>
        <time>2021-06-06T14:46:06Z</time>
      </trkpt>
      <trkpt lat="45.679531870409846" lon="7.600130438804627">
        <ele>1331.5599999999999</ele>
        <time>2021-06-06T14:46:12Z</time>
      </trkpt>
      <trkpt lat="45.679534217342734" lon="7.600144017487764">
        <ele>1331.5599999999999</ele>
        <time>2021-06-06T14:46:13Z</time>
      </trkpt>
      <trkpt lat="45.67953497171402" lon="7.600158853456378">
        <ele>1331.0799999999999</ele>
        <time>2021-06-06T14:46:14Z</time>
      </trkpt>
      <trkpt lat="45.679526925086975" lon="7.600255245342851">
        <ele>1330.5999999999999</ele>
        <time>2021-06-06T14:46:21Z</time>
      </trkpt>
      <trkpt lat="45.679531535133719" lon="7.60036027058959">
        <ele>1329.1600000000001</ele>
        <time>2021-06-06T14:46:28Z</time>
      </trkpt>
      <trkpt lat="45.67953203804791" lon="7.600376363843679">
        <ele>1329.1600000000001</ele>
        <time>2021-06-06T14:46:29Z</time>
      </trkpt>
      <trkpt lat="45.679542180150747" lon="7.600494716316462">
        <ele>1327.72</ele>
        <time>2021-06-06T14:46:37Z</time>
      </trkpt>
      <trkpt lat="45.679550981149077" lon="7.60058892890811">
        <ele>1326.76</ele>
        <time>2021-06-06T14:46:45Z</time>
      </trkpt>
      <trkpt lat="45.679531786590815" lon="7.600774755701423">
        <ele>1324.3499999999999</ele>
        <time>2021-06-06T14:46:58Z</time>
      </trkpt>
      <trkpt lat="45.679531451314688" lon="7.600788334384561">
        <ele>1324.3499999999999</ele>
        <time>2021-06-06T14:46:59Z</time>
      </trkpt>
      <trkpt lat="45.679531535133719" lon="7.600818760693073">
        <ele>1323.8699999999999</ele>
        <time>2021-06-06T14:47:01Z</time>
      </trkpt>
      <trkpt lat="45.679529523476958" lon="7.600835021585226">
        <ele>1323.8699999999999</ele>
        <time>2021-06-06T14:47:02Z</time>
      </trkpt>
      <trkpt lat="45.679524997249246" lon="7.60085086338222">
        <ele>1323.3900000000001</ele>
        <time>2021-06-06T14:47:03Z</time>
      </trkpt>
      <trkpt lat="45.679506724700332" lon="7.601049598306418">
        <ele>1321.47</ele>
        <time>2021-06-06T14:47:21Z</time>
      </trkpt>
      <trkpt lat="45.679523991420865" lon="7.601092262193561">
        <ele>1320.99</ele>
        <time>2021-06-06T14:47:25Z</time>
      </trkpt>
      <trkpt lat="45.679622897878289" lon="7.601286051794887">
        <ele>1320.03</ele>
        <time>2021-06-06T14:47:42Z</time>
      </trkpt>
      <trkpt lat="45.679672183468938" lon="7.60137565433979">
        <ele>1319.55</ele>
        <time>2021-06-06T14:47:50Z</time>
      </trkpt>
      <trkpt lat="45.679674865677953" lon="7.601389065384865">
        <ele>1319.55</ele>
        <time>2021-06-06T14:47:51Z</time>
      </trkpt>
      <trkpt lat="45.679680649191141" lon="7.601417480036616">
        <ele>1319.55</ele>
        <time>2021-06-06T14:47:53Z</time>
      </trkpt>
      <trkpt lat="45.679683666676283" lon="7.601431645452976">
        <ele>1319.55</ele>
        <time>2021-06-06T14:47:54Z</time>
      </trkpt>
      <trkpt lat="45.679751140996814" lon="7.601645383983851">
        <ele>1318.5899999999999</ele>
        <time>2021-06-06T14:48:11Z</time>
      </trkpt>
      <trkpt lat="45.679748123511672" lon="7.601777985692024">
        <ele>1318.0999999999999</ele>
        <time>2021-06-06T14:48:28Z</time>
      </trkpt>
      <trkpt lat="45.679719792678952" lon="7.601816458627582">
        <ele>1318.0999999999999</ele>
        <time>2021-06-06T14:48:34Z</time>
      </trkpt>
      <trkpt lat="45.679705291986465" lon="7.601829953491688">
        <ele>1318.0999999999999</ele>
        <time>2021-06-06T14:48:36Z</time>
      </trkpt>
      <trkpt lat="45.679693724960089" lon="7.601830624043942">
        <ele>1317.6199999999999</ele>
        <time>2021-06-06T14:48:54Z</time>
      </trkpt>
      <trkpt lat="45.679690623655915" lon="7.601805059239268">
        <ele>1318.0999999999999</ele>
        <time>2021-06-06T14:49:25Z</time>
      </trkpt>
      <trkpt lat="45.67969573661685" lon="7.601800616830587">
        <ele>1318.0999999999999</ele>
        <time>2021-06-06T14:50:06Z</time>
      </trkpt>
      <trkpt lat="45.679694144055247" lon="7.601800616830587">
        <ele>1318.0999999999999</ele>
        <time>2021-06-06T14:50:32Z</time>
      </trkpt>
      <trkpt lat="45.679731946438551" lon="7.601793827489018">
        <ele>1317.6199999999999</ele>
        <time>2021-06-06T14:50:47Z</time>
      </trkpt>
      <trkpt lat="45.679699424654245" lon="7.601793240755796">
        <ele>1318.0999999999999</ele>
        <time>2021-06-06T14:51:12Z</time>
      </trkpt>
      <trkpt lat="45.679735550656915" lon="7.601768346503377">
        <ele>1317.6199999999999</ele>
        <time>2021-06-06T14:51:32Z</time>
      </trkpt>
      <trkpt lat="45.679771257564425" lon="7.601777147501707">
        <ele>1318.0999999999999</ele>
        <time>2021-06-06T14:51:46Z</time>
      </trkpt>
      <trkpt lat="45.679775029420853" lon="7.601781254634261">
        <ele>1318.0999999999999</ele>
        <time>2021-06-06T14:52:33Z</time>
      </trkpt>
      <trkpt lat="45.679779220372438" lon="7.601779578253627">
        <ele>1318.0999999999999</ele>
        <time>2021-06-06T14:53:23Z</time>
      </trkpt>
      <trkpt lat="45.679784333333373" lon="7.601760551333427">
        <ele>1318.0999999999999</ele>
        <time>2021-06-06T14:53:54Z</time>
      </trkpt>
      <trkpt lat="45.679816352203488" lon="7.601826936006546">
        <ele>1317.6199999999999</ele>
        <time>2021-06-06T14:54:13Z</time>
      </trkpt>
      <trkpt lat="45.679813669994473" lon="7.601829366758466">
        <ele>1317.6199999999999</ele>
        <time>2021-06-06T14:54:29Z</time>
      </trkpt>
      <trkpt lat="45.67981643602252" lon="7.601839592680335">
        <ele>1317.6199999999999</ele>
        <time>2021-06-06T14:54:30Z</time>
      </trkpt>
      <trkpt lat="45.679826997220516" lon="7.601862978190184">
        <ele>1317.6199999999999</ele>
        <time>2021-06-06T14:54:32Z</time>
      </trkpt>
      <trkpt lat="45.679875444620848" lon="7.601928692311049">
        <ele>1317.1400000000001</ele>
        <time>2021-06-06T14:54:48Z</time>
      </trkpt>
      <trkpt lat="45.679898746311665" lon="7.601966662332416">
        <ele>1317.1400000000001</ele>
        <time>2021-06-06T14:54:54Z</time>
      </trkpt>
      <trkpt lat="45.679906122386456" lon="7.601977391168475">
        <ele>1317.1400000000001</ele>
        <time>2021-06-06T14:54:55Z</time>
      </trkpt>
      <trkpt lat="45.679921293631196" lon="7.60200597345829">
        <ele>1317.1400000000001</ele>
        <time>2021-06-06T14:54:57Z</time>
      </trkpt>
      <trkpt lat="45.680056577548385" lon="7.602237481623888">
        <ele>1315.7</ele>
        <time>2021-06-06T14:55:14Z</time>
      </trkpt>
      <trkpt lat="45.680173169821501" lon="7.602444179356098">
        <ele>1314.26</ele>
        <time>2021-06-06T14:55:29Z</time>
      </trkpt>
      <trkpt lat="45.680310381576419" lon="7.602676274254918">
        <ele>1313.3</ele>
        <time>2021-06-06T14:55:45Z</time>
      </trkpt>
      <trkpt lat="45.680352626368403" lon="7.60279362089932">
        <ele>1312.8199999999999</ele>
        <time>2021-06-06T14:55:52Z</time>
      </trkpt>
      <trkpt lat="45.680358074605465" lon="7.602810217067599">
        <ele>1312.8199999999999</ele>
        <time>2021-06-06T14:55:53Z</time>
      </trkpt>
      <trkpt lat="45.680362936109304" lon="7.602827064692974">
        <ele>1312.8199999999999</ele>
        <time>2021-06-06T14:55:54Z</time>
      </trkpt>
      <trkpt lat="45.680403672158718" lon="7.603014148771763">
        <ele>1312.8199999999999</ele>
        <time>2021-06-06T14:56:05Z</time>
      </trkpt>
      <trkpt lat="45.680406773462892" lon="7.603030074387789">
        <ele>1312.8199999999999</ele>
        <time>2021-06-06T14:56:06Z</time>
      </trkpt>
      <trkpt lat="45.680409958586097" lon="7.603045916184783">
        <ele>1312.3399999999999</ele>
        <time>2021-06-06T14:56:07Z</time>
      </trkpt>
      <trkpt lat="45.680472068488598" lon="7.60328521952033">
        <ele>1311.8599999999999</ele>
        <time>2021-06-06T14:56:21Z</time>
      </trkpt>
      <trkpt lat="45.68050685338676" lon="7.603462496772409">
        <ele>1311.3800000000001</ele>
        <time>2021-06-06T14:56:31Z</time>
      </trkpt>
      <trkpt lat="45.680514145642519" lon="7.603481020778418">
        <ele>1311.3800000000001</ele>
        <time>2021-06-06T14:56:32Z</time>
      </trkpt>
      <trkpt lat="45.680566197261214" lon="7.603621333837509">
        <ele>1310.9000000000001</ele>
        <time>2021-06-06T14:56:40Z</time>
      </trkpt>
      <trkpt lat="45.680570136755705" lon="7.603637678548694">
        <ele>1310.9000000000001</ele>
        <time>2021-06-06T14:56:41Z</time>
      </trkpt>
      <trkpt lat="45.680584637448192" lon="7.603717390447855">
        <ele>1310.9000000000001</ele>
        <time>2021-06-06T14:56:46Z</time>
      </trkpt>
      <trkpt lat="45.680584469810128" lon="7.603734321892262">
        <ele>1310.9000000000001</ele>
        <time>2021-06-06T14:56:47Z</time>
      </trkpt>
      <trkpt lat="45.680583799257874" lon="7.603753264993429">
        <ele>1310.9000000000001</ele>
        <time>2021-06-06T14:56:48Z</time>
      </trkpt>
      <trkpt lat="45.680586649104953" lon="7.603895841166377">
        <ele>1310.9000000000001</ele>
        <time>2021-06-06T14:56:56Z</time>
      </trkpt>
      <trkpt lat="45.680564353242517" lon="7.604116285219789">
        <ele>1310.4100000000001</ele>
        <time>2021-06-06T14:57:07Z</time>
      </trkpt>
      <trkpt lat="45.680562257766724" lon="7.604136317968369">
        <ele>1310.4100000000001</ele>
        <time>2021-06-06T14:57:08Z</time>
      </trkpt>
      <trkpt lat="45.68055865354836" lon="7.604155763983727">
        <ele>1310.4100000000001</ele>
        <time>2021-06-06T14:57:09Z</time>
      </trkpt>
      <trkpt lat="45.680556893348694" lon="7.604174287989736">
        <ele>1310.4100000000001</ele>
        <time>2021-06-06T14:57:10Z</time>
      </trkpt>
      <trkpt lat="45.680556055158377" lon="7.604193650186062">
        <ele>1310.4100000000001</ele>
        <time>2021-06-06T14:57:11Z</time>
      </trkpt>
      <trkpt lat="45.680615231394768" lon="7.604444017633796">
        <ele>1309.9300000000001</ele>
        <time>2021-06-06T14:57:25Z</time>
      </trkpt>
      <trkpt lat="45.680710868909955" lon="7.60466119274497">
        <ele>1310.4100000000001</ele>
        <time>2021-06-06T14:57:40Z</time>
      </trkpt>
      <trkpt lat="45.680761830881238" lon="7.604917846620083">
        <ele>1309.9300000000001</ele>
        <time>2021-06-06T14:57:55Z</time>
      </trkpt>
      <trkpt lat="45.680814385414124" lon="7.605052962899208">
        <ele>1309.45</ele>
        <time>2021-06-06T14:58:05Z</time>
      </trkpt>
      <trkpt lat="45.680818241089582" lon="7.605067547410727">
        <ele>1309.45</ele>
        <time>2021-06-06T14:58:06Z</time>
      </trkpt>
      <trkpt lat="45.680823354050517" lon="7.605083473026753">
        <ele>1309.45</ele>
        <time>2021-06-06T14:58:07Z</time>
      </trkpt>
      <trkpt lat="45.680874399840832" lon="7.605311376973987">
        <ele>1308.97</ele>
        <time>2021-06-06T14:58:22Z</time>
      </trkpt>
      <trkpt lat="45.680888732895255" lon="7.605348760262132">
        <ele>1308.97</ele>
        <time>2021-06-06T14:58:41Z</time>
      </trkpt>
      <trkpt lat="45.680897450074553" lon="7.605342390015721">
        <ele>1307.53</ele>
        <time>2021-06-06T14:59:08Z</time>
      </trkpt>
      <trkpt lat="45.680909268558025" lon="7.605515643954277">
        <ele>1309.45</ele>
        <time>2021-06-06T14:59:27Z</time>
      </trkpt>
      <trkpt lat="45.680910274386406" lon="7.605560654774308">
        <ele>1309.45</ele>
        <time>2021-06-06T14:59:30Z</time>
      </trkpt>
      <trkpt lat="45.680921757593751" lon="7.605622261762619">
        <ele>1308.97</ele>
        <time>2021-06-06T14:59:35Z</time>
      </trkpt>
      <trkpt lat="45.681040864437819" lon="7.60581387206912">
        <ele>1307.53</ele>
        <time>2021-06-06T14:59:52Z</time>
      </trkpt>
      <trkpt lat="45.681121163070202" lon="7.605989053845406">
        <ele>1306.0899999999999</ele>
        <time>2021-06-06T15:00:05Z</time>
      </trkpt>
      <trkpt lat="45.681124264374375" lon="7.606004476547241">
        <ele>1306.0899999999999</ele>
        <time>2021-06-06T15:00:06Z</time>
      </trkpt>
      <trkpt lat="45.681126862764359" lon="7.606019144877791">
        <ele>1306.0899999999999</ele>
        <time>2021-06-06T15:00:07Z</time>
      </trkpt>
      <trkpt lat="45.681129628792405" lon="7.60603322647512">
        <ele>1305.6099999999999</ele>
        <time>2021-06-06T15:00:08Z</time>
      </trkpt>
      <trkpt lat="45.681176148355007" lon="7.606226848438382">
        <ele>1304.6500000000001</ele>
        <time>2021-06-06T15:00:22Z</time>
      </trkpt>
      <trkpt lat="45.681179165840149" lon="7.606379650533199">
        <ele>1304.1700000000001</ele>
        <time>2021-06-06T15:00:37Z</time>
      </trkpt>
      <trkpt lat="45.681177070364356" lon="7.606394235044718">
        <ele>1304.1700000000001</ele>
        <time>2021-06-06T15:00:38Z</time>
      </trkpt>
      <trkpt lat="45.681175393983722" lon="7.606410495936871">
        <ele>1304.1700000000001</ele>
        <time>2021-06-06T15:00:39Z</time>
      </trkpt>
      <trkpt lat="45.681103141978383" lon="7.606726158410311">
        <ele>1304.6500000000001</ele>
        <time>2021-06-06T15:01:01Z</time>
      </trkpt>
      <trkpt lat="45.681089479476213" lon="7.607028828933835">
        <ele>1304.1700000000001</ele>
        <time>2021-06-06T15:01:22Z</time>
      </trkpt>
      <trkpt lat="45.681177154183388" lon="7.607273496687412">
        <ele>1303.6900000000001</ele>
        <time>2021-06-06T15:01:42Z</time>
      </trkpt>
      <trkpt lat="45.681213531643152" lon="7.607288416475058">
        <ele>1303.6900000000001</ele>
        <time>2021-06-06T15:01:46Z</time>
      </trkpt>
      <trkpt lat="45.681259380653501" lon="7.607282716780901">
        <ele>1303.6900000000001</ele>
        <time>2021-06-06T15:01:50Z</time>
      </trkpt>
      <trkpt lat="45.681320820003748" lon="7.607260085642338">
        <ele>1303.2</ele>
        <time>2021-06-06T15:01:56Z</time>
      </trkpt>
      <trkpt lat="45.681330878287554" lon="7.607257068157196">
        <ele>1303.6900000000001</ele>
        <time>2021-06-06T15:01:57Z</time>
      </trkpt>
      <trkpt lat="45.681383432820439" lon="7.607232676818967">
        <ele>1303.6900000000001</ele>
        <time>2021-06-06T15:02:02Z</time>
      </trkpt>
      <trkpt lat="45.681429365649819" lon="7.607210045680404">
        <ele>1303.2</ele>
        <time>2021-06-06T15:02:07Z</time>
      </trkpt>
      <trkpt lat="45.681517291814089" lon="7.607176098972559">
        <ele>1303.2</ele>
        <time>2021-06-06T15:02:16Z</time>
      </trkpt>
      <trkpt lat="45.68161946721375" lon="7.60719227604568">
        <ele>1303.2</ele>
        <time>2021-06-06T15:02:26Z</time>
      </trkpt>
      <trkpt lat="45.681631788611412" lon="7.607198730111122">
        <ele>1303.2</ele>
        <time>2021-06-06T15:02:27Z</time>
      </trkpt>
      <trkpt lat="45.681643271818757" lon="7.607206525281072">
        <ele>1303.2</ele>
        <time>2021-06-06T15:02:28Z</time>
      </trkpt>
      <trkpt lat="45.681781573221087" lon="7.607333092018962">
        <ele>1303.2</ele>
        <time>2021-06-06T15:02:43Z</time>
      </trkpt>
      <trkpt lat="45.681873271241784" lon="7.607485642656684">
        <ele>1303.2</ele>
        <time>2021-06-06T15:02:57Z</time>
      </trkpt>
      <trkpt lat="45.681873271241784" lon="7.607501149177551">
        <ele>1303.2</ele>
        <time>2021-06-06T15:02:58Z</time>
      </trkpt>
      <trkpt lat="45.681870421394706" lon="7.607592595741153">
        <ele>1303.2</ele>
        <time>2021-06-06T15:03:03Z</time>
      </trkpt>
      <trkpt lat="45.681866984814405" lon="7.607607934623957">
        <ele>1303.2</ele>
        <time>2021-06-06T15:03:04Z</time>
      </trkpt>
      <trkpt lat="45.681862542405725" lon="7.607621848583221">
        <ele>1303.2</ele>
        <time>2021-06-06T15:03:05Z</time>
      </trkpt>
      <trkpt lat="45.681763719767332" lon="7.607835587114096">
        <ele>1302.72</ele>
        <time>2021-06-06T15:03:22Z</time>
      </trkpt>
      <trkpt lat="45.681622484698892" lon="7.607992077246308">
        <ele>1301.76</ele>
        <time>2021-06-06T15:03:38Z</time>
      </trkpt>
      <trkpt lat="45.681528858840466" lon="7.608178658410907">
        <ele>1300.8</ele>
        <time>2021-06-06T15:03:53Z</time>
      </trkpt>
      <trkpt lat="45.68153154104948" lon="7.608192823827267">
        <ele>1300.8</ele>
        <time>2021-06-06T15:03:54Z</time>
      </trkpt>
      <trkpt lat="45.681534223258495" lon="7.608206318691373">
        <ele>1300.8</ele>
        <time>2021-06-06T15:03:55Z</time>
      </trkpt>
      <trkpt lat="45.681538330391049" lon="7.60821838863194">
        <ele>1300.3199999999999</ele>
        <time>2021-06-06T15:03:56Z</time>
      </trkpt>
      <trkpt lat="45.681581581011415" lon="7.608282342553139">
        <ele>1300.3199999999999</ele>
        <time>2021-06-06T15:04:02Z</time>
      </trkpt>
      <trkpt lat="45.68172063678503" lon="7.608436234295368">
        <ele>1299.8399999999999</ele>
        <time>2021-06-06T15:04:19Z</time>
      </trkpt>
      <trkpt lat="45.681893639266491" lon="7.608571853488684">
        <ele>1298.8800000000001</ele>
        <time>2021-06-06T15:04:37Z</time>
      </trkpt>
      <trkpt lat="45.682036383077502" lon="7.608820544555783">
        <ele>1297.9200000000001</ele>
        <time>2021-06-06T15:04:57Z</time>
      </trkpt>
      <trkpt lat="45.682103522121906" lon="7.609109720215201">
        <ele>1297.9200000000001</ele>
        <time>2021-06-06T15:05:17Z</time>
      </trkpt>
      <trkpt lat="45.682202177122235" lon="7.609399734064937">
        <ele>1297.4400000000001</ele>
        <time>2021-06-06T15:05:39Z</time>
      </trkpt>
      <trkpt lat="45.682264035567641" lon="7.609544824808836">
        <ele>1297.4400000000001</ele>
        <time>2021-06-06T15:06:03Z</time>
      </trkpt>
      <trkpt lat="45.682272585108876" lon="7.6095777656883">
        <ele>1297.4400000000001</ele>
        <time>2021-06-06T15:06:30Z</time>
      </trkpt>
      <trkpt lat="45.682295132428408" lon="7.609614059329033">
        <ele>1297.4400000000001</ele>
        <time>2021-06-06T15:06:35Z</time>
      </trkpt>
      <trkpt lat="45.682456064969301" lon="7.609797120094299">
        <ele>1298.8800000000001</ele>
        <time>2021-06-06T15:06:56Z</time>
      </trkpt>
      <trkpt lat="45.682486826553941" lon="7.609858643263578">
        <ele>1299.3599999999999</ele>
        <time>2021-06-06T15:07:01Z</time>
      </trkpt>
      <trkpt lat="45.682492693886161" lon="7.609871299937367">
        <ele>1299.3599999999999</ele>
        <time>2021-06-06T15:07:02Z</time>
      </trkpt>
      <trkpt lat="45.682498477399349" lon="7.609884375706315">
        <ele>1299.3599999999999</ele>
        <time>2021-06-06T15:07:03Z</time>
      </trkpt>
      <trkpt lat="45.682608699426055" lon="7.610126528888941">
        <ele>1300.8</ele>
        <time>2021-06-06T15:07:24Z</time>
      </trkpt>
      <trkpt lat="45.682749850675464" lon="7.610373124480248">
        <ele>1301.76</ele>
        <time>2021-06-06T15:07:45Z</time>
      </trkpt>
      <trkpt lat="45.682854959741235" lon="7.610581163316965">
        <ele>1302.72</ele>
        <time>2021-06-06T15:08:03Z</time>
      </trkpt>
      <trkpt lat="45.682876752689481" lon="7.610585773363709">
        <ele>1303.6900000000001</ele>
        <time>2021-06-06T15:08:18Z</time>
      </trkpt>
      <trkpt lat="45.682922266423702" lon="7.610636567696929">
        <ele>1304.1700000000001</ele>
        <time>2021-06-06T15:08:45Z</time>
      </trkpt>
      <trkpt lat="45.683001894503832" lon="7.610621061176062">
        <ele>1304.6500000000001</ele>
        <time>2021-06-06T15:08:57Z</time>
      </trkpt>
      <trkpt lat="45.683077499270439" lon="7.610542858019471">
        <ele>1305.1300000000001</ele>
        <time>2021-06-06T15:09:12Z</time>
      </trkpt>
      <trkpt lat="45.683025447651744" lon="7.610441772267222">
        <ele>1307.05</ele>
        <time>2021-06-06T15:09:27Z</time>
      </trkpt>
      <trkpt lat="45.683021256700158" lon="7.610432635992765">
        <ele>1307.53</ele>
        <time>2021-06-06T15:09:58Z</time>
      </trkpt>
      <trkpt lat="45.683019831776619" lon="7.610430624336004">
        <ele>1307.53</ele>
        <time>2021-06-06T15:10:35Z</time>
      </trkpt>
      <trkpt lat="45.683060651645064" lon="7.610407238826156">
        <ele>1308.01</ele>
        <time>2021-06-06T15:10:55Z</time>
      </trkpt>
      <trkpt lat="45.683056293055415" lon="7.610346637666225">
        <ele>1308.01</ele>
        <time>2021-06-06T15:11:17Z</time>
      </trkpt>
      <trkpt lat="45.683070877566934" lon="7.610318725928664">
        <ele>1309.45</ele>
        <time>2021-06-06T15:11:40Z</time>
      </trkpt>
      <trkpt lat="45.683061489835382" lon="7.61022032238543">
        <ele>1309.9300000000001</ele>
        <time>2021-06-06T15:12:00Z</time>
      </trkpt>
      <trkpt lat="45.683173136785626" lon="7.610153770074248">
        <ele>1311.8599999999999</ele>
        <time>2021-06-06T15:12:16Z</time>
      </trkpt>
      <trkpt lat="45.683252597227693" lon="7.610214287415147">
        <ele>1313.78</ele>
        <time>2021-06-06T15:12:33Z</time>
      </trkpt>
      <trkpt lat="45.683312360197306" lon="7.610232979059219">
        <ele>1313.3</ele>
        <time>2021-06-06T15:12:41Z</time>
      </trkpt>
      <trkpt lat="45.683414367958903" lon="7.610384691506624">
        <ele>1311.3800000000001</ele>
        <time>2021-06-06T15:13:01Z</time>
      </trkpt>
      <trkpt lat="45.683418055996299" lon="7.610430289059877">
        <ele>1311.3800000000001</ele>
        <time>2021-06-06T15:13:15Z</time>
      </trkpt>
      <trkpt lat="45.683416463434696" lon="7.610458787530661">
        <ele>1310.9000000000001</ele>
        <time>2021-06-06T15:13:17Z</time>
      </trkpt>
      <trkpt lat="45.683414284139872" lon="7.610473539680243">
        <ele>1310.9000000000001</ele>
        <time>2021-06-06T15:13:18Z</time>
      </trkpt>
      <trkpt lat="45.683444039896131" lon="7.610686691477895">
        <ele>1308.01</ele>
        <time>2021-06-06T15:13:36Z</time>
      </trkpt>
      <trkpt lat="45.683588292449713" lon="7.610740419477224">
        <ele>1305.1300000000001</ele>
        <time>2021-06-06T15:13:53Z</time>
      </trkpt>
      <trkpt lat="45.683703878894448" lon="7.610928593203425">
        <ele>1302.72</ele>
        <time>2021-06-06T15:14:10Z</time>
      </trkpt>
      <trkpt lat="45.683647720143199" lon="7.611259762197733">
        <ele>1301.28</ele>
        <time>2021-06-06T15:14:31Z</time>
      </trkpt>
      <trkpt lat="45.683506736531854" lon="7.611585399135947">
        <ele>1298.4000000000001</ele>
        <time>2021-06-06T15:14:55Z</time>
      </trkpt>
      <trkpt lat="45.683415625244379" lon="7.611901983618736">
        <ele>1295.51</ele>
        <time>2021-06-06T15:15:17Z</time>
      </trkpt>
      <trkpt lat="45.683395424857736" lon="7.612211527302861">
        <ele>1292.6300000000001</ele>
        <time>2021-06-06T15:15:37Z</time>
      </trkpt>
      <trkpt lat="45.683484189212322" lon="7.612470528110862">
        <ele>1289.27</ele>
        <time>2021-06-06T15:15:55Z</time>
      </trkpt>
      <trkpt lat="45.683598937466741" lon="7.612709747627378">
        <ele>1286.3800000000001</ele>
        <time>2021-06-06T15:16:13Z</time>
      </trkpt>
      <trkpt lat="45.683696921914816" lon="7.612963132560253">
        <ele>1283.02</ele>
        <time>2021-06-06T15:16:31Z</time>
      </trkpt>
      <trkpt lat="45.683796079829335" lon="7.613222384825349">
        <ele>1280.1300000000001</ele>
        <time>2021-06-06T15:16:50Z</time>
      </trkpt>
      <trkpt lat="45.68387889303267" lon="7.613487923517823">
        <ele>1276.77</ele>
        <time>2021-06-06T15:17:10Z</time>
      </trkpt>
      <trkpt lat="45.683898171409965" lon="7.613636199384928">
        <ele>1275.8099999999999</ele>
        <time>2021-06-06T15:17:21Z</time>
      </trkpt>
      <trkpt lat="45.68389062769711" lon="7.613643324002624">
        <ele>1275.3299999999999</ele>
        <time>2021-06-06T15:17:22Z</time>
      </trkpt>
      <trkpt lat="45.683881156146526" lon="7.613644078373909">
        <ele>1275.3299999999999</ele>
        <time>2021-06-06T15:17:23Z</time>
      </trkpt>
      <trkpt lat="45.68387252278626" lon="7.613636953756213">
        <ele>1275.3299999999999</ele>
        <time>2021-06-06T15:17:24Z</time>
      </trkpt>
      <trkpt lat="45.683865733444691" lon="7.613624632358551">
        <ele>1274.8499999999999</ele>
        <time>2021-06-06T15:17:25Z</time>
      </trkpt>
      <trkpt lat="45.683840923011303" lon="7.613573418930173">
        <ele>1274.3599999999999</ele>
        <time>2021-06-06T15:17:29Z</time>
      </trkpt>
      <trkpt lat="45.683832289651036" lon="7.61356788687408">
        <ele>1274.3599999999999</ele>
        <time>2021-06-06T15:17:30Z</time>
      </trkpt>
      <trkpt lat="45.683822482824326" lon="7.613566042855382">
        <ele>1274.3599999999999</ele>
        <time>2021-06-06T15:17:31Z</time>
      </trkpt>
      <trkpt lat="45.683812173083425" lon="7.613568641245365">
        <ele>1274.3599999999999</ele>
        <time>2021-06-06T15:17:32Z</time>
      </trkpt>
      <trkpt lat="45.683801444247365" lon="7.61357325129211">
        <ele>1274.3599999999999</ele>
        <time>2021-06-06T15:17:33Z</time>
      </trkpt>
      <trkpt lat="45.683784177526832" lon="7.613603761419654">
        <ele>1273.8800000000001</ele>
        <time>2021-06-06T15:17:36Z</time>
      </trkpt>
      <trkpt lat="45.683844862505794" lon="7.61364558711648">
        <ele>1273.4000000000001</ele>
        <time>2021-06-06T15:17:48Z</time>
      </trkpt>
      <trkpt lat="45.683860117569566" lon="7.613624297082424">
        <ele>1273.4000000000001</ele>
        <time>2021-06-06T15:18:29Z</time>
      </trkpt>
      <trkpt lat="45.683853244408965" lon="7.613648269325495">
        <ele>1273.4000000000001</ele>
        <time>2021-06-06T15:18:55Z</time>
      </trkpt>
      <trkpt lat="45.683861626312137" lon="7.61364215053618">
        <ele>1273.4000000000001</ele>
        <time>2021-06-06T15:19:24Z</time>
      </trkpt>
      <trkpt lat="45.683853663504124" lon="7.613677438348532">
        <ele>1273.4000000000001</ele>
        <time>2021-06-06T15:19:37Z</time>
      </trkpt>
      <trkpt lat="45.683816280215979" lon="7.613719683140516">
        <ele>1273.4000000000001</ele>
        <time>2021-06-06T15:19:42Z</time>
      </trkpt>
      <trkpt lat="45.683821979910135" lon="7.613745918497443">
        <ele>1272.4400000000001</ele>
        <time>2021-06-06T15:20:04Z</time>
      </trkpt>
      <trkpt lat="45.683828769251704" lon="7.613728735595942">
        <ele>1272.4400000000001</ele>
        <time>2021-06-06T15:20:45Z</time>
      </trkpt>
      <trkpt lat="45.683847879990935" lon="7.613739464432001">
        <ele>1272.4400000000001</ele>
        <time>2021-06-06T15:21:05Z</time>
      </trkpt>
      <trkpt lat="45.683938656002283" lon="7.613761257380247">
        <ele>1272.4400000000001</ele>
        <time>2021-06-06T15:21:23Z</time>
      </trkpt>
      <trkpt lat="45.683988779783249" lon="7.613901486620307">
        <ele>1271.96</ele>
        <time>2021-06-06T15:21:39Z</time>
      </trkpt>
      <trkpt lat="45.684046447277069" lon="7.614148920401931">
        <ele>1269.0799999999999</ele>
        <time>2021-06-06T15:22:00Z</time>
      </trkpt>
      <trkpt lat="45.684130853042006" lon="7.614343967288733">
        <ele>1267.6400000000001</ele>
        <time>2021-06-06T15:22:19Z</time>
      </trkpt>
      <trkpt lat="45.684225233271718" lon="7.614543791860342">
        <ele>1266.1900000000001</ele>
        <time>2021-06-06T15:22:41Z</time>
      </trkpt>
      <trkpt lat="45.684297066181898" lon="7.614680416882038">
        <ele>1265.71</ele>
        <time>2021-06-06T15:22:57Z</time>
      </trkpt>
      <trkpt lat="45.684368060901761" lon="7.614879067987204">
        <ele>1265.71</ele>
        <time>2021-06-06T15:23:20Z</time>
      </trkpt>
      <trkpt lat="45.684366384521127" lon="7.614878481253982">
        <ele>1262.8299999999999</ele>
        <time>2021-06-06T15:23:34Z</time>
      </trkpt>
      <trkpt lat="45.684370324015617" lon="7.61486766859889">
        <ele>1265.23</ele>
        <time>2021-06-06T15:23:54Z</time>
      </trkpt>
      <trkpt lat="45.684363953769207" lon="7.614844618365169">
        <ele>1263.79</ele>
        <time>2021-06-06T15:24:15Z</time>
      </trkpt>
      <trkpt lat="45.684366635978222" lon="7.614841433241963">
        <ele>1263.79</ele>
        <time>2021-06-06T15:24:46Z</time>
      </trkpt>
      <trkpt lat="45.684366384521127" lon="7.614839421585202">
        <ele>1263.3099999999999</ele>
        <time>2021-06-06T15:24:59Z</time>
      </trkpt>
    </trkseg>
  </trk>

</gpx>